# Wetter Temperatur Luftdruck Luftfeuchtigkeit Sichtweite Windgeschwindigkeit Windrichtung Zeit
1 Clouds 17 1018 51 10000 1.5 290 08:44 14.07.2020
2 Clouds 16 1018 63 10000 1.5 0 08:25 14.07.2020
3 Clouds 16 1018 63 10000 1.5 0 07:59 14.07.2020
4 Clouds 16 1018 59 10000 1 0 07:38 14.07.2020
5 Clouds 16 1018 59 10000 1.28 326 07:18 14.07.2020
6 Clouds 16 1018 59 10000 1.28 326 06:47 14.07.2020
7 Clouds 16 1019 59 10000 0.5 260 06:24 14.07.2020
8 Clouds 16 1019 59 10000 0.5 330 05:36 14.07.2020
9 Clouds 17 1019 55 10000 1 360 04:38 14.07.2020
10 Clouds 17 1020 55 10000 1.5 340 03:48 14.07.2020
11 Clouds 18 1020 52 10000 1 0 03:18 14.07.2020
12 Clouds 19 1020 52 10000 1.5 330 02:26 14.07.2020
13 Clouds 19 1020 48 10000 2.6 330 01:38 14.07.2020
14 Clouds 20 1020 48 10000 3.1 330 00:56 14.07.2020
15 Clouds 20 1020 48 10000 3.1 330 00:37 14.07.2020
16 Clouds 20 1020 45 10000 3.1 330 00:19 14.07.2020
17 Clouds 21 1020 43 10000 4.6 340 23:38 13.07.2020
18 Clouds 22 1020 40 10000 5.7 340 23:19 13.07.2020
19 Clouds 22 1020 43 10000 6.2 340 22:56 13.07.2020
20 Clouds 23 1020 43 10000 6.2 340 22:38 13.07.2020
21 Clouds 23 1020 36 10000 4.1 340 22:19 13.07.2020
22 Clouds 23 1020 36 10000 4.1 340 21:54 13.07.2020
23 Clouds 24 1019 29 10000 4.1 330 21:36 13.07.2020
24 Clouds 25 1019 29 10000 4.1 340 21:18 13.07.2020
25 Clouds 26 1020 24 10000 3.1 10 20:41 13.07.2020
26 Clouds 26 1020 24 10000 3.1 10 20:41 13.07.2020
27 Clouds 26 1020 24 10000 2.6 330 20:23 13.07.2020
28 Clouds 26 1020 24 10000 2.6 330 20:23 13.07.2020
29 Clouds 27 1020 24 10000 2.6 330 19:58 13.07.2020
30 Clouds 27 1020 24 10000 2.6 320 19:39 13.07.2020
31 Clouds 27 1020 24 10000 3.1 350 19:21 13.07.2020
32 Clouds 27 1020 22 10000 2.1 350 18:55 13.07.2020
33 Clear 27 1020 22 10000 2.1 350 18:36 13.07.2020
34 Clear 27 1020 24 10000 2.1 0 18:18 13.07.2020
35 Clear 27 1020 24 10000 3.6 350 17:42 13.07.2020
36 Clear 27 1021 26 10000 2.6 350 17:21 13.07.2020
37 Clear 27 1021 26 10000 2.6 40 16:59 13.07.2020
38 Clear 27 1021 26 10000 2.6 40 16:41 13.07.2020
39 Clear 27 1021 27 10000 3.6 320 16:20 13.07.2020
40 Clear 26 1021 27 10000 3.6 320 15:58 13.07.2020
41 Clear 26 1022 29 10000 2.6 10 15:39 13.07.2020
42 Clear 26 1022 31 10000 2.1 0 15:20 13.07.2020
43 Clear 26 1022 31 10000 2.1 0 15:20 13.07.2020
44 Clear 25 1022 31 10000 2.1 0 14:57 13.07.2020
45 Clear 25 1022 31 10000 3.1 320 14:57 13.07.2020
46 Clear 25 1022 31 10000 3.1 320 14:39 13.07.2020
47 Clear 25 1023 33 10000 2.1 0 14:20 13.07.2020
48 Clear 24 1023 33 10000 2.1 340 13:55 13.07.2020
49 Clear 24 1023 33 10000 2.1 340 13:37 13.07.2020
50 Clear 24 1023 36 10000 2.6 330 13:18 13.07.2020
51 Clear 24 1024 38 10000 3.1 360 12:42 13.07.2020
52 Clear 23 1024 43 10000 4.1 350 12:22 13.07.2020
53 Clear 22 1024 43 10000 4.1 360 11:54 13.07.2020
54 Clear 22 1024 43 10000 4.1 360 11:36 13.07.2020
55 Clear 21 1024 49 10000 3.1 360 11:18 13.07.2020
56 Clear 20 1024 52 10000 2.6 350 10:38 13.07.2020
57 Clear 20 1024 59 10000 2.6 10 10:19 13.07.2020
58 Clear 19 1024 63 10000 2.6 350 09:42 13.07.2020
59 Clouds 17 1024 67 10000 2.6 10 09:23 13.07.2020
60 Clouds 17 1024 67 10000 3.1 360 08:51 13.07.2020
61 Clouds 16 1024 67 10000 3.1 360 08:33 13.07.2020
62 Clouds 15 1024 71 10000 2.1 340 07:42 13.07.2020
63 Clouds 14 1024 76 10000 3.1 340 07:19 13.07.2020
64 Clouds 14 1024 71 10000 3.1 340 06:42 13.07.2020
65 Clouds 14 1024 71 10000 2.6 360 06:22 13.07.2020
66 Clouds 16 1024 62 10000 3.6 350 04:37 13.07.2020
67 Clouds 18 1024 55 10000 2.6 350 01:57 13.07.2020
68 Clouds 19 1024 52 10000 3.1 360 01:28 13.07.2020
69 Clouds 19 1024 48 10000 3.6 360 00:58 13.07.2020
70 Clouds 20 1024 48 10000 3.1 10 00:26 13.07.2020
71 Clouds 20 1024 49 10000 3.1 360 23:58 12.07.2020
72 Clouds 20 1024 49 10000 3.1 360 23:40 12.07.2020
73 Clouds 21 1024 43 10000 2.6 10 23:21 12.07.2020
74 Clouds 21 1024 40 10000 3.1 360 22:54 12.07.2020
75 Clouds 22 1024 40 10000 3.1 360 22:36 12.07.2020
76 Clouds 23 1024 38 10000 3.1 360 22:18 12.07.2020
77 Clouds 23 1024 38 10000 4.1 20 21:42 12.07.2020
78 Clouds 24 1024 36 10000 4.1 20 21:20 12.07.2020
79 Clouds 24 1024 33 10000 4.6 40 20:59 12.07.2020
80 Clouds 24 1024 33 10000 4.6 40 20:40 12.07.2020
81 Clouds 25 1024 33 10000 3.6 50 20:20 12.07.2020
82 Clouds 25 1024 31 10000 3.1 20 19:58 12.07.2020
83 Clouds 25 1024 31 10000 3.1 20 19:39 12.07.2020
84 Clouds 25 1024 29 10000 3.6 30 19:18 12.07.2020
85 Clouds 25 1024 31 10000 3.6 50 18:43 12.07.2020
86 Clouds 25 1024 31 10000 3.6 50 18:43 12.07.2020
87 Clouds 25 1024 29 10000 3.1 350 18:21 12.07.2020
88 Clouds 25 1025 29 10000 3.1 0 17:58 12.07.2020
89 Clouds 25 1025 29 10000 3.1 0 17:37 12.07.2020
90 Clouds 25 1025 31 10000 3.1 0 17:19 12.07.2020
91 Clouds 25 1025 33 10000 4.1 40 16:45 12.07.2020
92 Clear 25 1025 33 10000 4.6 50 16:21 12.07.2020
93 Clear 25 1025 33 10000 4.6 50 16:21 12.07.2020
94 Clear 24 1025 33 10000 2.1 0 15:46 12.07.2020
95 Clear 24 1026 35 10000 3.6 30 15:27 12.07.2020
96 Clear 23 1026 35 10000 3.1 10 14:57 12.07.2020
97 Clouds 23 1026 35 10000 3.1 10 14:39 12.07.2020
98 Clouds 23 1026 40 10000 4.1 20 14:19 12.07.2020
99 Clouds 22 1026 37 10000 3.6 50 13:39 12.07.2020
100 Clouds 22 1026 40 10000 3.6 20 13:21 12.07.2020
101 Clouds 22 1026 40 10000 3.6 20 12:56 12.07.2020
102 Clouds 21 1026 46 10000 3.6 10 12:38 12.07.2020
103 Clouds 21 1027 46 10000 3.6 40 12:18 12.07.2020
104 Clouds 20 1027 52 10000 3.6 20 11:44 12.07.2020
105 Clouds 19 1027 55 10000 5.1 10 11:21 12.07.2020
106 Clouds 18 1027 59 10000 4.6 10 10:44 12.07.2020
107 Clear 18 1027 63 10000 4.6 20 10:23 12.07.2020
108 Clear 17 1027 67 10000 4.6 30 09:59 12.07.2020
109 Clear 17 1027 67 10000 4.6 30 09:40 12.07.2020
110 Clear 15 1027 72 10000 3.6 30 09:21 12.07.2020
111 Clear 15 1027 72 10000 3.6 30 08:55 12.07.2020
112 Clear 15 1027 76 10000 3.6 10 08:37 12.07.2020
113 Clear 15 1026 71 10000 4.1 30 08:18 12.07.2020
114 Clear 14 1026 71 10000 4.6 30 07:45 12.07.2020
115 Clear 13 1026 71 10000 4.1 30 07:27 12.07.2020
116 Clear 13 1026 76 10000 1.5 340 06:53 12.07.2020
117 Clear 13 1026 76 10000 2.1 360 06:22 12.07.2020
118 Clear 13 1026 76 10000 2.6 360 05:57 12.07.2020
119 Clear 14 1026 62 10000 4.1 40 04:57 12.07.2020
120 Clear 14 1026 66 10000 3.1 360 04:28 12.07.2020
121 Clear 14 1026 66 10000 2.1 10 03:44 12.07.2020
122 Clear 15 1026 62 10000 2.6 340 03:23 12.07.2020
123 Clear 16 1027 55 10000 2.6 10 01:52 12.07.2020
124 Clear 17 1027 55 10000 3.1 10 00:59 12.07.2020
125 Clear 17 1027 51 10000 4.1 10 00:39 12.07.2020
126 Clouds 17 1026 51 10000 4.1 360 00:20 12.07.2020
127 Clouds 19 1026 42 10000 3.6 350 23:40 11.07.2020
128 Clouds 19 1026 42 10000 3.6 350 23:20 11.07.2020
129 Clouds 19 1026 42 10000 3.6 350 22:57 11.07.2020
130 Clouds 20 1025 40 10000 4.1 360 22:37 11.07.2020
131 Clouds 20 1025 40 10000 4.1 350 22:19 11.07.2020
132 Clouds 21 1025 37 10000 4.6 350 21:43 11.07.2020
133 Clear 22 1025 35 10000 3.6 360 21:24 11.07.2020
134 Clear 22 1025 33 10000 4.1 10 20:59 11.07.2020
135 Clear 22 1025 33 10000 4.1 10 20:41 11.07.2020
136 Clear 23 1025 31 10000 3.1 360 20:21 11.07.2020
137 Clear 23 1024 31 10000 4.1 320 19:59 11.07.2020
138 Clear 23 1024 31 10000 4.1 320 19:41 11.07.2020
139 Clear 23 1024 31 10000 3.1 20 19:23 11.07.2020
140 Clear 23 1025 28 10000 4.1 10 18:57 11.07.2020
141 Clear 24 1025 28 10000 4.1 10 18:39 11.07.2020
142 Clear 24 1025 31 10000 3.1 10 18:39 11.07.2020
143 Clear 24 1025 31 10000 3.1 10 18:19 11.07.2020
144 Clear 24 1025 31 10000 3.1 360 17:56 11.07.2020
145 Clear 23 1025 31 10000 3.1 360 17:38 11.07.2020
146 Clear 24 1025 29 10000 2.6 320 17:19 11.07.2020
147 Clear 23 1025 31 10000 3.1 300 16:43 11.07.2020
148 Clear 23 1025 31 10000 3.1 300 16:24 11.07.2020
149 Clear 23 1025 33 10000 2.1 320 15:58 11.07.2020
150 Clear 23 1025 33 10000 2.1 320 15:40 11.07.2020
151 Clear 22 1025 35 10000 2.6 360 15:20 11.07.2020
152 Clear 22 1025 35 10000 2.6 360 14:57 11.07.2020
153 Clear 22 1025 35 10000 2.6 340 14:37 11.07.2020
154 Clear 22 1025 33 10000 3.6 340 14:19 11.07.2020
155 Clear 21 1026 35 10000 2.6 0 13:42 11.07.2020
156 Clear 21 1025 37 10000 2.6 0 13:22 11.07.2020
157 Clear 20 1025 37 10000 2.6 0 12:57 11.07.2020
158 Clear 20 1026 45 10000 3.6 330 12:39 11.07.2020
159 Clear 20 1025 42 10000 2.6 330 12:20 11.07.2020
160 Clear 20 1025 45 10000 3.1 10 11:55 11.07.2020
161 Clear 19 1025 45 10000 3.1 10 11:36 11.07.2020
162 Clouds 19 1025 45 10000 2.6 350 11:18 11.07.2020
163 Clouds 19 1025 52 10000 1.5 0 10:40 11.07.2020
164 Clear 18 1025 63 10000 1.5 0 10:22 11.07.2020
165 Clear 17 1025 67 10000 2.1 10 09:44 11.07.2020
166 Clear 16 1025 72 10000 1 0 09:20 11.07.2020
167 Clear 14 1024 76 10000 1.5 360 08:49 11.07.2020
168 Clear 14 1024 82 10000 1 0 08:31 11.07.2020
169 Clouds 13 1024 72 10000 2.6 360 07:59 11.07.2020
170 Clear 12 1024 81 10000 1.84 352 07:40 11.07.2020
171 Clear 12 1024 81 10000 0.5 0 07:19 11.07.2020
172 Clear 12 1023 81 10000 2.1 290 06:53 11.07.2020
173 Clear 12 1023 81 10000 1.5 240 06:20 11.07.2020
174 Clear 12 1023 76 10000 1.5 330 05:21 11.07.2020
175 Clear 12 1023 76 10000 2.6 330 04:55 11.07.2020
176 Clear 12 1023 76 10000 2.1 320 04:32 11.07.2020
177 Clear 14 1023 62 10000 2.1 320 02:59 11.07.2020
178 Clear 14 1023 62 10000 2.1 320 02:37 11.07.2020
179 Clouds 15 1022 58 10000 3.1 320 01:37 11.07.2020
180 Clouds 15 1022 58 10000 2.6 330 01:18 11.07.2020
181 Clouds 16 1022 59 10000 3.1 320 00:41 11.07.2020
182 Clouds 16 1021 55 10000 3.1 330 00:22 11.07.2020
183 Clouds 17 1021 51 10000 3.6 330 23:57 10.07.2020
184 Clouds 17 1021 51 10000 3.6 330 23:39 10.07.2020
185 Clouds 17 1021 51 10000 4.1 330 23:19 10.07.2020
186 Clouds 18 1020 48 10000 3.6 320 22:46 10.07.2020
187 Clouds 18 1020 45 10000 5.1 320 22:21 10.07.2020
188 Clouds 19 1019 42 10000 5.1 320 21:58 10.07.2020
189 Clouds 20 1019 42 10000 5.1 320 21:37 10.07.2020
190 Clouds 20 1019 43 10000 5.1 320 21:19 10.07.2020
191 Clouds 21 1019 40 10000 5.7 320 20:43 10.07.2020
192 Clouds 22 1018 40 10000 5.1 310 20:24 10.07.2020
193 Clouds 22 1018 40 10000 5.1 310 20:23 10.07.2020
194 Clouds 22 1018 40 10000 6.2 330 19:59 10.07.2020
195 Clouds 22 1018 40 10000 6.2 330 19:40 10.07.2020
196 Clouds 22 1018 40 10000 5.1 320 19:21 10.07.2020
197 Clouds 22 1018 43 10000 5.1 320 18:42 10.07.2020
198 Clouds 22 1018 43 10000 5.1 310 18:22 10.07.2020
199 Clouds 23 1017 43 10000 4.6 290 17:59 10.07.2020
200 Clouds 23 1017 43 10000 4.6 290 17:40 10.07.2020
201 Clouds 23 1017 40 10000 4.1 300 17:22 10.07.2020
202 Clouds 23 1017 40 10000 4.1 300 17:22 10.07.2020
203 Clouds 23 1017 40 10000 4.1 300 16:56 10.07.2020
204 Clouds 22 1017 40 10000 4.1 300 16:37 10.07.2020
205 Clouds 23 1017 46 10000 4.1 300 16:18 10.07.2020
206 Clouds 22 1017 46 10000 4.6 280 15:42 10.07.2020
207 Clouds 21 1017 49 10000 4.1 280 15:18 10.07.2020
208 Clouds 21 1017 49 10000 4.1 300 14:43 10.07.2020
209 Clouds 21 1017 52 10000 5.1 300 14:22 10.07.2020
210 Clouds 20 1017 60 10000 5.1 290 13:58 10.07.2020
211 Clouds 20 1017 60 10000 5.1 290 13:40 10.07.2020
212 Clouds 20 1017 64 10000 4.6 310 13:22 10.07.2020
213 Clouds 20 1017 64 10000 4.6 310 12:59 10.07.2020
214 Clouds 20 1016 68 10000 4.6 310 12:40 10.07.2020
215 Clouds 20 1016 68 10000 4.6 270 12:22 10.07.2020
216 Clouds 19 1016 68 10000 5.1 280 11:57 10.07.2020
217 Clouds 19 1016 68 10000 5.1 280 11:38 10.07.2020
218 Clouds 19 1016 68 10000 5.1 280 11:18 10.07.2020
219 Clouds 19 1015 77 10000 4.6 260 10:41 10.07.2020
220 Clouds 19 1015 77 10000 4.6 270 10:21 10.07.2020
221 Clouds 19 1014 72 10000 4.1 270 09:55 10.07.2020
222 Clouds 18 1014 72 10000 4.1 270 09:36 10.07.2020
223 Clouds 18 1014 72 10000 4.1 270 09:18 10.07.2020
224 Clouds 18 1014 72 10000 3.6 260 08:54 10.07.2020
225 Clouds 17 1014 72 10000 3.6 260 08:36 10.07.2020
226 Clouds 18 1014 72 10000 3.1 270 08:18 10.07.2020
227 Clouds 18 1014 72 10000 4.6 260 07:41 10.07.2020
228 Clouds 18 1013 72 10000 4.1 260 07:20 10.07.2020
229 Clouds 18 1013 72 10000 4.6 260 06:45 10.07.2020
230 Clouds 18 1013 72 10000 3.6 280 05:54 10.07.2020
231 Clouds 18 1013 77 10000 3.6 280 04:31 10.07.2020
232 Clouds 19 1013 77 10000 3.1 280 03:31 10.07.2020
233 Clouds 19 1013 77 10000 1.5 290 02:49 10.07.2020
234 Clear 20 1013 77 10000 3.1 300 01:47 10.07.2020
235 Clear 22 1013 68 10000 5.1 340 00:45 10.07.2020
236 Clear 23 1012 57 10000 4.1 310 00:18 10.07.2020
237 Clear 25 1012 50 10000 2.6 310 23:45 09.07.2020
238 Clear 26 1011 47 10000 1.5 330 23:21 09.07.2020
239 Clear 26 1011 34 10000 2.6 280 22:58 09.07.2020
240 Clear 26 1011 34 10000 2.6 280 22:40 09.07.2020
241 Clear 27 1011 34 10000 4.6 250 22:21 09.07.2020
242 Clouds 28 1011 30 10000 5.7 240 21:56 09.07.2020
243 Clouds 28 1011 30 10000 5.7 240 21:38 09.07.2020
244 Clear 29 1011 32 10000 6.2 230 21:19 09.07.2020
245 Clear 29 1011 30 10000 5.7 220 20:44 09.07.2020
246 Clear 30 1011 30 10000 6.2 240 20:25 09.07.2020
247 Clear 30 1011 31 10000 6.2 220 19:58 09.07.2020
248 Clear 31 1011 31 10000 6.2 220 19:40 09.07.2020
249 Clear 31 1012 31 10000 6.7 240 19:20 09.07.2020
250 Clear 31 1012 31 10000 7.7 230 18:42 09.07.2020
251 Clear 32 1012 27 10000 7.2 210 18:22 09.07.2020
252 Clear 31 1013 29 10000 5.1 240 17:55 09.07.2020
253 Clear 31 1013 29 10000 5.1 240 17:37 09.07.2020
254 Clear 31 1013 29 10000 5.7 250 17:18 09.07.2020
255 Clear 31 1013 33 10000 5.1 250 16:55 09.07.2020
256 Clear 31 1013 33 10000 5.1 250 16:37 09.07.2020
257 Clear 31 1014 35 10000 5.7 240 16:19 09.07.2020
258 Clear 30 1014 39 10000 4.6 250 15:54 09.07.2020
259 Clear 30 1014 39 10000 4.6 250 15:36 09.07.2020
260 Clear 29 1015 42 10000 4.1 230 15:18 09.07.2020
261 Clear 29 1015 45 10000 5.1 250 14:54 09.07.2020
262 Clear 28 1015 45 10000 5.1 250 14:36 09.07.2020
263 Clouds 28 1015 47 10000 5.7 260 14:18 09.07.2020
264 Clouds 27 1016 50 10000 5.1 240 13:41 09.07.2020
265 Clouds 26 1016 53 10000 5.1 260 13:21 09.07.2020
266 Clouds 26 1016 60 10000 4.1 250 12:58 09.07.2020
267 Clouds 26 1016 60 10000 4.1 250 12:39 09.07.2020
268 Clouds 24 1016 60 10000 5.1 230 12:20 09.07.2020
269 Clouds 23 1016 68 10000 4.1 260 11:54 09.07.2020
270 Clouds 24 1016 68 10000 4.1 260 11:36 09.07.2020
271 Clouds 23 1017 64 10000 4.1 250 11:18 09.07.2020
272 Clear 22 1017 68 10000 3.6 260 10:42 09.07.2020
273 Clear 22 1017 72 10000 3.6 250 10:23 09.07.2020
274 Clear 21 1016 72 10000 3.1 250 09:58 09.07.2020
275 Clear 21 1016 72 10000 3.1 250 09:40 09.07.2020
276 Clouds 20 1017 77 10000 2.6 250 09:21 09.07.2020
277 Clouds 19 1017 82 10000 2.6 240 08:45 09.07.2020
278 Clouds 18 1017 82 10000 1.5 240 08:25 09.07.2020
279 Clouds 17 1017 88 10000 2.1 260 07:47 09.07.2020
280 Clouds 17 1017 88 10000 1 0 07:24 09.07.2020
281 Clouds 16 1017 87 10000 0.5 230 06:54 09.07.2020
282 Clouds 16 1017 88 10000 1.5 210 06:20 09.07.2020
283 Clouds 17 1017 88 10000 2.6 230 05:26 09.07.2020
284 Clouds 17 1017 82 10000 1 0 04:28 09.07.2020
285 Clouds 19 1017 77 10000 1.5 0 02:33 09.07.2020
286 Clouds 20 1017 72 10000 1 0 01:39 09.07.2020
287 Clouds 21 1017 68 10000 2.6 320 00:55 09.07.2020
288 Clouds 21 1017 68 10000 3.1 320 00:25 09.07.2020
289 Clouds 22 1017 64 10000 2.6 300 23:47 08.07.2020
290 Clouds 23 1017 60 10000 2.6 310 23:28 08.07.2020
291 Clouds 23 1017 60 10000 2.6 310 22:59 08.07.2020
292 Clouds 23 1017 60 10000 3.6 320 22:41 08.07.2020
293 Clouds 24 1017 57 10000 3.6 310 22:23 08.07.2020
294 Clouds 24 1017 57 10000 3.6 310 21:58 08.07.2020
295 Clouds 25 1017 53 10000 3.6 300 21:39 08.07.2020
296 Clouds 26 1016 50 10000 3.6 320 21:21 08.07.2020
297 Clouds 26 1016 50 10000 4.1 320 20:58 08.07.2020
298 Clouds 26 1016 50 10000 4.1 320 20:39 08.07.2020
299 Clouds 26 1016 47 10000 3.6 310 20:21 08.07.2020
300 Clouds 27 1016 47 10000 3.6 290 19:43 08.07.2020
301 Clouds 27 1017 44 10000 4.1 270 19:24 08.07.2020
302 Clouds 27 1017 44 10000 4.6 260 18:58 08.07.2020
303 Clouds 27 1017 44 10000 4.6 260 18:40 08.07.2020
304 Clouds 27 1017 44 10000 5.1 290 18:20 08.07.2020
305 Clouds 27 1017 47 10000 4.1 290 17:56 08.07.2020
306 Clouds 27 1017 47 10000 4.1 290 17:37 08.07.2020
307 Clouds 27 1017 50 10000 5.1 290 17:19 08.07.2020
308 Clouds 27 1017 50 10000 4.6 290 16:54 08.07.2020
309 Clouds 27 1017 50 10000 4.6 290 16:36 08.07.2020
310 Clouds 26 1017 53 10000 5.1 290 16:18 08.07.2020
311 Clouds 26 1017 53 10000 5.1 270 15:56 08.07.2020
312 Clouds 26 1017 53 10000 5.1 270 15:37 08.07.2020
313 Clouds 26 1017 53 10000 4.6 240 15:18 08.07.2020
314 Clouds 26 1017 50 10000 5.1 270 14:42 08.07.2020
315 Clouds 26 1017 50 10000 5.7 280 14:20 08.07.2020
316 Clouds 25 1017 50 10000 4.6 260 13:45 08.07.2020
317 Clouds 24 1018 53 10000 5.1 240 13:27 08.07.2020
318 Clouds 25 1018 53 10000 5.1 240 12:58 08.07.2020
319 Clouds 24 1018 50 10000 5.1 230 12:40 08.07.2020
320 Clouds 23 1018 53 10000 5.1 250 12:19 08.07.2020
321 Clouds 22 1018 56 10000 5.7 230 11:39 08.07.2020
322 Clouds 22 1018 52 10000 5.1 260 11:21 08.07.2020
323 Clouds 21 1018 56 10000 4.1 260 10:59 08.07.2020
324 Clouds 20 1018 56 10000 4.1 260 10:41 08.07.2020
325 Clouds 19 1018 55 10000 3.6 230 10:22 08.07.2020
326 Clouds 18 1018 52 10000 3.6 230 09:44 08.07.2020
327 Clouds 17 1018 59 10000 4.1 240 09:24 08.07.2020
328 Clouds 16 1018 72 10000 3.1 230 08:44 08.07.2020
329 Clouds 15 1018 82 10000 2.1 230 08:25 08.07.2020
330 Clouds 14 1018 76 10000 2.73 262 07:51 08.07.2020
331 Clouds 13 1018 82 10000 1 160 07:25 08.07.2020
332 Clouds 13 1018 82 10000 2.16 253 06:59 08.07.2020
333 Clouds 13 1018 82 10000 2.16 253 06:39 08.07.2020
334 Clouds 12 1018 76 10000 1.89 258 06:20 08.07.2020
335 Clouds 13 1018 82 10000 1.89 258 05:44 08.07.2020
336 Clouds 13 1018 82 10000 1.89 258 05:44 08.07.2020
337 Clouds 14 1019 76 10000 1 340 04:44 08.07.2020
338 Clear 15 1019 67 10000 1 0 03:30 08.07.2020
339 Clear 17 1019 63 10000 1.5 0 01:59 08.07.2020
340 Clear 18 1020 59 10000 2.6 310 01:37 08.07.2020
341 Clear 18 1019 52 10000 2.6 310 00:50 08.07.2020
342 Clear 19 1019 48 10000 1.5 310 00:19 08.07.2020
343 Clear 19 1019 45 10000 2.6 320 23:43 07.07.2020
344 Clear 20 1019 43 10000 3.6 320 23:21 07.07.2020
345 Clear 21 1019 40 10000 3.1 320 22:55 07.07.2020
346 Clear 20 1019 43 10000 3.6 320 22:55 07.07.2020
347 Clear 22 1019 40 10000 3.1 320 22:37 07.07.2020
348 Clear 22 1019 38 10000 3.1 320 22:18 07.07.2020
349 Clear 23 1018 33 10000 3.1 330 21:42 07.07.2020
350 Clear 24 1018 33 10000 3.1 290 21:22 07.07.2020
351 Clear 24 1019 31 10000 2.6 320 20:59 07.07.2020
352 Clear 25 1019 31 10000 2.6 320 20:41 07.07.2020
353 Clear 25 1019 29 10000 3.1 310 20:23 07.07.2020
354 Clear 25 1019 29 10000 3.1 310 19:58 07.07.2020
355 Clear 25 1019 31 10000 2.6 260 19:39 07.07.2020
356 Clear 25 1019 33 10000 3.6 290 19:19 07.07.2020
357 Clear 25 1019 31 10000 3.6 330 18:55 07.07.2020
358 Clear 25 1019 31 10000 3.6 330 18:37 07.07.2020
359 Clear 25 1019 31 10000 3.6 220 18:18 07.07.2020
360 Clear 24 1020 33 10000 2.1 0 17:55 07.07.2020
361 Clear 24 1020 33 10000 2.1 0 17:36 07.07.2020
362 Clear 24 1020 35 10000 2.6 0 17:18 07.07.2020
363 Clear 24 1020 38 10000 2.1 220 16:42 07.07.2020
364 Clear 24 1021 40 10000 2.6 0 16:22 07.07.2020
365 Clear 23 1021 37 10000 3.1 240 15:55 07.07.2020
366 Clear 23 1021 37 10000 3.1 240 15:37 07.07.2020
367 Clear 23 1021 37 10000 2.1 0 15:18 07.07.2020
368 Clear 22 1021 40 10000 3.6 300 14:42 07.07.2020
369 Clear 22 1022 40 10000 2.1 0 14:24 07.07.2020
370 Clear 21 1022 40 10000 1.5 0 13:44 07.07.2020
371 Clear 21 1022 43 10000 2.1 30 13:21 07.07.2020
372 Clear 21 1022 45 10000 2.1 310 12:57 07.07.2020
373 Clear 20 1022 45 10000 2.1 310 12:38 07.07.2020
374 Clouds 20 1022 45 10000 2.1 0 12:20 07.07.2020
375 Clouds 19 1022 48 10000 2.6 270 11:44 07.07.2020
376 Clouds 19 1023 55 10000 2.1 0 11:22 07.07.2020
377 Clouds 19 1023 55 10000 2.1 0 10:58 07.07.2020
378 Clear 18 1023 59 10000 1.5 0 10:40 07.07.2020
379 Clear 18 1023 63 10000 1.5 0 10:21 07.07.2020
380 Clear 17 1023 72 10000 1 0 09:54 07.07.2020
381 Clear 16 1023 72 10000 1 0 09:36 07.07.2020
382 Clear 15 1023 77 10000 1.5 260 09:18 07.07.2020
383 Clear 14 1023 76 10000 1 0 08:39 07.07.2020
384 Clear 13 1023 76 10000 0.23 241 08:19 07.07.2020
385 Clear 11 1023 87 10000 0.5 340 07:38 07.07.2020
386 Clear 11 1023 87 10000 1 340 07:20 07.07.2020
387 Clear 10 1023 87 10000 1 0 06:48 07.07.2020
388 Clear 10 1023 87 10000 0.5 0 06:27 07.07.2020
389 Clear 10 1023 87 10000 0.5 0 05:47 07.07.2020
390 Clear 11 1023 81 10000 1.4 349 04:58 07.07.2020
391 Clear 11 1023 76 10000 1 120 04:25 07.07.2020
392 Clear 12 1024 76 10000 1.88 349 03:34 07.07.2020
393 Clouds 14 1024 67 10000 2.1 320 01:58 07.07.2020
394 Clouds 15 1024 62 10000 2.1 320 01:21 07.07.2020
395 Clouds 15 1024 62 10000 2.6 330 00:42 07.07.2020
396 Clouds 15 1024 55 10000 2.1 320 00:22 07.07.2020
397 Clouds 16 1024 55 10000 1.5 320 23:44 06.07.2020
398 Clouds 16 1024 55 10000 1.5 320 23:26 06.07.2020
399 Clouds 17 1023 51 10000 1.5 310 22:59 06.07.2020
400 Clouds 17 1023 48 10000 2.1 310 22:40 06.07.2020
401 Clouds 18 1023 48 10000 3.1 310 22:19 06.07.2020
402 Clouds 18 1023 42 10000 3.6 310 21:57 06.07.2020
403 Clouds 19 1023 42 10000 3.6 310 21:37 06.07.2020
404 Clouds 19 1022 40 10000 4.1 290 21:19 06.07.2020
405 Clouds 20 1022 40 10000 4.1 300 20:55 06.07.2020
406 Clouds 20 1022 40 10000 4.1 300 20:36 06.07.2020
407 Clouds 20 1022 42 10000 4.1 300 20:18 06.07.2020
408 Clouds 21 1022 42 10000 5.1 310 19:54 06.07.2020
409 Clouds 21 1022 42 10000 5.1 310 19:36 06.07.2020
410 Clouds 21 1022 37 10000 5.1 310 19:18 06.07.2020
411 Clouds 21 1022 40 10000 5.7 310 18:41 06.07.2020
412 Clouds 21 1022 40 10000 4.6 300 18:23 06.07.2020
413 Clouds 22 1021 40 10000 6.2 310 17:58 06.07.2020
414 Clouds 22 1021 40 10000 6.2 310 17:40 06.07.2020
415 Clouds 22 1021 40 10000 5.7 300 17:20 06.07.2020
416 Clouds 21 1021 40 10000 5.7 290 16:43 06.07.2020
417 Clouds 21 1021 37 10000 5.7 300 16:24 06.07.2020
418 Clouds 21 1021 37 10000 5.7 300 15:57 06.07.2020
419 Clouds 20 1021 40 10000 6.2 280 15:39 06.07.2020
420 Clouds 21 1021 37 10000 5.7 280 15:21 06.07.2020
421 Clouds 21 1021 37 10000 5.7 280 14:55 06.07.2020
422 Clouds 20 1021 40 10000 5.7 280 14:37 06.07.2020
423 Clouds 21 1021 40 10000 5.7 280 14:37 06.07.2020
424 Clouds 20 1021 37 10000 5.1 280 14:18 06.07.2020
425 Clouds 20 1021 42 10000 4.6 280 13:44 06.07.2020
426 Clouds 20 1021 45 10000 4.6 280 13:24 06.07.2020
427 Clouds 19 1021 52 10000 5.1 270 12:56 06.07.2020
428 Clouds 19 1021 52 10000 5.1 270 12:38 06.07.2020
429 Clouds 18 1021 52 10000 5.1 280 12:18 06.07.2020
430 Clouds 18 1021 59 10000 4.6 280 11:42 06.07.2020
431 Clouds 17 1021 59 10000 4.6 280 11:24 06.07.2020
432 Clouds 17 1021 63 10000 3.6 280 10:59 06.07.2020
433 Clouds 16 1021 63 10000 3.6 280 10:41 06.07.2020
434 Clouds 16 1021 67 10000 4.6 270 10:21 06.07.2020
435 Clouds 16 1020 72 10000 4.1 260 09:55 06.07.2020
436 Clouds 15 1020 72 10000 4.1 260 09:37 06.07.2020
437 Clouds 14 1020 71 10000 4.1 270 09:19 06.07.2020
438 Clouds 14 1020 71 10000 4.1 270 09:19 06.07.2020
439 Clouds 14 1020 71 10000 3.6 250 08:41 06.07.2020
440 Clouds 13 1020 76 10000 3.6 250 08:22 06.07.2020
441 Clouds 12 1019 81 10000 3.6 250 07:54 06.07.2020
442 Clouds 12 1019 81 10000 3.6 250 07:35 06.07.2020
443 Clouds 11 1019 81 10000 3.6 240 06:57 06.07.2020
444 Clouds 12 1019 81 10000 3.6 240 06:39 06.07.2020
445 Clouds 12 1019 87 10000 4.1 280 06:19 06.07.2020
446 Clear 12 1019 76 10000 3.1 250 05:29 06.07.2020
447 Clear 13 1019 76 10000 3.6 250 04:48 06.07.2020
448 Clear 14 1019 67 10000 4.6 270 02:58 06.07.2020
449 Clouds 15 1019 67 10000 4.6 270 02:19 06.07.2020
450 Clouds 16 1018 72 10000 5.1 290 01:22 06.07.2020
451 Clouds 18 1017 72 10000 4.1 300 00:33 06.07.2020
452 Clouds 19 1017 72 10000 4.1 290 23:59 05.07.2020
453 Clouds 19 1017 72 10000 4.1 290 23:40 05.07.2020
454 Clouds 19 1017 72 10000 5.7 290 23:22 05.07.2020
455 Clouds 20 1017 72 10000 5.7 290 22:59 05.07.2020
456 Clouds 20 1017 68 10000 5.1 290 22:39 05.07.2020
457 Clouds 21 1016 68 10000 5.7 300 22:19 05.07.2020
458 Clouds 21 1016 68 10000 5.7 300 21:57 05.07.2020
459 Clouds 22 1016 64 10000 5.1 290 21:38 05.07.2020
460 Clouds 22 1015 69 10000 6.2 230 21:18 05.07.2020
461 Rain 23 1015 64 10000 7.2 230 20:57 05.07.2020
462 Rain 23 1015 64 10000 7.2 230 20:38 05.07.2020
463 Clouds 23 1015 64 10000 6.7 240 20:20 05.07.2020
464 Clouds 23 1017 69 10000 6.7 250 19:42 05.07.2020
465 Clouds 23 1016 64 10000 6.7 230 19:21 05.07.2020
466 Clouds 24 1016 64 10000 6.2 240 18:56 05.07.2020
467 Clouds 23 1016 64 10000 6.2 240 18:37 05.07.2020
468 Clouds 23 1016 64 10000 7.7 230 18:19 05.07.2020
469 Clouds 24 1016 64 10000 7.2 240 17:43 05.07.2020
470 Clouds 24 1016 60 10000 7.2 250 17:20 05.07.2020
471 Clouds 24 1016 60 10000 7.2 250 16:59 05.07.2020
472 Clouds 24 1016 60 10000 7.2 250 16:40 05.07.2020
473 Clouds 24 1016 60 10000 4.6 220 16:21 05.07.2020
474 Clouds 23 1016 64 10000 5.7 220 15:41 05.07.2020
475 Clouds 23 1016 64 10000 5.7 220 15:20 05.07.2020
476 Clouds 23 1016 64 10000 5.7 220 14:59 05.07.2020
477 Clouds 23 1016 64 10000 6.2 220 14:40 05.07.2020
478 Clouds 23 1017 64 10000 6.7 230 14:20 05.07.2020
479 Clouds 23 1017 64 10000 7.2 210 13:41 05.07.2020
480 Clouds 22 1017 64 10000 5.1 220 13:23 05.07.2020
481 Clouds 22 1017 68 10000 6.2 210 12:46 05.07.2020
482 Clouds 22 1017 68 10000 6.2 220 12:25 05.07.2020
483 Clouds 21 1017 68 10000 6.2 210 11:58 05.07.2020
484 Clouds 21 1017 68 10000 6.2 210 11:39 05.07.2020
485 Clouds 21 1017 73 10000 5.7 220 11:21 05.07.2020
486 Clouds 20 1017 77 10000 5.7 210 10:58 05.07.2020
487 Clouds 20 1017 77 10000 5.7 210 10:39 05.07.2020
488 Clouds 20 1017 72 10000 6.7 240 10:19 05.07.2020
489 Clouds 20 1017 72 10000 6.7 240 09:55 05.07.2020
490 Clouds 19 1017 77 10000 6.2 240 09:37 05.07.2020
491 Clouds 19 1017 77 10000 7.2 230 09:18 05.07.2020
492 Clouds 19 1016 82 10000 7.2 230 08:43 05.07.2020
493 Clouds 19 1016 82 10000 5.1 220 08:25 05.07.2020
494 Clouds 19 1016 82 10000 4.6 220 07:47 05.07.2020
495 Clouds 19 1016 82 10000 6.7 230 07:29 05.07.2020
496 Clouds 18 1016 82 10000 4.6 230 06:50 05.07.2020
497 Clouds 18 1017 88 10000 6.2 210 05:29 05.07.2020
498 Clouds 19 1017 77 10000 6.7 230 03:31 05.07.2020
499 Clouds 19 1018 82 10000 5.7 230 02:41 05.07.2020
500 Clouds 20 1018 77 10000 7.2 220 02:18 05.07.2020
501 Clouds 20 1018 77 10000 5.7 220 01:33 05.07.2020
502 Clouds 20 1018 73 10000 7.2 220 00:59 05.07.2020
503 Clouds 20 1018 73 10000 7.2 220 00:40 05.07.2020
504 Clouds 20 1018 73 10000 6.7 220 00:20 05.07.2020
505 Clouds 21 1018 73 10000 6.2 230 23:47 04.07.2020
506 Clouds 21 1018 73 10000 6.2 230 23:28 04.07.2020
507 Clouds 21 1017 73 10000 6.2 220 22:57 04.07.2020
508 Clouds 21 1017 73 10000 6.2 220 22:37 04.07.2020
509 Clouds 21 1018 68 10000 6.2 230 22:19 04.07.2020
510 Clouds 22 1017 68 10000 6.2 230 21:43 04.07.2020
511 Clouds 22 1017 68 10000 6.7 230 21:23 04.07.2020
512 Clouds 22 1017 68 10000 6.7 230 20:58 04.07.2020
513 Clouds 22 1018 64 10000 6.7 230 20:40 04.07.2020
514 Clouds 22 1017 64 10000 6.2 220 20:20 04.07.2020
515 Clouds 22 1017 68 10000 7.7 220 19:45 04.07.2020
516 Clouds 23 1018 60 10000 7.2 230 19:22 04.07.2020
517 Clouds 22 1018 60 10000 7.2 230 18:59 04.07.2020
518 Clouds 23 1018 60 10000 7.2 230 18:41 04.07.2020
519 Clouds 23 1018 60 10000 5.7 220 18:21 04.07.2020
520 Clouds 23 1018 60 10000 7.2 230 17:44 04.07.2020
521 Clouds 23 1018 60 10000 6.2 210 17:26 04.07.2020
522 Clouds 23 1018 60 10000 6.2 210 16:58 04.07.2020
523 Clouds 23 1018 60 10000 6.2 230 16:39 04.07.2020
524 Clouds 23 1018 64 10000 7.7 220 16:20 04.07.2020
525 Clouds 22 1018 60 10000 7.2 210 15:56 04.07.2020
526 Clouds 23 1018 60 10000 7.2 210 15:37 04.07.2020
527 Clouds 22 1018 60 10000 7.2 220 15:19 04.07.2020
528 Clouds 22 1018 56 10000 6.7 200 14:55 04.07.2020
529 Clouds 23 1018 56 10000 6.7 200 14:36 04.07.2020
530 Clouds 22 1018 60 10000 6.7 210 14:18 04.07.2020
531 Clouds 22 1019 64 10000 6.2 210 13:41 04.07.2020
532 Clouds 22 1019 60 10000 7.2 210 13:18 04.07.2020
533 Clouds 20 1019 64 10000 5.1 220 12:43 04.07.2020
534 Clouds 20 1019 60 10000 5.7 220 12:23 04.07.2020
535 Clouds 21 1019 60 10000 5.7 220 11:59 04.07.2020
536 Clouds 20 1019 60 10000 6.7 200 11:40 04.07.2020
537 Clouds 19 1019 63 10000 6.2 200 11:21 04.07.2020
538 Clouds 18 1019 63 10000 6.2 200 10:54 04.07.2020
539 Clouds 18 1019 63 10000 6.2 200 10:36 04.07.2020
540 Clouds 18 1019 72 10000 5.1 210 10:18 04.07.2020
541 Clouds 17 1019 67 10000 4.6 220 09:40 04.07.2020
542 Clouds 16 1019 67 10000 5.1 230 09:20 04.07.2020
543 Clouds 16 1019 72 10000 5.7 230 08:50 04.07.2020
544 Clouds 15 1019 72 10000 5.7 230 08:32 04.07.2020
545 Clouds 15 1019 72 10000 5.7 230 07:56 04.07.2020
546 Clouds 15 1019 72 10000 4.6 210 07:38 04.07.2020
547 Clouds 14 1019 72 10000 5.7 230 06:57 04.07.2020
548 Clouds 15 1019 67 10000 5.7 230 06:23 04.07.2020
549 Clouds 15 1019 72 10000 4.1 230 05:41 04.07.2020
550 Clouds 15 1019 72 10000 5.7 230 05:19 04.07.2020
551 Clouds 16 1020 63 10000 5.1 230 03:49 04.07.2020
552 Clouds 16 1020 59 10000 1.5 230 02:40 04.07.2020
553 Clouds 16 1020 59 10000 1.5 190 01:39 04.07.2020
554 Clouds 17 1020 55 10000 2.1 230 00:48 04.07.2020
555 Clouds 17 1020 55 10000 2.1 240 00:30 04.07.2020
556 Clouds 18 1020 49 10000 4.1 260 23:57 03.07.2020
557 Clouds 18 1020 49 10000 4.1 260 23:39 03.07.2020
558 Clouds 19 1019 49 10000 4.1 250 23:18 03.07.2020
559 Clouds 20 1019 43 10000 3.6 260 22:41 03.07.2020
560 Clouds 20 1019 46 10000 3.1 220 22:23 03.07.2020
561 Clouds 21 1019 46 10000 3.1 220 21:58 03.07.2020
562 Clouds 22 1019 43 10000 1 0 21:38 03.07.2020
563 Clouds 22 1019 40 10000 4.1 220 21:19 03.07.2020
564 Clouds 22 1019 43 10000 2.1 260 20:42 03.07.2020
565 Clouds 22 1019 43 10000 2.1 260 20:42 03.07.2020
566 Clouds 22 1019 43 10000 2.1 260 20:42 03.07.2020
567 Clouds 23 1019 40 10000 4.1 210 20:24 03.07.2020
568 Clouds 22 1019 43 10000 5.1 240 19:56 03.07.2020
569 Clouds 22 1019 40 10000 4.1 260 19:38 03.07.2020
570 Clouds 22 1019 40 10000 4.1 260 19:18 03.07.2020
571 Clouds 22 1020 46 10000 4.1 250 18:42 03.07.2020
572 Clouds 22 1020 46 10000 4.1 250 18:23 03.07.2020
573 Clouds 22 1020 43 10000 4.1 260 17:56 03.07.2020
574 Clouds 22 1020 43 10000 4.1 260 17:37 03.07.2020
575 Clouds 22 1020 43 10000 4.1 260 17:19 03.07.2020
576 Clouds 22 1020 43 10000 4.1 260 17:19 03.07.2020
577 Clouds 22 1020 43 10000 3.6 250 16:40 03.07.2020
578 Clouds 22 1020 49 10000 4.6 240 16:20 03.07.2020
579 Clouds 22 1020 49 10000 3.6 260 15:44 03.07.2020
580 Clouds 22 1020 49 10000 4.1 250 15:23 03.07.2020
581 Clouds 22 1021 49 10000 4.6 250 14:57 03.07.2020
582 Clouds 22 1021 49 10000 4.6 250 14:38 03.07.2020
583 Clouds 21 1021 52 10000 4.6 260 14:19 03.07.2020
584 Clouds 21 1021 49 10000 4.6 260 13:43 03.07.2020
585 Clouds 20 1021 59 10000 3.6 260 13:25 03.07.2020
586 Clouds 20 1021 59 10000 3.6 230 12:45 03.07.2020
587 Clouds 20 1021 59 10000 3.6 260 12:24 03.07.2020
588 Clouds 19 1021 63 10000 4.1 260 11:58 03.07.2020
589 Clouds 18 1021 63 10000 4.1 260 11:40 03.07.2020
590 Clouds 19 1021 72 10000 2.6 250 11:21 03.07.2020
591 Clouds 18 1021 77 10000 3.6 240 10:56 03.07.2020
592 Clouds 17 1021 77 10000 3.6 240 10:37 03.07.2020
593 Clouds 16 1021 77 10000 3.1 250 10:19 03.07.2020
594 Clouds 16 1021 82 10000 3.6 250 09:54 03.07.2020
595 Clouds 16 1021 82 10000 3.6 250 09:36 03.07.2020
596 Clouds 15 1021 77 10000 4.6 270 09:18 03.07.2020
597 Clouds 14 1020 82 10000 4.6 260 08:39 03.07.2020
598 Clear 14 1020 82 10000 3.1 260 08:18 03.07.2020
599 Clear 13 1020 87 10000 2.6 240 07:48 03.07.2020
600 Clear 13 1020 82 10000 3.1 250 07:26 03.07.2020
601 Clear 12 1020 82 10000 3.1 250 06:49 03.07.2020
602 Clear 12 1019 82 10000 2.6 250 06:18 03.07.2020
603 Clear 13 1019 82 10000 2.1 260 04:53 03.07.2020
604 Clear 14 1019 72 10000 1.5 280 03:28 03.07.2020
605 Clear 15 1019 77 10000 2.1 290 02:47 03.07.2020
606 Clouds 15 1019 67 10000 2.1 300 02:25 03.07.2020
607 Clear 16 1018 67 10000 2.1 300 01:28 03.07.2020
608 Clear 17 1018 67 10000 2.1 290 00:50 03.07.2020
609 Clear 17 1018 67 10000 2.1 290 00:32 03.07.2020
610 Clear 18 1017 63 10000 1.5 300 23:47 02.07.2020
611 Clear 18 1017 59 10000 1.5 300 23:20 02.07.2020
612 Clear 18 1017 59 10000 1.5 300 22:58 02.07.2020
613 Clouds 18 1017 59 10000 2.1 300 22:40 02.07.2020
614 Clear 19 1016 59 10000 1.5 310 22:20 02.07.2020
615 Clear 19 1016 59 10000 1.5 310 21:57 02.07.2020
616 Clouds 19 1016 56 10000 2.6 310 21:39 02.07.2020
617 Clouds 20 1016 52 10000 2.6 320 21:19 02.07.2020
618 Clouds 21 1016 49 10000 5.1 290 20:57 02.07.2020
619 Clouds 21 1016 52 10000 2.6 320 20:57 02.07.2020
620 Clouds 21 1016 49 10000 5.1 290 20:39 02.07.2020
621 Clouds 21 1016 52 10000 4.1 300 20:18 02.07.2020
622 Clouds 21 1016 56 10000 5.1 280 19:42 02.07.2020
623 Clouds 21 1016 52 10000 4.6 280 19:23 02.07.2020
624 Clouds 20 1015 59 10000 4.6 310 18:58 02.07.2020
625 Clouds 21 1015 59 10000 4.6 310 18:40 02.07.2020
626 Clouds 21 1015 60 10000 5.1 300 18:21 02.07.2020
627 Clouds 21 1015 52 10000 5.1 300 17:55 02.07.2020
628 Clouds 22 1015 52 10000 5.1 300 17:36 02.07.2020
629 Clouds 22 1015 49 10000 4.6 280 17:18 02.07.2020
630 Clouds 22 1015 56 10000 5.1 310 16:42 02.07.2020
631 Rain 22 1014 49 10000 4.1 260 16:20 02.07.2020
632 Clouds 22 1014 49 10000 3.6 220 15:57 02.07.2020
633 Clouds 22 1014 49 10000 3.6 220 15:38 02.07.2020
634 Clouds 22 1014 52 10000 3.6 240 15:20 02.07.2020
635 Clouds 21 1014 60 10000 4.1 250 14:45 02.07.2020
636 Clouds 20 1014 59 10000 5.1 260 14:23 02.07.2020
637 Clouds 20 1014 59 10000 5.1 260 13:57 02.07.2020
638 Clouds 19 1014 63 10000 4.1 260 13:38 02.07.2020
639 Clouds 19 1014 68 10000 3.1 300 13:19 02.07.2020
640 Clouds 19 1014 68 10000 3.1 300 12:56 02.07.2020
641 Clouds 19 1014 72 10000 4.1 240 12:38 02.07.2020
642 Clouds 18 1014 77 10000 4.6 260 12:19 02.07.2020
643 Clouds 18 1014 82 10000 3.1 250 11:41 02.07.2020
644 Clouds 17 1014 82 10000 3.1 260 11:23 02.07.2020
645 Clouds 16 1014 93 10000 2.6 280 10:45 02.07.2020
646 Rain 16 1013 93 3500 4.1 250 10:27 02.07.2020
647 Clouds 16 1013 82 10000 3.1 290 09:56 02.07.2020
648 Clouds 16 1013 82 10000 3.1 290 09:37 02.07.2020
649 Clouds 17 1012 82 10000 4.1 250 09:19 02.07.2020
650 Clouds 17 1012 77 10000 3.1 240 08:42 02.07.2020
651 Clouds 17 1012 77 10000 5.1 240 08:22 02.07.2020
652 Clouds 16 1012 77 10000 5.1 240 07:55 02.07.2020
653 Clouds 16 1012 77 10000 5.1 240 07:37 02.07.2020
654 Clouds 16 1012 77 10000 5.1 230 07:18 02.07.2020
655 Clouds 16 1012 77 10000 3.6 240 06:39 02.07.2020
656 Clouds 16 1012 77 10000 4.6 240 06:19 02.07.2020
657 Rain 16 1011 77 10000 4.6 250 05:43 02.07.2020
658 Clouds 17 1011 68 10000 5.1 240 03:36 02.07.2020
659 Clouds 17 1011 68 10000 2.6 250 02:59 02.07.2020
660 Clouds 18 1011 64 10000 5.7 240 00:47 02.07.2020
661 Clouds 19 1010 68 10000 5.1 240 00:23 02.07.2020
662 Clouds 19 1010 77 10000 3.1 210 23:46 01.07.2020
663 Clouds 19 1010 77 10000 3.1 210 23:27 01.07.2020
664 Clouds 20 1010 73 10000 4.1 210 22:57 01.07.2020
665 Clouds 20 1010 73 10000 4.1 210 22:38 01.07.2020
666 Clouds 20 1009 77 10000 4.6 210 22:19 01.07.2020
667 Clouds 21 1009 77 10000 4.6 210 21:58 01.07.2020
668 Clouds 21 1009 77 10000 4.6 210 21:58 01.07.2020
669 Clouds 21 1009 73 10000 4.6 210 21:40 01.07.2020
670 Clouds 21 1009 78 10000 3.6 200 21:21 01.07.2020
671 Clouds 22 1009 78 10000 3.6 200 20:56 01.07.2020
672 Clouds 22 1009 78 10000 2.1 210 20:38 01.07.2020
673 Clouds 22 1009 78 10000 2.1 210 20:38 01.07.2020
674 Clouds 22 1009 78 10000 2.6 220 20:19 01.07.2020
675 Clouds 21 1010 83 10000 3.1 230 19:43 01.07.2020
676 Clouds 21 1010 88 10000 3.6 270 19:24 01.07.2020
677 Clouds 20 1010 88 10000 4.1 220 18:59 01.07.2020
678 Clouds 20 1010 88 10000 4.1 220 18:40 01.07.2020
679 Rain 20 1010 94 3800 4.6 230 18:21 01.07.2020
680 Rain 20 1010 88 10000 3.6 260 17:57 01.07.2020
681 Rain 20 1010 88 10000 3.6 260 17:38 01.07.2020
682 Mist 20 1010 93 4700 3.6 280 17:19 01.07.2020
683 Rain 22 1009 73 10000 5.7 210 16:46 01.07.2020
684 Rain 22 1009 73 10000 5.7 210 16:26 01.07.2020
685 Rain 22 1009 83 10000 3.6 220 15:55 01.07.2020
686 Rain 23 1009 83 10000 3.6 220 15:37 01.07.2020
687 Rain 23 1009 88 10000 4.6 260 15:19 01.07.2020
688 Rain 23 1009 77 10000 4.6 270 14:44 01.07.2020
689 Rain 23 1009 56 10000 5.1 230 14:21 01.07.2020
690 Rain 23 1009 56 10000 6.2 240 13:58 01.07.2020
691 Rain 23 1009 56 10000 6.2 240 13:39 01.07.2020
692 Clouds 23 1009 64 10000 4.6 220 13:20 01.07.2020
693 Clouds 23 1009 64 10000 5.7 210 12:57 01.07.2020
694 Clouds 22 1009 64 10000 5.7 210 12:38 01.07.2020
695 Clouds 22 1009 64 10000 5.1 210 12:20 01.07.2020
696 Clouds 22 1009 68 10000 6.2 220 11:42 01.07.2020
697 Clouds 22 1009 73 10000 6.7 210 11:23 01.07.2020
698 Clouds 21 1009 68 10000 6.7 220 10:58 01.07.2020
699 Clouds 21 1009 68 10000 6.7 220 10:40 01.07.2020
700 Clouds 21 1009 68 10000 5.7 210 10:21 01.07.2020
701 Clouds 20 1009 72 10000 5.7 220 09:54 01.07.2020
702 Clouds 20 1009 72 10000 5.7 220 09:36 01.07.2020
703 Clouds 20 1009 72 10000 5.1 220 09:18 01.07.2020
704 Clouds 19 1009 72 10000 5.1 210 08:41 01.07.2020
705 Clouds 19 1009 77 10000 4.6 210 08:21 01.07.2020
706 Clouds 18 1009 82 10000 4.1 200 07:54 01.07.2020
707 Clouds 18 1009 82 10000 4.1 200 07:36 01.07.2020
708 Clouds 18 1009 82 10000 3.1 210 07:18 01.07.2020
709 Clouds 18 1009 82 10000 5.1 220 06:48 01.07.2020
710 Clouds 18 1009 77 10000 5.7 220 06:25 01.07.2020
711 Clouds 20 1009 72 10000 5.1 190 04:31 01.07.2020
712 Clouds 19 1009 72 10000 4.1 200 03:46 01.07.2020
713 Clouds 20 1009 72 10000 4.1 200 03:26 01.07.2020
714 Clouds 20 1010 68 10000 5.7 210 02:36 01.07.2020
715 Clouds 20 1010 68 10000 5.7 210 01:47 01.07.2020
716 Clouds 20 1010 68 10000 6.7 200 00:42 01.07.2020
717 Clouds 21 1010 68 10000 4.6 200 00:23 01.07.2020
718 Clouds 21 1010 68 10000 6.2 190 23:41 30.06.2020
719 Clouds 21 1010 68 10000 5.7 200 23:22 30.06.2020
720 Clouds 21 1010 68 10000 6.2 210 22:57 30.06.2020
721 Clouds 21 1010 68 10000 6.2 210 22:39 30.06.2020
722 Clouds 21 1010 64 10000 5.1 200 22:18 30.06.2020
723 Clouds 21 1010 64 10000 5.1 210 21:41 30.06.2020
724 Clouds 22 1010 60 10000 5.1 220 21:19 30.06.2020
725 Clouds 22 1010 60 10000 5.7 200 20:44 30.06.2020
726 Clouds 22 1011 60 10000 6.2 210 20:22 30.06.2020
727 Clouds 22 1011 60 10000 6.7 190 20:00 30.06.2020
728 Clouds 22 1011 60 10000 6.7 190 19:41 30.06.2020
729 Clouds 22 1011 60 10000 5.7 200 19:19 30.06.2020
730 Clouds 22 1011 60 10000 5.7 210 18:43 30.06.2020
731 Clouds 22 1011 60 10000 6.7 220 18:21 30.06.2020
732 Clouds 22 1011 60 10000 7.2 210 17:58 30.06.2020
733 Clouds 22 1011 60 10000 7.2 210 17:37 30.06.2020
734 Clouds 22 1012 60 10000 7.2 220 17:18 30.06.2020
735 Clouds 22 1012 60 10000 7.2 220 17:18 30.06.2020
736 Clouds 22 1012 56 10000 6.7 220 16:43 30.06.2020
737 Clouds 22 1012 56 10000 6.7 220 16:23 30.06.2020
738 Clouds 22 1012 56 10000 6.2 200 15:57 30.06.2020
739 Clouds 21 1012 60 10000 6.7 220 15:39 30.06.2020
740 Clouds 22 1012 56 10000 7.7 200 15:21 30.06.2020
741 Clouds 21 1012 56 10000 7.2 210 14:47 30.06.2020
742 Clouds 21 1012 56 10000 6.7 210 14:23 30.06.2020
743 Clouds 21 1012 56 10000 6.7 210 13:59 30.06.2020
744 Clouds 21 1012 56 10000 6.2 220 13:39 30.06.2020
745 Clouds 21 1012 60 10000 5.7 210 13:20 30.06.2020
746 Clouds 21 1012 56 10000 7.7 190 12:57 30.06.2020
747 Clouds 20 1012 56 10000 7.7 190 12:39 30.06.2020
748 Clouds 20 1013 56 10000 6.7 210 12:20 30.06.2020
749 Clouds 20 1013 56 10000 6.7 220 11:57 30.06.2020
750 Clouds 20 1013 56 10000 6.7 220 11:38 30.06.2020
751 Clouds 19 1013 59 10000 6.2 220 11:19 30.06.2020
752 Clouds 19 1013 59 10000 6.2 220 10:56 30.06.2020
753 Clouds 23 1015 37 10000 6.2 210 16:38 28.06.2020
754 Clouds 22 1015 40 10000 5.1 220 16:20 28.06.2020
755 Clouds 22 1015 40 10000 6.2 230 15:56 28.06.2020
756 Clouds 22 1015 40 10000 6.2 230 15:56 28.06.2020
757 Clouds 22 1015 40 10000 6.2 230 15:37 28.06.2020
758 Rain 21 1015 43 10000 5.1 210 15:18 28.06.2020
759 Rain 21 1016 46 10000 5.7 200 14:44 28.06.2020
760 Clouds 20 1016 49 10000 5.7 210 14:25 28.06.2020
761 Clouds 20 1016 49 10000 5.7 210 13:57 28.06.2020
762 Clouds 20 1016 55 10000 5.1 240 13:37 28.06.2020
763 Clouds 19 1016 55 10000 4.6 240 13:18 28.06.2020
764 Clouds 20 1016 55 10000 4.6 240 12:55 28.06.2020
765 Clouds 19 1016 55 10000 5.1 230 12:37 28.06.2020
766 Clouds 19 1016 59 10000 5.1 230 12:18 28.06.2020
767 Clouds 19 1016 59 10000 5.1 250 11:55 28.06.2020
768 Clouds 18 1016 59 10000 5.1 250 11:37 28.06.2020
769 Clouds 18 1016 59 10000 5.1 250 11:37 28.06.2020
770 Clouds 18 1016 59 10000 5.7 230 11:19 28.06.2020
771 Clouds 18 1016 59 10000 5.1 220 10:41 28.06.2020
772 Clouds 17 1016 63 10000 5.7 220 10:23 28.06.2020
773 Clouds 17 1016 63 10000 5.7 220 09:57 28.06.2020
774 Clouds 17 1015 67 10000 5.1 240 09:39 28.06.2020
775 Clouds 17 1015 67 10000 6.7 230 09:20 28.06.2020
776 Clouds 16 1015 67 10000 5.1 240 08:42 28.06.2020
777 Clouds 16 1015 72 10000 5.7 240 08:22 28.06.2020
778 Clouds 16 1014 67 10000 5.1 230 07:40 28.06.2020
779 Clouds 16 1014 67 10000 6.7 230 07:20 28.06.2020
780 Clouds 16 1013 67 10000 5.7 230 06:34 28.06.2020
781 Clouds 16 1013 67 10000 5.1 230 05:55 28.06.2020
782 Clouds 16 1013 67 10000 4.6 220 05:25 28.06.2020
783 Clouds 17 1013 63 10000 5.1 230 03:23 28.06.2020
784 Clouds 18 1012 59 10000 6.7 230 02:28 28.06.2020
785 Clouds 18 1012 59 10000 7.2 230 01:46 28.06.2020
786 Clouds 18 1012 56 10000 6.7 230 01:25 28.06.2020
787 Clouds 19 1012 56 10000 7.7 230 00:43 28.06.2020
788 Clouds 19 1013 68 10000 4.6 250 00:22 28.06.2020
789 Clouds 19 1012 77 10000 4.6 220 23:40 27.06.2020
790 Clouds 19 1012 82 10000 4.6 230 23:22 27.06.2020
791 Clouds 20 1011 77 10000 6.7 210 22:58 27.06.2020
792 Clouds 20 1011 77 10000 8.2 190 22:39 27.06.2020
793 Rain 20 1011 77 10000 6.2 200 22:19 27.06.2020
794 Rain 20 1011 77 10000 7.7 190 21:42 27.06.2020
795 Rain 20 1011 77 10000 7.2 190 21:20 27.06.2020
796 Rain 20 1011 77 10000 7.2 190 20:57 27.06.2020
797 Rain 20 1011 77 10000 7.2 200 20:37 27.06.2020
798 Clouds 20 1011 77 10000 7.2 210 20:18 27.06.2020
799 Clouds 21 1011 88 10000 3.6 240 19:54 27.06.2020
800 Clouds 22 1011 60 10000 6.2 210 19:36 27.06.2020
801 Clouds 23 1011 60 10000 6.2 210 19:18 27.06.2020
802 Clouds 23 1011 60 10000 8.2 210 18:43 27.06.2020
803 Clouds 23 1011 60 10000 7.7 200 18:22 27.06.2020
804 Clouds 23 1011 64 10000 9.8 190 17:55 27.06.2020
805 Clouds 22 1011 64 10000 9.8 190 17:37 27.06.2020
806 Clouds 22 1011 64 10000 7.2 200 17:18 27.06.2020
807 Clouds 22 1011 60 10000 7.2 200 16:42 27.06.2020
808 Clouds 22 1011 64 10000 8.7 190 16:24 27.06.2020
809 Clouds 22 1011 64 10000 7.2 190 15:46 27.06.2020
810 Clouds 22 1011 64 10000 7.2 190 15:26 27.06.2020
811 Clouds 22 1011 60 10000 7.7 190 15:00 27.06.2020
812 Clouds 22 1011 60 10000 7.7 190 14:41 27.06.2020
813 Clouds 22 1012 64 10000 6.2 200 14:22 27.06.2020
814 Clouds 22 1012 64 10000 6.2 200 13:57 27.06.2020
815 Clouds 21 1011 64 10000 5.7 190 13:37 27.06.2020
816 Clouds 21 1012 64 10000 5.7 200 13:19 27.06.2020
817 Clouds 21 1012 64 10000 5.7 200 12:56 27.06.2020
818 Clouds 21 1012 64 10000 5.7 200 12:37 27.06.2020
819 Clouds 20 1011 60 10000 6.2 200 12:19 27.06.2020
820 Clouds 20 1012 64 10000 5.7 190 11:41 27.06.2020
821 Clouds 20 1012 64 10000 6.7 180 11:23 27.06.2020
822 Clouds 20 1012 64 10000 6.7 180 10:57 27.06.2020
823 Clouds 20 1012 68 10000 5.7 200 10:38 27.06.2020
824 Clouds 20 1011 68 10000 6.2 190 10:18 27.06.2020
825 Clouds 19 1011 64 10000 5.7 200 09:41 27.06.2020
826 Clouds 19 1011 68 10000 4.6 220 09:21 27.06.2020
827 Clouds 19 1011 72 10000 4.6 230 08:56 27.06.2020
828 Clouds 19 1011 72 10000 4.6 230 08:37 27.06.2020
829 Clouds 19 1011 72 10000 4.1 200 08:19 27.06.2020
830 Clouds 18 1010 82 10000 3.6 210 07:38 27.06.2020
831 Clouds 18 1010 82 10000 3.6 210 07:19 27.06.2020
832 Clouds 18 1010 82 10000 4.6 210 06:37 27.06.2020
833 Clouds 18 1010 82 10000 4.6 210 06:18 27.06.2020
834 Clouds 20 1011 88 10000 1.5 0 04:22 27.06.2020
835 Clouds 21 1010 88 10000 1 0 03:51 27.06.2020
836 Thunderstorm 21 1010 94 10000 3.1 80 02:48 27.06.2020
837 Thunderstorm 21 1010 94 10000 3.1 80 02:28 27.06.2020
838 Clouds 22 1011 88 10000 3.1 160 01:41 27.06.2020
839 Rain 22 1010 83 10000 1 0 00:56 27.06.2020
840 Rain 23 1010 83 10000 2.1 30 00:27 27.06.2020
841 Thunderstorm 23 1010 78 10000 2.1 30 23:41 26.06.2020
842 Thunderstorm 24 1011 78 10000 2.1 40 23:22 26.06.2020
843 Rain 24 1010 73 10000 2.1 350 22:56 26.06.2020
844 Rain 25 1010 73 10000 2.1 350 22:37 26.06.2020
845 Clouds 25 1010 73 10000 2.6 360 22:19 26.06.2020
846 Clouds 26 1009 65 10000 4.6 340 21:57 26.06.2020
847 Clouds 26 1009 65 10000 4.6 340 21:37 26.06.2020
848 Clouds 27 1009 61 10000 3.6 240 21:18 26.06.2020
849 Thunderstorm 27 1009 65 10000 3.6 220 20:42 26.06.2020
850 Thunderstorm 27 1009 64 10000 5.1 240 20:19 26.06.2020
851 Clouds 29 1008 42 10000 6.7 220 19:43 26.06.2020
852 Rain 29 1008 35 10000 6.7 200 19:23 26.06.2020
853 Thunderstorm 31 1009 35 10000 7.2 190 18:55 26.06.2020
854 Thunderstorm 30 1009 35 10000 7.2 190 18:37 26.06.2020
855 Clouds 30 1009 38 10000 4.6 230 18:18 26.06.2020
856 Clouds 30 1009 33 10000 5.7 220 17:43 26.06.2020
857 Clouds 31 1010 35 10000 4.1 220 17:24 26.06.2020
858 Clouds 30 1010 35 10000 3.1 230 16:48 26.06.2020
859 Clouds 31 1011 38 10000 3.1 190 16:26 26.06.2020
860 Clouds 31 1011 38 10000 3.1 190 15:55 26.06.2020
861 Clouds 30 1011 37 10000 3.1 190 15:37 26.06.2020
862 Clouds 29 1011 45 10000 3.6 200 15:18 26.06.2020
863 Clouds 30 1011 45 10000 3.6 200 14:56 26.06.2020
864 Clouds 29 1011 48 10000 3.1 220 14:37 26.06.2020
865 Clouds 28 1011 51 10000 5.1 240 14:19 26.06.2020
866 Clouds 26 1011 54 10000 7.2 240 13:43 26.06.2020
867 Clouds 26 1011 57 10000 5.1 230 13:19 26.06.2020
868 Clouds 26 1011 57 10000 5.1 230 12:42 26.06.2020
869 Clouds 25 1011 64 10000 4.6 180 12:24 26.06.2020
870 Clouds 24 1011 64 10000 4.6 180 11:59 26.06.2020
871 Clouds 23 1012 69 10000 4.6 210 11:41 26.06.2020
872 Clouds 23 1012 64 10000 6.2 200 11:23 26.06.2020
873 Clouds 22 1012 64 10000 6.2 200 10:59 26.06.2020
874 Clouds 21 1012 60 10000 6.7 200 10:40 26.06.2020
875 Clouds 21 1012 64 10000 7.2 200 10:19 26.06.2020
876 Clouds 22 1012 64 10000 7.7 210 09:56 26.06.2020
877 Clouds 22 1012 64 10000 7.7 210 09:38 26.06.2020
878 Clouds 22 1012 61 10000 5.1 200 09:18 26.06.2020
879 Clouds 22 1011 57 10000 3.6 170 08:44 26.06.2020
880 Clouds 22 1011 57 10000 3.6 170 08:25 26.06.2020
881 Clouds 22 1010 60 10000 3.1 150 07:47 26.06.2020
882 Rain 21 1010 64 10000 2.6 140 07:23 26.06.2020
883 Clouds 21 1010 64 10000 2.1 130 06:49 26.06.2020
884 Rain 21 1010 64 10000 2.6 110 06:30 26.06.2020
885 Rain 21 1010 60 10000 1.5 110 05:52 26.06.2020
886 Clouds 21 1010 60 10000 2.1 90 05:18 26.06.2020
887 Rain 24 1011 53 10000 2.1 70 02:32 26.06.2020
888 Rain 25 1011 44 10000 3.1 110 01:35 26.06.2020
889 Rain 26 1011 42 10000 3.1 140 00:50 26.06.2020
890 Rain 27 1011 39 10000 3.1 130 00:30 26.06.2020
891 Rain 27 1011 37 10000 5.1 140 23:47 25.06.2020
892 Rain 27 1011 45 10000 1.5 0 23:22 25.06.2020
893 Rain 27 1011 45 10000 2.6 80 22:58 25.06.2020
894 Rain 27 1011 45 10000 2.6 80 22:39 25.06.2020
895 Clouds 28 1011 42 10000 3.1 70 22:20 25.06.2020
896 Clouds 29 1011 38 10000 3.6 90 21:58 25.06.2020
897 Clouds 29 1011 38 10000 3.6 90 21:40 25.06.2020
898 Rain 30 1011 38 10000 4.6 90 21:21 25.06.2020
899 Rain 30 1011 38 10000 4.6 90 20:57 25.06.2020
900 Rain 31 1011 33 10000 3.6 90 20:39 25.06.2020
901 Rain 32 1011 33 10000 4.1 90 20:21 25.06.2020
902 Rain 33 1011 30 10000 4.1 60 19:56 25.06.2020
903 Rain 33 1011 30 10000 4.1 60 19:37 25.06.2020
904 Rain 33 1011 30 10000 4.1 60 19:18 25.06.2020
905 Rain 33 1011 30 10000 3.6 0 18:40 25.06.2020
906 Clouds 33 1012 30 10000 2.1 120 18:21 25.06.2020
907 Clouds 33 1012 28 10000 3.6 150 17:46 25.06.2020
908 Clear 34 1012 28 10000 1 0 17:21 25.06.2020
909 Clear 34 1012 28 10000 1 0 16:59 25.06.2020
910 Clear 33 1012 30 10000 2.1 0 16:40 25.06.2020
911 Clear 33 1013 32 10000 3.1 90 16:20 25.06.2020
912 Clear 33 1013 31 10000 4.1 110 15:45 25.06.2020
913 Clear 33 1013 31 10000 4.1 110 15:27 25.06.2020
914 Clear 32 1014 29 10000 4.1 120 14:57 25.06.2020
915 Clear 32 1014 29 10000 4.1 120 14:39 25.06.2020
916 Clear 32 1014 29 10000 3.6 60 14:21 25.06.2020
917 Clear 31 1014 33 10000 4.1 80 13:55 25.06.2020
918 Clear 31 1014 33 10000 4.1 80 13:37 25.06.2020
919 Clear 31 1014 31 10000 4.1 80 13:19 25.06.2020
920 Clear 30 1014 35 10000 4.1 90 12:43 25.06.2020
921 Clear 28 1014 37 10000 3.1 80 12:20 25.06.2020
922 Clear 28 1015 39 10000 3.1 80 11:44 25.06.2020
923 Clear 27 1015 39 10000 3.1 80 11:25 25.06.2020
924 Clear 26 1015 41 10000 2.6 70 10:58 25.06.2020
925 Clear 26 1015 41 10000 2.6 70 10:40 25.06.2020
926 Clear 25 1015 41 10000 2.6 80 10:21 25.06.2020
927 Clear 24 1015 44 10000 3.1 70 09:41 25.06.2020
928 Clear 23 1015 46 10000 4.1 70 09:23 25.06.2020
929 Clear 22 1015 49 10000 4.1 70 08:47 25.06.2020
930 Clear 22 1015 46 10000 4.6 80 08:20 25.06.2020
931 Clear 21 1015 56 10000 2.1 30 07:46 25.06.2020
932 Clear 21 1015 52 10000 2.6 40 07:28 25.06.2020
933 Clear 20 1015 55 10000 1 20 06:53 25.06.2020
934 Clear 20 1015 49 10000 1 0 06:27 25.06.2020
935 Clear 21 1015 52 10000 1.5 0 05:51 25.06.2020
936 Clear 22 1016 43 10000 4.1 80 04:29 25.06.2020
937 Clear 22 1016 56 10000 2.1 60 03:35 25.06.2020
938 Clear 22 1016 56 10000 2.1 50 02:43 25.06.2020
939 Clear 22 1016 53 10000 2.1 40 02:18 25.06.2020
940 Clear 24 1017 49 10000 3.6 60 01:29 25.06.2020
941 Clear 24 1017 49 10000 3.6 60 00:47 25.06.2020
942 Clear 24 1017 49 10000 3.6 70 00:22 25.06.2020
943 Clear 25 1016 47 10000 4.1 70 23:45 24.06.2020
944 Clear 25 1016 47 10000 4.6 60 23:26 24.06.2020
945 Clear 26 1016 47 10000 4.6 60 22:59 24.06.2020
946 Clear 26 1016 47 10000 4.6 60 22:59 24.06.2020
947 Clear 27 1016 41 10000 4.1 70 22:41 24.06.2020
948 Clear 28 1016 37 10000 4.1 60 22:20 24.06.2020
949 Clear 29 1016 30 10000 5.1 90 21:56 24.06.2020
950 Clear 29 1016 30 10000 5.1 90 21:37 24.06.2020
951 Clear 30 1016 27 10000 5.7 100 21:19 24.06.2020
952 Clear 30 1016 27 10000 5.7 100 20:58 24.06.2020
953 Clear 31 1016 25 10000 6.2 110 20:39 24.06.2020
954 Clear 31 1016 25 10000 6.2 110 20:20 24.06.2020
955 Clear 31 1016 25 10000 6.2 110 19:57 24.06.2020
956 Clear 32 1016 25 10000 5.7 120 19:38 24.06.2020
957 Clear 32 1016 24 10000 6.2 110 19:19 24.06.2020
958 Clear 32 1016 22 10000 5.7 90 18:58 24.06.2020
959 Clear 32 1016 22 10000 5.7 90 18:39 24.06.2020
960 Clear 32 1016 22 10000 5.1 100 18:20 24.06.2020
961 Clear 32 1016 21 10000 7.7 100 17:55 24.06.2020
962 Clear 32 1016 21 10000 7.7 100 17:36 24.06.2020
963 Clear 32 1016 21 10000 6.7 80 17:18 24.06.2020
964 Clear 32 1017 21 10000 5.7 90 16:55 24.06.2020
965 Clear 32 1017 21 10000 5.7 90 16:37 24.06.2020
966 Clear 32 1017 24 10000 6.7 100 16:19 24.06.2020
967 Clear 31 1017 24 10000 5.7 80 15:54 24.06.2020
968 Clear 31 1017 24 10000 5.7 80 15:36 24.06.2020
969 Clear 31 1017 24 10000 6.7 70 15:18 24.06.2020
970 Clear 31 1017 29 10000 6.2 80 14:40 24.06.2020
971 Clouds 30 1018 30 10000 6.2 110 14:22 24.06.2020
972 Clouds 30 1018 30 10000 5.7 70 13:42 24.06.2020
973 Clouds 29 1018 39 10000 6.2 90 13:21 24.06.2020
974 Clouds 28 1018 42 10000 5.7 80 12:46 24.06.2020
975 Clouds 27 1019 44 10000 4.1 90 12:22 24.06.2020
976 Clouds 27 1019 44 10000 4.1 90 11:59 24.06.2020
977 Clouds 27 1019 44 10000 4.6 90 11:41 24.06.2020
978 Clouds 26 1019 47 10000 5.7 80 11:23 24.06.2020
979 Clouds 25 1019 47 10000 3.6 80 10:54 24.06.2020
980 Clouds 25 1019 47 10000 3.6 80 10:36 24.06.2020
981 Clouds 24 1019 47 10000 3.6 80 10:18 24.06.2020
982 Clouds 23 1019 49 10000 4.1 80 09:42 24.06.2020
983 Clouds 21 1019 52 10000 3.6 80 09:21 24.06.2020
984 Clouds 21 1019 52 10000 3.6 70 08:41 24.06.2020
985 Clouds 20 1019 63 10000 1.5 350 08:20 24.06.2020
986 Clouds 19 1019 63 10000 2.1 350 07:50 24.06.2020
987 Clouds 18 1019 67 10000 2.1 350 07:29 24.06.2020
988 Clouds 18 1019 67 10000 1.5 350 06:49 24.06.2020
989 Clouds 17 1019 72 10000 1.5 350 06:25 24.06.2020
990 Clouds 18 1019 72 10000 2.6 350 05:48 24.06.2020
991 Clouds 20 1019 56 10000 4.1 80 04:41 24.06.2020
992 Clouds 20 1020 68 10000 3.1 70 03:51 24.06.2020
993 Clouds 20 1020 68 10000 3.1 70 03:33 24.06.2020
994 Clouds 21 1020 64 10000 3.6 60 02:43 24.06.2020
995 Clouds 22 1020 56 10000 3.6 50 01:29 24.06.2020
996 Clouds 22 1020 56 10000 3.6 60 00:47 24.06.2020
997 Clouds 22 1020 52 10000 2.6 60 00:27 24.06.2020
998 Clouds 23 1020 49 10000 2.6 50 23:44 23.06.2020
999 Clouds 23 1020 46 10000 2.6 40 23:19 23.06.2020
1000 Clouds 24 1020 44 10000 3.1 50 22:42 23.06.2020
1001 Clouds 25 1020 36 10000 3.6 50 22:19 23.06.2020
1002 Clouds 26 1020 36 10000 3.6 50 21:59 23.06.2020
1003 Clouds 27 1020 34 10000 4.1 60 21:40 23.06.2020
1004 Clouds 27 1020 32 10000 5.1 60 21:19 23.06.2020
1005 Clouds 28 1020 30 10000 4.1 90 20:55 23.06.2020
1006 Clouds 28 1020 30 10000 5.1 60 20:37 23.06.2020
1007 Clouds 29 1020 28 10000 5.7 70 20:18 23.06.2020
1008 Clouds 29 1020 28 10000 5.1 70 19:44 23.06.2020
1009 Clouds 29 1020 30 10000 5.7 60 19:26 23.06.2020
1010 Clouds 29 1021 28 10000 5.1 60 18:42 23.06.2020
1011 Clouds 29 1021 27 10000 5.7 70 18:19 23.06.2020
1012 Clouds 29 1021 30 10000 4.6 60 17:57 23.06.2020
1013 Clouds 29 1021 30 10000 4.6 60 17:38 23.06.2020
1014 Clouds 29 1022 28 10000 5.1 70 17:20 23.06.2020
1015 Clouds 29 1022 28 10000 5.1 70 17:20 23.06.2020
1016 Clouds 29 1022 28 10000 4.6 80 16:55 23.06.2020
1017 Clear 29 1022 28 10000 4.6 80 16:36 23.06.2020
1018 Clear 29 1022 28 10000 5.1 80 16:18 23.06.2020
1019 Clear 28 1022 30 10000 4.6 60 15:43 23.06.2020
1020 Clear 28 1023 32 10000 4.6 80 15:24 23.06.2020
1021 Clear 27 1023 36 10000 5.1 70 14:56 23.06.2020
1022 Clear 27 1023 36 10000 5.1 70 14:38 23.06.2020
1023 Clouds 27 1023 34 10000 5.1 70 14:18 23.06.2020
1024 Clouds 27 1023 34 10000 5.1 70 13:46 23.06.2020
1025 Clouds 26 1024 39 10000 4.1 70 13:26 23.06.2020
1026 Clouds 26 1024 39 10000 4.1 40 12:59 23.06.2020
1027 Clouds 26 1024 39 10000 4.1 40 12:59 23.06.2020
1028 Clouds 25 1024 39 10000 4.1 40 12:40 23.06.2020
1029 Clouds 24 1024 41 10000 4.1 60 12:21 23.06.2020
1030 Clouds 24 1024 44 10000 4.1 50 11:43 23.06.2020
1031 Clouds 23 1024 44 10000 3.6 70 11:23 23.06.2020
1032 Clouds 23 1024 49 10000 2.6 70 10:59 23.06.2020
1033 Clouds 23 1024 49 10000 2.6 70 10:41 23.06.2020
1034 Clouds 22 1024 53 10000 2.6 60 10:22 23.06.2020
1035 Clouds 22 1024 53 10000 2.6 60 09:57 23.06.2020
1036 Clouds 20 1024 64 10000 1.5 0 09:38 23.06.2020
1037 Clouds 19 1024 63 10000 1.5 0 09:20 23.06.2020
1038 Clouds 19 1024 63 10000 1.5 0 09:20 23.06.2020
1039 Clouds 18 1024 72 10000 2.1 10 08:46 23.06.2020
1040 Clouds 17 1024 77 10000 1.5 360 08:26 23.06.2020
1041 Clouds 15 1024 77 10000 1 0 07:49 23.06.2020
1042 Clouds 15 1024 82 10000 1.5 360 07:25 23.06.2020
1043 Clouds 14 1024 87 10000 1.5 340 06:53 23.06.2020
1044 Clouds 14 1024 87 10000 1.5 340 06:32 23.06.2020
1045 Clear 13 1024 87 10000 1 0 05:59 23.06.2020
1046 Clear 13 1024 82 10000 1.5 0 05:28 23.06.2020
1047 Clear 15 1025 82 10000 1.5 10 03:23 23.06.2020
1048 Clear 15 1025 77 10000 1.5 360 02:52 23.06.2020
1049 Clear 15 1025 77 10000 1.5 360 02:33 23.06.2020
1050 Clear 16 1025 72 10000 1.5 20 01:46 23.06.2020
1051 Clear 16 1025 68 10000 1 20 01:24 23.06.2020
1052 Clear 17 1025 67 10000 2.1 50 00:49 23.06.2020
1053 Clear 17 1025 63 10000 2.1 70 00:21 23.06.2020
1054 Clear 18 1025 63 10000 2.1 80 23:55 22.06.2020
1055 Clear 18 1025 63 10000 2.1 80 23:36 22.06.2020
1056 Clear 19 1025 56 10000 2.1 80 23:18 22.06.2020
1057 Clear 19 1025 56 10000 2.1 80 22:55 22.06.2020
1058 Clear 20 1024 56 10000 2.6 80 22:36 22.06.2020
1059 Clear 21 1024 49 10000 3.1 70 22:18 22.06.2020
1060 Clear 22 1024 43 10000 2.6 40 21:54 22.06.2020
1061 Clear 22 1024 43 10000 2.6 40 21:36 22.06.2020
1062 Clear 22 1024 43 10000 2.6 50 21:18 22.06.2020
1063 Clear 23 1024 41 10000 1.5 0 20:41 22.06.2020
1064 Clear 24 1024 41 10000 1.5 0 20:21 22.06.2020
1065 Clear 24 1025 41 10000 1.5 80 19:44 22.06.2020
1066 Clear 24 1025 41 10000 1.5 0 19:20 22.06.2020
1067 Clear 24 1025 41 10000 1.5 0 18:59 22.06.2020
1068 Clear 24 1025 41 10000 1.5 0 18:39 22.06.2020
1069 Clear 24 1025 41 10000 1.5 0 18:21 22.06.2020
1070 Clear 24 1025 41 10000 2.6 340 17:56 22.06.2020
1071 Clear 24 1026 43 10000 2.1 0 17:38 22.06.2020
1072 Clear 24 1026 43 10000 2.1 0 17:19 22.06.2020
1073 Clear 23 1026 43 10000 1.5 340 16:55 22.06.2020
1074 Clear 23 1026 43 10000 1.5 0 16:37 22.06.2020
1075 Clear 23 1026 46 10000 2.1 350 16:18 22.06.2020
1076 Clouds 23 1027 46 10000 2.1 0 15:42 22.06.2020
1077 Clouds 22 1027 46 10000 2.1 0 15:23 22.06.2020
1078 Clouds 22 1027 46 10000 2.6 0 14:56 22.06.2020
1079 Clouds 22 1027 46 10000 2.1 0 14:36 22.06.2020
1080 Clouds 22 1027 49 10000 2.6 0 14:18 22.06.2020
1081 Clouds 21 1027 52 10000 2.1 0 13:39 22.06.2020
1082 Clouds 21 1027 52 10000 2.1 0 13:39 22.06.2020
1083 Clouds 21 1027 52 10000 2.1 0 13:21 22.06.2020
1084 Clouds 20 1027 55 10000 2.1 350 12:59 22.06.2020
1085 Clear 20 1027 55 10000 2.6 20 12:40 22.06.2020
1086 Clear 20 1027 55 10000 2.6 20 12:22 22.06.2020
1087 Clouds 19 1027 72 10000 1.5 0 11:37 22.06.2020
1088 Clouds 19 1027 72 10000 1.5 0 11:19 22.06.2020
1089 Clouds 18 1027 77 10000 2.6 10 10:57 22.06.2020
1090 Clear 17 1028 82 10000 2.1 310 10:38 22.06.2020
1091 Clouds 17 1027 82 10000 3.1 340 10:19 22.06.2020
1092 Clouds 16 1027 82 10000 3.1 340 09:57 22.06.2020
1093 Clouds 16 1027 82 10000 2.1 310 09:38 22.06.2020
1094 Clouds 14 1027 87 10000 2.1 280 09:19 22.06.2020
1095 Clouds 15 1027 87 10000 2.1 280 08:56 22.06.2020
1096 Clouds 13 1027 93 10000 2.6 260 08:38 22.06.2020
1097 Clouds 13 1027 93 10000 2.6 260 08:18 22.06.2020
1098 Clear 12 1026 100 10000 1 0 07:46 22.06.2020
1099 Clear 12 1026 100 10000 1 0 07:25 22.06.2020
1100 Clear 11 1026 93 10000 1.88 294 06:39 22.06.2020
1101 Clear 11 1026 93 10000 1.73 291 06:20 22.06.2020
1102 Clear 11 1026 100 10000 1.73 291 05:42 22.06.2020
1103 Clear 13 1026 87 10000 1.5 300 03:47 22.06.2020
1104 Clouds 14 1025 93 10000 2.21 312 02:19 22.06.2020
1105 Clouds 14 1025 93 10000 1 330 00:59 22.06.2020
1106 Clouds 14 1025 87 10000 1 0 00:38 22.06.2020
1107 Clouds 15 1024 87 10000 1 340 23:57 21.06.2020
1108 Clouds 15 1024 87 10000 1 20 23:38 21.06.2020
1109 Clouds 16 1023 82 10000 1 0 23:20 21.06.2020
1110 Clouds 16 1023 82 10000 1 0 22:56 21.06.2020
1111 Clouds 16 1023 82 10000 1.5 330 22:37 21.06.2020
1112 Clouds 16 1023 82 10000 1.5 330 22:19 21.06.2020
1113 Clouds 17 1023 77 10000 3.1 320 21:56 21.06.2020
1114 Clouds 17 1022 77 10000 2.6 310 21:38 21.06.2020
1115 Clouds 17 1022 82 10000 4.6 310 21:20 21.06.2020
1116 Clouds 18 1022 82 10000 4.6 310 20:57 21.06.2020
1117 Rain 18 1022 93 10000 3.1 310 20:36 21.06.2020
1118 Rain 18 1022 93 10000 3.1 310 20:18 21.06.2020
1119 Rain 19 1021 88 4700 4.6 290 19:55 21.06.2020
1120 Rain 21 1020 82 10000 8.7 210 19:37 21.06.2020
1121 Clouds 21 1020 60 10000 6.7 200 19:18 21.06.2020
1122 Clouds 22 1020 64 10000 6.2 210 18:40 21.06.2020
1123 Clouds 22 1020 64 10000 5.7 210 18:22 21.06.2020
1124 Clouds 22 1020 64 10000 5.7 210 17:58 21.06.2020
1125 Clouds 21 1020 64 10000 5.7 210 17:38 21.06.2020
1126 Clouds 21 1020 60 10000 6.2 200 17:19 21.06.2020
1127 Clouds 22 1021 64 10000 5.7 210 16:41 21.06.2020
1128 Clouds 21 1021 64 10000 5.7 210 16:23 21.06.2020
1129 Clouds 21 1021 60 10000 6.2 190 15:57 21.06.2020
1130 Clouds 21 1021 60 10000 5.1 210 15:37 21.06.2020
1131 Clouds 21 1021 60 10000 5.1 210 15:19 21.06.2020
1132 Clouds 20 1021 64 10000 6.2 230 14:39 21.06.2020
1133 Clouds 20 1021 64 10000 6.2 230 14:20 21.06.2020
1134 Clouds 20 1021 64 10000 6.2 230 13:59 21.06.2020
1135 Clouds 20 1021 60 10000 5.7 210 13:40 21.06.2020
1136 Clouds 20 1021 60 10000 5.7 210 13:21 21.06.2020
1137 Clouds 21 1021 60 10000 5.1 210 12:54 21.06.2020
1138 Clouds 20 1021 64 10000 4.1 210 12:36 21.06.2020
1139 Clouds 20 1020 60 10000 4.6 220 12:18 21.06.2020
1140 Clouds 20 1021 63 10000 4.6 220 11:41 21.06.2020
1141 Clouds 20 1021 63 10000 4.6 220 11:23 21.06.2020
1142 Clouds 19 1021 59 10000 5.1 210 10:58 21.06.2020
1143 Clouds 18 1021 63 10000 4.6 210 10:39 21.06.2020
1144 Clouds 18 1021 63 10000 4.6 210 10:21 21.06.2020
1145 Clouds 17 1020 59 10000 5.1 230 09:44 21.06.2020
1146 Clouds 17 1020 68 10000 3.6 200 09:23 21.06.2020
1147 Clouds 17 1020 68 10000 3.6 200 08:57 21.06.2020
1148 Clouds 16 1020 72 10000 3.6 230 08:39 21.06.2020
1149 Clouds 15 1020 72 10000 2.6 230 08:20 21.06.2020
1150 Clouds 15 1020 77 10000 2.1 240 07:42 21.06.2020
1151 Clouds 15 1020 77 10000 2.1 240 07:24 21.06.2020
1152 Clouds 15 1020 82 10000 0.5 0 06:51 21.06.2020
1153 Clouds 14 1020 82 10000 0.5 0 06:31 21.06.2020
1154 Clouds 14 1020 82 10000 2.23 201 05:57 21.06.2020
1155 Clouds 14 1020 77 10000 1.5 60 04:45 21.06.2020
1156 Clear 14 1020 77 10000 0.5 40 03:20 21.06.2020
1157 Clear 15 1020 72 10000 1.93 217 02:38 21.06.2020
1158 Clouds 16 1020 63 10000 1.82 230 01:48 21.06.2020
1159 Clouds 16 1020 63 10000 2.01 237 01:20 21.06.2020
1160 Clouds 17 1020 55 10000 1.5 240 00:46 21.06.2020
1161 Clouds 17 1020 55 10000 1.5 240 00:27 21.06.2020
1162 Clouds 18 1020 55 10000 1.5 230 23:57 20.06.2020
1163 Clouds 18 1020 52 10000 2.1 220 23:37 20.06.2020
1164 Clouds 19 1020 49 10000 1.5 230 23:18 20.06.2020
1165 Clouds 19 1020 49 10000 1.5 230 22:54 20.06.2020
1166 Clouds 20 1020 49 10000 2.6 220 22:36 20.06.2020
1167 Clouds 20 1020 49 10000 2.6 220 22:18 20.06.2020
1168 Clouds 21 1020 46 10000 2.6 220 21:54 20.06.2020
1169 Clouds 22 1020 43 10000 3.1 220 21:36 20.06.2020
1170 Clouds 23 1020 41 10000 2.6 230 21:18 20.06.2020
1171 Clouds 23 1020 41 10000 2.6 230 20:54 20.06.2020
1172 Clouds 23 1020 41 10000 3.1 230 20:36 20.06.2020
1173 Clouds 23 1020 41 10000 3.1 230 20:18 20.06.2020
1174 Clouds 24 1020 43 10000 2.1 270 19:41 20.06.2020
1175 Rain 24 1020 41 10000 3.1 260 19:21 20.06.2020
1176 Rain 23 1020 38 10000 1.5 220 18:43 20.06.2020
1177 Rain 24 1020 38 10000 1.5 220 18:21 20.06.2020
1178 Rain 24 1020 38 10000 2.1 230 17:58 20.06.2020
1179 Rain 24 1020 41 10000 4.1 230 17:40 20.06.2020
1180 Rain 24 1020 41 10000 4.1 230 17:40 20.06.2020
1181 Rain 24 1020 41 10000 4.1 230 17:20 20.06.2020
1182 Rain 24 1020 41 10000 2.6 0 16:56 20.06.2020
1183 Rain 24 1021 44 10000 1.5 0 16:38 20.06.2020
1184 Clouds 24 1021 46 10000 2.1 0 16:18 20.06.2020
1185 Clouds 23 1021 46 10000 2.1 200 15:42 20.06.2020
1186 Clouds 24 1021 46 10000 2.1 200 15:18 20.06.2020
1187 Clouds 23 1021 49 10000 1.5 0 14:55 20.06.2020
1188 Clouds 23 1021 49 10000 2.1 320 14:36 20.06.2020
1189 Clouds 23 1021 49 10000 2.6 250 14:18 20.06.2020
1190 Clouds 22 1021 53 10000 1.5 0 13:41 20.06.2020
1191 Clouds 22 1022 56 10000 1.5 210 13:19 20.06.2020
1192 Clouds 21 1022 52 10000 1.5 0 12:43 20.06.2020
1193 Clouds 21 1022 52 10000 1.5 0 12:22 20.06.2020
1194 Clouds 21 1022 52 10000 1 0 11:58 20.06.2020
1195 Clouds 21 1022 52 10000 2.1 160 11:38 20.06.2020
1196 Clouds 21 1022 56 10000 2.1 170 11:20 20.06.2020
1197 Clouds 21 1022 56 10000 2.1 170 10:57 20.06.2020
1198 Clouds 21 1022 60 10000 1.5 0 10:38 20.06.2020
1199 Clouds 19 1022 68 10000 1.5 50 10:18 20.06.2020
1200 Clouds 19 1022 72 10000 1.12 224 09:40 20.06.2020
1201 Clouds 18 1022 72 10000 0.72 189 09:22 20.06.2020
1202 Clouds 18 1021 77 10000 1 0 08:57 20.06.2020
1203 Clouds 16 1021 82 10000 1 0 08:38 20.06.2020
1204 Clouds 16 1021 82 10000 1 0 08:20 20.06.2020
1205 Clouds 15 1021 87 10000 1 350 07:50 20.06.2020
1206 Clouds 15 1021 87 10000 1.5 330 07:25 20.06.2020
1207 Clouds 15 1021 87 10000 1 20 06:43 20.06.2020
1208 Clouds 15 1021 87 10000 1 20 06:20 20.06.2020
1209 Clouds 15 1021 82 10000 1.5 30 05:47 20.06.2020
1210 Clouds 16 1021 87 10000 1 30 03:25 20.06.2020
1211 Clouds 16 1021 77 10000 3.1 340 01:53 20.06.2020
1212 Clouds 16 1021 77 10000 3.1 340 01:35 20.06.2020
1213 Clouds 17 1020 68 10000 2.6 330 00:42 20.06.2020
1214 Rain 17 1020 68 10000 2.6 330 00:19 20.06.2020
1215 Rain 17 1020 63 10000 2.1 240 23:40 19.06.2020
1216 Clouds 17 1020 59 10000 1.5 230 23:19 19.06.2020
1217 Clouds 17 1020 59 10000 1.5 230 22:56 19.06.2020
1218 Clouds 17 1020 59 10000 1.5 230 22:55 19.06.2020
1219 Clouds 17 1019 63 10000 2.6 220 22:37 19.06.2020
1220 Clouds 18 1019 63 10000 2.6 220 22:19 19.06.2020
1221 Clouds 18 1019 59 10000 2.1 230 21:55 19.06.2020
1222 Clouds 19 1019 56 10000 2.1 220 21:37 19.06.2020
1223 Rain 20 1019 56 10000 2.6 220 21:18 19.06.2020
1224 Rain 20 1019 56 10000 2.6 220 20:56 19.06.2020
1225 Clouds 20 1019 56 10000 2.1 210 20:38 19.06.2020
1226 Clouds 20 1019 56 10000 2.1 210 20:20 19.06.2020
1227 Clouds 20 1019 56 10000 2.6 240 19:54 19.06.2020
1228 Clouds 20 1018 56 10000 3.1 230 19:36 19.06.2020
1229 Clouds 20 1018 56 10000 3.1 230 19:18 19.06.2020
1230 Clouds 20 1018 63 10000 2.6 220 18:40 19.06.2020
1231 Rain 20 1018 63 10000 2.6 220 18:21 19.06.2020
1232 Clouds 20 1018 56 10000 3.6 250 17:43 19.06.2020
1233 Clouds 20 1018 56 10000 3.6 250 17:23 19.06.2020
1234 Clouds 20 1018 52 10000 3.6 230 16:59 19.06.2020
1235 Clouds 20 1018 52 10000 3.6 230 16:59 19.06.2020
1236 Clouds 19 1018 52 10000 4.1 220 16:41 19.06.2020
1237 Clouds 20 1018 52 10000 3.6 230 16:22 19.06.2020
1238 Clouds 20 1018 52 10000 3.6 230 15:54 19.06.2020
1239 Clouds 20 1018 56 10000 3.1 220 15:36 19.06.2020
1240 Clouds 20 1018 56 10000 4.1 230 15:18 19.06.2020
1241 Clouds 19 1019 59 10000 4.1 230 14:41 19.06.2020
1242 Clouds 19 1019 59 10000 4.1 230 14:22 19.06.2020
1243 Clouds 19 1018 63 10000 5.1 250 14:22 19.06.2020
1244 Clouds 19 1018 63 10000 5.1 250 13:59 19.06.2020
1245 Clouds 19 1018 63 10000 4.6 260 13:41 19.06.2020
1246 Clouds 19 1018 63 10000 4.6 260 13:23 19.06.2020
1247 Clouds 19 1018 59 10000 3.6 240 12:46 19.06.2020
1248 Clouds 19 1018 59 10000 3.6 240 12:22 19.06.2020
1249 Clouds 19 1018 59 10000 3.1 250 11:57 19.06.2020
1250 Clouds 19 1017 59 10000 3.6 260 11:37 19.06.2020
1251 Clouds 18 1017 59 10000 3.6 260 11:37 19.06.2020
1252 Clouds 18 1017 59 10000 3.6 260 11:18 19.06.2020
1253 Clouds 18 1017 68 10000 4.1 200 10:45 19.06.2020
1254 Clouds 18 1017 68 10000 4.1 200 10:26 19.06.2020
1255 Clouds 18 1017 68 10000 4.1 200 10:26 19.06.2020
1256 Clouds 17 1017 72 10000 4.1 220 09:57 19.06.2020
1257 Clouds 17 1017 72 10000 3.6 210 09:39 19.06.2020
1258 Clouds 16 1017 77 10000 2.6 220 09:19 19.06.2020
1259 Clouds 15 1016 82 10000 3.1 200 08:42 19.06.2020
1260 Clouds 15 1016 82 10000 3.1 200 08:42 19.06.2020
1261 Clouds 15 1016 82 10000 3.1 200 08:23 19.06.2020
1262 Clouds 14 1016 82 10000 2.6 230 07:55 19.06.2020
1263 Clouds 13 1016 87 10000 2.1 230 07:36 19.06.2020
1264 Clouds 12 1016 93 10000 2.1 240 07:18 19.06.2020
1265 Clouds 13 1016 87 10000 2.1 230 07:18 19.06.2020
1266 Clouds 12 1016 87 10000 3.1 230 06:23 19.06.2020
1267 Clouds 12 1016 93 10000 2.1 220 06:23 19.06.2020
1268 Clouds 12 1015 87 10000 2.6 220 05:43 19.06.2020
1269 Clouds 13 1015 87 10000 3.1 220 04:23 19.06.2020
1270 Clouds 14 1015 82 10000 2.1 230 02:50 19.06.2020
1271 Clouds 15 1014 67 10000 2.6 210 00:49 19.06.2020
1272 Clouds 15 1014 67 10000 2.6 210 00:22 19.06.2020
1273 Clouds 16 1014 63 10000 3.6 220 23:59 18.06.2020
1274 Clouds 16 1014 67 10000 3.6 210 23:41 18.06.2020
1275 Clouds 16 1014 67 10000 3.6 210 23:23 18.06.2020
1276 Clouds 17 1014 67 10000 3.1 210 22:59 18.06.2020
1277 Clouds 17 1013 68 10000 3.6 210 22:37 18.06.2020
1278 Clouds 18 1013 68 10000 3.6 210 22:18 18.06.2020
1279 Clouds 19 1012 55 10000 4.1 210 21:39 18.06.2020
1280 Clouds 19 1012 55 10000 5.1 200 21:20 18.06.2020
1281 Clouds 19 1012 55 10000 5.1 200 20:57 18.06.2020
1282 Rain 19 1012 59 10000 5.1 190 20:38 18.06.2020
1283 Rain 19 1012 59 10000 5.1 190 20:19 18.06.2020
1284 Clouds 19 1012 56 10000 6.7 210 19:42 18.06.2020
1285 Clouds 19 1012 56 10000 6.7 210 19:22 18.06.2020
1286 Rain 19 1012 56 10000 9.3 200 18:57 18.06.2020
1287 Rain 20 1012 49 10000 5.1 210 18:37 18.06.2020
1288 Rain 20 1012 49 10000 5.1 210 18:19 18.06.2020
1289 Clouds 21 1012 49 10000 5.7 190 17:45 18.06.2020
1290 Clouds 22 1012 46 10000 4.1 190 17:25 18.06.2020
1291 Clouds 22 1012 46 10000 4.1 190 17:25 18.06.2020
1292 Clouds 21 1012 46 10000 4.1 190 16:56 18.06.2020
1293 Clouds 21 1012 52 10000 5.1 210 16:37 18.06.2020
1294 Rain 20 1012 56 10000 6.2 160 16:18 18.06.2020
1295 Rain 20 1012 56 10000 6.2 160 15:55 18.06.2020
1296 Rain 19 1012 59 10000 7.7 170 15:37 18.06.2020
1297 Rain 19 1012 59 10000 7.7 170 15:18 18.06.2020
1298 Rain 20 1012 56 10000 4.1 230 14:41 18.06.2020
1299 Clouds 20 1012 56 10000 4.1 230 14:23 18.06.2020
1300 Clouds 20 1012 56 10000 5.7 190 13:59 18.06.2020
1301 Clouds 20 1012 68 10000 3.1 210 13:41 18.06.2020
1302 Clouds 20 1012 68 10000 3.1 210 13:22 18.06.2020
1303 Clouds 20 1012 56 10000 4.1 200 12:55 18.06.2020
1304 Clouds 20 1012 59 10000 4.6 240 12:37 18.06.2020
1305 Rain 20 1012 59 10000 4.6 240 12:19 18.06.2020
1306 Rain 18 1012 63 10000 2.6 260 11:46 18.06.2020
1307 Clouds 18 1012 63 10000 2.6 260 11:21 18.06.2020
1308 Clouds 18 1012 63 10000 3.6 230 10:56 18.06.2020
1309 Clouds 18 1012 63 10000 4.6 210 10:38 18.06.2020
1310 Clouds 18 1012 68 10000 3.6 220 10:18 18.06.2020
1311 Clouds 17 1011 72 10000 2.6 220 09:42 18.06.2020
1312 Clouds 17 1011 72 10000 2.6 220 09:23 18.06.2020
1313 Clouds 15 1011 82 10000 3.1 230 08:42 18.06.2020
1314 Clear 15 1011 82 10000 3.1 230 08:24 18.06.2020
1315 Clouds 15 1011 82 10000 3.1 230 08:00 18.06.2020
1316 Clouds 14 1011 82 10000 2.6 240 07:41 18.06.2020
1317 Clouds 14 1011 82 10000 2.6 240 07:23 18.06.2020
1318 Clear 14 1011 77 10000 3.1 220 06:29 18.06.2020
1319 Clear 15 1011 82 10000 2.1 140 04:27 18.06.2020
1320 Clear 15 1011 77 10000 1.5 0 03:30 18.06.2020
1321 Clear 16 1012 67 10000 1 130 01:42 18.06.2020
1322 Clouds 16 1012 77 10000 1.5 60 01:18 18.06.2020
1323 Clouds 16 1012 77 10000 1.5 60 00:49 18.06.2020
1324 Rain 16 1012 72 10000 1.69 178 00:25 18.06.2020
1325 Rain 17 1012 67 10000 0.5 180 23:49 17.06.2020
1326 Rain 17 1012 63 10000 1.5 230 23:23 17.06.2020
1327 Rain 17 1012 63 10000 1.5 230 22:59 17.06.2020
1328 Rain 17 1011 63 10000 1 0 22:40 17.06.2020
1329 Rain 17 1011 63 10000 1 0 22:21 17.06.2020
1330 Rain 18 1011 59 10000 2.6 180 21:59 17.06.2020
1331 Rain 18 1011 59 10000 3.6 180 21:39 17.06.2020
1332 Rain 19 1011 56 10000 3.6 180 21:20 17.06.2020
1333 Rain 19 1011 56 10000 4.6 170 20:55 17.06.2020
1334 Rain 20 1011 56 10000 4.6 170 20:37 17.06.2020
1335 Clouds 20 1011 56 10000 4.6 170 20:18 17.06.2020
1336 Clouds 20 1011 46 10000 2.6 190 19:42 17.06.2020
1337 Clouds 20 1011 46 10000 2.6 190 19:19 17.06.2020
1338 Clouds 20 1011 49 10000 2.6 210 18:56 17.06.2020
1339 Clouds 21 1012 49 10000 2.1 220 18:37 17.06.2020
1340 Clouds 21 1012 49 10000 3.1 150 18:19 17.06.2020
1341 Clouds 21 1012 49 10000 3.1 150 17:40 17.06.2020
1342 Clouds 21 1012 52 10000 4.1 170 17:21 17.06.2020
1343 Clouds 21 1012 52 10000 4.1 170 16:56 17.06.2020
1344 Clouds 21 1012 52 10000 4.6 170 16:37 17.06.2020
1345 Clouds 21 1012 52 10000 4.6 170 16:19 17.06.2020
1346 Clouds 20 1012 60 10000 3.1 210 15:40 17.06.2020
1347 Clouds 20 1012 56 10000 2.6 210 15:21 17.06.2020
1348 Clouds 20 1012 56 10000 2.6 210 14:58 17.06.2020
1349 Clouds 20 1012 56 10000 3.6 190 14:40 17.06.2020
1350 Clouds 20 1012 56 10000 3.6 190 14:20 17.06.2020
1351 Clouds 19 1012 56 10000 2.1 210 13:58 17.06.2020
1352 Clouds 19 1013 56 10000 2.6 210 13:40 17.06.2020
1353 Clouds 19 1013 63 10000 3.1 220 13:21 17.06.2020
1354 Clouds 19 1013 63 10000 3.1 220 12:55 17.06.2020
1355 Clouds 19 1013 56 10000 3.1 210 12:37 17.06.2020
1356 Clouds 19 1013 56 10000 3.1 210 12:19 17.06.2020
1357 Clouds 19 1013 59 10000 2.6 210 11:44 17.06.2020
1358 Clouds 18 1013 59 10000 2.6 210 11:24 17.06.2020
1359 Clouds 18 1013 59 10000 2.6 150 10:54 17.06.2020
1360 Clouds 18 1013 68 10000 2.1 210 10:36 17.06.2020
1361 Clouds 18 1013 68 10000 2.1 210 10:18 17.06.2020
1362 Clouds 17 1013 72 10000 1 0 09:41 17.06.2020
1363 Clouds 16 1013 82 10000 2.41 223 09:21 17.06.2020
1364 Clouds 16 1013 82 10000 2.41 223 08:57 17.06.2020
1365 Clouds 15 1013 87 10000 0.5 0 08:39 17.06.2020
1366 Clouds 14 1013 93 10000 2.48 228 08:19 17.06.2020
1367 Clouds 14 1013 93 10000 0.5 30 07:43 17.06.2020
1368 Clouds 14 1013 93 10000 0.5 30 07:22 17.06.2020
1369 Clouds 14 1012 87 10000 1 20 06:56 17.06.2020
1370 Clouds 14 1012 93 10000 2.49 216 06:38 17.06.2020
1371 Clouds 14 1012 93 10000 2.49 216 06:20 17.06.2020
1372 Clouds 14 1013 87 10000 1 330 05:29 17.06.2020
1373 Clouds 14 1013 87 10000 1 90 03:30 17.06.2020
1374 Clouds 15 1014 77 10000 1.5 0 01:54 17.06.2020
1375 Clouds 16 1014 77 10000 2.1 200 00:47 17.06.2020
1376 Rain 16 1014 77 10000 2.15 191 00:25 17.06.2020
1377 Clouds 16 1014 77 10000 0.5 0 23:57 16.06.2020
1378 Clouds 16 1014 72 10000 1.5 320 23:38 16.06.2020
1379 Clouds 17 1014 72 10000 1.5 320 23:19 16.06.2020
1380 Clouds 17 1014 68 10000 1.5 0 22:56 16.06.2020
1381 Clouds 18 1013 59 10000 3.1 260 22:37 16.06.2020
1382 Clouds 18 1013 59 10000 3.1 260 22:18 16.06.2020
1383 Clouds 19 1013 56 10000 0.5 0 21:47 16.06.2020
1384 Clouds 20 1013 56 10000 4.1 160 21:24 16.06.2020
1385 Clouds 20 1013 56 10000 4.1 160 20:58 16.06.2020
1386 Clouds 21 1013 52 10000 4.1 160 20:40 16.06.2020
1387 Rain 22 1013 52 10000 4.1 160 20:19 16.06.2020
1388 Rain 22 1013 52 10000 4.1 150 19:58 16.06.2020
1389 Rain 22 1013 49 10000 4.6 170 19:39 16.06.2020
1390 Rain 21 1013 49 10000 5.7 180 19:21 16.06.2020
1391 Rain 22 1013 53 10000 5.1 190 18:55 16.06.2020
1392 Rain 22 1013 53 10000 5.1 190 18:37 16.06.2020
1393 Rain 21 1013 49 10000 7.7 180 18:19 16.06.2020
1394 Rain 21 1013 46 10000 4.1 180 17:55 16.06.2020
1395 Rain 21 1013 46 10000 4.1 180 17:36 16.06.2020
1396 Rain 22 1014 43 10000 4.6 150 17:18 16.06.2020
1397 Rain 23 1014 46 10000 2.6 210 16:42 16.06.2020
1398 Clouds 23 1014 49 10000 3.1 200 16:20 16.06.2020
1399 Clouds 23 1014 49 10000 3.1 200 15:58 16.06.2020
1400 Clouds 22 1014 52 10000 2.6 180 15:40 16.06.2020
1401 Clouds 22 1014 52 10000 2.6 180 15:22 16.06.2020
1402 Clouds 22 1015 52 10000 2.6 200 14:59 16.06.2020
1403 Clouds 22 1015 56 10000 4.1 150 14:41 16.06.2020
1404 Clouds 22 1015 52 10000 4.1 170 14:22 16.06.2020
1405 Clouds 21 1016 56 10000 4.1 180 13:48 16.06.2020
1406 Clouds 20 1016 56 10000 4.1 180 13:26 16.06.2020
1407 Clouds 20 1016 60 10000 4.6 160 12:57 16.06.2020
1408 Clouds 19 1016 60 10000 5.1 160 12:38 16.06.2020
1409 Clouds 19 1016 60 10000 5.7 170 12:20 16.06.2020
1410 Clouds 18 1016 63 10000 6.2 180 11:55 16.06.2020
1411 Clouds 18 1016 63 10000 6.2 180 11:37 16.06.2020
1412 Clouds 18 1016 63 10000 6.2 180 11:37 16.06.2020
1413 Clouds 18 1016 63 10000 6.2 180 11:19 16.06.2020
1414 Clouds 17 1017 77 10000 3.6 140 10:42 16.06.2020
1415 Clouds 17 1017 77 10000 3.6 140 10:21 16.06.2020
1416 Clouds 16 1017 77 10000 2.6 170 09:58 16.06.2020
1417 Clouds 16 1017 82 10000 3.6 200 09:40 16.06.2020
1418 Clouds 16 1017 82 10000 3.6 200 09:21 16.06.2020
1419 Clouds 15 1016 82 10000 2.1 210 08:44 16.06.2020
1420 Clouds 15 1016 82 10000 2.1 210 08:25 16.06.2020
1421 Clouds 15 1017 82 10000 1.5 230 07:50 16.06.2020
1422 Clouds 15 1017 87 10000 1.5 240 07:27 16.06.2020
1423 Clouds 15 1017 87 10000 1.5 240 07:27 16.06.2020
1424 Clouds 14 1017 87 10000 1.5 200 06:48 16.06.2020
1425 Clouds 14 1017 93 10000 1.5 210 06:27 16.06.2020
1426 Clouds 14 1017 93 10000 2.1 220 05:38 16.06.2020
1427 Clouds 14 1017 87 10000 2.1 230 04:39 16.06.2020
1428 Clear 14 1017 87 10000 2.6 230 02:59 16.06.2020
1429 Clouds 15 1017 82 10000 2.1 230 01:59 16.06.2020
1430 Clouds 15 1017 87 10000 3.1 220 01:27 16.06.2020
1431 Clouds 16 1018 82 10000 3.6 200 00:45 16.06.2020
1432 Clouds 16 1018 82 10000 3.6 200 00:21 16.06.2020
1433 Clouds 16 1018 77 10000 3.1 210 23:43 15.06.2020
1434 Clouds 16 1018 77 10000 3.1 210 23:22 15.06.2020
1435 Clouds 17 1017 68 10000 4.6 200 22:55 15.06.2020
1436 Clouds 17 1017 68 10000 4.1 210 22:37 15.06.2020
1437 Clouds 17 1017 68 10000 6.2 200 22:18 15.06.2020
1438 Clouds 18 1017 68 10000 6.2 200 21:55 15.06.2020
1439 Clouds 18 1017 60 10000 5.1 190 21:37 15.06.2020
1440 Clouds 19 1017 60 10000 5.1 190 21:37 15.06.2020
1441 Clouds 19 1017 60 10000 4.6 220 21:19 15.06.2020
1442 Clouds 19 1017 56 10000 4.1 210 20:55 15.06.2020
1443 Clouds 20 1017 56 10000 4.1 210 20:37 15.06.2020
1444 Clouds 20 1017 56 10000 4.1 210 20:18 15.06.2020
1445 Clouds 20 1017 53 10000 5.7 220 19:55 15.06.2020
1446 Clouds 21 1017 56 10000 6.2 190 19:36 15.06.2020
1447 Clouds 21 1017 56 10000 4.1 210 19:18 15.06.2020
1448 Clouds 20 1017 56 10000 6.7 220 18:44 15.06.2020
1449 Clouds 20 1017 56 10000 6.7 220 18:22 15.06.2020
1450 Clouds 21 1017 49 10000 5.1 190 17:59 15.06.2020
1451 Clouds 21 1017 53 10000 5.1 180 17:41 15.06.2020
1452 Clouds 22 1017 53 10000 5.1 180 17:20 15.06.2020
1453 Clouds 22 1017 53 10000 7.2 170 16:58 15.06.2020
1454 Clouds 22 1017 49 10000 5.7 170 16:40 15.06.2020
1455 Rain 21 1017 49 10000 5.7 170 16:18 15.06.2020
1456 Rain 21 1017 46 10000 3.6 200 15:56 15.06.2020
1457 Rain 21 1017 46 10000 2.6 210 15:36 15.06.2020
1458 Clouds 21 1017 46 10000 2.6 210 15:18 15.06.2020
1459 Clouds 22 1018 49 10000 4.1 200 14:42 15.06.2020
1460 Clouds 21 1018 49 10000 3.6 200 14:21 15.06.2020
1461 Clouds 21 1018 49 10000 3.6 200 13:59 15.06.2020
1462 Clouds 21 1018 60 10000 3.1 170 13:40 15.06.2020
1463 Clouds 20 1018 60 10000 3.1 170 13:22 15.06.2020
1464 Clouds 20 1018 63 10000 3.1 200 12:56 15.06.2020
1465 Clouds 19 1018 68 10000 4.1 190 12:38 15.06.2020
1466 Clouds 19 1018 68 10000 4.6 190 12:19 15.06.2020
1467 Clouds 18 1018 72 10000 4.6 190 11:43 15.06.2020
1468 Clouds 18 1018 72 10000 4.6 190 11:24 15.06.2020
1469 Clouds 17 1018 72 10000 4.1 190 10:44 15.06.2020
1470 Clouds 17 1018 72 10000 4.1 190 10:22 15.06.2020
1471 Clouds 17 1018 72 10000 3.1 170 09:56 15.06.2020
1472 Clouds 17 1018 77 10000 2.1 170 09:38 15.06.2020
1473 Clouds 16 1018 82 10000 3.6 180 09:19 15.06.2020
1474 Clouds 15 1018 82 10000 3.1 180 08:39 15.06.2020
1475 Clouds 15 1018 82 10000 3.1 180 08:21 15.06.2020
1476 Clouds 14 1018 82 10000 2.6 190 07:46 15.06.2020
1477 Clouds 14 1018 87 10000 3.1 210 07:28 15.06.2020
1478 Clouds 14 1018 87 10000 3.6 200 06:49 15.06.2020
1479 Clouds 14 1018 87 10000 1.5 210 06:25 15.06.2020
1480 Clouds 14 1017 87 10000 3.1 210 05:46 15.06.2020
1481 Clouds 14 1017 87 10000 2.1 210 05:26 15.06.2020
1482 Clouds 14 1017 87 10000 2.6 200 04:20 15.06.2020
1483 Clouds 14 1017 87 10000 2.1 210 03:41 15.06.2020
1484 Clouds 15 1017 82 10000 3.1 220 02:54 15.06.2020
1485 Clouds 15 1017 82 10000 3.1 210 01:58 15.06.2020
1486 Clouds 16 1017 77 10000 2.6 210 01:37 15.06.2020
1487 Clouds 16 1017 77 10000 2.6 210 01:18 15.06.2020
1488 Clouds 16 1017 72 10000 3.1 220 00:39 15.06.2020
1489 Clouds 16 1017 72 10000 3.1 200 00:20 15.06.2020
1490 Clouds 17 1017 68 10000 1.5 200 23:47 14.06.2020
1491 Clouds 18 1017 68 10000 2.1 200 23:25 14.06.2020
1492 Clouds 18 1017 68 10000 2.1 200 22:58 14.06.2020
1493 Clouds 18 1016 63 10000 3.1 200 22:39 14.06.2020
1494 Clear 19 1016 63 10000 3.1 200 22:20 14.06.2020
1495 Clear 19 1016 63 10000 2.6 210 21:58 14.06.2020
1496 Clouds 20 1016 68 10000 2.1 210 21:40 14.06.2020
1497 Clouds 20 1016 68 10000 2.1 210 21:19 14.06.2020
1498 Clouds 20 1016 68 10000 2.1 250 20:59 14.06.2020
1499 Rain 20 1016 68 10000 3.6 250 20:40 14.06.2020
1500 Rain 21 1016 68 10000 3.6 250 20:21 14.06.2020
1501 Clouds 21 1015 49 10000 4.1 220 19:59 14.06.2020
1502 Clouds 21 1015 46 10000 4.1 190 19:40 14.06.2020
1503 Clouds 21 1015 46 10000 4.1 190 19:40 14.06.2020
1504 Clouds 21 1015 53 10000 4.6 150 19:20 14.06.2020
1505 Clouds 22 1015 53 10000 4.6 150 18:58 14.06.2020
1506 Clouds 23 1015 49 10000 4.1 200 18:40 14.06.2020
1507 Clouds 22 1015 53 10000 4.6 170 18:21 14.06.2020
1508 Clouds 22 1015 53 10000 4.6 170 17:58 14.06.2020
1509 Clouds 22 1016 49 10000 4.6 170 17:40 14.06.2020
1510 Clouds 22 1016 49 10000 4.6 170 17:20 14.06.2020
1511 Clouds 22 1016 46 10000 3.1 170 16:58 14.06.2020
1512 Clouds 21 1016 49 10000 5.1 170 16:39 14.06.2020
1513 Clouds 21 1016 49 10000 5.1 170 16:19 14.06.2020
1514 Clouds 21 1016 49 10000 2.1 0 15:55 14.06.2020
1515 Clouds 21 1016 56 10000 3.1 150 15:36 14.06.2020
1516 Clouds 21 1016 60 10000 5.1 150 15:18 14.06.2020
1517 Clouds 20 1016 63 10000 3.1 170 14:41 14.06.2020
1518 Clouds 20 1016 63 10000 3.1 170 14:22 14.06.2020
1519 Clouds 20 1017 60 10000 2.6 180 13:58 14.06.2020
1520 Clouds 19 1017 59 10000 2.6 190 13:40 14.06.2020
1521 Clouds 19 1017 59 10000 2.6 190 13:40 14.06.2020
1522 Clouds 19 1017 59 10000 2.6 190 13:21 14.06.2020
1523 Clouds 19 1017 59 10000 2.1 190 12:57 14.06.2020
1524 Clouds 19 1017 59 10000 2.1 190 12:57 14.06.2020
1525 Clouds 18 1017 63 10000 5.1 210 12:39 14.06.2020
1526 Clouds 18 1017 63 10000 5.1 210 12:21 14.06.2020
1527 Clouds 18 1017 68 10000 3.6 200 11:57 14.06.2020
1528 Clouds 18 1016 68 10000 4.1 220 11:38 14.06.2020
1529 Clouds 17 1016 67 10000 4.6 220 11:20 14.06.2020
1530 Clouds 17 1016 72 10000 5.7 210 10:42 14.06.2020
1531 Clouds 16 1016 72 10000 5.7 210 10:20 14.06.2020
1532 Clouds 15 1016 77 10000 4.6 220 09:56 14.06.2020
1533 Clouds 15 1016 77 10000 4.6 220 09:38 14.06.2020
1534 Clouds 15 1016 77 10000 4.6 220 09:20 14.06.2020
1535 Clouds 14 1016 82 10000 4.1 220 08:41 14.06.2020
1536 Clouds 14 1016 82 10000 3.6 210 08:19 14.06.2020
1537 Clouds 14 1016 82 10000 3.6 210 07:52 14.06.2020
1538 Clouds 14 1016 87 10000 2.1 210 07:34 14.06.2020
1539 Clouds 13 1015 87 10000 3.1 220 06:39 14.06.2020
1540 Clouds 13 1015 82 10000 2.1 210 05:47 14.06.2020
1541 Clouds 14 1015 82 10000 2.1 210 05:21 14.06.2020
1542 Clouds 14 1015 82 10000 2.1 220 04:36 14.06.2020
1543 Clouds 15 1014 77 10000 3.1 220 03:44 14.06.2020
1544 Clouds 15 1015 72 10000 3.1 220 02:34 14.06.2020
1545 Clouds 16 1014 72 10000 3.1 220 01:49 14.06.2020
1546 Clouds 16 1014 72 10000 2.6 210 01:26 14.06.2020
1547 Clouds 17 1013 68 10000 3.1 210 00:47 14.06.2020
1548 Clouds 17 1013 72 10000 2.1 220 00:20 14.06.2020
1549 Clouds 17 1013 68 10000 2.6 220 23:46 13.06.2020
1550 Clouds 17 1013 68 10000 2.6 220 23:26 13.06.2020
1551 Clouds 18 1013 63 10000 3.6 200 22:58 13.06.2020
1552 Clouds 18 1012 59 10000 4.6 210 22:38 13.06.2020
1553 Clouds 19 1012 52 10000 6.7 210 22:18 13.06.2020
1554 Clouds 19 1012 52 10000 6.7 210 21:57 13.06.2020
1555 Clouds 20 1012 59 10000 3.6 210 21:39 13.06.2020
1556 Clouds 20 1012 49 10000 6.2 210 21:21 13.06.2020
1557 Clouds 21 1011 46 10000 6.7 200 20:44 13.06.2020
1558 Clouds 21 1010 40 10000 5.7 170 20:20 13.06.2020
1559 Clouds 22 1010 40 10000 5.7 170 19:58 13.06.2020
1560 Clouds 23 1010 40 10000 6.2 170 19:37 13.06.2020
1561 Clouds 23 1010 40 10000 6.2 170 19:19 13.06.2020
1562 Clouds 23 1010 40 10000 6.2 170 18:57 13.06.2020
1563 Clouds 23 1010 44 10000 4.1 160 18:38 13.06.2020
1564 Clouds 23 1010 44 10000 4.1 160 18:19 13.06.2020
1565 Clouds 23 1010 40 10000 5.1 160 17:55 13.06.2020
1566 Clouds 22 1010 46 10000 5.1 130 17:37 13.06.2020
1567 Clouds 22 1010 46 10000 5.1 130 17:19 13.06.2020
1568 Clouds 23 1009 40 10000 3.6 180 16:41 13.06.2020
1569 Rain 23 1009 40 10000 4.6 190 16:20 13.06.2020
1570 Rain 23 1009 40 10000 4.6 190 15:59 13.06.2020
1571 Rain 23 1009 40 10000 4.1 170 15:41 13.06.2020
1572 Rain 23 1009 40 10000 4.1 170 15:21 13.06.2020
1573 Clouds 23 1010 43 10000 4.1 140 14:44 13.06.2020
1574 Clouds 22 1010 43 10000 4.1 140 14:23 13.06.2020
1575 Clouds 22 1009 49 10000 4.1 170 13:57 13.06.2020
1576 Clouds 22 1009 49 10000 4.1 150 13:37 13.06.2020
1577 Clouds 22 1009 49 10000 4.1 150 13:19 13.06.2020
1578 Clear 21 1009 56 10000 4.1 150 12:43 13.06.2020
1579 Clear 21 1009 56 10000 4.1 150 12:25 13.06.2020
1580 Clear 21 1009 56 10000 3.6 140 11:57 13.06.2020
1581 Clear 20 1009 63 10000 2.1 150 11:37 13.06.2020
1582 Clear 19 1009 68 10000 3.1 190 11:19 13.06.2020
1583 Clear 18 1009 68 10000 3.1 190 10:55 13.06.2020
1584 Clouds 18 1009 72 10000 2.1 160 10:37 13.06.2020
1585 Clouds 17 1009 82 10000 2.1 160 10:18 13.06.2020
1586 Clouds 17 1009 82 10000 3.6 160 09:42 13.06.2020
1587 Clouds 16 1009 77 10000 2.6 150 09:20 13.06.2020
1588 Clouds 15 1009 77 10000 2.6 150 08:46 13.06.2020
1589 Clouds 15 1009 82 10000 3.1 130 08:28 13.06.2020
1590 Clouds 13 1008 87 10000 3.1 120 07:50 13.06.2020
1591 Clouds 13 1008 87 10000 3.1 120 07:27 13.06.2020
1592 Clouds 12 1008 93 10000 2.1 110 06:49 13.06.2020
1593 Clouds 12 1008 93 10000 2.1 110 06:28 13.06.2020
1594 Clouds 12 1007 93 10000 2.1 90 05:42 13.06.2020
1595 Clouds 12 1007 93 10000 2.1 90 05:23 13.06.2020
1596 Clouds 13 1007 87 10000 2.6 90 03:47 13.06.2020
1597 Clouds 14 1006 82 10000 1 0 02:53 13.06.2020
1598 Clouds 14 1007 82 10000 2.1 160 02:29 13.06.2020
1599 Clouds 15 1006 82 10000 3.6 130 01:41 13.06.2020
1600 Clouds 15 1006 77 10000 3.1 140 01:18 13.06.2020
1601 Clouds 15 1006 77 10000 3.6 170 00:42 13.06.2020
1602 Clouds 16 1006 77 10000 3.6 170 00:23 13.06.2020
1603 Clouds 16 1005 72 10000 3.6 130 23:41 12.06.2020
1604 Clouds 16 1005 72 10000 3.6 130 23:19 12.06.2020
1605 Clouds 17 1005 72 10000 3.1 130 22:58 12.06.2020
1606 Clouds 17 1004 68 10000 4.6 130 22:39 12.06.2020
1607 Clouds 18 1004 68 10000 5.7 130 22:19 12.06.2020
1608 Clouds 18 1004 68 10000 5.7 130 21:47 12.06.2020
1609 Clouds 19 1004 63 10000 5.7 140 21:24 12.06.2020
1610 Clouds 19 1004 63 10000 6.2 120 20:58 12.06.2020
1611 Clouds 20 1003 64 10000 6.2 120 20:40 12.06.2020
1612 Clouds 20 1003 64 10000 6.2 120 20:22 12.06.2020
1613 Clouds 20 1003 60 10000 6.2 120 19:56 12.06.2020
1614 Clouds 21 1003 64 10000 5.1 100 19:38 12.06.2020
1615 Clouds 20 1003 64 10000 4.6 120 19:18 12.06.2020
1616 Clouds 21 1003 64 10000 3.6 120 18:39 12.06.2020
1617 Clouds 20 1003 64 10000 3.6 120 18:19 12.06.2020
1618 Clouds 20 1003 60 10000 5.1 170 17:54 12.06.2020
1619 Clouds 20 1003 60 10000 5.1 170 17:36 12.06.2020
1620 Clouds 20 1003 60 10000 5.1 170 17:18 12.06.2020
1621 Clouds 19 1003 63 10000 4.6 170 16:40 12.06.2020
1622 Clouds 19 1003 63 10000 4.6 170 16:19 12.06.2020
1623 Clouds 19 1003 72 10000 4.6 110 15:47 12.06.2020
1624 Clouds 19 1003 72 10000 4.6 110 15:25 12.06.2020
1625 Clouds 18 1003 72 10000 4.1 140 14:56 12.06.2020
1626 Clouds 18 1003 72 10000 4.1 180 14:38 12.06.2020
1627 Clouds 18 1003 72 10000 4.1 180 14:19 12.06.2020
1628 Rain 17 1002 82 10000 5.7 140 13:41 12.06.2020
1629 Clouds 17 1002 82 10000 6.7 130 13:21 12.06.2020
1630 Clouds 16 1002 88 10000 6.7 120 12:41 12.06.2020
1631 Drizzle 16 1002 87 10000 7.7 110 12:20 12.06.2020
1632 Drizzle 16 1002 87 10000 7.7 110 11:58 12.06.2020
1633 Clouds 16 1002 87 10000 7.2 90 11:38 12.06.2020
1634 Rain 15 1002 93 10000 6.7 100 11:19 12.06.2020
1635 Rain 15 1002 93 10000 8.2 100 10:45 12.06.2020
1636 Rain 15 1002 93 10000 8.2 100 10:24 12.06.2020
1637 Rain 15 1002 93 10000 7.7 100 09:46 12.06.2020
1638 Rain 15 1002 93 10000 4.6 110 09:21 12.06.2020
1639 Rain 15 1002 93 10000 6.2 110 08:45 12.06.2020
1640 Rain 15 1002 93 10000 6.2 110 08:25 12.06.2020
1641 Rain 15 1002 93 9000 5.7 90 07:44 12.06.2020
1642 Rain 15 1002 93 9000 5.7 90 07:26 12.06.2020
1643 Clouds 15 1002 87 10000 6.2 80 06:56 12.06.2020
1644 Clouds 15 1002 93 10000 5.1 60 06:30 12.06.2020
1645 Rain 15 1003 93 9000 3.1 60 05:57 12.06.2020
1646 Clouds 14 1003 93 10000 2.1 90 05:37 12.06.2020
1647 Clouds 14 1003 93 10000 2.6 40 05:19 12.06.2020
1648 Clouds 14 1004 93 10000 3.1 50 03:33 12.06.2020
1649 Clouds 14 1005 87 10000 2.1 50 01:57 12.06.2020
1650 Clouds 14 1005 87 10000 2.6 70 01:30 12.06.2020
1651 Rain 14 1006 93 10000 2.6 140 00:55 12.06.2020
1652 Rain 15 1006 93 8000 2.6 90 00:37 12.06.2020
1653 Rain 15 1006 93 7000 2.6 140 00:18 12.06.2020
1654 Rain 15 1006 93 10000 1.5 240 23:41 11.06.2020
1655 Rain 15 1006 93 10000 1.5 240 23:22 11.06.2020
1656 Clouds 16 1006 87 10000 1 0 22:59 11.06.2020
1657 Clouds 15 1005 87 10000 2.1 10 22:39 11.06.2020
1658 Rain 15 1005 87 10000 1.5 0 22:20 11.06.2020
1659 Rain 15 1005 87 10000 1.5 0 21:57 11.06.2020
1660 Rain 16 1006 82 10000 6.2 140 21:38 11.06.2020
1661 Rain 18 1005 60 10000 5.7 90 21:20 11.06.2020
1662 Rain 18 1005 60 10000 5.7 90 20:55 11.06.2020
1663 Rain 21 1005 56 10000 3.1 40 20:37 11.06.2020
1664 Rain 21 1005 56 10000 3.1 40 20:18 11.06.2020
1665 Rain 22 1005 49 10000 5.1 70 19:41 11.06.2020
1666 Rain 22 1005 49 10000 5.1 70 19:22 11.06.2020
1667 Rain 23 1005 41 10000 4.6 120 18:43 11.06.2020
1668 Rain 23 1005 40 10000 4.6 130 18:25 11.06.2020
1669 Rain 23 1006 36 10000 4.6 110 17:57 11.06.2020
1670 Rain 23 1006 36 10000 4.6 110 17:38 11.06.2020
1671 Rain 23 1006 40 10000 5.7 80 17:20 11.06.2020
1672 Rain 23 1006 40 10000 5.7 80 17:20 11.06.2020
1673 Rain 23 1006 40 10000 5.7 80 16:58 11.06.2020
1674 Rain 22 1006 40 10000 5.7 80 16:40 11.06.2020
1675 Clouds 23 1006 38 10000 6.2 60 16:22 11.06.2020
1676 Clouds 23 1007 38 10000 5.1 90 15:56 11.06.2020
1677 Clouds 22 1007 38 10000 5.1 90 15:38 11.06.2020
1678 Clouds 23 1007 40 10000 4.1 50 15:19 11.06.2020
1679 Clouds 22 1007 37 10000 3.6 90 14:42 11.06.2020
1680 Clouds 22 1008 37 10000 5.1 70 14:21 11.06.2020
1681 Clouds 22 1008 37 10000 5.1 70 13:56 11.06.2020
1682 Clouds 21 1008 40 10000 4.6 100 13:38 11.06.2020
1683 Clouds 21 1008 40 10000 4.6 100 13:38 11.06.2020
1684 Clouds 21 1008 45 10000 4.6 80 13:20 11.06.2020
1685 Clouds 21 1008 45 10000 4.1 90 12:56 11.06.2020
1686 Clouds 20 1008 45 10000 4.1 90 12:38 11.06.2020
1687 Clouds 20 1008 45 10000 4.6 100 12:19 11.06.2020
1688 Clouds 20 1009 45 10000 2.6 110 11:57 11.06.2020
1689 Clouds 19 1009 45 10000 2.6 110 11:38 11.06.2020
1690 Clouds 19 1009 52 10000 3.1 90 11:19 11.06.2020
1691 Clouds 18 1009 59 10000 1.5 90 10:54 11.06.2020
1692 Clouds 18 1009 59 10000 1.5 90 10:36 11.06.2020
1693 Clouds 17 1009 63 10000 1 0 10:18 11.06.2020
1694 Clouds 16 1010 67 10000 1 0 09:40 11.06.2020
1695 Clouds 15 1010 77 10000 1 0 09:22 11.06.2020
1696 Clouds 14 1010 82 10000 1 0 08:43 11.06.2020
1697 Clouds 13 1010 87 10000 1.5 70 08:19 11.06.2020
1698 Clouds 13 1010 87 10000 2.1 60 07:42 11.06.2020
1699 Clouds 12 1010 93 10000 2.1 40 07:24 11.06.2020
1700 Clouds 12 1010 93 10000 1 20 06:40 11.06.2020
1701 Clouds 12 1010 93 10000 1 20 06:21 11.06.2020
1702 Rain 12 1010 93 10000 1 0 05:28 11.06.2020
1703 Clouds 12 1012 87 10000 1 20 03:30 11.06.2020
1704 Clouds 12 1012 93 10000 1.5 230 02:50 11.06.2020
1705 Rain 12 1012 93 10000 1.5 230 02:32 11.06.2020
1706 Rain 13 1013 87 10000 1.5 0 01:47 11.06.2020
1707 Rain 13 1013 87 10000 2.1 280 01:24 11.06.2020
1708 Rain 13 1013 87 10000 2.1 280 00:49 11.06.2020
1709 Rain 13 1013 82 10000 2.6 280 00:27 11.06.2020
1710 Rain 13 1014 76 10000 3.6 280 23:46 10.06.2020
1711 Rain 14 1013 76 10000 4.1 270 23:27 10.06.2020
1712 Rain 14 1013 76 10000 4.1 270 22:56 10.06.2020
1713 Rain 14 1013 72 10000 4.6 260 22:38 10.06.2020
1714 Clouds 15 1013 67 10000 4.6 280 22:19 10.06.2020
1715 Clouds 15 1013 55 10000 3.1 290 21:56 10.06.2020
1716 Clouds 16 1013 55 10000 3.1 290 21:38 10.06.2020
1717 Clouds 17 1013 45 10000 2.6 320 21:18 10.06.2020
1718 Clouds 18 1013 48 10000 2.1 350 20:56 10.06.2020
1719 Clouds 18 1013 48 10000 2.1 350 20:38 10.06.2020
1720 Clouds 18 1013 42 10000 1.5 350 20:20 10.06.2020
1721 Clouds 19 1013 42 10000 2.1 350 19:41 10.06.2020
1722 Clouds 19 1013 42 10000 2.6 290 19:20 10.06.2020
1723 Clouds 19 1013 40 10000 1.5 0 18:58 10.06.2020
1724 Clouds 19 1013 40 10000 1.5 0 18:40 10.06.2020
1725 Clouds 19 1013 42 10000 2.1 260 18:19 10.06.2020
1726 Clouds 20 1014 40 10000 2.1 350 17:56 10.06.2020
1727 Clouds 20 1014 40 10000 2.1 350 17:37 10.06.2020
1728 Clouds 20 1014 40 10000 1.5 350 17:19 10.06.2020
1729 Clouds 20 1014 40 10000 1.5 350 16:57 10.06.2020
1730 Clouds 20 1014 40 10000 2.1 0 16:39 10.06.2020
1731 Clouds 20 1015 42 10000 2.6 320 16:20 10.06.2020
1732 Clouds 20 1015 45 10000 2.6 310 15:41 10.06.2020
1733 Clouds 19 1015 45 10000 3.1 320 15:22 10.06.2020
1734 Clouds 19 1015 42 10000 1.5 310 14:58 10.06.2020
1735 Clouds 19 1015 42 10000 1.5 310 14:39 10.06.2020
1736 Clouds 19 1015 45 10000 3.1 330 14:20 10.06.2020
1737 Clouds 19 1016 42 10000 2.6 280 13:41 10.06.2020
1738 Clouds 19 1016 45 10000 1.5 0 13:21 10.06.2020
1739 Clouds 18 1016 45 10000 2.1 0 12:45 10.06.2020
1740 Clouds 18 1016 48 10000 2.6 40 12:23 10.06.2020
1741 Clouds 17 1016 48 10000 2.6 0 11:59 10.06.2020
1742 Clouds 17 1016 48 10000 2.6 0 11:41 10.06.2020
1743 Clouds 17 1017 55 10000 2.6 350 11:20 10.06.2020
1744 Clouds 17 1017 55 10000 2.6 350 10:58 10.06.2020
1745 Clouds 17 1017 55 10000 2.6 350 10:58 10.06.2020
1746 Clouds 16 1017 59 10000 2.1 350 10:39 10.06.2020
1747 Clouds 16 1017 59 10000 2.1 350 10:39 10.06.2020
1748 Clouds 15 1017 62 10000 1.5 0 10:21 10.06.2020
1749 Clouds 14 1017 67 10000 1.5 0 09:42 10.06.2020
1750 Clouds 13 1017 71 10000 1.5 0 09:23 10.06.2020
1751 Clouds 13 1017 71 10000 2.1 330 08:57 10.06.2020
1752 Clouds 12 1017 71 10000 2.1 330 08:39 10.06.2020
1753 Clouds 11 1017 76 10000 1.5 0 08:20 10.06.2020
1754 Clouds 11 1017 81 10000 1.5 0 07:39 10.06.2020
1755 Clear 10 1018 81 10000 1.5 330 07:21 10.06.2020
1756 Clear 10 1018 87 10000 1.5 350 06:47 10.06.2020
1757 Clear 9 1018 87 10000 0.5 330 06:25 10.06.2020
1758 Clear 9 1018 87 10000 0.5 330 05:58 10.06.2020
1759 Clouds 10 1018 87 10000 1 330 05:28 10.06.2020
1760 Clouds 10 1018 87 10000 0.5 0 04:37 10.06.2020
1761 Clouds 11 1018 81 10000 2.1 350 03:33 10.06.2020
1762 Clouds 12 1019 76 10000 1.5 330 02:23 10.06.2020
1763 Clouds 13 1019 71 10000 1 330 01:38 10.06.2020
1764 Clouds 14 1019 67 10000 1.5 330 00:40 10.06.2020
1765 Clouds 14 1019 67 10000 1.5 0 00:22 10.06.2020
1766 Clouds 14 1019 67 10000 1.5 350 23:58 09.06.2020
1767 Clouds 15 1019 67 10000 1.5 350 23:39 09.06.2020
1768 Clouds 15 1019 62 10000 1.5 360 23:21 09.06.2020
1769 Clouds 15 1018 62 10000 3.1 10 22:56 09.06.2020
1770 Clouds 16 1018 62 10000 3.1 10 22:38 09.06.2020
1771 Clouds 16 1018 59 10000 3.6 10 22:20 09.06.2020
1772 Clouds 17 1018 55 10000 3.1 20 21:56 09.06.2020
1773 Clouds 17 1018 55 10000 3.1 20 21:38 09.06.2020
1774 Clouds 17 1018 55 10000 3.1 20 21:38 09.06.2020
1775 Clouds 17 1018 51 10000 4.1 10 21:20 09.06.2020
1776 Clouds 17 1018 51 10000 4.1 10 21:20 09.06.2020
1777 Clouds 18 1018 48 10000 3.1 360 20:57 09.06.2020
1778 Clouds 18 1018 48 10000 3.1 360 20:38 09.06.2020
1779 Clouds 18 1017 52 10000 4.6 10 20:20 09.06.2020
1780 Clouds 18 1017 52 10000 4.6 10 20:20 09.06.2020
1781 Clouds 18 1017 48 10000 3.1 360 19:57 09.06.2020
1782 Clouds 19 1017 48 10000 3.1 360 19:39 09.06.2020
1783 Clouds 18 1017 45 10000 3.6 310 19:20 09.06.2020
1784 Clouds 18 1017 45 10000 3.6 310 19:20 09.06.2020
1785 Clouds 18 1017 45 10000 4.1 340 18:56 09.06.2020
1786 Clouds 19 1017 45 10000 4.1 340 18:38 09.06.2020
1787 Clouds 18 1018 52 10000 4.6 360 18:18 09.06.2020
1788 Clouds 18 1018 52 10000 2.6 340 17:55 09.06.2020
1789 Clouds 18 1018 52 10000 2.6 340 17:36 09.06.2020
1790 Clouds 18 1018 52 10000 3.1 40 17:18 09.06.2020
1791 Clouds 18 1018 52 10000 3.1 360 16:42 09.06.2020
1792 Clouds 17 1018 55 10000 3.1 10 16:23 09.06.2020
1793 Clouds 17 1018 51 10000 3.6 350 15:55 09.06.2020
1794 Clouds 17 1019 55 10000 4.1 340 15:37 09.06.2020
1795 Clouds 17 1019 55 10000 4.1 340 15:19 09.06.2020
1796 Clouds 16 1019 55 10000 5.1 340 14:41 09.06.2020
1797 Clouds 16 1019 59 10000 3.6 340 14:21 09.06.2020
1798 Clouds 16 1019 59 10000 3.6 340 13:59 09.06.2020
1799 Clouds 15 1019 62 10000 3.6 10 13:41 09.06.2020
1800 Clouds 15 1019 58 10000 4.6 360 13:21 09.06.2020
1801 Clouds 15 1019 58 10000 4.6 350 12:55 09.06.2020
1802 Clouds 15 1019 58 10000 4.6 350 12:37 09.06.2020
1803 Clouds 15 1019 62 10000 4.1 360 12:18 09.06.2020
1804 Clouds 14 1019 67 10000 4.6 350 11:55 09.06.2020
1805 Clouds 14 1019 67 10000 4.6 350 11:36 09.06.2020
1806 Clouds 13 1019 71 10000 3.6 340 11:18 09.06.2020
1807 Clouds 13 1019 76 10000 3.6 340 10:42 09.06.2020
1808 Clouds 12 1019 76 10000 4.1 340 10:24 09.06.2020
1809 Clouds 12 1019 76 10000 3.6 330 09:44 09.06.2020
1810 Clouds 12 1019 81 10000 4.1 330 09:25 09.06.2020
1811 Clouds 11 1019 81 10000 4.1 330 08:57 09.06.2020
1812 Clouds 12 1019 81 10000 3.6 330 08:38 09.06.2020
1813 Clouds 11 1019 81 10000 3.6 330 08:20 09.06.2020
1814 Clouds 11 1018 81 10000 3.6 330 07:39 09.06.2020
1815 Clouds 11 1018 81 10000 3.6 340 07:20 09.06.2020
1816 Clouds 11 1018 81 10000 4.1 340 06:54 09.06.2020
1817 Clouds 11 1018 81 10000 4.1 330 06:35 09.06.2020
1818 Clouds 12 1018 76 10000 3.6 330 05:36 09.06.2020
1819 Clouds 12 1018 76 10000 3.6 350 03:47 09.06.2020
1820 Clouds 13 1019 71 10000 3.6 350 01:44 09.06.2020
1821 Clouds 13 1019 76 10000 3.6 350 01:20 09.06.2020
1822 Clouds 13 1019 76 10000 3.1 360 00:58 09.06.2020
1823 Clouds 13 1019 76 10000 3.1 360 00:38 09.06.2020
1824 Clouds 13 1018 76 10000 4.1 350 00:18 09.06.2020
1825 Clouds 14 1018 76 10000 2.6 340 23:40 08.06.2020
1826 Clouds 14 1018 76 10000 5.7 10 23:20 08.06.2020
1827 Clouds 14 1018 71 10000 4.6 10 22:55 08.06.2020
1828 Clouds 14 1018 71 10000 4.6 10 22:37 08.06.2020
1829 Clouds 14 1017 71 10000 4.6 360 22:19 08.06.2020
1830 Clouds 15 1017 76 10000 3.6 350 21:55 08.06.2020
1831 Clouds 14 1017 76 10000 3.6 350 21:36 08.06.2020
1832 Clouds 15 1017 72 10000 5.1 340 21:18 08.06.2020
1833 Clouds 16 1016 72 10000 5.1 360 20:54 08.06.2020
1834 Clouds 16 1016 72 10000 5.1 360 20:36 08.06.2020
1835 Clouds 16 1016 72 10000 5.7 360 20:18 08.06.2020
1836 Clouds 16 1016 63 10000 5.1 350 19:41 08.06.2020
1837 Clouds 16 1016 67 10000 5.1 360 19:20 08.06.2020
1838 Rain 17 1016 63 10000 6.2 340 18:42 08.06.2020
1839 Rain 17 1016 59 10000 5.7 340 18:20 08.06.2020
1840 Clouds 17 1016 59 10000 5.7 340 18:20 08.06.2020
1841 Rain 18 1016 59 10000 5.1 340 17:57 08.06.2020
1842 Rain 17 1016 59 10000 5.1 340 17:39 08.06.2020
1843 Clouds 18 1016 55 10000 4.6 340 17:21 08.06.2020
1844 Clouds 18 1016 55 10000 4.6 340 16:58 08.06.2020
1845 Clouds 18 1015 55 10000 4.1 330 16:39 08.06.2020
1846 Clouds 18 1016 59 10000 3.6 350 16:21 08.06.2020
1847 Clouds 18 1016 59 10000 4.6 330 15:42 08.06.2020
1848 Clouds 18 1016 59 10000 3.6 340 15:21 08.06.2020
1849 Clouds 18 1016 63 10000 4.6 340 14:57 08.06.2020
1850 Clouds 18 1016 63 10000 4.6 340 14:38 08.06.2020
1851 Clouds 18 1016 63 10000 2.6 350 14:18 08.06.2020
1852 Clouds 18 1016 63 10000 2.6 350 14:18 08.06.2020
1853 Clouds 18 1016 63 10000 3.6 360 13:42 08.06.2020
1854 Clouds 18 1016 63 10000 3.1 350 13:23 08.06.2020
1855 Clouds 18 1016 67 10000 3.1 340 12:43 08.06.2020
1856 Clouds 17 1016 72 10000 3.1 10 12:20 08.06.2020
1857 Clouds 17 1016 72 10000 3.1 10 11:59 08.06.2020
1858 Clouds 16 1016 72 10000 3.1 350 11:40 08.06.2020
1859 Clouds 16 1016 72 10000 3.1 350 11:21 08.06.2020
1860 Clouds 16 1016 72 10000 3.1 350 11:21 08.06.2020
1861 Clouds 16 1016 72 10000 3.1 350 10:58 08.06.2020
1862 Clouds 15 1015 76 10000 3.1 10 10:38 08.06.2020
1863 Clouds 15 1015 76 10000 1.5 10 10:20 08.06.2020
1864 Clouds 15 1015 76 10000 1.5 360 09:57 08.06.2020
1865 Clouds 14 1015 76 10000 1.5 360 09:39 08.06.2020
1866 Clouds 14 1015 81 10000 2.1 350 09:20 08.06.2020
1867 Clouds 14 1015 76 10000 1.5 10 08:42 08.06.2020
1868 Clouds 13 1014 81 10000 2.1 10 08:20 08.06.2020
1869 Clouds 12 1014 87 10000 1.5 0 07:43 08.06.2020
1870 Clouds 11 1014 87 10000 2.1 360 07:21 08.06.2020
1871 Clouds 11 1013 87 10000 2.1 350 06:49 08.06.2020
1872 Clouds 11 1013 87 10000 2.1 360 06:28 08.06.2020
1873 Clouds 11 1013 81 10000 2.1 340 05:46 08.06.2020
1874 Clouds 12 1013 81 10000 2.1 350 04:29 08.06.2020
1875 Clouds 13 1013 71 10000 1.5 360 02:32 08.06.2020
1876 Clouds 13 1013 76 10000 1.5 0 01:46 08.06.2020
1877 Clouds 14 1013 71 10000 1.5 350 01:26 08.06.2020
1878 Clouds 14 1013 62 10000 1.5 340 00:30 08.06.2020
1879 Clouds 15 1012 67 10000 1 0 23:42 07.06.2020
1880 Clouds 15 1012 59 10000 1.5 330 23:20 07.06.2020
1881 Clouds 16 1012 59 10000 1.5 330 22:59 07.06.2020
1882 Clouds 16 1012 59 10000 1 340 22:39 07.06.2020
1883 Clouds 17 1012 55 10000 1 10 22:19 07.06.2020
1884 Clouds 17 1011 48 10000 1 0 21:59 07.06.2020
1885 Clouds 18 1011 48 10000 1 0 21:38 07.06.2020
1886 Clouds 18 1011 48 10000 1.5 350 21:20 07.06.2020
1887 Clouds 18 1011 48 10000 1.5 350 21:20 07.06.2020
1888 Clouds 18 1011 48 10000 1.5 350 21:20 07.06.2020
1889 Clouds 18 1011 52 10000 2.6 340 20:56 07.06.2020
1890 Rain 18 1011 52 10000 2.6 340 20:38 07.06.2020
1891 Rain 18 1011 45 10000 2.1 310 20:18 07.06.2020
1892 Rain 19 1011 45 10000 2.1 330 19:55 07.06.2020
1893 Rain 18 1011 45 10000 2.1 330 19:37 07.06.2020
1894 Rain 19 1010 45 10000 2.6 330 19:19 07.06.2020
1895 Rain 19 1010 42 10000 3.1 310 18:55 07.06.2020
1896 Rain 19 1010 42 10000 3.1 310 18:36 07.06.2020
1897 Rain 19 1010 45 10000 3.1 310 18:18 07.06.2020
1898 Rain 19 1010 45 10000 2.1 340 17:55 07.06.2020
1899 Rain 19 1010 45 10000 2.1 340 17:36 07.06.2020
1900 Rain 19 1010 42 10000 2.6 340 17:18 07.06.2020
1901 Clouds 19 1010 45 10000 3.1 280 16:41 07.06.2020
1902 Clouds 19 1010 45 10000 2.6 260 16:21 07.06.2020
1903 Clouds 19 1010 48 10000 4.1 200 15:40 07.06.2020
1904 Clouds 18 1010 52 10000 3.6 240 15:20 07.06.2020
1905 Clouds 18 1010 52 10000 2.1 210 14:40 07.06.2020
1906 Clouds 17 1010 59 10000 2.6 230 14:21 07.06.2020
1907 Clouds 16 1010 59 10000 1.5 0 13:48 07.06.2020
1908 Clouds 16 1010 63 10000 2.6 240 13:21 07.06.2020
1909 Clouds 16 1010 63 10000 2.6 240 12:55 07.06.2020
1910 Clouds 15 1009 67 10000 3.1 200 12:37 07.06.2020
1911 Clouds 15 1009 67 10000 3.1 200 12:18 07.06.2020
1912 Clouds 15 1009 67 10000 2.1 220 11:55 07.06.2020
1913 Clouds 15 1009 67 10000 2.1 220 11:36 07.06.2020
1914 Clouds 14 1009 72 10000 2.6 270 11:18 07.06.2020
1915 Clouds 14 1009 71 10000 2.6 260 10:43 07.06.2020
1916 Clouds 13 1008 76 10000 2.6 280 10:20 07.06.2020
1917 Clouds 13 1008 76 10000 2.6 280 09:57 07.06.2020
1918 Clouds 12 1008 76 10000 4.6 260 09:39 07.06.2020
1919 Clouds 12 1008 76 10000 3.6 260 09:20 07.06.2020
1920 Clouds 11 1008 81 10000 3.6 250 08:57 07.06.2020
1921 Clouds 11 1008 81 10000 3.6 250 08:39 07.06.2020
1922 Clouds 11 1007 76 10000 4.1 240 08:20 07.06.2020
1923 Clouds 10 1007 81 10000 3.1 230 07:32 07.06.2020
1924 Clouds 9 1007 81 10000 4.6 230 06:52 07.06.2020
1925 Clouds 9 1007 71 10000 3.6 240 05:52 07.06.2020
1926 Clouds 9 1006 71 10000 3.1 250 04:21 07.06.2020
1927 Clouds 9 1006 66 10000 3.1 250 03:33 07.06.2020
1928 Clouds 10 1006 62 10000 3.1 240 02:18 07.06.2020
1929 Clouds 11 1006 54 10000 4.1 250 01:25 07.06.2020
1930 Clouds 11 1006 50 10000 2.1 240 00:48 07.06.2020
1931 Clouds 12 1006 47 10000 4.1 260 00:20 07.06.2020
1932 Clouds 12 1006 47 10000 4.1 260 23:59 06.06.2020
1933 Clouds 13 1006 47 10000 3.6 260 23:38 06.06.2020
1934 Clouds 13 1005 41 10000 3.6 270 23:20 06.06.2020
1935 Clouds 13 1005 41 10000 3.6 270 22:56 06.06.2020
1936 Clouds 14 1005 41 10000 4.6 260 22:38 06.06.2020
1937 Clouds 14 1005 48 10000 7.2 270 22:19 06.06.2020
1938 Clouds 15 1005 48 10000 7.2 270 21:56 06.06.2020
1939 Clouds 15 1004 38 10000 5.7 260 21:37 06.06.2020
1940 Clouds 16 1004 36 10000 5.7 260 21:19 06.06.2020
1941 Clouds 17 1004 39 10000 6.7 260 20:40 06.06.2020
1942 Clouds 17 1004 36 10000 6.7 270 20:20 06.06.2020
1943 Clouds 17 1004 39 10000 7.2 260 19:58 06.06.2020
1944 Clouds 17 1004 39 10000 7.2 260 19:40 06.06.2020
1945 Clouds 18 1004 36 10000 6.7 250 19:21 06.06.2020
1946 Clouds 18 1004 42 10000 7.7 240 18:55 06.06.2020
1947 Clouds 18 1004 39 10000 6.2 240 18:36 06.06.2020
1948 Clouds 18 1004 39 10000 6.2 240 18:18 06.06.2020
1949 Clouds 18 1004 36 10000 7.2 250 17:43 06.06.2020
1950 Clouds 18 1004 36 10000 7.2 240 17:20 06.06.2020
1951 Clouds 18 1004 36 10000 7.2 240 16:56 06.06.2020
1952 Clouds 18 1004 37 10000 6.2 240 16:38 06.06.2020
1953 Clouds 18 1004 39 10000 7.7 240 16:19 06.06.2020
1954 Clouds 18 1004 36 10000 6.7 230 15:44 06.06.2020
1955 Clouds 18 1004 34 10000 8.2 230 15:20 06.06.2020
1956 Clouds 18 1004 34 10000 8.2 230 15:20 06.06.2020
1957 Clouds 18 1004 36 10000 8.7 230 14:57 06.06.2020
1958 Clouds 18 1004 36 10000 8.7 230 14:37 06.06.2020
1959 Clouds 17 1004 39 10000 8.2 230 14:19 06.06.2020
1960 Clouds 17 1004 42 10000 7.2 260 13:47 06.06.2020
1961 Clouds 16 1004 44 10000 7.7 250 13:19 06.06.2020
1962 Clouds 16 1004 44 10000 7.2 240 12:57 06.06.2020
1963 Clouds 16 1004 44 10000 7.2 240 12:57 06.06.2020
1964 Clouds 16 1004 44 10000 7.2 240 12:39 06.06.2020
1965 Clouds 16 1004 54 10000 5.7 260 12:19 06.06.2020
1966 Clouds 15 1004 58 10000 5.1 270 11:54 06.06.2020
1967 Clouds 15 1004 58 10000 5.1 270 11:36 06.06.2020
1968 Clouds 15 1004 58 10000 4.1 280 11:18 06.06.2020
1969 Clouds 14 1004 66 10000 5.7 280 10:55 06.06.2020
1970 Clouds 14 1004 66 10000 5.7 280 10:36 06.06.2020
1971 Clouds 13 1003 71 10000 5.7 260 10:18 06.06.2020
1972 Clouds 13 1003 76 10000 5.7 260 09:43 06.06.2020
1973 Clouds 13 1003 76 10000 5.7 260 09:24 06.06.2020
1974 Clouds 12 1003 87 10000 5.1 230 08:48 06.06.2020
1975 Rain 11 1003 87 10000 3.6 230 08:24 06.06.2020
1976 Rain 11 1002 81 10000 3.6 240 07:57 06.06.2020
1977 Rain 11 1002 81 10000 3.6 240 07:38 06.06.2020
1978 Rain 11 1002 81 10000 3.6 240 07:20 06.06.2020
1979 Clouds 11 1002 81 10000 3.6 250 06:44 06.06.2020
1980 Clouds 11 1002 81 10000 3.6 240 06:26 06.06.2020
1981 Clouds 11 1002 81 10000 5.7 240 05:41 06.06.2020
1982 Clouds 12 1002 81 10000 4.6 250 04:51 06.06.2020
1983 Clouds 12 1002 81 10000 4.1 240 03:45 06.06.2020
1984 Clouds 12 1002 76 10000 4.6 230 02:35 06.06.2020
1985 Rain 12 1002 76 10000 4.1 240 01:23 06.06.2020
1986 Clouds 12 1002 76 10000 4.1 230 00:58 06.06.2020
1987 Clouds 12 1002 76 10000 4.1 230 00:40 06.06.2020
1988 Clouds 12 1002 76 10000 3.1 230 00:21 06.06.2020
1989 Clouds 12 1002 76 10000 3.6 230 23:40 05.06.2020
1990 Clouds 13 1001 76 10000 3.6 260 23:20 05.06.2020
1991 Clouds 12 1001 76 10000 3.6 260 23:20 05.06.2020
1992 Clouds 13 1001 76 10000 3.6 260 22:57 05.06.2020
1993 Clouds 13 1001 76 10000 3.6 250 22:39 05.06.2020
1994 Clouds 13 1002 76 10000 6.2 240 22:20 05.06.2020
1995 Clouds 13 1002 76 10000 6.2 240 21:55 05.06.2020
1996 Rain 13 1001 76 10000 5.1 240 21:37 05.06.2020
1997 Rain 13 1001 67 10000 7.2 230 21:18 05.06.2020
1998 Clouds 14 1001 67 10000 6.2 240 20:44 05.06.2020
1999 Rain 14 1001 58 10000 7.7 250 20:22 05.06.2020
2000 Rain 14 1001 51 10000 7.7 270 19:57 05.06.2020
2001 Rain 15 1001 51 10000 7.7 270 19:39 05.06.2020
2002 Clouds 15 1000 51 10000 7.7 260 19:20 05.06.2020
2003 Clouds 16 1000 48 10000 7.2 270 18:40 05.06.2020
2004 Clouds 16 1000 48 10000 9.3 270 18:21 05.06.2020
2005 Clouds 16 1000 42 10000 7.7 280 17:59 05.06.2020
2006 Clouds 17 1000 42 10000 7.7 280 17:40 05.06.2020
2007 Clouds 17 999 42 10000 11.3 270 17:20 05.06.2020
2008 Clouds 16 1000 55 10000 8.7 280 16:45 05.06.2020
2009 Clouds 17 999 51 10000 8.7 280 16:26 05.06.2020
2010 Clouds 17 999 51 10000 8.7 280 15:59 05.06.2020
2011 Clouds 17 999 59 10000 6.7 280 15:38 05.06.2020
2012 Clouds 17 999 59 10000 7.7 260 15:20 05.06.2020
2013 Clouds 17 998 59 10000 8.7 270 14:57 05.06.2020
2014 Clouds 17 998 59 10000 8.7 270 14:39 05.06.2020
2015 Clouds 17 999 59 10000 7.7 260 14:21 05.06.2020
2016 Rain 16 998 67 10000 8.2 240 13:46 05.06.2020
2017 Rain 16 998 72 10000 7.2 230 13:27 05.06.2020
2018 Rain 15 998 72 10000 7.2 230 12:56 05.06.2020
2019 Clouds 14 998 82 10000 8.2 230 12:37 05.06.2020
2020 Clouds 14 998 82 10000 6.7 230 12:18 05.06.2020
2021 Clouds 14 998 87 10000 6.2 230 11:42 05.06.2020
2022 Clouds 13 999 93 10000 6.2 220 11:23 05.06.2020
2023 Rain 13 999 87 10000 8.2 220 10:58 05.06.2020
2024 Rain 13 999 87 10000 8.2 220 10:39 05.06.2020
2025 Rain 13 999 87 10000 8.2 220 10:39 05.06.2020
2026 Clouds 13 999 76 10000 7.2 220 10:19 05.06.2020
2027 Clouds 13 999 76 10000 6.7 210 09:57 05.06.2020
2028 Clouds 13 999 76 10000 6.7 210 09:37 05.06.2020
2029 Clouds 12 999 81 10000 5.1 210 09:19 05.06.2020
2030 Clouds 12 999 81 10000 5.1 210 08:57 05.06.2020
2031 Clouds 12 1000 81 10000 6.7 210 08:39 05.06.2020
2032 Clouds 12 1000 81 10000 5.1 220 08:18 05.06.2020
2033 Clouds 11 1000 76 10000 5.7 230 07:50 05.06.2020
2034 Clouds 11 1000 76 10000 5.7 230 07:31 05.06.2020
2035 Rain 11 1000 76 10000 5.7 230 06:48 05.06.2020
2036 Clouds 12 1001 76 10000 4.6 230 05:23 05.06.2020
2037 Clouds 11 1002 76 10000 4.1 240 04:27 05.06.2020
2038 Clouds 11 1002 76 10000 3.1 250 03:30 05.06.2020
2039 Clouds 12 1002 76 10000 3.1 250 02:30 05.06.2020
2040 Clouds 12 1003 71 10000 3.6 280 01:59 05.06.2020
2041 Clouds 12 1003 71 10000 4.1 280 01:33 05.06.2020
2042 Clouds 13 1003 76 10000 2.6 270 00:46 05.06.2020
2043 Clouds 13 1003 76 10000 3.6 270 00:22 05.06.2020
2044 Clouds 13 1003 76 10000 2.1 280 23:58 04.06.2020
2045 Clouds 13 1003 76 10000 2.1 280 23:40 04.06.2020
2046 Clouds 13 1003 82 10000 2.6 290 23:21 04.06.2020
2047 Clouds 13 1002 82 10000 2.1 310 22:42 04.06.2020
2048 Clouds 13 1002 82 10000 2.1 290 22:21 04.06.2020
2049 Clouds 14 1002 82 10000 3.1 300 21:58 04.06.2020
2050 Clouds 14 1002 82 10000 3.1 300 21:39 04.06.2020
2051 Clouds 14 1002 82 10000 3.1 300 21:20 04.06.2020
2052 Clouds 14 1002 82 10000 4.1 320 20:57 04.06.2020
2053 Rain 14 1002 82 10000 4.1 320 20:39 04.06.2020
2054 Rain 14 1002 82 10000 4.1 320 20:39 04.06.2020
2055 Rain 14 1001 71 10000 5.1 310 20:20 04.06.2020
2056 Rain 14 1001 71 10000 5.1 310 19:55 04.06.2020
2057 Rain 14 1001 82 5000 5.1 320 19:37 04.06.2020
2058 Rain 15 1001 82 5000 5.1 320 19:19 04.06.2020
2059 Clouds 15 1001 82 10000 3.6 320 18:39 04.06.2020
2060 Clouds 15 1001 76 10000 4.1 320 18:20 04.06.2020
2061 Clouds 15 1001 76 10000 4.1 320 17:58 04.06.2020
2062 Rain 15 1001 87 10000 4.1 320 17:40 04.06.2020
2063 Rain 15 1001 87 10000 4.1 300 17:19 04.06.2020
2064 Clouds 15 1001 77 10000 3.1 280 16:41 04.06.2020
2065 Clouds 16 1000 77 10000 5.1 320 16:20 04.06.2020
2066 Clouds 17 1000 67 10000 4.1 330 15:47 04.06.2020
2067 Rain 17 1000 67 10000 3.1 290 15:27 04.06.2020
2068 Clouds 16 1000 72 10000 3.1 350 14:58 04.06.2020
2069 Clouds 16 1000 72 10000 3.1 350 14:38 04.06.2020
2070 Clouds 15 1000 72 10000 2.6 320 14:19 04.06.2020
2071 Clouds 14 1001 82 10000 2.6 280 13:54 04.06.2020
2072 Clouds 14 1001 82 10000 2.6 280 13:36 04.06.2020
2073 Drizzle 14 1001 82 10000 2.6 320 13:18 04.06.2020
2074 Clouds 13 1000 82 10000 2.1 320 12:41 04.06.2020
2075 Rain 13 1000 87 10000 1.5 290 12:23 04.06.2020
2076 Rain 13 1000 87 10000 2.6 320 11:59 04.06.2020
2077 Rain 13 1000 87 10000 2.6 320 11:39 04.06.2020
2078 Rain 13 1000 93 10000 2.6 330 11:20 04.06.2020
2079 Rain 13 1000 93 10000 2.6 300 10:57 04.06.2020
2080 Rain 13 1000 93 10000 2.6 300 10:38 04.06.2020
2081 Rain 13 1000 93 8000 2.6 320 10:19 04.06.2020
2082 Rain 13 1000 93 9000 3.1 320 09:45 04.06.2020
2083 Rain 12 1000 93 9000 2.1 330 09:27 04.06.2020
2084 Rain 12 1000 87 6000 2.6 340 08:48 04.06.2020
2085 Rain 12 1000 87 6000 2.6 340 08:28 04.06.2020
2086 Rain 12 1000 93 6000 3.1 340 07:58 04.06.2020
2087 Rain 12 999 87 6000 2.6 350 07:29 04.06.2020
2088 Rain 13 1000 87 10000 3.1 360 06:44 04.06.2020
2089 Rain 13 1000 87 10000 3.1 360 06:26 04.06.2020
2090 Rain 13 1000 87 10000 3.6 350 05:39 04.06.2020
2091 Rain 14 1000 82 10000 3.6 350 05:20 04.06.2020
2092 Clouds 15 1001 82 10000 2.1 350 03:28 04.06.2020
2093 Rain 16 1001 82 10000 2.1 30 01:58 04.06.2020
2094 Rain 16 1001 87 10000 2.6 360 01:20 04.06.2020
2095 Rain 16 1001 87 10000 2.6 90 00:51 04.06.2020
2096 Thunderstorm 16 1002 77 8000 4.6 130 23:56 03.06.2020
2097 Thunderstorm 17 1002 77 8000 4.6 130 23:36 03.06.2020
2098 Rain 17 1002 68 10000 6.7 220 23:18 03.06.2020
2099 Thunderstorm 18 1001 49 10000 3.6 10 22:40 03.06.2020
2100 Thunderstorm 19 1001 49 10000 5.1 10 22:19 03.06.2020
2101 Thunderstorm 19 1001 49 10000 5.1 10 22:19 03.06.2020
2102 Thunderstorm 19 1001 49 10000 5.1 10 21:59 03.06.2020
2103 Rain 20 1001 49 10000 5.7 360 21:59 03.06.2020
2104 Rain 20 1001 49 10000 5.7 360 21:40 03.06.2020
2105 Rain 21 1001 46 10000 6.2 360 21:22 03.06.2020
2106 Rain 22 1001 46 10000 6.2 360 20:58 03.06.2020
2107 Rain 22 1001 46 10000 5.7 10 20:40 03.06.2020
2108 Rain 24 1000 44 10000 5.1 360 20:20 03.06.2020
2109 Rain 25 1001 41 10000 4.1 30 19:57 03.06.2020
2110 Rain 25 1001 41 10000 4.1 30 19:38 03.06.2020
2111 Rain 25 1001 41 10000 4.6 360 19:19 03.06.2020
2112 Rain 25 1001 38 10000 4.6 360 18:57 03.06.2020
2113 Rain 25 1001 38 10000 4.6 360 18:38 03.06.2020
2114 Rain 25 1002 38 10000 5.1 30 18:18 03.06.2020
2115 Rain 26 1002 41 10000 4.1 340 17:44 03.06.2020
2116 Rain 26 1002 41 10000 4.6 360 17:22 03.06.2020
2117 Rain 26 1002 41 10000 4.6 360 16:57 03.06.2020
2118 Rain 26 1003 44 10000 4.6 30 16:39 03.06.2020
2119 Rain 26 1003 39 10000 4.1 360 16:19 03.06.2020
2120 Rain 26 1003 41 10000 4.1 360 15:54 03.06.2020
2121 Clouds 26 1004 41 10000 2.6 70 15:36 03.06.2020
2122 Clouds 26 1004 41 10000 2.6 70 15:18 03.06.2020
2123 Clouds 26 1004 41 10000 4.1 350 14:42 03.06.2020
2124 Clouds 25 1005 41 10000 3.6 50 14:22 03.06.2020
2125 Clouds 25 1005 44 10000 3.6 360 13:40 03.06.2020
2126 Clouds 24 1005 41 10000 4.1 60 13:20 03.06.2020
2127 Clouds 24 1005 41 10000 4.1 60 13:20 03.06.2020
2128 Clouds 24 1006 41 10000 4.6 60 12:56 03.06.2020
2129 Clouds 24 1006 41 10000 4.6 60 12:38 03.06.2020
2130 Clouds 23 1006 38 10000 3.6 40 12:18 03.06.2020
2131 Clouds 23 1006 40 10000 4.6 40 11:43 03.06.2020
2132 Rain 22 1006 43 10000 4.6 50 11:24 03.06.2020
2133 Rain 22 1007 46 10000 4.1 50 10:43 03.06.2020
2134 Rain 21 1007 52 10000 3.1 40 10:24 03.06.2020
2135 Rain 21 1007 52 10000 3.1 40 09:55 03.06.2020
2136 Rain 20 1007 52 10000 3.6 30 09:36 03.06.2020
2137 Rain 19 1007 59 10000 2.6 10 09:18 03.06.2020
2138 Rain 19 1007 59 10000 4.1 20 08:45 03.06.2020
2139 Rain 18 1008 59 10000 3.1 350 08:21 03.06.2020
2140 Rain 18 1008 67 10000 1.5 0 07:45 03.06.2020
2141 Rain 17 1008 67 10000 2.1 30 07:24 03.06.2020
2142 Rain 17 1008 67 10000 1 0 06:55 03.06.2020
2143 Rain 17 1009 63 10000 1.5 0 06:34 03.06.2020
2144 Rain 18 1009 59 10000 1.5 360 05:49 03.06.2020
2145 Rain 18 1010 59 10000 3.1 340 05:23 03.06.2020
2146 Rain 19 1010 63 10000 3.1 340 03:52 03.06.2020
2147 Rain 18 1010 63 10000 3.1 340 03:24 03.06.2020
2148 Rain 20 1011 63 10000 1.5 340 02:24 03.06.2020
2149 Clouds 21 1012 56 10000 1.5 30 01:26 03.06.2020
2150 Clouds 21 1012 49 10000 3.1 20 00:37 03.06.2020
2151 Clouds 21 1012 49 10000 3.1 20 00:18 03.06.2020
2152 Clouds 22 1012 46 10000 2.6 10 23:39 02.06.2020
2153 Clouds 23 1012 44 10000 2.6 20 23:21 02.06.2020
2154 Clouds 24 1012 43 10000 3.1 40 22:40 02.06.2020
2155 Clouds 25 1012 38 10000 2.6 30 22:19 02.06.2020
2156 Clouds 26 1012 32 10000 3.1 20 21:57 02.06.2020
2157 Clouds 26 1012 32 10000 3.1 20 21:39 02.06.2020
2158 Clouds 26 1012 32 10000 3.1 360 21:21 02.06.2020
2159 Clouds 26 1012 32 10000 3.1 360 20:59 02.06.2020
2160 Clouds 27 1012 30 10000 3.6 360 20:40 02.06.2020
2161 Clouds 27 1012 28 10000 3.1 340 20:22 02.06.2020
2162 Clouds 28 1013 30 10000 3.1 40 19:45 02.06.2020
2163 Clouds 28 1013 26 10000 2.6 360 19:26 02.06.2020
2164 Clouds 28 1013 25 10000 2.6 320 18:59 02.06.2020
2165 Clouds 29 1013 25 10000 2.6 320 18:40 02.06.2020
2166 Clouds 29 1013 25 10000 2.6 320 18:40 02.06.2020
2167 Clouds 29 1013 25 10000 2.1 0 18:21 02.06.2020
2168 Clouds 29 1013 25 10000 2.1 0 17:59 02.06.2020
2169 Clouds 29 1014 25 10000 3.6 50 17:40 02.06.2020
2170 Clouds 29 1014 25 10000 3.6 50 17:40 02.06.2020
2171 Clouds 29 1014 26 10000 3.1 30 17:21 02.06.2020
2172 Clouds 29 1014 25 10000 2.6 0 16:56 02.06.2020
2173 Clouds 29 1014 25 10000 2.6 0 16:38 02.06.2020
2174 Clouds 29 1015 26 10000 3.1 100 16:19 02.06.2020
2175 Clouds 28 1015 28 10000 3.1 20 15:42 02.06.2020
2176 Clear 28 1016 30 10000 2.6 50 15:23 02.06.2020
2177 Clear 28 1016 28 10000 1.5 0 14:49 02.06.2020
2178 Clear 28 1016 28 10000 1.5 0 14:30 02.06.2020
2179 Clear 28 1016 32 10000 3.1 0 13:58 02.06.2020
2180 Clear 27 1016 32 10000 3.1 0 13:39 02.06.2020
2181 Clear 27 1016 32 10000 4.6 70 13:19 02.06.2020
2182 Clear 27 1017 34 10000 3.1 40 12:58 02.06.2020
2183 Clear 27 1017 34 10000 3.1 40 12:40 02.06.2020
2184 Clear 26 1017 34 10000 1.5 0 12:20 02.06.2020
2185 Clear 26 1017 34 10000 1.5 0 12:20 02.06.2020
2186 Clear 25 1017 41 10000 2.1 20 11:56 02.06.2020
2187 Clear 25 1017 41 10000 2.1 20 11:38 02.06.2020
2188 Clear 25 1017 44 10000 1 0 11:20 02.06.2020
2189 Clear 25 1017 44 10000 1 0 11:20 02.06.2020
2190 Clear 24 1017 49 10000 1 0 10:47 02.06.2020
2191 Clear 23 1017 49 10000 1 0 10:28 02.06.2020
2192 Clear 22 1017 53 10000 1.5 10 09:56 02.06.2020
2193 Clear 23 1017 53 10000 1.5 10 09:56 02.06.2020
2194 Clear 22 1017 60 10000 1.5 350 09:37 02.06.2020
2195 Clouds 20 1017 63 10000 1.5 0 09:19 02.06.2020
2196 Clouds 19 1017 63 10000 1.5 0 08:47 02.06.2020
2197 Clouds 18 1018 67 10000 1.5 0 08:20 02.06.2020
2198 Clouds 17 1018 72 10000 1 0 07:46 02.06.2020
2199 Clear 16 1018 77 10000 1.5 0 07:25 02.06.2020
2200 Clear 15 1017 77 10000 2.1 350 06:43 02.06.2020
2201 Clouds 16 1017 72 10000 2.6 350 05:58 02.06.2020
2202 Clouds 16 1017 72 10000 2.1 360 05:21 02.06.2020
2203 Clouds 16 1017 67 10000 2.1 340 03:25 02.06.2020
2204 Clouds 17 1017 63 10000 2.6 350 02:26 02.06.2020
2205 Clear 18 1018 68 10000 1.5 360 01:25 02.06.2020
2206 Clouds 18 1018 59 10000 1.5 340 00:26 02.06.2020
2207 Clouds 18 1018 59 10000 1.5 340 23:57 01.06.2020
2208 Clouds 20 1017 52 10000 1.5 350 23:37 01.06.2020
2209 Clouds 21 1017 49 10000 2.1 10 23:18 01.06.2020
2210 Clouds 22 1017 43 10000 1.5 20 22:42 01.06.2020
2211 Clouds 22 1017 43 10000 2.1 60 22:21 01.06.2020
2212 Clouds 23 1017 43 10000 2.1 60 21:58 01.06.2020
2213 Clouds 24 1017 41 10000 3.1 60 21:40 01.06.2020
2214 Clear 25 1017 36 10000 3.6 70 21:20 01.06.2020
2215 Clear 25 1017 36 10000 3.6 70 20:56 01.06.2020
2216 Clear 26 1017 36 10000 4.6 70 20:38 01.06.2020
2217 Clear 26 1017 34 10000 5.1 50 20:19 01.06.2020
2218 Clear 26 1017 34 10000 5.1 50 19:55 01.06.2020
2219 Clear 26 1017 34 10000 5.1 50 19:37 01.06.2020
2220 Clear 27 1017 34 10000 4.6 40 19:19 01.06.2020
2221 Clear 26 1017 34 10000 5.1 50 18:55 01.06.2020
2222 Clear 27 1017 34 10000 3.6 30 18:37 01.06.2020
2223 Clear 26 1017 34 10000 3.6 30 18:18 01.06.2020
2224 Clear 27 1017 34 10000 4.1 60 17:40 01.06.2020
2225 Clear 26 1018 31 10000 4.1 50 17:19 01.06.2020
2226 Clear 26 1018 34 10000 3.6 50 16:42 01.06.2020
2227 Clear 26 1018 31 10000 5.7 60 16:22 01.06.2020
2228 Clear 26 1018 31 10000 5.7 80 15:59 01.06.2020
2229 Clear 26 1018 31 10000 5.7 80 15:39 01.06.2020
2230 Clear 26 1018 31 10000 6.2 70 15:20 01.06.2020
2231 Clear 26 1018 31 10000 6.2 70 14:58 01.06.2020
2232 Clear 25 1018 31 10000 6.2 70 14:40 01.06.2020
2233 Clear 25 1018 31 10000 6.2 70 14:21 01.06.2020
2234 Clear 24 1018 31 10000 6.7 50 13:55 01.06.2020
2235 Clear 24 1018 31 10000 6.7 50 13:37 01.06.2020
2236 Clear 24 1018 31 10000 6.7 50 13:18 01.06.2020
2237 Clear 23 1018 35 10000 6.2 50 12:54 01.06.2020
2238 Clear 23 1018 35 10000 6.2 50 12:36 01.06.2020
2239 Clear 23 1018 35 10000 6.2 50 12:18 01.06.2020
2240 Clear 21 1019 43 10000 4.6 50 11:39 01.06.2020
2241 Clear 21 1019 43 10000 4.6 50 11:21 01.06.2020
2242 Clear 21 1019 43 10000 4.1 50 10:57 01.06.2020
2243 Clear 20 1019 48 10000 4.6 50 10:37 01.06.2020
2244 Clear 19 1019 45 10000 4.6 60 10:19 01.06.2020
2245 Clear 19 1019 45 10000 4.6 60 09:55 01.06.2020
2246 Clear 18 1019 48 10000 5.1 60 09:37 01.06.2020
2247 Clear 18 1019 48 10000 5.1 60 09:19 01.06.2020
2248 Clear 17 1019 55 10000 4.1 40 08:41 01.06.2020
2249 Clear 16 1019 55 10000 4.1 40 08:22 01.06.2020
2250 Clear 15 1018 62 10000 2.1 20 07:44 01.06.2020
2251 Clear 15 1018 62 10000 2.1 20 07:25 01.06.2020
2252 Clear 14 1018 58 10000 3.1 20 06:52 01.06.2020
2253 Clear 13 1018 62 10000 2.6 20 06:20 01.06.2020
2254 Clear 14 1018 58 10000 2.6 20 05:49 01.06.2020
2255 Clear 15 1018 54 10000 3.6 20 04:23 01.06.2020
2256 Clear 16 1019 54 10000 3.1 20 03:44 01.06.2020
2257 Clear 16 1019 54 10000 3.6 20 02:59 01.06.2020
2258 Clear 16 1019 55 10000 2.1 360 01:47 01.06.2020
2259 Clear 16 1019 55 10000 2.1 360 01:27 01.06.2020
2260 Clear 16 1018 55 10000 2.6 20 00:57 01.06.2020
2261 Clear 16 1018 55 10000 2.6 20 00:57 01.06.2020
2262 Clear 16 1018 51 10000 2.1 20 00:38 01.06.2020
2263 Clear 16 1018 51 10000 2.1 20 00:20 01.06.2020
2264 Clear 18 1018 51 10000 2.6 40 23:54 31.05.2020
2265 Clear 18 1018 51 10000 2.6 40 23:36 31.05.2020
2266 Clear 18 1018 51 10000 2.6 40 23:18 31.05.2020
2267 Clear 19 1018 45 10000 3.1 50 22:42 31.05.2020
2268 Clear 19 1018 45 10000 3.1 50 22:42 31.05.2020
2269 Clear 19 1018 45 10000 3.1 50 22:24 31.05.2020
2270 Clear 20 1018 40 10000 3.1 50 21:58 31.05.2020
2271 Clear 21 1018 37 10000 4.1 60 21:39 31.05.2020
2272 Clouds 21 1018 37 10000 4.1 60 21:21 31.05.2020
2273 Clouds 21 1018 37 10000 4.1 60 21:21 31.05.2020
2274 Clouds 22 1018 33 10000 6.7 70 20:48 31.05.2020
2275 Clouds 22 1018 33 10000 6.7 70 20:25 31.05.2020
2276 Clouds 22 1018 33 10000 5.1 60 19:57 31.05.2020
2277 Clouds 23 1018 33 10000 5.1 70 19:39 31.05.2020
2278 Clear 23 1018 33 10000 5.1 70 19:21 31.05.2020
2279 -273 0 0 0 0 0 18:58 31.05.2020
2280 Clear 23 1018 31 10000 6.2 50 18:40 31.05.2020
2281 Clear 23 1018 31 10000 6.2 50 18:21 31.05.2020
2282 Clear 23 1018 31 10000 6.2 60 17:43 31.05.2020
2283 Clear 23 1018 31 10000 6.2 60 17:24 31.05.2020
2284 Clear 23 1018 31 10000 7.2 70 17:24 31.05.2020
2285 Clear 23 1018 31 10000 6.7 50 16:43 31.05.2020
2286 Clear 23 1018 31 10000 6.7 50 16:22 31.05.2020
2287 Clear 23 1018 31 10000 6.7 60 15:59 31.05.2020
2288 Clear 23 1019 33 10000 6.7 60 15:38 31.05.2020
2289 Clear 23 1019 33 10000 6.7 60 15:20 31.05.2020
2290 Clear 23 1019 31 10000 7.2 60 14:45 31.05.2020
2291 Clear 23 1019 31 10000 7.2 60 14:20 31.05.2020
2292 Clear 22 1019 30 10000 6.7 60 13:56 31.05.2020
2293 Clear 22 1019 30 10000 6.7 40 13:38 31.05.2020
2294 Clear 22 1019 30 10000 6.7 40 13:20 31.05.2020
2295 Clear 22 1019 30 10000 6.7 40 13:20 31.05.2020
2296 Clear 22 1019 30 10000 7.2 50 12:56 31.05.2020
2297 Clear 22 1020 30 10000 7.2 60 12:37 31.05.2020
2298 Clear 21 1020 32 10000 6.7 70 12:18 31.05.2020
2299 Clear 21 1020 32 10000 6.7 70 11:47 31.05.2020
2300 Clear 21 1020 35 10000 6.2 90 11:23 31.05.2020
2301 Clear 20 1020 37 10000 6.2 90 10:56 31.05.2020
2302 Clear 19 1020 39 10000 5.7 80 10:38 31.05.2020
2303 Clear 19 1020 39 10000 5.7 80 10:18 31.05.2020
2304 Clear 18 1020 45 10000 5.7 80 09:42 31.05.2020
2305 Clear 18 1020 45 10000 5.7 80 09:22 31.05.2020
2306 Clear 17 1020 45 10000 5.1 80 08:58 31.05.2020
2307 Clear 16 1020 51 10000 5.1 80 08:37 31.05.2020
2308 Clear 16 1020 51 10000 5.1 80 08:19 31.05.2020
2309 Clear 15 1019 58 10000 3.1 70 07:43 31.05.2020
2310 Clear 15 1019 58 10000 3.1 70 07:21 31.05.2020
2311 Clear 14 1019 62 10000 3.1 60 06:54 31.05.2020
2312 Clear 13 1019 66 10000 2.6 60 06:31 31.05.2020
2313 Clear 14 1019 66 10000 3.1 70 05:44 31.05.2020
2314 Clear 15 1019 66 10000 3.6 70 04:31 31.05.2020
2315 Clear 15 1019 66 10000 3.6 70 03:49 31.05.2020
2316 Clear 15 1019 62 10000 2.1 50 02:59 31.05.2020
2317 Clear 17 1019 62 10000 1.5 360 01:50 31.05.2020
2318 Clear 17 1019 59 10000 0.5 360 01:28 31.05.2020
2319 Clear 18 1019 51 10000 2.1 50 00:31 31.05.2020
2320 Clear 18 1019 51 10000 3.1 40 23:59 30.05.2020
2321 Clear 18 1018 48 10000 3.1 40 23:41 30.05.2020
2322 Clear 19 1018 48 10000 3.1 40 23:22 30.05.2020
2323 Clear 20 1018 42 10000 4.1 40 22:41 30.05.2020
2324 Clear 20 1018 42 10000 4.1 40 22:23 30.05.2020
2325 Clear 21 1018 40 10000 3.6 50 21:56 30.05.2020
2326 Clear 22 1018 37 10000 4.6 60 21:38 30.05.2020
2327 Clear 22 1018 37 10000 4.6 60 21:20 30.05.2020
2328 Clear 23 1018 35 10000 5.1 50 20:57 30.05.2020
2329 Clear 23 1018 33 10000 6.2 50 20:38 30.05.2020
2330 Clear 24 1018 29 10000 5.1 50 20:20 30.05.2020
2331 Clear 24 1018 29 10000 5.1 50 19:43 30.05.2020
2332 Clear 24 1018 29 10000 6.2 50 19:22 30.05.2020
2333 Clear 25 1018 27 10000 5.7 60 18:56 30.05.2020
2334 Clear 25 1018 25 10000 6.2 50 18:38 30.05.2020
2335 Clear 25 1018 25 10000 6.2 50 18:18 30.05.2020
2336 Clear 25 1018 31 10000 6.2 50 17:39 30.05.2020
2337 Clear 25 1018 31 10000 6.2 50 17:20 30.05.2020
2338 Clear 25 1019 31 10000 6.2 60 16:45 30.05.2020
2339 Clear 25 1019 27 10000 5.7 80 16:23 30.05.2020
2340 Clear 25 1019 29 10000 6.7 70 15:59 30.05.2020
2341 Clear 25 1019 31 10000 6.2 50 15:41 30.05.2020
2342 Clear 24 1019 31 10000 6.2 50 15:22 30.05.2020
2343 Clear 24 1020 29 10000 6.2 80 14:43 30.05.2020
2344 Clear 24 1020 31 10000 5.1 80 14:23 30.05.2020
2345 Clear 24 1020 29 10000 7.2 80 13:43 30.05.2020
2346 Clear 24 1020 29 10000 7.2 80 13:22 30.05.2020
2347 Clear 23 1021 31 10000 5.1 90 12:42 30.05.2020
2348 Clear 23 1021 31 10000 5.1 90 12:20 30.05.2020
2349 Clear 23 1021 31 10000 6.2 80 11:57 30.05.2020
2350 Clear 22 1021 35 10000 4.6 80 11:39 30.05.2020
2351 Clear 22 1021 35 10000 4.6 80 11:20 30.05.2020
2352 Clear 20 1021 42 10000 3.6 70 10:40 30.05.2020
2353 Clear 20 1021 42 10000 3.6 70 10:21 30.05.2020
2354 Clear 19 1021 42 10000 3.1 70 09:49 30.05.2020
2355 Clear 18 1021 45 10000 3.6 70 09:31 30.05.2020
2356 Clear 17 1021 51 10000 2.1 30 08:51 30.05.2020
2357 Clear 16 1021 58 10000 1.5 0 08:33 30.05.2020
2358 Clear 14 1021 62 10000 2.1 10 07:49 30.05.2020
2359 Clear 14 1021 66 10000 1.5 10 07:26 30.05.2020
2360 Clear 13 1021 66 10000 1 10 06:58 30.05.2020
2361 Clear 13 1021 66 10000 1.5 360 06:25 30.05.2020
2362 Clear 13 1021 71 10000 1.5 0 05:49 30.05.2020
2363 Clear 13 1021 66 10000 2.1 350 04:21 30.05.2020
2364 Clear 15 1021 58 10000 2.18 68 02:33 30.05.2020
2365 Clear 16 1021 54 10000 1 0 01:52 30.05.2020
2366 Clear 16 1021 51 10000 2.1 360 00:42 30.05.2020
2367 Clear 16 1021 51 10000 2.1 360 00:21 30.05.2020
2368 Clear 17 1021 51 10000 1 10 23:58 29.05.2020
2369 Clear 18 1021 45 10000 1.5 10 23:38 29.05.2020
2370 Clear 18 1021 45 10000 1.5 10 23:19 29.05.2020
2371 Clear 19 1021 45 10000 2.6 50 22:42 29.05.2020
2372 Clear 20 1021 37 10000 4.1 60 22:21 29.05.2020
2373 Clear 21 1021 37 10000 4.1 60 21:59 29.05.2020
2374 Clear 21 1021 35 10000 4.6 60 21:39 29.05.2020
2375 Clear 22 1021 35 10000 4.6 60 21:20 29.05.2020
2376 Clear 22 1021 30 10000 5.1 70 20:56 29.05.2020
2377 Clear 23 1021 28 10000 6.7 60 20:37 29.05.2020
2378 Clear 23 1021 28 10000 5.7 70 20:19 29.05.2020
2379 Clear 24 1021 28 10000 6.7 40 19:42 29.05.2020
2380 Clear 24 1021 28 10000 6.7 40 19:24 29.05.2020
2381 Clear 24 1021 27 10000 6.2 70 18:48 29.05.2020
2382 Clear 24 1022 25 10000 7.2 60 18:23 29.05.2020
2383 Clear 24 1022 25 10000 7.7 70 17:59 29.05.2020
2384 Clear 24 1022 27 10000 6.7 50 17:39 29.05.2020
2385 Clear 24 1022 27 10000 6.7 50 17:20 29.05.2020
2386 Clear 24 1023 23 10000 7.2 50 16:46 29.05.2020
2387 Clear 25 1023 23 10000 7.2 50 16:46 29.05.2020
2388 Clear 24 1023 23 10000 7.2 50 16:28 29.05.2020
2389 Clear 24 1023 25 10000 6.7 60 15:59 29.05.2020
2390 Clear 24 1023 25 10000 6.7 60 15:41 29.05.2020
2391 Clear 24 1023 25 10000 6.7 60 15:21 29.05.2020
2392 Clear 24 1023 27 10000 6.7 50 14:57 29.05.2020
2393 Clear 24 1024 27 10000 6.2 60 14:38 29.05.2020
2394 Clear 23 1024 27 10000 5.1 50 14:19 29.05.2020
2395 Clear 23 1024 27 10000 5.1 70 13:41 29.05.2020
2396 Clear 23 1025 28 10000 6.2 60 13:21 29.05.2020
2397 Clear 22 1025 28 10000 6.2 60 12:55 29.05.2020
2398 Clear 22 1025 28 10000 6.7 60 12:37 29.05.2020
2399 Clear 21 1025 32 10000 4.6 50 12:18 29.05.2020
2400 Clear 21 1025 37 10000 4.1 40 11:42 29.05.2020
2401 Clear 21 1025 37 10000 4.1 40 11:42 29.05.2020
2402 Clear 20 1025 37 10000 4.1 40 11:24 29.05.2020
2403 Clear 20 1026 40 10000 4.1 40 10:46 29.05.2020
2404 Clear 19 1026 39 10000 4.1 40 10:24 29.05.2020
2405 Clear 18 1026 42 10000 4.6 60 09:58 29.05.2020
2406 Clear 18 1026 45 10000 4.1 60 09:40 29.05.2020
2407 Clear 17 1026 45 10000 4.1 60 09:19 29.05.2020
2408 Clear 16 1026 51 10000 3.1 40 08:47 29.05.2020
2409 Clear 16 1026 51 10000 3.1 40 08:24 29.05.2020
2410 Clear 14 1026 54 10000 2.1 30 07:48 29.05.2020
2411 Clear 14 1026 58 10000 2.1 20 07:30 29.05.2020
2412 Clear 13 1026 58 10000 2.6 10 06:58 29.05.2020
2413 Clear 13 1026 58 10000 2.6 10 06:39 29.05.2020
2414 Clear 13 1026 58 10000 2.6 10 06:21 29.05.2020
2415 Clear 14 1026 54 10000 1 0 05:40 29.05.2020
2416 Clear 16 1026 47 10000 4.6 40 02:20 29.05.2020
2417 Clear 16 1026 47 10000 4.6 40 02:20 29.05.2020
2418 Clear 17 1026 48 10000 4.6 30 01:27 29.05.2020
2419 Clear 17 1026 48 10000 4.6 30 01:27 29.05.2020
2420 Clear 18 1026 42 10000 4.6 30 00:53 29.05.2020
2421 Clear 18 1027 42 10000 4.6 40 00:33 29.05.2020
2422 Clear 19 1027 39 10000 4.1 20 23:57 28.05.2020
2423 Clear 19 1026 42 10000 5.1 30 23:39 28.05.2020
2424 Clear 20 1026 39 10000 4.6 20 23:18 28.05.2020
2425 Clear 20 1026 37 10000 4.6 20 22:42 28.05.2020
2426 Clear 20 1026 37 10000 4.6 20 22:24 28.05.2020
2427 Clear 21 1026 35 10000 5.1 20 21:56 28.05.2020
2428 Clear 22 1026 33 10000 5.1 30 21:37 28.05.2020
2429 Clear 22 1026 35 10000 5.7 30 21:19 28.05.2020
2430 Clear 23 1026 35 10000 5.7 30 20:56 28.05.2020
2431 Clear 23 1026 28 10000 4.6 50 20:37 28.05.2020
2432 Clear 23 1026 28 10000 5.1 60 20:18 28.05.2020
2433 Clear 24 1026 27 10000 5.1 40 19:43 28.05.2020
2434 Clear 24 1026 27 10000 5.1 40 19:21 28.05.2020
2435 Clear 24 1027 25 10000 5.7 40 18:57 28.05.2020
2436 Clear 24 1027 25 10000 5.1 40 18:39 28.05.2020
2437 Clear 24 1027 25 10000 5.1 40 18:21 28.05.2020
2438 Clear 24 1027 29 10000 5.7 30 17:41 28.05.2020
2439 Clear 24 1027 29 10000 5.7 30 17:22 28.05.2020
2440 Clear 24 1027 31 10000 5.1 50 16:56 28.05.2020
2441 Clear 24 1028 33 10000 5.7 40 16:37 28.05.2020
2442 Clear 24 1028 33 10000 5.7 40 16:18 28.05.2020
2443 Clear 23 1028 35 10000 5.7 40 15:42 28.05.2020
2444 Clear 23 1028 35 10000 5.7 40 15:23 28.05.2020
2445 Clear 23 1029 38 10000 5.1 30 14:55 28.05.2020
2446 Clear 23 1029 43 10000 5.1 20 14:36 28.05.2020
2447 Clouds 23 1029 46 10000 5.1 30 14:18 28.05.2020
2448 Clear 22 1030 49 10000 5.1 30 13:40 28.05.2020
2449 Clear 22 1030 49 10000 5.1 30 13:20 28.05.2020
2450 Clear 21 1030 56 10000 5.1 30 12:42 28.05.2020
2451 Clear 20 1030 56 10000 4.1 40 12:19 28.05.2020
2452 Clear 20 1030 56 10000 4.1 40 11:44 28.05.2020
2453 Clouds 19 1030 59 10000 4.1 360 11:25 28.05.2020
2454 Clouds 18 1031 59 10000 3.1 350 10:57 28.05.2020
2455 Clouds 18 1031 59 10000 3.1 350 10:57 28.05.2020
2456 Clouds 17 1031 63 10000 3.6 360 10:39 28.05.2020
2457 Clouds 17 1031 67 10000 3.1 360 10:19 28.05.2020
2458 Clouds 16 1031 67 10000 3.6 360 09:39 28.05.2020
2459 Clear 15 1031 71 10000 3.6 360 09:20 28.05.2020
2460 Clear 15 1031 71 10000 3.6 360 08:50 28.05.2020
2461 Clouds 14 1031 71 10000 3.6 10 08:26 28.05.2020
2462 Clouds 14 1031 76 10000 3.1 10 07:45 28.05.2020
2463 Clouds 13 1031 66 10000 5.1 20 07:26 28.05.2020
2464 Clouds 13 1031 71 10000 2.1 360 06:59 28.05.2020
2465 Clouds 13 1031 71 10000 2.6 10 06:37 28.05.2020
2466 Clouds 14 1031 62 10000 4.1 20 05:58 28.05.2020
2467 Clouds 14 1031 66 10000 4.1 360 05:36 28.05.2020
2468 Clouds 15 1031 62 10000 3.6 360 04:29 28.05.2020
2469 Clouds 16 1032 58 10000 2.6 360 03:46 28.05.2020
2470 Clouds 16 1032 58 10000 2.1 350 02:45 28.05.2020
2471 Clouds 16 1032 58 10000 2.1 350 02:45 28.05.2020
2472 Clouds 17 1032 55 10000 2.6 360 01:53 28.05.2020
2473 Clouds 18 1032 48 10000 4.6 360 00:55 28.05.2020
2474 Clouds 19 1032 52 10000 4.6 10 00:37 28.05.2020
2475 Clouds 19 1032 52 10000 4.6 360 00:18 28.05.2020
2476 Clouds 20 1032 52 10000 4.6 360 23:39 27.05.2020
2477 Clouds 21 1032 49 10000 5.7 30 23:21 27.05.2020
2478 Clouds 21 1032 52 10000 4.1 360 22:59 27.05.2020
2479 Clouds 21 1031 49 10000 4.6 10 22:40 27.05.2020
2480 Clouds 22 1031 49 10000 4.6 10 22:21 27.05.2020
2481 Clouds 23 1031 43 10000 4.1 10 21:42 27.05.2020
2482 Clouds 23 1031 43 10000 4.1 10 21:24 27.05.2020
2483 Clouds 24 1031 41 10000 4.1 10 20:59 27.05.2020
2484 Clouds 24 1031 41 10000 4.6 20 20:41 27.05.2020
2485 Clouds 24 1031 41 10000 4.6 20 20:22 27.05.2020
2486 Clouds 25 1031 38 10000 4.6 20 19:59 27.05.2020
2487 Clouds 25 1031 41 10000 5.1 10 19:41 27.05.2020
2488 Clouds 25 1031 41 10000 4.6 30 19:19 27.05.2020
2489 Clouds 25 1031 38 10000 4.6 20 18:41 27.05.2020
2490 Clouds 26 1031 38 10000 4.6 20 18:20 27.05.2020
2491 Clouds 26 1031 38 10000 5.1 20 17:57 27.05.2020
2492 Clouds 26 1031 38 10000 4.1 10 17:38 27.05.2020
2493 Clouds 26 1031 38 10000 5.7 20 17:19 27.05.2020
2494 Clouds 26 1031 38 10000 5.7 20 16:55 27.05.2020
2495 Clouds 26 1031 34 10000 4.1 20 16:37 27.05.2020
2496 Clear 26 1031 34 10000 4.1 20 16:18 27.05.2020
2497 Clear 25 1032 38 10000 4.6 40 15:41 27.05.2020
2498 Clear 25 1032 38 10000 4.6 40 15:21 27.05.2020
2499 Clear 24 1032 38 10000 3.6 50 14:45 27.05.2020
2500 Clouds 24 1032 38 10000 3.6 50 14:22 27.05.2020
2501 Clouds 24 1033 38 10000 4.6 40 13:57 27.05.2020
2502 Clouds 24 1033 38 10000 2.6 60 13:38 27.05.2020
2503 Clouds 23 1033 40 10000 3.1 20 13:20 27.05.2020
2504 Clouds 23 1033 40 10000 3.1 50 12:41 27.05.2020
2505 Clouds 23 1033 40 10000 3.1 50 12:22 27.05.2020
2506 Clouds 22 1034 43 10000 2.6 40 11:41 27.05.2020
2507 Clouds 21 1034 43 10000 2.6 40 11:22 27.05.2020
2508 Clouds 20 1034 43 10000 2.1 20 10:59 27.05.2020
2509 Clouds 20 1034 52 10000 2.1 360 10:41 27.05.2020
2510 Clouds 20 1034 52 10000 2.1 360 10:23 27.05.2020
2511 Clouds 19 1034 59 10000 2.6 350 09:55 27.05.2020
2512 Clear 18 1034 59 10000 2.6 10 09:37 27.05.2020
2513 Clear 17 1034 59 10000 3.1 30 09:19 27.05.2020
2514 Clear 17 1034 63 10000 2.6 10 08:42 27.05.2020
2515 Clouds 16 1034 63 10000 2.6 10 08:23 27.05.2020
2516 Clouds 16 1034 67 10000 2.1 350 07:52 27.05.2020
2517 Clouds 16 1034 67 10000 2.1 350 07:52 27.05.2020
2518 Clouds 15 1033 71 10000 1 0 07:34 27.05.2020
2519 Clouds 14 1033 67 10000 1.5 0 06:55 27.05.2020
2520 Clouds 14 1033 67 10000 3.6 350 06:24 27.05.2020
2521 Clouds 15 1033 67 10000 2.1 360 05:50 27.05.2020
2522 Clouds 15 1033 67 10000 2.1 350 05:24 27.05.2020
2523 Clouds 17 1033 63 10000 3.6 360 02:51 27.05.2020
2524 Clouds 18 1033 59 10000 2.6 360 02:25 27.05.2020
2525 Clouds 18 1033 59 10000 3.1 10 01:31 27.05.2020
2526 Clouds 18 1033 55 10000 3.1 350 00:47 27.05.2020
2527 Clouds 19 1033 55 10000 2.6 340 00:21 27.05.2020
2528 Clouds 19 1033 55 10000 2.6 340 23:58 26.05.2020
2529 Clouds 19 1033 52 10000 2.1 360 23:39 26.05.2020
2530 Clouds 20 1033 52 10000 2.1 360 23:21 26.05.2020
2531 Clouds 20 1033 49 10000 2.1 10 22:57 26.05.2020
2532 Clouds 21 1033 46 10000 2.1 10 22:37 26.05.2020
2533 Clouds 21 1033 46 10000 2.1 10 22:19 26.05.2020
2534 Clouds 22 1033 40 10000 3.1 20 21:55 26.05.2020
2535 Clouds 23 1032 38 10000 4.1 30 21:36 26.05.2020
2536 Clear 23 1032 38 10000 4.6 20 21:18 26.05.2020
2537 Clear 24 1032 36 10000 5.1 20 20:41 26.05.2020
2538 Clear 24 1032 36 10000 5.1 20 20:20 26.05.2020
2539 Clear 25 1033 33 10000 4.6 30 19:41 26.05.2020
2540 Clear 25 1033 33 10000 4.6 30 19:22 26.05.2020
2541 Clear 25 1032 36 10000 4.1 20 18:59 26.05.2020
2542 Clear 25 1033 33 10000 5.7 40 18:39 26.05.2020
2543 Clouds 25 1033 33 10000 5.7 40 18:21 26.05.2020
2544 Clouds 25 1033 33 10000 4.6 20 17:42 26.05.2020
2545 Clouds 25 1033 33 10000 4.6 20 17:24 26.05.2020
2546 Clouds 25 1033 33 10000 4.6 20 17:24 26.05.2020
2547 Clouds 25 1033 33 10000 5.1 60 16:57 26.05.2020
2548 Clouds 25 1033 36 10000 4.6 60 16:39 26.05.2020
2549 Clouds 25 1034 33 10000 4.6 30 16:18 26.05.2020
2550 Clouds 24 1034 36 10000 5.7 40 15:42 26.05.2020
2551 Clouds 24 1034 36 10000 5.7 40 15:21 26.05.2020
2552 Clouds 24 1034 36 10000 5.7 60 14:56 26.05.2020
2553 Clouds 24 1034 38 10000 4.6 70 14:38 26.05.2020
2554 Clouds 24 1034 38 10000 4.6 70 14:20 26.05.2020
2555 Clouds 23 1035 40 10000 4.6 20 13:41 26.05.2020
2556 Clouds 23 1035 40 10000 4.6 20 13:23 26.05.2020
2557 Clouds 22 1035 40 10000 5.7 40 12:57 26.05.2020
2558 Clouds 22 1035 43 10000 5.1 40 12:38 26.05.2020
2559 Clouds 22 1035 43 10000 5.1 40 12:19 26.05.2020
2560 Clouds 21 1035 49 10000 3.1 20 11:41 26.05.2020
2561 Clouds 20 1035 49 10000 3.1 20 11:21 26.05.2020
2562 Clouds 20 1035 56 10000 3.1 360 10:57 26.05.2020
2563 Clouds 20 1035 59 10000 2.6 40 10:38 26.05.2020
2564 Clouds 20 1035 59 10000 2.6 40 10:18 26.05.2020
2565 Clouds 17 1035 67 10000 2.6 360 09:39 26.05.2020
2566 Clouds 17 1035 67 10000 2.6 360 09:19 26.05.2020
2567 Clouds 16 1034 72 10000 2.1 20 08:42 26.05.2020
2568 Clouds 15 1034 72 10000 2.1 20 08:22 26.05.2020
2569 Clouds 14 1034 76 10000 1 0 07:44 26.05.2020
2570 Clouds 14 1034 76 10000 1 0 07:24 26.05.2020
2571 Clouds 13 1034 81 10000 1 20 06:54 26.05.2020
2572 Clouds 13 1034 81 10000 1 0 06:36 26.05.2020
2573 Clear 13 1034 76 10000 2.1 350 05:53 26.05.2020
2574 Clear 13 1034 76 10000 2.1 350 05:29 26.05.2020
2575 Clear 14 1034 76 10000 1 20 04:52 26.05.2020
2576 Clear 14 1034 76 10000 1.5 0 04:33 26.05.2020
2577 Clear 14 1034 71 10000 2.1 10 03:55 26.05.2020
2578 Clear 15 1034 67 10000 2.6 10 02:45 26.05.2020
2579 Clear 16 1033 63 10000 2.6 360 01:48 26.05.2020
2580 Clear 16 1033 63 10000 2.6 10 01:27 26.05.2020
2581 Clear 17 1033 59 10000 2.6 360 00:37 26.05.2020
2582 Clear 17 1033 59 10000 2.6 360 00:19 26.05.2020
2583 Clear 17 1033 59 10000 2.6 10 23:55 25.05.2020
2584 Clear 19 1033 55 10000 2.6 10 23:36 25.05.2020
2585 Clear 19 1033 52 10000 2.6 20 23:18 25.05.2020
2586 Clear 19 1033 52 10000 2.6 20 22:54 25.05.2020
2587 Clear 20 1033 52 10000 3.1 20 22:36 25.05.2020
2588 Clear 20 1033 52 10000 3.1 30 22:18 25.05.2020
2589 Clear 20 1033 52 10000 3.1 30 21:54 25.05.2020
2590 Clear 21 1033 46 10000 4.1 30 21:36 25.05.2020
2591 Clear 21 1033 46 10000 4.1 30 21:18 25.05.2020
2592 Clear 22 1032 43 10000 4.1 20 20:42 25.05.2020
2593 Clear 23 1032 43 10000 4.1 20 20:21 25.05.2020
2594 Clear 23 1032 43 10000 4.1 20 19:59 25.05.2020
2595 Clear 23 1032 40 10000 5.1 30 19:39 25.05.2020
2596 Clear 23 1032 38 10000 4.1 40 19:18 25.05.2020
2597 Clear 23 1032 38 10000 4.1 40 18:54 25.05.2020
2598 Clear 23 1032 40 10000 3.1 20 18:36 25.05.2020
2599 Clear 23 1032 40 10000 3.1 20 18:18 25.05.2020
2600 Clear 23 1032 43 10000 3.1 40 17:41 25.05.2020
2601 Clear 23 1032 43 10000 3.1 40 17:23 25.05.2020
2602 Clear 23 1033 43 10000 4.6 70 16:57 25.05.2020
2603 Clear 23 1033 43 10000 3.6 10 16:39 25.05.2020
2604 Clear 23 1033 43 10000 4.1 40 16:19 25.05.2020
2605 Clear 23 1033 43 10000 4.1 40 16:19 25.05.2020
2606 Clear 22 1033 43 10000 3.6 10 15:44 25.05.2020
2607 Clear 22 1033 43 10000 3.6 10 15:19 25.05.2020
2608 Clear 22 1033 46 10000 3.1 0 14:58 25.05.2020
2609 Clouds 23 1034 46 10000 3.1 360 14:38 25.05.2020
2610 Clouds 22 1034 46 10000 3.1 80 14:19 25.05.2020
2611 Clouds 22 1034 49 10000 2.6 70 13:40 25.05.2020
2612 Clouds 21 1034 49 10000 2.6 70 13:21 25.05.2020
2613 Clouds 21 1034 49 10000 2.1 0 12:58 25.05.2020
2614 Clouds 21 1034 52 10000 3.1 30 12:39 25.05.2020
2615 Clouds 20 1034 52 10000 3.1 30 12:20 25.05.2020
2616 Clouds 20 1034 52 10000 3.1 30 12:20 25.05.2020
2617 Clouds 20 1034 55 10000 2.1 70 11:40 25.05.2020
2618 Clouds 19 1034 55 10000 2.1 70 11:21 25.05.2020
2619 Clouds 19 1034 59 10000 2.1 60 10:59 25.05.2020
2620 Clouds 18 1034 59 10000 1.5 70 10:41 25.05.2020
2621 Clouds 18 1034 59 10000 1.5 70 10:20 25.05.2020
2622 Clouds 17 1034 67 10000 1.5 0 09:55 25.05.2020
2623 Clouds 16 1034 72 10000 2.1 360 09:36 25.05.2020
2624 Clouds 16 1034 72 10000 2.1 360 09:18 25.05.2020
2625 Clouds 16 1034 72 10000 2.1 360 09:18 25.05.2020
2626 Clouds 14 1034 82 10000 1.5 350 08:43 25.05.2020
2627 Clouds 14 1034 82 10000 1.5 350 08:24 25.05.2020
2628 Clouds 13 1034 71 10000 1.5 40 07:58 25.05.2020
2629 Clouds 12 1034 81 10000 1 40 07:39 25.05.2020
2630 Clouds 12 1034 87 10000 1.5 20 07:19 25.05.2020
2631 Clouds 11 1034 93 10000 0.5 0 06:41 25.05.2020
2632 Clouds 11 1034 93 10000 0.5 0 06:41 25.05.2020
2633 Clouds 11 1034 93 10000 0.5 0 06:21 25.05.2020
2634 Clouds 12 1034 81 10000 1.75 11 03:32 25.05.2020
2635 Clouds 13 1034 81 10000 1 0 02:57 25.05.2020
2636 Clouds 13 1034 81 10000 1.5 60 02:36 25.05.2020
2637 Clouds 14 1033 76 10000 1.5 350 01:42 25.05.2020
2638 Clouds 14 1033 71 10000 1 0 00:58 25.05.2020
2639 Clouds 15 1033 67 10000 1.5 350 00:32 25.05.2020
2640 Clouds 15 1033 63 10000 2.6 330 23:59 24.05.2020
2641 Clouds 15 1033 63 10000 2.1 320 23:39 24.05.2020
2642 Clouds 16 1033 63 10000 2.1 320 23:21 24.05.2020
2643 Clouds 17 1033 59 10000 2.1 310 22:58 24.05.2020
2644 Clouds 17 1033 59 10000 2.1 290 22:40 24.05.2020
2645 Clouds 17 1033 59 10000 2.1 290 22:18 24.05.2020
2646 Clouds 17 1033 59 10000 2.1 290 22:18 24.05.2020
2647 Clouds 17 1032 55 10000 2.1 290 21:55 24.05.2020
2648 Clouds 17 1032 55 10000 2.1 290 21:55 24.05.2020
2649 Clouds 18 1032 55 10000 3.1 290 21:37 24.05.2020
2650 Clouds 18 1032 55 10000 3.1 290 21:18 24.05.2020
2651 Clouds 19 1032 49 10000 3.1 310 20:43 24.05.2020
2652 Clouds 19 1032 49 10000 3.1 310 20:43 24.05.2020
2653 Clouds 19 1032 49 10000 3.1 310 20:21 24.05.2020
2654 Clouds 20 1032 49 10000 2.6 310 19:59 24.05.2020
2655 Clouds 20 1032 52 10000 3.1 310 19:40 24.05.2020
2656 Clouds 20 1032 52 10000 3.1 310 19:19 24.05.2020
2657 Clouds 20 1032 49 10000 3.6 300 18:54 24.05.2020
2658 Clouds 20 1032 52 10000 2.6 280 18:36 24.05.2020
2659 Clouds 20 1032 52 10000 2.6 280 18:18 24.05.2020
2660 Clouds 20 1032 48 10000 3.1 290 17:40 24.05.2020
2661 Clouds 20 1032 48 10000 3.1 290 17:21 24.05.2020
2662 Clouds 20 1033 52 10000 4.1 280 16:57 24.05.2020
2663 Clouds 20 1033 52 10000 3.1 300 16:38 24.05.2020
2664 Clouds 19 1033 52 10000 3.1 300 16:20 24.05.2020
2665 Clouds 19 1033 52 10000 3.1 300 15:57 24.05.2020
2666 Clouds 19 1033 52 10000 3.6 300 15:38 24.05.2020
2667 Clouds 18 1033 52 10000 3.6 310 15:19 24.05.2020
2668 Clouds 18 1033 52 10000 3.6 310 14:46 24.05.2020
2669 Clouds 18 1033 52 10000 3.6 280 14:24 24.05.2020
2670 Clouds 18 1033 63 10000 3.1 280 13:59 24.05.2020
2671 Clouds 17 1033 59 10000 4.6 280 13:41 24.05.2020
2672 Clouds 17 1033 59 10000 4.6 280 13:22 24.05.2020
2673 Clouds 17 1033 59 10000 4.1 290 12:59 24.05.2020
2674 Clouds 17 1033 63 10000 3.1 280 12:40 24.05.2020
2675 Clouds 17 1033 63 10000 3.1 280 12:22 24.05.2020
2676 Clouds 16 1033 59 10000 2.6 250 11:59 24.05.2020
2677 Clouds 16 1033 62 10000 1.5 310 11:41 24.05.2020
2678 Clouds 16 1033 62 10000 1.5 310 11:41 24.05.2020
2679 Clouds 16 1033 62 10000 1.5 310 11:41 24.05.2020
2680 Clouds 16 1033 62 10000 1.5 310 11:41 24.05.2020
2681 Clouds 16 1033 62 10000 1.5 310 11:22 24.05.2020
2682 Clouds 15 1033 67 10000 2.1 310 10:58 24.05.2020
2683 Clouds 14 1034 67 10000 3.1 280 10:39 24.05.2020
2684 Clouds 14 1034 67 10000 3.1 280 10:21 24.05.2020
2685 Clouds 13 1033 71 10000 2.6 270 09:42 24.05.2020
2686 Clouds 13 1033 76 10000 3.1 270 09:19 24.05.2020
2687 Clouds 12 1033 76 10000 3.1 270 08:58 24.05.2020
2688 Clouds 12 1032 81 10000 2.1 240 08:40 24.05.2020
2689 Clouds 12 1032 81 10000 2.1 240 08:22 24.05.2020
2690 Clouds 11 1032 81 10000 1.5 0 07:51 24.05.2020
2691 Clouds 10 1032 87 10000 1.5 0 07:26 24.05.2020
2692 Clouds 10 1032 87 10000 2.1 250 06:58 24.05.2020
2693 Clouds 10 1031 81 10000 2.6 250 06:37 24.05.2020
2694 Clouds 10 1031 81 10000 3.1 250 05:24 24.05.2020
2695 Clouds 12 1031 71 10000 3.1 260 03:42 24.05.2020
2696 Clouds 12 1031 66 10000 3.1 280 02:48 24.05.2020
2697 Clouds 13 1031 62 10000 2.6 270 01:59 24.05.2020
2698 Clouds 14 1031 58 10000 1.5 310 00:43 24.05.2020
2699 Clouds 14 1031 58 10000 1.5 310 00:25 24.05.2020
2700 Clouds 14 1031 58 10000 1.5 310 00:25 24.05.2020
2701 Clouds 14 1030 58 10000 2.1 300 23:59 23.05.2020
2702 Clear 15 1030 58 10000 2.1 300 23:36 23.05.2020
2703 Clear 15 1030 54 10000 2.1 310 23:18 23.05.2020
2704 Clear 15 1030 54 10000 2.1 310 22:55 23.05.2020
2705 Clear 16 1029 48 10000 2.6 300 22:37 23.05.2020
2706 Clear 16 1029 48 10000 2.6 300 22:18 23.05.2020
2707 Clear 17 1029 45 10000 3.6 300 21:54 23.05.2020
2708 Clear 17 1029 42 10000 4.1 280 21:36 23.05.2020
2709 Clear 18 1029 39 10000 5.7 290 21:18 23.05.2020
2710 Clear 19 1029 39 10000 6.7 270 20:39 23.05.2020
2711 Clouds 19 1029 39 10000 6.7 270 20:20 23.05.2020
2712 Clouds 19 1029 37 10000 6.2 270 19:59 23.05.2020
2713 Clouds 19 1029 37 10000 6.2 270 19:59 23.05.2020
2714 Clouds 19 1028 45 10000 4.1 280 19:40 23.05.2020
2715 Clouds 20 1028 45 10000 4.1 280 19:19 23.05.2020
2716 Clouds 19 1028 45 10000 5.7 290 18:41 23.05.2020
2717 Clouds 20 1028 45 10000 5.7 290 18:23 23.05.2020
2718 Clouds 20 1028 45 10000 5.7 300 17:58 23.05.2020
2719 Clouds 19 1028 48 10000 5.1 310 17:40 23.05.2020
2720 Clouds 19 1028 48 10000 5.1 310 17:21 23.05.2020
2721 Clouds 20 1027 42 10000 6.2 250 16:59 23.05.2020
2722 Clouds 20 1027 40 10000 6.7 250 16:41 23.05.2020
2723 Clouds 20 1027 40 10000 6.7 250 16:41 23.05.2020
2724 Clouds 19 1027 40 10000 6.7 250 16:21 23.05.2020
2725 Clouds 19 1027 48 10000 4.6 240 15:58 23.05.2020
2726 Clouds 19 1027 39 10000 5.1 260 15:39 23.05.2020
2727 Clouds 19 1027 39 10000 5.1 260 15:21 23.05.2020
2728 Clouds 19 1027 42 10000 5.7 250 14:42 23.05.2020
2729 Clouds 19 1027 42 10000 5.7 250 14:24 23.05.2020
2730 Clouds 18 1027 45 10000 5.1 260 13:56 23.05.2020
2731 Clouds 18 1027 48 10000 6.7 260 13:37 23.05.2020
2732 Clouds 17 1027 51 10000 5.1 270 13:18 23.05.2020
2733 Clouds 16 1027 59 10000 5.1 250 12:41 23.05.2020
2734 Clouds 16 1027 59 10000 5.1 250 12:20 23.05.2020
2735 Clouds 15 1027 62 10000 5.1 250 11:57 23.05.2020
2736 Clouds 15 1027 67 10000 4.6 250 11:39 23.05.2020
2737 Clouds 14 1027 67 10000 4.6 250 11:19 23.05.2020
2738 Rain 14 1027 62 10000 5.1 240 10:55 23.05.2020
2739 Rain 13 1026 71 10000 5.1 240 10:37 23.05.2020
2740 Rain 13 1026 71 10000 5.1 240 10:37 23.05.2020
2741 Rain 12 1026 76 10000 3.1 240 10:18 23.05.2020
2742 Clouds 12 1026 87 10000 2.1 250 09:43 23.05.2020
2743 Clouds 12 1026 87 10000 2.1 250 09:24 23.05.2020
2744 Rain 12 1026 81 10000 3.1 290 08:58 23.05.2020
2745 Rain 12 1026 81 10000 3.6 290 08:38 23.05.2020
2746 Rain 12 1026 87 10000 2.1 290 08:19 23.05.2020
2747 Rain 12 1026 93 8000 2.1 240 07:45 23.05.2020
2748 Rain 12 1026 93 8000 2.1 240 07:27 23.05.2020
2749 Rain 13 1024 76 10000 3.1 300 06:43 23.05.2020
2750 Rain 15 1024 72 10000 2.1 290 05:59 23.05.2020
2751 Clouds 15 1023 72 10000 3.6 330 04:25 23.05.2020
2752 Clouds 16 1023 77 10000 2.6 320 03:26 23.05.2020
2753 Clouds 16 1023 77 10000 2.6 320 03:26 23.05.2020
2754 Rain 17 1023 82 10000 2.1 330 02:40 23.05.2020
2755 Clouds 17 1023 82 10000 2.6 320 01:50 23.05.2020
2756 Rain 17 1022 72 10000 1 0 01:19 23.05.2020
2757 Clouds 18 1022 72 10000 1 0 00:43 23.05.2020
2758 Clouds 18 1022 72 10000 1 0 00:21 23.05.2020
2759 Clouds 18 1022 72 10000 1 0 23:45 22.05.2020
2760 Clouds 18 1022 72 10000 1.5 310 23:22 22.05.2020
2761 Clouds 19 1022 72 10000 1.5 290 22:59 22.05.2020
2762 Clouds 18 1022 72 10000 1.5 310 22:41 22.05.2020
2763 Clouds 18 1022 72 10000 1.5 310 22:21 22.05.2020
2764 Clouds 19 1022 68 10000 2.6 320 21:55 22.05.2020
2765 Clouds 19 1022 63 10000 2.6 310 21:37 22.05.2020
2766 Clouds 19 1022 63 10000 2.6 310 21:19 22.05.2020
2767 Clouds 19 1021 59 10000 4.1 260 20:45 22.05.2020
2768 Clouds 19 1021 59 10000 4.1 260 20:21 22.05.2020
2769 Clouds 19 1021 63 10000 5.1 280 19:54 22.05.2020
2770 Rain 19 1021 72 10000 4.1 270 19:36 22.05.2020
2771 Rain 20 1021 72 10000 4.1 270 19:18 22.05.2020
2772 Rain 21 1021 77 10000 4.1 300 18:39 22.05.2020
2773 Rain 21 1021 77 10000 4.1 300 18:19 22.05.2020
2774 Rain 23 1020 60 10000 5.1 290 17:41 22.05.2020
2775 Clouds 23 1020 60 10000 5.1 290 17:21 22.05.2020
2776 Clouds 25 1020 50 10000 4.6 280 17:00 22.05.2020
2777 Clouds 25 1020 50 10000 4.1 270 16:41 22.05.2020
2778 Clouds 26 1020 50 10000 4.1 270 16:20 22.05.2020
2779 Clouds 26 1020 50 10000 4.1 270 16:20 22.05.2020
2780 Clouds 26 1020 50 10000 4.1 270 16:20 22.05.2020
2781 Clouds 26 1020 50 10000 4.6 290 15:57 22.05.2020
2782 Clouds 26 1020 50 10000 5.1 270 15:39 22.05.2020
2783 Clouds 26 1019 50 10000 5.7 240 15:19 22.05.2020
2784 Clouds 26 1019 47 10000 5.7 240 14:42 22.05.2020
2785 Clouds 26 1019 47 10000 5.7 240 14:24 22.05.2020
2786 Clouds 25 1019 47 10000 4.1 250 13:45 22.05.2020
2787 Clouds 25 1019 47 10000 4.1 250 13:20 22.05.2020
2788 Clouds 24 1019 47 10000 4.1 240 12:44 22.05.2020
2789 Clouds 24 1019 47 10000 4.1 240 12:25 22.05.2020
2790 Clouds 24 1019 47 10000 4.6 250 11:58 22.05.2020
2791 Clouds 24 1019 46 10000 5.7 250 11:40 22.05.2020
2792 Clouds 22 1019 53 10000 4.6 240 11:19 22.05.2020
2793 Clouds 22 1019 53 10000 4.6 240 10:55 22.05.2020
2794 Clouds 22 1018 53 10000 4.1 230 10:36 22.05.2020
2795 Clouds 21 1018 56 10000 2.1 200 10:18 22.05.2020
2796 Clouds 20 1018 64 10000 2.6 180 09:41 22.05.2020
2797 Clouds 20 1018 64 10000 2.6 180 09:19 22.05.2020
2798 Clouds 20 1018 64 10000 2.6 180 09:19 22.05.2020
2799 Clouds 19 1018 72 10000 2.1 180 08:43 22.05.2020
2800 Clouds 19 1018 72 10000 2.1 180 08:21 22.05.2020
2801 Clouds 19 1018 72 10000 2.6 160 07:56 22.05.2020
2802 Clouds 19 1018 72 10000 2.6 150 07:27 22.05.2020
2803 Clouds 18 1018 72 10000 2.6 150 06:58 22.05.2020
2804 Clouds 18 1018 72 10000 2.6 150 06:36 22.05.2020
2805 Clouds 18 1018 72 10000 1.5 180 05:40 22.05.2020
2806 Clouds 19 1018 68 10000 3.1 160 04:51 22.05.2020
2807 Clouds 19 1018 72 10000 3.1 150 04:28 22.05.2020
2808 Clouds 19 1018 72 10000 1 70 03:47 22.05.2020
2809 Clouds 19 1018 72 10000 1.5 80 02:59 22.05.2020
2810 Clouds 19 1018 68 10000 1 0 01:57 22.05.2020
2811 Clouds 20 1019 64 10000 1 130 01:28 22.05.2020
2812 Clouds 20 1019 64 10000 1.5 110 00:49 22.05.2020
2813 Clouds 21 1019 64 10000 1.5 110 00:28 22.05.2020
2814 Clouds 22 1019 53 10000 2.1 170 23:45 21.05.2020
2815 Clouds 22 1019 53 10000 2.1 170 23:25 21.05.2020
2816 Clouds 23 1019 53 10000 3.1 170 22:58 21.05.2020
2817 Clouds 24 1019 47 10000 3.1 150 22:40 21.05.2020
2818 Clouds 24 1019 47 10000 3.1 150 22:40 21.05.2020
2819 Clouds 24 1019 47 10000 3.1 150 22:21 21.05.2020
2820 Clouds 25 1019 44 10000 2.1 180 21:59 21.05.2020
2821 Clouds 26 1019 42 10000 3.6 210 21:40 21.05.2020
2822 Clouds 26 1019 42 10000 3.6 210 21:22 21.05.2020
2823 Clouds 28 1019 42 10000 3.6 90 20:45 21.05.2020
2824 Clouds 28 1019 42 10000 3.6 90 20:22 21.05.2020
2825 Clouds 28 1019 42 10000 3.6 90 20:22 21.05.2020
2826 Clouds 28 1018 42 10000 3.6 110 19:55 21.05.2020
2827 Clouds 28 1019 37 10000 3.1 100 19:36 21.05.2020
2828 Clouds 29 1019 37 10000 2.1 180 19:18 21.05.2020
2829 Clouds 29 1019 35 10000 2.1 140 18:39 21.05.2020
2830 Clouds 30 1019 39 10000 2.6 40 18:19 21.05.2020
2831 Clouds 29 1019 39 10000 2.6 40 17:58 21.05.2020
2832 Clouds 29 1019 37 10000 1.5 0 17:40 21.05.2020
2833 Clouds 29 1019 37 10000 1.5 0 17:22 21.05.2020
2834 Clouds 29 1019 37 10000 2.1 340 16:46 21.05.2020
2835 Clear 29 1020 39 10000 2.1 350 16:24 21.05.2020
2836 Clear 29 1020 37 10000 1.5 0 15:47 21.05.2020
2837 Clear 28 1020 39 10000 1 0 15:24 21.05.2020
2838 Clear 28 1020 39 10000 1.5 0 14:57 21.05.2020
2839 Clear 28 1020 42 10000 2.1 0 14:38 21.05.2020
2840 Clouds 27 1020 44 10000 1 0 14:18 21.05.2020
2841 Clouds 27 1021 42 10000 1.5 0 13:41 21.05.2020
2842 Clouds 27 1021 42 10000 1.5 0 13:22 21.05.2020
2843 Clouds 26 1021 44 10000 1.5 220 12:57 21.05.2020
2844 Clouds 26 1021 47 10000 1.5 310 12:37 21.05.2020
2845 Clouds 26 1021 47 10000 1.5 310 12:19 21.05.2020
2846 Clouds 25 1021 50 10000 1.5 210 11:42 21.05.2020
2847 Clouds 25 1021 50 10000 1.5 210 11:23 21.05.2020
2848 Clouds 25 1021 50 10000 1.5 210 11:23 21.05.2020
2849 Clouds 24 1021 53 10000 1 0 10:58 21.05.2020
2850 Clouds 24 1021 56 10000 1 0 10:39 21.05.2020
2851 Clouds 22 1021 56 10000 0.5 0 10:19 21.05.2020
2852 Clouds 22 1021 56 10000 0.5 0 09:54 21.05.2020
2853 Clouds 21 1021 64 10000 1 0 09:36 21.05.2020
2854 Clouds 20 1021 68 10000 1 0 09:18 21.05.2020
2855 Clouds 19 1020 72 10000 1 0 08:44 21.05.2020
2856 Clouds 18 1020 72 10000 1 0 08:26 21.05.2020
2857 Clouds 18 1020 77 10000 1 10 07:46 21.05.2020
2858 Clouds 16 1020 87 10000 1 360 07:27 21.05.2020
2859 Clouds 16 1020 82 10000 1 360 06:52 21.05.2020
2860 Clouds 15 1020 82 10000 1.5 360 05:54 21.05.2020
2861 Clouds 16 1020 82 10000 1.5 350 05:22 21.05.2020
2862 Clouds 17 1020 77 10000 1.5 350 03:22 21.05.2020
2863 Clouds 17 1020 77 10000 1.5 350 03:22 21.05.2020
2864 Clouds 17 1020 77 10000 1 340 02:45 21.05.2020
2865 Clouds 18 1020 77 10000 1 340 02:25 21.05.2020
2866 Clouds 19 1020 68 10000 1 360 01:45 21.05.2020
2867 Clouds 19 1020 68 10000 1 360 01:19 21.05.2020
2868 Clouds 20 1020 68 10000 2.1 360 00:51 21.05.2020
2869 Clouds 20 1020 68 10000 1 0 00:23 21.05.2020
2870 Clouds 21 1020 60 10000 2.6 20 23:43 20.05.2020
2871 Clear 22 1020 60 10000 2.6 20 23:20 20.05.2020
2872 Clear 22 1020 60 10000 2.6 20 22:58 20.05.2020
2873 Clear 22 1020 60 10000 2.1 10 22:39 20.05.2020
2874 Clouds 23 1020 60 10000 2.1 10 22:21 20.05.2020
2875 Clouds 23 1020 60 10000 2.1 10 22:21 20.05.2020
2876 Clouds 24 1019 50 10000 2.6 50 21:41 20.05.2020
2877 Clear 24 1019 50 10000 2.6 50 21:23 20.05.2020
2878 Clear 26 1019 47 10000 3.1 50 20:45 20.05.2020
2879 Clear 26 1019 50 10000 3.1 50 20:45 20.05.2020
2880 Clear 26 1019 47 10000 3.1 50 20:26 20.05.2020
2881 Clear 27 1019 47 10000 2.6 40 19:59 20.05.2020
2882 Clear 27 1019 47 10000 3.1 20 19:38 20.05.2020
2883 Clear 27 1019 47 10000 3.1 20 19:38 20.05.2020
2884 Clear 27 1019 47 10000 3.1 20 19:20 20.05.2020
2885 Clear 27 1019 47 10000 1.5 10 18:56 20.05.2020
2886 Clear 27 1020 44 10000 3.1 40 18:38 20.05.2020
2887 Clear 27 1020 42 10000 2.6 70 18:18 20.05.2020
2888 Clear 27 1020 42 10000 4.1 50 17:38 20.05.2020
2889 Clear 27 1020 42 10000 3.6 80 17:19 20.05.2020
2890 Clear 27 1020 47 10000 3.1 30 16:42 20.05.2020
2891 Clear 27 1021 47 10000 2.6 40 16:22 20.05.2020
2892 Clear 26 1021 47 10000 2.6 40 15:57 20.05.2020
2893 Clear 26 1021 44 10000 2.6 360 15:39 20.05.2020
2894 Clear 26 1021 44 10000 2.6 360 15:21 20.05.2020
2895 Clear 25 1021 50 10000 2.6 70 14:42 20.05.2020
2896 Clear 25 1021 50 10000 2.6 70 14:20 20.05.2020
2897 Clear 24 1022 50 10000 2.6 40 13:41 20.05.2020
2898 Clear 24 1022 50 10000 2.6 60 13:19 20.05.2020
2899 Clear 24 1022 50 10000 2.6 60 12:57 20.05.2020
2900 Clear 23 1022 49 10000 2.6 30 12:37 20.05.2020
2901 Clear 23 1022 49 10000 2.6 30 12:19 20.05.2020
2902 Clear 21 1022 46 10000 3.1 30 11:36 20.05.2020
2903 Clear 21 1022 46 10000 3.1 30 11:18 20.05.2020
2904 Clear 20 1022 63 10000 2.1 20 10:42 20.05.2020
2905 Clear 19 1022 63 10000 2.1 20 10:20 20.05.2020
2906 Clear 19 1022 68 10000 2.6 20 09:45 20.05.2020
2907 Clear 17 1022 72 10000 2.1 360 09:21 20.05.2020
2908 Clear 16 1022 77 10000 2.1 20 08:57 20.05.2020
2909 Clear 16 1022 82 10000 2.1 10 08:39 20.05.2020
2910 Clear 15 1022 82 10000 2.1 10 08:18 20.05.2020
2911 Clear 14 1022 82 10000 1 0 07:46 20.05.2020
2912 Clear 13 1022 87 10000 1.5 350 07:21 20.05.2020
2913 Clear 13 1022 87 10000 1.5 350 07:21 20.05.2020
2914 Clear 13 1022 87 10000 1 0 06:42 20.05.2020
2915 Clear 13 1022 82 10000 1 0 05:24 20.05.2020
2916 Clear 14 1022 82 10000 1.5 330 04:33 20.05.2020
2917 Clear 14 1022 76 10000 2.1 350 03:52 20.05.2020
2918 Clear 15 1023 77 10000 1.5 0 02:31 20.05.2020
2919 Clear 16 1023 72 10000 2.6 360 01:30 20.05.2020
2920 Clear 17 1023 67 10000 2.6 350 00:45 20.05.2020
2921 Clear 17 1023 67 10000 2.6 350 00:24 20.05.2020
2922 Clear 18 1023 67 10000 3.1 10 23:45 19.05.2020
2923 Clear 19 1023 63 10000 2.6 360 23:21 19.05.2020
2924 Clear 20 1022 63 10000 2.6 360 22:56 19.05.2020
2925 Clear 20 1022 60 10000 2.6 350 22:38 19.05.2020
2926 Clear 20 1022 52 10000 2.6 360 22:20 19.05.2020
2927 Clear 20 1022 52 10000 2.6 360 22:20 19.05.2020
2928 Clear 20 1022 60 10000 2.6 350 22:20 19.05.2020
2929 Clear 21 1022 52 10000 2.6 360 21:58 19.05.2020
2930 Clear 21 1022 53 10000 3.1 350 21:38 19.05.2020
2931 Clear 22 1022 49 10000 3.6 360 21:20 19.05.2020
2932 Clear 22 1022 49 10000 3.6 360 20:58 19.05.2020
2933 Clear 23 1022 46 10000 4.1 340 20:40 19.05.2020
2934 Clear 23 1022 46 10000 4.1 340 20:22 19.05.2020
2935 Clear 23 1022 46 10000 3.1 350 19:56 19.05.2020
2936 Clear 24 1022 47 10000 4.1 340 19:37 19.05.2020
2937 Clear 24 1022 47 10000 3.6 330 19:19 19.05.2020
2938 Clear 24 1022 47 10000 4.6 350 18:43 19.05.2020
2939 Clear 24 1022 47 10000 4.6 350 18:21 19.05.2020
2940 Clouds 24 1022 47 10000 3.6 340 17:56 19.05.2020
2941 Clouds 24 1022 49 10000 4.6 360 17:38 19.05.2020
2942 Clouds 24 1022 49 10000 4.6 360 17:18 19.05.2020
2943 Clear 24 1022 46 10000 2.6 360 16:40 19.05.2020
2944 Clear 24 1022 46 10000 2.6 360 16:21 19.05.2020
2945 Clear 23 1023 46 10000 2.6 30 15:56 19.05.2020
2946 Clear 23 1023 38 10000 4.1 350 15:37 19.05.2020
2947 Clear 23 1023 35 10000 3.6 10 15:19 19.05.2020
2948 Clear 22 1023 37 10000 3.6 10 14:43 19.05.2020
2949 Clear 22 1024 43 10000 3.1 340 14:21 19.05.2020
2950 Clear 22 1024 43 10000 3.1 340 13:59 19.05.2020
2951 Clear 21 1024 43 10000 2.6 350 13:40 19.05.2020
2952 Clear 21 1024 43 10000 2.6 350 13:22 19.05.2020
2953 Clear 20 1024 49 10000 3.1 30 12:59 19.05.2020
2954 Clear 20 1024 49 10000 3.1 30 12:59 19.05.2020
2955 Clear 20 1024 52 10000 2.6 360 12:40 19.05.2020
2956 Clear 19 1024 52 10000 2.6 360 12:22 19.05.2020
2957 Clear 19 1024 48 10000 1.5 10 11:58 19.05.2020
2958 Clear 18 1024 52 10000 2.1 10 11:40 19.05.2020
2959 Clear 18 1024 52 10000 2.1 10 11:21 19.05.2020
2960 Clear 16 1024 62 10000 1.5 0 10:48 19.05.2020
2961 Clear 15 1024 62 10000 1.5 0 10:29 19.05.2020
2962 Clear 15 1024 67 10000 2.6 340 09:58 19.05.2020
2963 Clear 14 1024 62 10000 1.5 0 09:40 19.05.2020
2964 Clear 13 1024 62 10000 1.5 0 09:22 19.05.2020
2965 Clear 12 1024 66 10000 1.5 330 08:43 19.05.2020
2966 Clouds 11 1024 66 10000 1.5 330 08:24 19.05.2020
2967 Clouds 10 1024 76 10000 2.18 335 07:45 19.05.2020
2968 Clouds 11 1024 76 10000 2.09 329 07:26 19.05.2020
2969 Clouds 9 1024 75 10000 1.5 250 06:54 19.05.2020
2970 Clouds 9 1024 75 10000 1.5 230 06:25 19.05.2020
2971 Clouds 9 1024 76 10000 0.5 0 05:42 19.05.2020
2972 Clouds 9 1024 76 10000 2.16 329 04:56 19.05.2020
2973 Clouds 10 1024 71 10000 1 340 04:32 19.05.2020
2974 Clear 13 1025 62 10000 1 0 01:51 19.05.2020
2975 Clear 15 1025 58 10000 2.1 340 00:47 19.05.2020
2976 Clear 16 1025 58 10000 2.1 340 00:25 19.05.2020
2977 Clear 17 1025 55 10000 2.6 340 23:58 18.05.2020
2978 Clear 17 1025 51 10000 2.1 350 23:40 18.05.2020
2979 Clear 18 1025 48 10000 2.1 330 23:20 18.05.2020
2980 Clear 19 1024 45 10000 3.1 340 22:41 18.05.2020
2981 Clear 19 1024 45 10000 3.1 340 22:22 18.05.2020
2982 Clear 19 1024 40 10000 2.6 320 21:58 18.05.2020
2983 Clear 21 1024 35 10000 2.6 330 21:40 18.05.2020
2984 Clear 21 1024 35 10000 2.6 330 21:19 18.05.2020
2985 Clear 22 1024 37 10000 3.1 330 20:56 18.05.2020
2986 Clear 22 1024 33 10000 3.6 320 20:36 18.05.2020
2987 Clear 23 1024 35 10000 4.1 340 20:18 18.05.2020
2988 Clear 23 1024 35 10000 3.6 320 19:41 18.05.2020
2989 Clouds 23 1024 35 10000 3.6 320 19:19 18.05.2020
2990 Clear 23 1024 38 10000 3.1 330 18:55 18.05.2020
2991 Clear 23 1024 38 10000 3.6 300 18:36 18.05.2020
2992 Clouds 24 1024 35 10000 2.6 350 18:18 18.05.2020
2993 Clear 23 1024 33 10000 3.1 330 17:37 18.05.2020
2994 Clouds 23 1024 38 10000 2.6 310 17:18 18.05.2020
2995 Clouds 23 1024 38 10000 2.6 310 17:18 18.05.2020
2996 Clouds 23 1024 38 10000 2.6 310 17:18 18.05.2020
2997 Clouds 23 1024 38 10000 2.6 310 16:55 18.05.2020
2998 Clouds 22 1025 38 10000 3.1 320 16:36 18.05.2020
2999 Clouds 22 1025 40 10000 1.5 0 16:18 18.05.2020
3000 Clouds 22 1025 43 10000 2.1 200 15:42 18.05.2020
3001 Clouds 22 1025 43 10000 2.1 200 15:24 18.05.2020
3002 Clouds 21 1025 43 10000 2.6 340 14:59 18.05.2020
3003 Clouds 21 1025 43 10000 2.1 0 14:39 18.05.2020
3004 Clouds 20 1026 45 10000 2.6 330 14:21 18.05.2020
3005 Clouds 20 1026 45 10000 2.6 330 13:54 18.05.2020
3006 Clouds 20 1026 48 10000 2.1 0 13:36 18.05.2020
3007 Clouds 19 1026 52 10000 2.6 30 13:18 18.05.2020
3008 Clouds 19 1026 52 10000 2.6 30 12:54 18.05.2020
3009 Clouds 18 1026 52 10000 2.04 323 12:36 18.05.2020
3010 Clouds 18 1026 52 10000 2.04 323 12:36 18.05.2020
3011 Clouds 18 1026 52 10000 2.04 323 12:18 18.05.2020
3012 Clouds 16 1026 59 10000 2.1 300 11:44 18.05.2020
3013 Clouds 17 1026 59 10000 2.1 300 11:25 18.05.2020
3014 Clouds 16 1026 59 10000 2.6 330 10:47 18.05.2020
3015 Clouds 15 1026 62 10000 2.6 310 10:27 18.05.2020
3016 Clouds 15 1026 67 10000 2.6 310 09:57 18.05.2020
3017 Clouds 14 1026 71 10000 2.1 310 09:39 18.05.2020
3018 Clouds 13 1026 71 10000 2.1 310 09:20 18.05.2020
3019 Clouds 12 1026 71 10000 1.5 0 08:42 18.05.2020
3020 Clouds 12 1026 71 10000 1.5 0 08:23 18.05.2020
3021 Clouds 11 1026 81 10000 0.5 350 07:50 18.05.2020
3022 Clouds 10 1026 87 10000 0.5 270 07:26 18.05.2020
3023 Clouds 10 1025 87 10000 1 310 06:48 18.05.2020
3024 Clouds 10 1025 81 10000 1.5 330 06:25 18.05.2020
3025 Clouds 10 1025 81 10000 1.5 340 05:46 18.05.2020
3026 Clouds 11 1025 81 10000 1 300 04:40 18.05.2020
3027 Clouds 12 1025 76 10000 1 0 03:30 18.05.2020
3028 Clear 13 1025 71 10000 1 0 01:58 18.05.2020
3029 Clear 14 1025 67 10000 1.5 360 00:50 18.05.2020
3030 Clear 14 1025 62 10000 2.1 350 00:22 18.05.2020
3031 Clear 14 1025 62 10000 2.6 330 23:56 17.05.2020
3032 Clear 15 1025 59 10000 1 330 23:38 17.05.2020
3033 Clear 15 1025 59 10000 1 330 23:19 17.05.2020
3034 Clear 16 1024 51 10000 1 310 22:55 17.05.2020
3035 Clouds 17 1024 51 10000 1.5 310 22:37 17.05.2020
3036 Clouds 17 1024 48 10000 1 0 22:18 17.05.2020
3037 Clouds 18 1024 45 10000 2.1 320 21:42 17.05.2020
3038 Clouds 18 1024 45 10000 2.1 320 21:20 17.05.2020
3039 Clouds 19 1024 45 10000 2.6 340 20:59 17.05.2020
3040 Clouds 20 1024 42 10000 2.1 360 20:41 17.05.2020
3041 Clear 20 1024 42 10000 2.1 360 20:20 17.05.2020
3042 Clear 20 1024 42 10000 3.1 330 19:55 17.05.2020
3043 Clear 21 1024 40 10000 2.1 360 19:37 17.05.2020
3044 Clear 21 1024 40 10000 2.1 360 19:37 17.05.2020
3045 Clear 21 1024 42 10000 2.6 360 19:18 17.05.2020
3046 Clear 21 1024 42 10000 1.5 0 18:39 17.05.2020
3047 Clear 21 1024 42 10000 1.5 0 18:21 17.05.2020
3048 Clear 21 1024 40 10000 3.1 20 17:58 17.05.2020
3049 Clear 21 1024 40 10000 2.6 0 17:39 17.05.2020
3050 Clear 20 1024 40 10000 3.6 330 17:18 17.05.2020
3051 Clear 20 1025 42 10000 3.1 30 16:40 17.05.2020
3052 Clear 20 1025 42 10000 3.1 30 16:20 17.05.2020
3053 Clear 20 1025 42 10000 3.1 30 16:20 17.05.2020
3054 Clear 20 1025 39 10000 2.1 0 15:57 17.05.2020
3055 Clouds 19 1025 42 10000 2.6 0 15:39 17.05.2020
3056 Clouds 19 1025 42 10000 2.6 0 15:20 17.05.2020
3057 Clear 19 1026 42 10000 2.6 30 14:43 17.05.2020
3058 Clear 19 1026 42 10000 2.6 30 14:24 17.05.2020
3059 Clear 18 1026 39 10000 2.1 0 13:59 17.05.2020
3060 Clear 18 1026 42 10000 2.6 30 13:40 17.05.2020
3061 Clear 18 1026 42 10000 2.6 30 13:19 17.05.2020
3062 Clear 9 1024 70 10000 2.1 340 04:47 17.05.2020
3063 Clear 10 1024 71 10000 1.5 320 03:18 17.05.2020
3064 Clouds 10 1024 71 10000 2.1 330 02:20 17.05.2020
3065 Clouds 11 1024 66 10000 1.5 0 01:47 17.05.2020
3066 Clouds 13 1024 58 10000 2.6 350 00:41 17.05.2020
3067 Clear 13 1024 58 10000 2.6 350 00:21 17.05.2020
3068 Clear 14 1023 58 10000 3.6 350 23:42 16.05.2020
3069 Clear 14 1023 58 10000 3.6 350 23:21 16.05.2020
3070 Clear 14 1023 54 10000 4.1 350 22:59 16.05.2020
3071 Clear 15 1023 54 10000 4.1 350 22:41 16.05.2020
3072 Clear 15 1023 54 10000 4.1 350 22:20 16.05.2020
3073 Clear 16 1022 48 10000 3.6 350 21:55 16.05.2020
3074 Clear 17 1022 45 10000 3.1 340 21:37 16.05.2020
3075 Clouds 17 1022 42 10000 4.1 340 21:18 16.05.2020
3076 Clouds 18 1022 42 10000 4.1 340 20:54 16.05.2020
3077 Clouds 18 1022 39 10000 3.6 340 20:36 16.05.2020
3078 Clouds 18 1022 39 10000 3.1 350 20:18 16.05.2020
3079 Clouds 19 1022 39 10000 4.6 320 19:40 16.05.2020
3080 Clouds 19 1022 39 10000 4.6 320 19:22 16.05.2020
3081 Clouds 19 1022 39 10000 3.6 330 18:57 16.05.2020
3082 Clouds 19 1022 39 10000 3.6 350 18:36 16.05.2020
3083 Clouds 19 1022 39 10000 3.6 350 18:18 16.05.2020
3084 Clouds 19 1022 37 10000 4.1 340 17:41 16.05.2020
3085 Clouds 19 1022 37 10000 4.1 340 17:20 16.05.2020
3086 Clouds 19 1023 39 10000 4.1 360 16:44 16.05.2020
3087 Clouds 19 1023 39 10000 4.1 360 16:25 16.05.2020
3088 Clouds 19 1023 36 10000 3.1 350 15:59 16.05.2020
3089 Clouds 19 1023 39 10000 4.1 360 15:41 16.05.2020
3090 Clouds 19 1023 39 10000 4.1 360 15:21 16.05.2020
3091 Clouds 18 1023 42 10000 3.1 340 14:56 16.05.2020
3092 Clouds 18 1023 42 10000 2.6 10 14:38 16.05.2020
3093 Clouds 18 1023 42 10000 2.6 10 14:19 16.05.2020
3094 Clouds 17 1023 42 10000 2.6 320 13:42 16.05.2020
3095 Clouds 17 1023 42 10000 2.6 320 13:24 16.05.2020
3096 Clouds 17 1024 42 10000 3.1 360 12:59 16.05.2020
3097 Clouds 17 1024 39 10000 2.6 360 12:40 16.05.2020
3098 Clear 16 1024 44 10000 3.1 40 12:19 16.05.2020
3099 Clear 15 1024 51 10000 3.1 10 11:42 16.05.2020
3100 Clear 15 1024 51 10000 3.1 10 11:23 16.05.2020
3101 Clear 15 1024 54 10000 3.6 350 10:58 16.05.2020
3102 Clear 14 1024 58 10000 2.6 20 10:39 16.05.2020
3103 Clear 14 1024 58 10000 2.6 20 10:21 16.05.2020
3104 Clear 13 1024 54 10000 2.6 20 09:47 16.05.2020
3105 Clear 11 1024 58 10000 2.1 350 09:29 16.05.2020
3106 Clear 10 1024 66 10000 2.1 350 08:59 16.05.2020
3107 Clear 10 1024 70 10000 1.5 0 08:40 16.05.2020
3108 Clear 8 1024 75 10000 1.5 0 08:19 16.05.2020
3109 Clear 8 1023 81 10000 2.1 340 07:43 16.05.2020
3110 Clear 7 1023 86 10000 1.5 350 07:23 16.05.2020
3111 Clear 6 1023 86 10000 1.5 350 06:48 16.05.2020
3112 Clear 6 1023 81 10000 2.05 33 06:24 16.05.2020
3113 Clear 6 1023 81 10000 2.05 33 06:24 16.05.2020
3114 Clear 6 1023 81 10000 1 0 05:56 16.05.2020
3115 Clear 7 1023 75 10000 1 340 05:29 16.05.2020
3116 Clear 8 1023 66 10000 3.6 350 03:34 16.05.2020
3117 Clear 9 1023 66 10000 3.1 350 02:59 16.05.2020
3118 Clear 9 1023 61 10000 3.1 350 02:20 16.05.2020
3119 Clear 10 1023 57 10000 2.6 350 01:44 16.05.2020
3120 Clear 11 1023 57 10000 2.6 350 01:22 16.05.2020
3121 Clear 11 1023 53 10000 2.6 360 00:44 16.05.2020
3122 Clear 10 1023 53 10000 2.6 360 00:21 16.05.2020
3123 Clear 11 1023 46 10000 2.6 360 23:41 15.05.2020
3124 Clear 11 1023 46 10000 2.6 360 23:20 15.05.2020
3125 Clear 12 1023 46 10000 2.6 360 23:20 15.05.2020
3126 Clear 13 1022 47 10000 2.1 360 22:57 15.05.2020
3127 Clear 13 1022 47 10000 1.5 360 22:38 15.05.2020
3128 Clear 14 1022 44 10000 2.1 10 22:18 15.05.2020
3129 Clear 15 1022 38 10000 3.1 10 21:40 15.05.2020
3130 Clear 15 1022 38 10000 3.1 10 21:21 15.05.2020
3131 Clear 16 1022 36 10000 3.6 10 20:58 15.05.2020
3132 Clear 16 1021 36 10000 3.6 360 20:40 15.05.2020
3133 Clear 16 1021 36 10000 3.6 360 20:22 15.05.2020
3134 Clear 17 1021 36 10000 4.1 350 19:56 15.05.2020
3135 Clear 17 1021 33 10000 4.6 10 19:37 15.05.2020
3136 Clear 17 1021 33 10000 4.6 10 19:19 15.05.2020
3137 Clear 17 1021 36 10000 4.6 10 18:43 15.05.2020
3138 Clear 17 1021 36 10000 4.6 10 18:24 15.05.2020
3139 Clear 17 1021 36 10000 5.1 350 17:40 15.05.2020
3140 Clear 17 1021 33 10000 5.7 360 17:20 15.05.2020
3141 Clear 17 1021 33 10000 5.7 360 16:58 15.05.2020
3142 Clear 17 1021 36 10000 4.6 360 16:39 15.05.2020
3143 Clear 17 1021 36 10000 4.6 360 16:19 15.05.2020
3144 Clear 17 1021 36 10000 4.1 30 15:55 15.05.2020
3145 Clear 17 1021 33 10000 5.1 20 15:37 15.05.2020
3146 Clear 17 1021 33 10000 5.1 20 15:18 15.05.2020
3147 Clear 16 1021 36 10000 5.1 360 14:42 15.05.2020
3148 Clear 16 1021 36 10000 5.1 360 14:24 15.05.2020
3149 Clear 16 1021 38 10000 5.7 20 13:58 15.05.2020
3150 Clear 16 1021 41 10000 5.1 40 13:39 15.05.2020
3151 Clear 15 1021 41 10000 5.1 40 13:20 15.05.2020
3152 Clear 15 1021 44 10000 5.1 10 12:40 15.05.2020
3153 Clear 15 1021 44 10000 5.1 10 12:40 15.05.2020
3154 Clear 14 1021 44 10000 5.1 10 12:19 15.05.2020
3155 Clear 14 1021 44 10000 5.1 10 12:19 15.05.2020
3156 Clear 14 1021 44 10000 6.2 20 11:57 15.05.2020
3157 Clear 13 1021 47 10000 4.6 10 11:38 15.05.2020
3158 Clear 13 1021 47 10000 4.6 10 11:20 15.05.2020
3159 Clear 12 1020 57 10000 4.6 360 10:58 15.05.2020
3160 Clear 11 1020 57 10000 5.1 360 10:39 15.05.2020
3161 Clear 11 1020 57 10000 5.1 360 10:21 15.05.2020
3162 Clear 10 1020 61 10000 4.6 350 09:58 15.05.2020
3163 Clear 10 1020 61 10000 4.6 360 09:37 15.05.2020
3164 Clear 9 1020 70 10000 5.1 360 09:18 15.05.2020
3165 Clear 8 1020 70 10000 5.1 360 08:55 15.05.2020
3166 Clear 8 1020 70 10000 5.1 360 08:37 15.05.2020
3167 Clear 7 1019 75 10000 5.1 350 08:18 15.05.2020
3168 Clear 6 1019 80 10000 4.6 350 07:42 15.05.2020
3169 Clear 6 1019 80 10000 4.6 350 07:24 15.05.2020
3170 Clear 6 1018 70 10000 5.7 10 06:38 15.05.2020
3171 Clear 7 1018 75 10000 4.6 360 05:49 15.05.2020
3172 Clear 7 1017 65 10000 5.1 20 04:27 15.05.2020
3173 Clear 7 1017 70 10000 5.1 360 03:40 15.05.2020
3174 Clouds 8 1017 65 10000 5.1 360 02:26 15.05.2020
3175 Clouds 10 1017 61 10000 6.7 360 01:19 15.05.2020
3176 Clouds 11 1017 53 10000 5.1 360 00:46 15.05.2020
3177 Clouds 11 1017 53 10000 5.1 360 00:28 15.05.2020
3178 Clouds 11 1017 52 10000 4.6 10 23:43 14.05.2020
3179 Clouds 11 1017 53 10000 4.6 10 23:21 14.05.2020
3180 Clouds 12 1016 53 10000 4.1 360 22:57 14.05.2020
3181 Clouds 12 1016 53 10000 4.6 10 22:39 14.05.2020
3182 Clouds 12 1016 54 10000 5.1 10 22:19 14.05.2020
3183 Clouds 13 1016 54 10000 5.1 10 21:56 14.05.2020
3184 Clouds 13 1016 52 10000 5.7 20 21:37 14.05.2020
3185 Clouds 13 1016 53 10000 5.7 20 21:19 14.05.2020
3186 Clouds 14 1015 53 10000 7.2 30 20:42 14.05.2020
3187 Clouds 14 1015 50 10000 7.2 30 20:21 14.05.2020
3188 Clouds 14 1015 41 10000 6.7 30 19:59 14.05.2020
3189 Clouds 15 1015 38 10000 6.7 30 19:40 14.05.2020
3190 Clear 15 1015 38 10000 6.7 30 19:20 14.05.2020
3191 Clear 15 1015 38 10000 6.7 20 18:58 14.05.2020
3192 Clear 15 1015 38 10000 7.2 30 18:38 14.05.2020
3193 Clear 15 1015 38 10000 7.2 30 18:20 14.05.2020
3194 Clear 15 1015 38 10000 7.2 40 17:59 14.05.2020
3195 Clear 15 1016 38 10000 6.2 30 17:37 14.05.2020
3196 Clear 16 1016 38 10000 6.2 30 17:19 14.05.2020
3197 Clear 15 1016 41 10000 6.2 30 16:57 14.05.2020
3198 Clear 15 1016 41 10000 5.7 30 16:38 14.05.2020
3199 Clear 15 1016 44 10000 6.7 30 16:19 14.05.2020
3200 Clear 15 1016 44 10000 6.7 30 15:56 14.05.2020
3201 Clear 15 1016 41 10000 6.2 30 15:37 14.05.2020
3202 Clear 14 1016 41 10000 6.7 40 15:18 14.05.2020
3203 Clear 14 1016 41 10000 6.7 40 14:55 14.05.2020
3204 Clear 14 1017 39 10000 6.7 10 14:36 14.05.2020
3205 Clear 14 1017 41 10000 6.7 10 14:18 14.05.2020
3206 Clear 13 1017 43 10000 7.2 40 13:42 14.05.2020
3207 Clear 13 1017 43 10000 7.2 40 13:20 14.05.2020
3208 Clear 13 1017 46 10000 7.2 40 12:59 14.05.2020
3209 Clear 13 1018 43 10000 8.2 30 12:39 14.05.2020
3210 Clear 12 1018 46 10000 8.2 30 12:20 14.05.2020
3211 Clear 12 1018 50 10000 7.2 30 11:59 14.05.2020
3212 Clear 12 1018 50 10000 7.2 30 11:59 14.05.2020
3213 Clear 11 1018 50 10000 7.7 30 11:40 14.05.2020
3214 Clear 11 1018 50 10000 7.7 30 11:21 14.05.2020
3215 Clear 10 1018 50 10000 8.2 40 10:57 14.05.2020
3216 Clear 10 1018 57 10000 7.7 30 10:38 14.05.2020
3217 Clear 10 1018 57 10000 7.7 30 10:20 14.05.2020
3218 Clear 9 1018 61 10000 6.2 20 09:42 14.05.2020
3219 Clear 8 1018 61 10000 6.2 20 09:23 14.05.2020
3220 Clear 7 1017 58 10000 6.2 20 08:43 14.05.2020
3221 Clear 7 1017 64 10000 6.2 20 08:21 14.05.2020
3222 Clear 6 1016 64 10000 5.7 10 07:47 14.05.2020
3223 Clear 6 1016 67 10000 5.7 10 07:25 14.05.2020
3224 Clear 5 1016 67 10000 6.2 10 06:56 14.05.2020
3225 Clear 6 1016 67 10000 4.6 10 06:34 14.05.2020
3226 Clear 6 1016 67 10000 4.6 10 05:59 14.05.2020
3227 Clear 6 1016 67 10000 5.1 10 05:37 14.05.2020
3228 Clear 6 1016 70 10000 4.1 360 04:42 14.05.2020
3229 Clear 7 1016 70 10000 4.1 360 03:32 14.05.2020
3230 Clear 7 1015 65 10000 4.1 10 02:43 14.05.2020
3231 Clouds 7 1015 65 10000 4.1 10 02:20 14.05.2020
3232 Clouds 8 1015 59 10000 5.7 360 01:44 14.05.2020
3233 Clouds 8 1014 58 10000 5.7 360 00:51 14.05.2020
3234 Clouds 8 1014 58 10000 5.7 360 00:51 14.05.2020
3235 Clouds 9 1014 59 10000 6.2 360 00:26 14.05.2020
3236 Clouds 10 1014 59 10000 5.7 360 23:45 13.05.2020
3237 Clouds 10 1014 59 10000 5.7 360 23:45 13.05.2020
3238 Clouds 10 1014 57 10000 5.7 360 23:23 13.05.2020
3239 Clouds 11 1013 53 10000 5.7 360 22:59 13.05.2020
3240 Clouds 11 1013 50 10000 5.1 360 22:39 13.05.2020
3241 Clouds 11 1013 50 10000 5.1 360 22:21 13.05.2020
3242 Clouds 12 1012 50 10000 5.7 360 21:57 13.05.2020
3243 Clouds 12 1012 50 10000 6.2 10 21:38 13.05.2020
3244 Clouds 13 1011 54 10000 6.2 360 21:19 13.05.2020
3245 Clouds 13 1011 50 10000 7.7 20 20:41 13.05.2020
3246 Clouds 13 1011 50 10000 7.7 20 20:23 13.05.2020
3247 Clouds 14 1010 54 10000 7.2 360 19:57 13.05.2020
3248 Clouds 15 1010 41 10000 6.7 20 19:39 13.05.2020
3249 Clouds 15 1010 38 10000 7.7 40 19:21 13.05.2020
3250 Clouds 15 1010 38 10000 6.7 30 18:42 13.05.2020
3251 Clouds 15 1010 38 10000 6.2 30 18:22 13.05.2020
3252 Clouds 15 1010 38 10000 6.2 30 18:21 13.05.2020
3253 Clouds 16 1010 38 10000 7.7 30 17:39 13.05.2020
3254 Clouds 16 1010 38 10000 7.2 30 17:20 13.05.2020
3255 Clouds 16 1010 38 10000 7.2 30 16:56 13.05.2020
3256 Clouds 16 1010 44 10000 6.2 20 16:38 13.05.2020
3257 Clouds 16 1010 44 10000 6.2 20 16:19 13.05.2020
3258 Clouds 15 1010 38 10000 6.2 20 15:42 13.05.2020
3259 Clouds 15 1011 43 10000 6.2 50 15:20 13.05.2020
3260 Clouds 15 1011 43 10000 6.2 50 14:58 13.05.2020
3261 Clouds 15 1011 41 10000 6.7 40 14:40 13.05.2020
3262 Clouds 15 1011 41 10000 6.7 40 14:22 13.05.2020
3263 Clouds 14 1011 41 10000 7.2 30 13:57 13.05.2020
3264 Clouds 14 1012 40 10000 6.7 20 13:39 13.05.2020
3265 Clouds 14 1012 40 10000 6.7 20 13:20 13.05.2020
3266 Clouds 14 1012 41 10000 7.2 30 12:56 13.05.2020
3267 Clouds 13 1012 37 10000 7.7 30 12:37 13.05.2020
3268 Clouds 13 1012 37 10000 7.7 30 12:18 13.05.2020
3269 Clouds 13 1012 41 10000 7.2 30 11:54 13.05.2020
3270 Clouds 12 1012 44 10000 7.7 40 11:36 13.05.2020
3271 Clouds 12 1012 46 10000 7.7 30 11:18 13.05.2020
3272 Clouds 12 1012 46 10000 7.7 30 10:55 13.05.2020
3273 Clouds 11 1012 50 10000 6.2 20 10:37 13.05.2020
3274 Clouds 10 1013 57 10000 5.1 20 10:18 13.05.2020
3275 Clouds 10 1012 61 10000 5.1 10 09:41 13.05.2020
3276 Clouds 9 1013 57 10000 4.6 40 09:22 13.05.2020
3277 Clouds 9 1013 57 10000 4.6 40 08:54 13.05.2020
3278 Clouds 9 1013 65 10000 3.1 30 08:36 13.05.2020
3279 Clouds 8 1013 65 10000 3.1 30 08:18 13.05.2020
3280 Clouds 7 1013 70 10000 2.1 360 07:42 13.05.2020
3281 Clouds 7 1013 70 10000 2.1 360 07:24 13.05.2020
3282 Clouds 6 1013 75 10000 2.6 10 06:47 13.05.2020
3283 Clouds 6 1013 70 10000 3.6 360 05:59 13.05.2020
3284 Clouds 6 1014 70 10000 2.1 350 04:50 13.05.2020
3285 Clouds 7 1014 70 10000 2.1 350 03:27 13.05.2020
3286 Clouds 8 1014 65 10000 2.6 10 02:32 13.05.2020
3287 Clouds 8 1015 65 10000 2.6 30 01:36 13.05.2020
3288 Clouds 9 1015 65 10000 3.1 10 00:47 13.05.2020
3289 Clouds 9 1015 61 10000 2.6 20 00:20 13.05.2020
3290 Clouds 9 1015 61 10000 2.6 10 23:40 12.05.2020
3291 Clouds 9 1015 61 10000 2.6 10 23:40 12.05.2020
3292 Clouds 9 1015 61 10000 2.6 10 23:40 12.05.2020
3293 Clouds 9 1015 61 10000 2.6 10 23:21 12.05.2020
3294 Clouds 10 1015 57 10000 3.1 10 22:58 12.05.2020
3295 Clouds 10 1015 57 10000 2.6 10 22:40 12.05.2020
3296 Clouds 10 1015 57 10000 2.6 10 22:21 12.05.2020
3297 Clouds 11 1015 53 10000 3.6 20 21:55 12.05.2020
3298 Clouds 11 1015 50 10000 5.1 20 21:37 12.05.2020
3299 Clouds 12 1015 50 10000 5.1 20 21:19 12.05.2020
3300 Clouds 12 1015 50 10000 5.7 20 20:57 12.05.2020
3301 Clouds 13 1015 51 10000 4.6 50 20:38 12.05.2020
3302 Clouds 13 1015 46 10000 4.6 50 20:20 12.05.2020
3303 Clouds 13 1015 46 10000 3.6 40 19:56 12.05.2020
3304 Clouds 13 1015 35 10000 4.6 30 19:37 12.05.2020
3305 Clouds 13 1015 35 10000 5.7 30 19:19 12.05.2020
3306 Clouds 14 1015 35 10000 5.1 20 18:43 12.05.2020
3307 Clouds 14 1015 35 10000 5.1 20 18:24 12.05.2020
3308 Clouds 14 1016 35 10000 5.1 20 17:59 12.05.2020
3309 Clouds 14 1016 33 10000 4.6 20 17:41 12.05.2020
3310 Clouds 14 1016 33 10000 4.6 20 17:22 12.05.2020
3311 Clouds 14 1017 35 10000 4.6 30 16:47 12.05.2020
3312 Clouds 14 1017 35 10000 5.1 10 16:24 12.05.2020
3313 Clouds 14 1017 35 10000 3.6 40 15:56 12.05.2020
3314 Clouds 14 1018 35 10000 4.6 50 15:37 12.05.2020
3315 Clouds 14 1018 35 10000 4.6 50 15:19 12.05.2020
3316 Clouds 14 1018 43 10000 3.1 50 14:55 12.05.2020
3317 Clouds 13 1018 37 10000 3.6 60 14:36 12.05.2020
3318 Clouds 13 1018 37 10000 3.6 60 14:18 12.05.2020
3319 Clouds 13 1018 37 10000 5.1 70 13:57 12.05.2020
3320 Clouds 13 1018 40 10000 4.1 40 13:39 12.05.2020
3321 Clouds 13 1018 40 10000 4.1 40 13:19 12.05.2020
3322 Clouds 13 1018 40 10000 5.7 20 13:19 12.05.2020
3323 Clouds 13 1018 40 10000 5.7 20 12:57 12.05.2020
3324 Clouds 12 1019 50 10000 5.1 60 12:39 12.05.2020
3325 Clouds 12 1019 50 10000 5.1 60 12:21 12.05.2020
3326 Clouds 11 1019 50 10000 4.1 50 11:57 12.05.2020
3327 Clouds 11 1019 50 10000 4.1 40 11:38 12.05.2020
3328 Clouds 11 1019 50 10000 4.1 40 11:20 12.05.2020
3329 Clouds 10 1020 46 10000 4.6 40 10:57 12.05.2020
3330 Clouds 9 1020 51 10000 5.1 30 10:39 12.05.2020
3331 Clouds 9 1020 51 10000 5.1 30 10:20 12.05.2020
3332 Clouds 8 1020 51 10000 5.1 30 09:58 12.05.2020
3333 Clouds 7 1020 57 10000 5.1 30 09:39 12.05.2020
3334 Clouds 7 1020 57 10000 5.1 30 09:20 12.05.2020
3335 Clouds 7 1020 57 10000 5.1 30 08:42 12.05.2020
3336 Clouds 6 1020 62 10000 5.1 30 08:22 12.05.2020
3337 Clouds 6 1020 62 10000 4.6 20 07:58 12.05.2020
3338 Clouds 5 1020 62 10000 4.1 10 07:40 12.05.2020
3339 Clouds 5 1020 64 10000 4.1 10 07:21 12.05.2020
3340 Clouds 5 1020 65 10000 4.1 10 06:39 12.05.2020
3341 Clouds 5 1020 65 10000 4.6 10 06:21 12.05.2020
3342 Clouds 5 1020 65 10000 4.6 10 05:49 12.05.2020
3343 Clouds 6 1019 60 10000 5.1 20 04:41 12.05.2020
3344 Clouds 7 1019 56 10000 4.1 10 03:26 12.05.2020
3345 Clouds 7 1019 54 10000 4.1 10 02:28 12.05.2020
3346 Clouds 8 1019 54 10000 4.6 360 01:56 12.05.2020
3347 Clouds 8 1018 52 10000 5.1 10 01:20 12.05.2020
3348 Clouds 9 1018 52 10000 4.6 360 00:26 12.05.2020
3349 Clouds 9 1017 49 10000 4.6 360 23:58 11.05.2020
3350 Clouds 10 1017 49 10000 4.1 360 23:40 11.05.2020
3351 Clouds 10 1017 49 10000 4.1 360 23:20 11.05.2020
3352 Clouds 10 1016 46 10000 5.1 10 22:58 11.05.2020
3353 Clouds 10 1016 46 10000 5.1 10 22:40 11.05.2020
3354 Clouds 11 1016 46 10000 5.1 10 22:20 11.05.2020
3355 Clouds 11 1016 46 10000 5.1 10 22:20 11.05.2020
3356 Clouds 11 1015 43 10000 5.1 10 21:57 11.05.2020
3357 Clouds 11 1014 50 10000 4.6 10 21:39 11.05.2020
3358 Clouds 12 1014 48 10000 6.2 20 21:19 11.05.2020
3359 Clouds 12 1014 48 10000 6.2 20 20:57 11.05.2020
3360 Clouds 13 1014 37 10000 7.2 20 20:39 11.05.2020
3361 Clouds 13 1014 37 10000 7.2 20 20:20 11.05.2020
3362 Clouds 13 1013 44 10000 7.7 10 19:55 11.05.2020
3363 Clouds 13 1013 41 10000 8.2 10 19:36 11.05.2020
3364 Clouds 14 1012 41 10000 8.2 20 19:18 11.05.2020
3365 Clouds 14 1012 41 10000 8.2 20 18:55 11.05.2020
3366 Clouds 14 1012 35 10000 8.2 10 18:36 11.05.2020
3367 Clouds 14 1012 35 10000 8.2 10 18:18 11.05.2020
3368 Clouds 14 1011 35 10000 9.3 10 17:41 11.05.2020
3369 Clouds 14 1011 35 10000 9.3 10 17:22 11.05.2020
3370 Clouds 14 1011 38 10000 10.8 30 16:59 11.05.2020
3371 Clouds 13 1011 41 10000 8.7 20 16:40 11.05.2020
3372 Clouds 13 1011 41 10000 8.7 20 16:21 11.05.2020
3373 Clouds 12 1011 43 10000 9.3 20 15:57 11.05.2020
3374 Clouds 12 1010 46 10000 9.8 20 15:39 11.05.2020
3375 Clouds 12 1010 46 10000 8.2 10 15:19 11.05.2020
3376 Clouds 12 1010 46 10000 8.2 10 14:54 11.05.2020
3377 Clouds 12 1010 39 10000 7.7 10 14:36 11.05.2020
3378 Clouds 12 1010 39 10000 7.7 10 14:36 11.05.2020
3379 Clouds 12 1010 41 10000 7.7 10 14:18 11.05.2020
3380 Clouds 10 1010 46 10000 10.3 20 13:41 11.05.2020
3381 Clouds 10 1010 46 10000 10.3 20 13:19 11.05.2020
3382 Clouds 10 1009 46 10000 9.3 20 12:58 11.05.2020
3383 Clouds 9 1009 43 10000 8.7 20 12:40 11.05.2020
3384 Clouds 9 1009 46 10000 8.7 20 12:22 11.05.2020
3385 Clouds 8 1009 46 10000 8.2 20 11:56 11.05.2020
3386 Clouds 8 1009 46 10000 10.8 20 11:38 11.05.2020
3387 Clouds 8 1008 51 10000 11.3 20 11:19 11.05.2020
3388 Clouds 8 1008 51 10000 11.3 20 10:55 11.05.2020
3389 Clouds 8 1008 61 10000 11.3 10 10:37 11.05.2020
3390 Clouds 8 1008 61 10000 11.3 10 10:18 11.05.2020
3391 Clouds 7 1007 61 10000 9.3 20 09:55 11.05.2020
3392 Clouds 7 1007 70 10000 11.8 20 09:37 11.05.2020
3393 Clouds 7 1007 70 10000 11.8 20 09:18 11.05.2020
3394 Clouds 7 1007 70 10000 9.8 10 08:40 11.05.2020
3395 Clouds 7 1007 70 10000 9.8 10 08:22 11.05.2020
3396 Rain 6 1007 75 10000 8.2 20 07:54 11.05.2020
3397 Rain 6 1006 75 10000 8.7 20 07:36 11.05.2020
3398 Rain 7 1006 75 10000 8.7 20 07:18 11.05.2020
3399 Drizzle 7 1006 81 10000 8.2 10 06:33 11.05.2020
3400 Drizzle 8 1006 81 10000 8.2 20 05:49 11.05.2020
3401 Drizzle 8 1006 81 10000 8.2 20 05:20 11.05.2020
3402 Rain 9 1005 87 10000 8.7 10 03:51 11.05.2020
3403 Rain 11 1005 87 8000 8.7 20 02:36 11.05.2020
3404 Rain 12 1005 87 9000 8.7 10 01:55 11.05.2020
3405 Drizzle 13 1005 93 6000 7.7 10 00:57 11.05.2020
3406 Rain 13 1005 87 6000 6.7 10 00:38 11.05.2020
3407 Rain 13 1005 87 6000 6.7 10 00:18 11.05.2020
3408 Clouds 14 1005 87 7000 7.2 360 23:39 10.05.2020
3409 Clouds 14 1005 87 7000 7.2 360 23:19 10.05.2020
3410 Clouds 14 1005 87 7000 7.7 10 22:54 10.05.2020
3411 Clouds 15 1005 87 7000 6.7 360 22:36 10.05.2020
3412 Clouds 15 1005 87 7000 6.7 360 22:18 10.05.2020
3413 Clouds 15 1005 87 7000 6.7 360 22:18 10.05.2020
3414 Mist 17 1004 82 4400 7.7 360 21:42 10.05.2020
3415 Mist 18 1004 87 5000 6.7 360 21:18 10.05.2020
3416 Rain 18 1003 82 10000 7.2 10 20:43 10.05.2020
3417 Rain 19 1003 82 10000 7.2 10 20:24 10.05.2020
3418 Rain 19 1003 82 10000 7.2 10 20:24 10.05.2020
3419 Rain 20 1003 77 10000 6.2 360 19:58 10.05.2020
3420 Rain 21 1003 68 10000 2.6 20 19:39 10.05.2020
3421 Clouds 21 1003 64 10000 2.1 340 19:21 10.05.2020
3422 Clouds 21 1003 64 10000 2.1 340 19:21 10.05.2020
3423 Clouds 22 1003 64 10000 2.1 340 18:56 10.05.2020
3424 Clouds 22 1003 60 10000 2.1 40 18:36 10.05.2020
3425 Clouds 22 1003 60 10000 2.1 40 18:18 10.05.2020
3426 Clouds 22 1003 64 10000 3.32 8 17:58 10.05.2020
3427 Clouds 23 1004 60 10000 1 0 17:39 10.05.2020
3428 Clouds 22 1004 60 10000 1 0 17:20 10.05.2020
3429 Clouds 22 1004 60 10000 1.5 0 16:54 10.05.2020
3430 Clouds 22 1004 64 10000 2.6 220 16:36 10.05.2020
3431 Clouds 22 1004 64 10000 2.6 220 16:18 10.05.2020
3432 Clouds 21 1004 72 10000 4.1 150 15:41 10.05.2020
3433 Clouds 21 1004 72 10000 4.1 150 15:22 10.05.2020
3434 Clouds 20 1005 72 10000 3.6 150 14:56 10.05.2020
3435 Clouds 20 1005 72 10000 1.5 140 14:38 10.05.2020
3436 Clouds 20 1005 72 10000 1.5 140 14:19 10.05.2020
3437 Clouds 20 1005 73 10000 1 0 13:58 10.05.2020
3438 Clouds 19 1005 82 10000 2.1 110 13:37 10.05.2020
3439 Clouds 19 1005 82 10000 2.1 110 13:19 10.05.2020
3440 Rain 18 1005 82 10000 1.5 0 12:56 10.05.2020
3441 Clouds 17 1005 77 10000 0.5 0 12:37 10.05.2020
3442 Clouds 17 1005 82 10000 1.5 0 12:19 10.05.2020
3443 Clouds 17 1005 82 10000 1.5 0 11:55 10.05.2020
3444 Clouds 17 1005 88 10000 1.5 120 11:36 10.05.2020
3445 Clouds 17 1005 88 10000 1.5 120 11:18 10.05.2020
3446 Clouds 17 1005 88 10000 1.5 0 10:43 10.05.2020
3447 Clear 17 1005 93 10000 0.5 0 10:25 10.05.2020
3448 Clear 16 1004 93 7000 2.1 70 09:57 10.05.2020
3449 Rain 16 1005 93 6000 2.1 60 09:39 10.05.2020
3450 Rain 16 1005 93 6000 2.1 60 09:20 10.05.2020
3451 Clouds 15 1005 93 9000 1 20 08:47 10.05.2020
3452 Clouds 15 1006 100 10000 1 0 08:23 10.05.2020
3453 Clouds 15 1005 100 9000 0.5 0 07:44 10.05.2020
3454 Clouds 14 1005 100 6000 1.5 20 07:20 10.05.2020
3455 Clouds 14 1005 100 6000 1.5 20 06:56 10.05.2020
3456 Clouds 14 1005 100 10000 2.1 110 06:30 10.05.2020
3457 Mist 15 1005 93 5000 1 0 05:50 10.05.2020
3458 Clouds 15 1005 93 10000 1 0 04:54 10.05.2020
3459 Clouds 15 1005 100 10000 0.5 340 04:34 10.05.2020
3460 Clouds 15 1005 100 10000 1.5 0 03:54 10.05.2020
3461 Clouds 15 1005 100 10000 2.1 330 03:36 10.05.2020
3462 Rain 15 1006 93 10000 1.5 240 02:48 10.05.2020
3463 Rain 15 1006 93 10000 1 0 02:19 10.05.2020
3464 Thunderstorm 15 1007 93 10000 1.5 0 01:42 10.05.2020
3465 Thunderstorm 15 1007 93 9000 2.1 340 01:19 10.05.2020
3466 Thunderstorm 16 1007 93 9000 2.1 340 00:54 10.05.2020
3467 Rain 16 1007 93 3800 2.6 360 00:24 10.05.2020
3468 Thunderstorm 16 1007 93 1500 4.1 340 23:59 09.05.2020
3469 Rain 17 1007 93 10000 4.6 10 23:39 09.05.2020
3470 Thunderstorm 17 1007 93 10000 4.6 10 23:20 09.05.2020
3471 Rain 18 1007 77 10000 5.7 120 22:43 09.05.2020
3472 Thunderstorm 18 1007 77 10000 5.7 120 22:24 09.05.2020
3473 Thunderstorm 19 1007 82 10000 3.1 30 21:59 09.05.2020
3474 Rain 19 1007 82 10000 2.6 40 21:41 09.05.2020
3475 Rain 19 1007 82 10000 2.6 40 21:41 09.05.2020
3476 Rain 19 1007 82 10000 2.6 40 21:21 09.05.2020
3477 Clouds 19 1007 82 10000 2.6 40 20:58 09.05.2020
3478 Clouds 20 1007 88 10000 1.5 360 20:39 09.05.2020
3479 Rain 20 1007 88 10000 1.5 360 20:20 09.05.2020
3480 Rain 20 1008 88 10000 1.5 350 19:58 09.05.2020
3481 Rain 20 1008 88 10000 2.1 10 19:38 09.05.2020
3482 Rain 20 1008 88 10000 2.1 10 19:19 09.05.2020
3483 Rain 20 1008 68 10000 4.1 80 18:45 09.05.2020
3484 Rain 21 1008 68 10000 4.1 80 18:26 09.05.2020
3485 Thunderstorm 21 1008 60 10000 3.6 70 17:58 09.05.2020
3486 Rain 22 1009 56 10000 4.1 70 17:40 09.05.2020
3487 Rain 22 1009 56 10000 4.1 70 17:21 09.05.2020
3488 Clouds 23 1009 56 10000 3.6 40 16:41 09.05.2020
3489 Clouds 23 1010 56 10000 3.1 80 16:20 09.05.2020
3490 Clouds 24 1010 56 10000 3.1 80 15:45 09.05.2020
3491 Clouds 23 1010 56 10000 3.6 90 15:27 09.05.2020
3492 Clouds 23 1010 60 10000 3.1 100 14:59 09.05.2020
3493 Rain 23 1011 60 10000 2.6 90 14:40 09.05.2020
3494 Clouds 22 1011 64 10000 3.1 120 14:20 09.05.2020
3495 Clouds 21 1011 64 10000 3.1 120 13:58 09.05.2020
3496 Clouds 21 1011 60 10000 4.6 130 13:40 09.05.2020
3497 Clouds 21 1011 60 10000 4.6 130 13:20 09.05.2020
3498 Clouds 21 1011 60 10000 2.1 0 12:42 09.05.2020
3499 Clouds 20 1011 60 10000 2.1 0 12:22 09.05.2020
3500 Clouds 19 1012 77 10000 3.6 150 11:58 09.05.2020
3501 Clouds 20 1011 68 10000 1.5 0 11:40 09.05.2020
3502 Clouds 19 1011 68 10000 0.5 0 11:18 09.05.2020
3503 Clouds 20 1011 68 10000 1.5 0 11:18 09.05.2020
3504 Clouds 18 1012 72 10000 0.54 131 10:43 09.05.2020
3505 Clouds 18 1012 72 10000 0.54 131 10:43 09.05.2020
3506 Clouds 18 1012 72 10000 0.6 145 10:25 09.05.2020
3507 Rain 17 1012 77 10000 0.6 145 09:58 09.05.2020
3508 Rain 17 1012 72 10000 1 330 09:38 09.05.2020
3509 Clouds 17 1012 72 10000 1 330 09:19 09.05.2020
3510 Clouds 16 1012 72 10000 0.5 10 08:51 09.05.2020
3511 Clouds 16 1012 72 10000 0.5 0 08:32 09.05.2020
3512 Rain 16 1012 67 10000 1.5 350 07:50 09.05.2020
3513 Clouds 16 1012 67 10000 1.5 0 07:32 09.05.2020
3514 Clouds 16 1012 72 10000 1.5 360 06:54 09.05.2020
3515 Clouds 16 1012 72 10000 1 350 06:25 09.05.2020
3516 Clouds 16 1012 67 10000 1 30 05:46 09.05.2020
3517 Rain 16 1012 63 10000 1 10 04:20 09.05.2020
3518 Rain 17 1012 63 10000 1.5 360 03:38 09.05.2020
3519 Clouds 17 1013 59 10000 1.5 10 02:42 09.05.2020
3520 Rain 17 1013 59 10000 1 360 01:54 09.05.2020
3521 Rain 17 1013 59 10000 1 360 01:54 09.05.2020
3522 Rain 18 1013 59 10000 0.5 0 01:25 09.05.2020
3523 Rain 18 1013 59 10000 1 330 00:59 09.05.2020
3524 Clouds 18 1013 55 10000 1.5 360 00:38 09.05.2020
3525 Clouds 18 1013 52 10000 1 0 23:57 08.05.2020
3526 Clouds 18 1013 52 10000 2.1 30 23:39 08.05.2020
3527 Clouds 18 1013 52 10000 2.1 30 23:19 08.05.2020
3528 Clouds 19 1014 52 10000 1 0 22:54 08.05.2020
3529 Clouds 20 1014 49 10000 2.6 30 22:36 08.05.2020
3530 Clouds 20 1013 49 10000 3.1 30 22:18 08.05.2020
3531 Clouds 21 1013 46 10000 3.1 20 21:42 08.05.2020
3532 Clouds 21 1013 46 10000 3.1 20 21:19 08.05.2020
3533 Clouds 21 1013 46 10000 3.1 20 21:19 08.05.2020
3534 Clouds 21 1014 46 10000 3.1 20 20:59 08.05.2020
3535 Clouds 22 1013 43 10000 3.6 20 20:41 08.05.2020
3536 Clouds 22 1013 43 10000 3.6 20 20:23 08.05.2020
3537 Clouds 22 1013 43 10000 3.6 30 19:55 08.05.2020
3538 Clouds 23 1014 43 10000 4.1 30 19:37 08.05.2020
3539 Clouds 23 1014 43 10000 4.1 30 19:19 08.05.2020
3540 Clouds 23 1014 40 10000 2.6 360 18:43 08.05.2020
3541 Clouds 24 1014 40 10000 2.6 360 18:25 08.05.2020
3542 Clouds 23 1014 38 10000 2.1 10 17:43 08.05.2020
3543 Clouds 23 1014 38 10000 2.1 10 17:20 08.05.2020
3544 Clouds 23 1014 35 10000 2.1 360 16:55 08.05.2020
3545 Clouds 23 1015 36 10000 2.1 60 16:37 08.05.2020
3546 Clouds 24 1015 36 10000 2.1 60 16:18 08.05.2020
3547 Clouds 24 1015 33 10000 2.6 60 15:42 08.05.2020
3548 Clouds 24 1015 33 10000 2.6 60 15:20 08.05.2020
3549 Clouds 24 1016 33 10000 2.6 0 14:56 08.05.2020
3550 Clouds 24 1016 35 10000 3.6 50 14:38 08.05.2020
3551 Clouds 23 1016 33 10000 3.6 60 14:18 08.05.2020
3552 Clouds 23 1016 33 10000 3.6 60 13:55 08.05.2020
3553 Clouds 22 1016 33 10000 4.6 40 13:36 08.05.2020
3554 Clouds 22 1016 37 10000 4.6 60 13:18 08.05.2020
3555 Clouds 21 1017 40 10000 2.6 60 12:42 08.05.2020
3556 Clouds 21 1017 40 10000 2.6 60 12:23 08.05.2020
3557 Clouds 19 1017 48 10000 1.5 30 11:44 08.05.2020
3558 Clouds 19 1017 48 10000 1.5 30 11:23 08.05.2020
3559 Clouds 19 1017 48 10000 1.5 30 11:23 08.05.2020
3560 Clouds 18 1018 48 10000 1.5 0 10:59 08.05.2020
3561 Clouds 17 1017 55 10000 2.6 70 10:41 08.05.2020
3562 Clouds 17 1017 55 10000 2.6 70 10:19 08.05.2020
3563 Clouds 15 1018 58 10000 1.5 30 09:57 08.05.2020
3564 Clouds 15 1018 62 10000 2.1 30 09:38 08.05.2020
3565 Clouds 14 1018 62 10000 2.1 30 09:18 08.05.2020
3566 Clouds 13 1018 71 10000 1.5 0 09:18 08.05.2020
3567 Clouds 14 1017 58 10000 3.6 30 08:45 08.05.2020
3568 Clouds 13 1018 62 10000 2.1 20 08:22 08.05.2020
3569 Clouds 11 1018 76 10000 1 0 07:43 08.05.2020
3570 Clouds 10 1018 76 10000 1 0 07:25 08.05.2020
3571 Clouds 10 1018 81 10000 1 10 06:51 08.05.2020
3572 Clouds 10 1018 81 10000 0.5 20 06:24 08.05.2020
3573 Clouds 10 1018 76 10000 1 30 05:52 08.05.2020
3574 Clouds 11 1019 76 10000 1.5 10 04:44 08.05.2020
3575 Clouds 12 1019 71 10000 1.5 10 02:38 08.05.2020
3576 Clouds 13 1019 66 10000 2.1 350 01:56 08.05.2020
3577 Clouds 14 1019 58 10000 2.1 360 01:29 08.05.2020
3578 Clouds 13 1020 58 10000 1.5 360 00:58 08.05.2020
3579 Clouds 14 1020 58 10000 1.5 350 00:39 08.05.2020
3580 Clouds 14 1020 58 10000 1.5 350 00:21 08.05.2020
3581 Clouds 14 1020 51 10000 1.5 10 23:43 07.05.2020
3582 Clouds 14 1020 51 10000 1.5 10 23:23 07.05.2020
3583 Clouds 14 1020 51 10000 1.5 10 23:23 07.05.2020
3584 Clouds 15 1020 51 10000 1.5 30 22:57 07.05.2020
3585 Clouds 15 1020 51 10000 1.5 30 22:57 07.05.2020
3586 Clouds 17 1020 45 10000 2.6 30 22:39 07.05.2020
3587 Clouds 17 1020 45 10000 2.6 30 22:19 07.05.2020
3588 Clouds 18 1019 42 10000 3.1 20 21:56 07.05.2020
3589 Clouds 18 1019 42 10000 3.1 40 21:37 07.05.2020
3590 Clouds 18 1019 42 10000 3.1 40 21:19 07.05.2020
3591 Clouds 20 1019 32 10000 3.1 20 20:43 07.05.2020
3592 Clouds 20 1019 32 10000 3.1 20 20:24 07.05.2020
3593 Clouds 20 1020 40 10000 2.1 40 19:59 07.05.2020
3594 Clouds 21 1020 30 10000 2.6 30 19:40 07.05.2020
3595 Clouds 21 1020 30 10000 2.6 30 19:21 07.05.2020
3596 Clouds 22 1020 28 10000 3.1 50 18:46 07.05.2020
3597 Clouds 22 1020 28 10000 3.1 50 18:46 07.05.2020
3598 Clouds 22 1020 28 10000 3.1 50 18:28 07.05.2020
3599 Clouds 22 1020 26 10000 2.6 40 17:57 07.05.2020
3600 Clouds 22 1020 28 10000 3.1 40 17:37 07.05.2020
3601 Clouds 22 1021 28 10000 2.6 40 17:19 07.05.2020
3602 Clouds 22 1021 28 10000 2.6 110 16:41 07.05.2020
3603 Clouds 22 1021 28 10000 2.6 110 16:19 07.05.2020
3604 Clouds 21 1021 30 10000 3.1 50 15:57 07.05.2020
3605 Clouds 22 1022 28 10000 3.6 70 15:37 07.05.2020
3606 Clouds 21 1022 28 10000 3.6 70 15:18 07.05.2020
3607 Clouds 21 1022 28 10000 2.1 90 15:18 07.05.2020
3608 Clouds 21 1022 30 10000 3.6 60 14:46 07.05.2020
3609 Clouds 21 1022 30 10000 3.6 60 14:23 07.05.2020
3610 Clouds 21 1022 30 10000 3.6 90 13:58 07.05.2020
3611 Clouds 21 1023 30 10000 3.1 60 13:40 07.05.2020
3612 Clouds 20 1023 30 10000 3.1 60 13:40 07.05.2020
3613 Clouds 20 1023 32 10000 4.1 60 13:21 07.05.2020
3614 Clouds 19 1023 32 10000 3.6 50 12:41 07.05.2020
3615 Clouds 19 1023 32 10000 3.6 50 12:20 07.05.2020
3616 Clouds 18 1023 34 10000 2.6 60 11:40 07.05.2020
3617 Clouds 18 1023 34 10000 2.6 60 11:21 07.05.2020
3618 Clouds 17 1023 42 10000 1.5 0 10:57 07.05.2020
3619 Clouds 16 1023 44 10000 0.5 0 10:38 07.05.2020
3620 Clouds 15 1023 51 10000 1 0 10:19 07.05.2020
3621 Clouds 14 1023 58 10000 2.1 40 09:40 07.05.2020
3622 Clear 13 1024 62 10000 1 0 09:20 07.05.2020
3623 Clear 13 1024 62 10000 1 0 08:56 07.05.2020
3624 Clear 11 1024 66 10000 1.5 10 08:37 07.05.2020
3625 Clear 11 1024 66 10000 1.5 10 08:18 07.05.2020
3626 Clear 8 1024 81 10000 1.5 10 07:41 07.05.2020
3627 Clear 8 1024 81 10000 1.5 10 07:41 07.05.2020
3628 Clouds 8 1024 81 10000 1.5 10 07:22 07.05.2020
3629 Clouds 8 1023 81 10000 1.5 10 06:45 07.05.2020
3630 Clear 8 1023 81 10000 2.1 20 06:23 07.05.2020
3631 Clear 9 1024 75 10000 1 0 05:28 07.05.2020
3632 Clear 9 1024 75 10000 1 50 03:50 07.05.2020
3633 Clear 10 1024 70 10000 1.5 0 03:23 07.05.2020
3634 Clear 11 1024 70 10000 2.1 20 02:41 07.05.2020
3635 Clear 12 1024 62 10000 1.5 360 01:41 07.05.2020
3636 Clear 12 1024 62 10000 1.5 360 01:23 07.05.2020
3637 Clear 12 1024 62 10000 2.1 360 00:45 07.05.2020
3638 Clear 13 1024 62 10000 2.1 360 00:26 07.05.2020
3639 Clear 14 1024 54 10000 1.5 10 23:46 06.05.2020
3640 Clear 14 1024 54 10000 1.5 10 23:25 06.05.2020
3641 Clear 14 1024 54 10000 1.5 10 23:25 06.05.2020
3642 Clear 14 1024 54 10000 2.1 20 22:58 06.05.2020
3643 Clear 15 1023 50 10000 2.6 40 22:39 06.05.2020
3644 Clear 16 1023 47 10000 2.6 50 22:19 06.05.2020
3645 Clear 17 1023 36 10000 3.6 80 21:56 06.05.2020
3646 Clear 17 1023 41 10000 3.1 50 21:38 06.05.2020
3647 Clear 17 1023 41 10000 3.1 50 21:19 06.05.2020
3648 Clear 19 1023 32 10000 3.6 50 20:42 06.05.2020
3649 Clear 19 1023 32 10000 3.6 50 20:24 06.05.2020
3650 Clear 20 1022 28 10000 2.6 20 19:58 06.05.2020
3651 Clear 20 1022 28 10000 2.6 20 19:58 06.05.2020
3652 Clear 20 1022 30 10000 4.1 40 19:39 06.05.2020
3653 Clear 20 1022 32 10000 3.1 50 19:20 06.05.2020
3654 Clear 20 1022 30 10000 4.1 40 19:20 06.05.2020
3655 Clear 20 1022 32 10000 3.1 50 18:59 06.05.2020
3656 Clear 21 1022 30 10000 3.6 30 18:40 06.05.2020
3657 Clear 21 1022 30 10000 3.6 30 18:40 06.05.2020
3658 Clear 21 1022 30 10000 3.6 30 18:21 06.05.2020
3659 Clear 21 1022 32 10000 4.6 50 17:59 06.05.2020
3660 Clear 21 1022 30 10000 4.6 70 17:39 06.05.2020
3661 Clear 21 1022 30 10000 3.6 50 17:21 06.05.2020
3662 Clear 21 1022 30 10000 3.6 50 16:58 06.05.2020
3663 Clear 21 1022 32 10000 3.6 40 16:40 06.05.2020
3664 Clear 21 1022 32 10000 3.6 40 16:21 06.05.2020
3665 Clear 21 1022 28 10000 4.1 40 15:58 06.05.2020
3666 Clear 21 1022 30 10000 3.6 20 15:40 06.05.2020
3667 Clear 20 1022 28 10000 3.6 70 15:21 06.05.2020
3668 Clear 20 1022 28 10000 3.6 70 14:56 06.05.2020
3669 Clear 20 1022 34 10000 5.1 60 14:37 06.05.2020
3670 Clear 20 1022 34 10000 5.1 60 14:18 06.05.2020
3671 Clear 19 1023 42 10000 4.1 70 13:43 06.05.2020
3672 Clear 19 1023 42 10000 4.1 70 13:24 06.05.2020
3673 Clear 18 1022 42 10000 4.1 60 12:58 06.05.2020
3674 Clear 18 1022 39 10000 4.1 80 12:39 06.05.2020
3675 Clear 18 1022 39 10000 4.1 80 12:21 06.05.2020
3676 Clear 17 1022 51 10000 2.1 40 11:41 06.05.2020
3677 Clear 16 1022 51 10000 2.1 40 11:21 06.05.2020
3678 Clear 16 1022 51 10000 3.1 60 10:58 06.05.2020
3679 Clear 15 1022 54 10000 2.6 60 10:38 06.05.2020
3680 Clear 15 1022 54 10000 2.6 60 10:19 06.05.2020
3681 Clear 14 1022 54 10000 3.1 70 09:45 06.05.2020
3682 Clouds 14 1022 54 10000 3.1 50 09:24 06.05.2020
3683 Clouds 13 1021 62 10000 2.6 30 08:50 06.05.2020
3684 Clouds 12 1021 62 10000 2.6 30 08:24 06.05.2020
3685 Clouds 12 1021 62 10000 2.6 20 07:59 06.05.2020
3686 Clouds 12 1020 66 10000 2.1 20 07:40 06.05.2020
3687 Clouds 12 1020 66 10000 2.6 10 07:21 06.05.2020
3688 Clouds 12 1020 66 10000 2.6 10 06:53 06.05.2020
3689 Clouds 12 1020 62 10000 2.6 10 06:22 06.05.2020
3690 Clouds 12 1020 62 10000 2.1 360 05:55 06.05.2020
3691 Clouds 12 1020 62 10000 1.5 360 05:37 06.05.2020
3692 Clouds 12 1020 66 10000 2.1 360 04:40 06.05.2020
3693 Clouds 13 1020 66 10000 1.5 360 03:44 06.05.2020
3694 Clouds 13 1020 66 10000 2.1 10 03:22 06.05.2020
3695 Clouds 13 1020 71 10000 2.6 10 02:30 06.05.2020
3696 Clouds 13 1020 76 10000 1.5 350 01:56 06.05.2020
3697 Clouds 13 1020 76 10000 1.5 350 01:34 06.05.2020
3698 Clouds 13 1020 76 10000 1 0 00:55 06.05.2020
3699 Clouds 13 1020 71 10000 1.5 0 00:31 06.05.2020
3700 Clouds 13 1019 71 10000 1.5 0 23:57 05.05.2020
3701 Clouds 13 1019 71 10000 1 290 23:39 05.05.2020
3702 Clouds 13 1019 71 10000 1 290 23:19 05.05.2020
3703 Clouds 13 1018 76 10000 2.1 60 22:42 05.05.2020
3704 Clouds 13 1018 76 10000 2.1 60 22:20 05.05.2020
3705 Clouds 14 1018 67 10000 1.5 360 21:59 05.05.2020
3706 Clouds 14 1018 67 10000 3.1 30 21:41 05.05.2020
3707 Clouds 14 1018 67 10000 3.1 30 21:21 05.05.2020
3708 Clouds 14 1018 67 10000 3.6 40 20:59 05.05.2020
3709 Clouds 15 1018 67 10000 2.6 30 20:39 05.05.2020
3710 Clouds 15 1018 67 10000 2.6 30 20:19 05.05.2020
3711 Clouds 15 1018 62 10000 2.1 20 19:58 05.05.2020
3712 Clouds 15 1018 67 10000 2.1 10 19:37 05.05.2020
3713 Clouds 15 1018 67 10000 2.1 10 19:19 05.05.2020
3714 Clouds 15 1018 67 10000 2.1 350 18:56 05.05.2020
3715 Clouds 15 1017 67 10000 2.6 350 18:38 05.05.2020
3716 Clouds 14 1017 67 10000 2.1 360 18:19 05.05.2020
3717 Clouds 14 1017 62 10000 3.1 30 17:44 05.05.2020
3718 Clouds 14 1017 62 10000 3.1 30 17:25 05.05.2020
3719 Clouds 14 1017 67 10000 4.1 50 16:58 05.05.2020
3720 Clouds 14 1017 71 10000 3.6 40 16:37 05.05.2020
3721 Rain 13 1017 71 10000 4.6 30 16:18 05.05.2020
3722 Rain 13 1017 71 10000 4.6 30 15:56 05.05.2020
3723 Rain 13 1016 76 10000 5.7 40 15:38 05.05.2020
3724 Rain 12 1016 76 10000 6.7 50 15:19 05.05.2020
3725 Rain 12 1016 76 10000 6.7 50 14:54 05.05.2020
3726 Rain 12 1016 81 9000 7.2 50 14:36 05.05.2020
3727 Rain 12 1016 81 9000 7.2 50 14:18 05.05.2020
3728 Mist 12 1016 81 4600 5.1 40 13:54 05.05.2020
3729 Rain 12 1017 71 10000 5.1 30 13:36 05.05.2020
3730 Rain 12 1016 66 10000 4.1 60 13:18 05.05.2020
3731 Rain 12 1015 62 10000 6.2 50 12:41 05.05.2020
3732 Rain 12 1015 62 10000 6.2 50 12:22 05.05.2020
3733 Rain 12 1015 62 10000 6.7 60 11:59 05.05.2020
3734 Rain 12 1015 66 10000 5.1 60 11:40 05.05.2020
3735 Rain 12 1015 66 10000 5.1 60 11:19 05.05.2020
3736 Rain 12 1014 71 10000 6.7 60 10:55 05.05.2020
3737 Rain 11 1015 71 10000 5.1 60 10:36 05.05.2020
3738 Rain 11 1014 71 10000 6.2 60 10:18 05.05.2020
3739 Rain 11 1015 76 10000 5.7 50 09:44 05.05.2020
3740 Clouds 11 1015 76 10000 5.7 50 09:26 05.05.2020
3741 Rain 11 1015 71 10000 6.2 40 08:58 05.05.2020
3742 Clouds 11 1014 66 10000 8.2 50 08:39 05.05.2020
3743 Clouds 11 1015 66 10000 6.7 50 08:18 05.05.2020
3744 Clouds 11 1015 66 10000 5.7 40 07:43 05.05.2020
3745 Clouds 11 1015 66 10000 5.7 40 07:21 05.05.2020
3746 Rain 11 1015 66 10000 5.1 50 06:57 05.05.2020
3747 Clouds 11 1015 66 10000 5.1 50 06:39 05.05.2020
3748 Clouds 11 1015 66 10000 5.1 50 05:53 05.05.2020
3749 Rain 12 1014 62 10000 6.2 50 04:59 05.05.2020
3750 Clouds 13 1016 62 10000 5.7 50 02:39 05.05.2020
3751 Clouds 14 1016 71 10000 5.7 60 00:57 05.05.2020
3752 Clouds 14 1016 71 10000 7.2 70 00:37 05.05.2020
3753 Clouds 14 1017 71 10000 5.1 40 23:55 04.05.2020
3754 Clouds 15 1017 71 9000 5.7 30 23:36 04.05.2020
3755 Clouds 15 1017 76 9000 4.6 30 23:18 04.05.2020
3756 Clouds 15 1017 72 9000 5.1 30 22:42 04.05.2020
3757 Clouds 15 1017 72 9000 5.1 30 22:22 04.05.2020
3758 Clouds 16 1017 72 10000 4.1 20 21:59 04.05.2020
3759 Clouds 16 1016 67 10000 4.6 30 21:41 04.05.2020
3760 Clouds 16 1016 67 10000 4.6 30 21:41 04.05.2020
3761 Clouds 16 1016 67 10000 4.6 30 21:41 04.05.2020
3762 Clouds 16 1016 67 10000 4.6 30 21:41 04.05.2020
3763 Clouds 16 1016 67 10000 4.6 30 21:20 04.05.2020
3764 Clouds 16 1016 67 10000 4.6 30 21:20 04.05.2020
3765 Clouds 17 1016 63 10000 4.6 30 20:41 04.05.2020
3766 Clouds 17 1016 63 10000 4.6 30 20:21 04.05.2020
3767 Clouds 18 1016 59 10000 5.7 30 19:58 04.05.2020
3768 Clouds 18 1016 55 10000 4.6 20 19:40 04.05.2020
3769 Clouds 18 1016 59 10000 4.1 30 19:18 04.05.2020
3770 Clouds 18 1016 59 10000 4.6 30 18:39 04.05.2020
3771 Clouds 19 1016 59 10000 4.6 30 18:21 04.05.2020
3772 Clouds 19 1016 59 10000 4.1 20 17:57 04.05.2020
3773 Clouds 19 1016 55 10000 3.6 20 17:39 04.05.2020
3774 Clouds 19 1016 55 10000 3.6 20 17:21 04.05.2020
3775 Clouds 19 1016 55 10000 3.1 20 16:59 04.05.2020
3776 Clouds 19 1017 59 10000 3.6 20 16:40 04.05.2020
3777 Clouds 19 1017 59 10000 3.6 20 16:19 04.05.2020
3778 Clouds 19 1017 63 10000 2.1 50 15:42 04.05.2020
3779 Clouds 18 1017 63 10000 2.1 50 15:22 04.05.2020
3780 Clouds 19 1017 59 10000 2.1 360 14:54 04.05.2020
3781 Clouds 19 1017 59 10000 2.1 360 14:54 04.05.2020
3782 Clouds 19 1017 59 10000 2.6 340 14:29 04.05.2020
3783 Clouds 19 1017 59 10000 2.6 340 14:29 04.05.2020
3784 Clouds 19 1017 59 10000 2.6 340 14:29 04.05.2020
3785 Clouds 19 1017 59 10000 2.6 340 14:29 04.05.2020
3786 Clouds 18 1017 59 10000 2.6 340 14:29 04.05.2020
3787 Clouds 18 1017 63 10000 3.1 360 13:39 04.05.2020
3788 Clouds 18 1017 63 10000 3.1 360 13:38 04.05.2020
3789 Clouds 18 1017 63 10000 3.1 360 13:36 04.05.2020
3790 Clouds 18 1017 63 10000 3.1 360 13:36 04.05.2020
3791 Clouds 18 1017 63 10000 3.1 360 13:36 04.05.2020
3792 Clouds 18 1018 67 10000 3.1 40 12:44 04.05.2020
3793 Clouds 18 1018 67 10000 3.1 40 12:44 04.05.2020
3794 Clouds 18 1018 67 10000 3.1 40 12:44 04.05.2020
3795 Clouds 18 1018 67 10000 3.1 40 12:44 04.05.2020
3796 Clouds 18 1018 67 10000 3.1 40 12:44 04.05.2020
3797 Clouds 17 1018 67 10000 2.6 360 11:29 04.05.2020
3798 Clouds 17 1018 67 10000 2.6 360 11:29 04.05.2020
3799 Clouds 17 1018 67 10000 2.6 360 11:29 04.05.2020
3800 Clouds 17 1018 67 10000 2.6 360 11:29 04.05.2020
3801 Clouds 13 1018 76 10000 1.5 0 09:31 04.05.2020
3802 Clouds 12 1017 93 10000 1.5 0 07:58 04.05.2020
3803 Clouds 12 1017 93 10000 2.1 330 07:38 04.05.2020
3804 Clouds 12 1016 93 10000 1 0 06:26 04.05.2020
3805 Clouds 12 1016 93 10000 1 0 06:26 04.05.2020
3806 Clouds 12 1016 93 10000 1 0 06:25 04.05.2020
3807 Clouds 11 1016 93 10000 1.11 320 04:53 04.05.2020
3808 Clouds 12 1017 93 10000 1.5 330 03:18 04.05.2020
3809 Clouds 12 1017 87 10000 1.24 298 02:29 04.05.2020
3810 Clouds 13 1017 82 10000 1.5 340 00:36 04.05.2020
3811 Clouds 13 1017 82 10000 1.5 340 00:36 04.05.2020
3812 Clouds 15 1017 72 10000 2.1 320 23:45 03.05.2020
3813 Clouds 15 1017 72 10000 2.1 320 23:24 03.05.2020
3814 Clouds 16 1016 77 10000 1 340 22:45 03.05.2020
3815 Clouds 16 1016 77 10000 1 340 22:25 03.05.2020
3816 Clouds 16 1016 72 10000 1 0 21:58 03.05.2020
3817 Clouds 17 1016 72 10000 1.5 40 21:40 03.05.2020
3818 Clouds 17 1016 72 10000 1.5 40 21:20 03.05.2020
3819 Clear 18 1016 72 10000 3.6 10 20:46 03.05.2020
3820 Clear 18 1016 72 10000 3.6 10 20:46 03.05.2020
3821 Clear 18 1016 72 10000 3.6 10 20:46 03.05.2020
3822 Clouds 18 1016 72 10000 3.6 10 20:22 03.05.2020
3823 Clouds 18 1015 68 10000 3.1 30 19:50 03.05.2020
3824 Clouds 18 1015 68 10000 3.1 30 19:50 03.05.2020
3825 Clouds 19 1015 63 10000 2.1 90 19:50 03.05.2020
3826 Clouds 19 1015 63 10000 2.1 90 19:50 03.05.2020
3827 Clouds 19 1015 63 10000 2.1 90 19:32 03.05.2020
3828 Clouds 19 1015 63 10000 1.5 0 19:00 03.05.2020
3829 Clouds 19 1015 63 10000 1.5 0 19:00 03.05.2020
3830 Clouds 19 1015 63 10000 1.5 0 18:38 03.05.2020
3831 Clouds 19 1015 63 10000 1.5 0 18:19 03.05.2020
3832 Clouds 19 1015 63 10000 1.5 0 18:19 03.05.2020
3833 Clouds 19 1016 68 10000 1.5 0 17:42 03.05.2020
3834 Clouds 19 1016 68 10000 1.5 0 17:22 03.05.2020
3835 Clouds 19 1016 68 10000 1.5 0 17:22 03.05.2020
3836 Clouds 19 1016 68 10000 2.6 160 16:54 03.05.2020
3837 Clouds 18 1016 72 10000 3.1 170 16:36 03.05.2020
3838 Clouds 17 1017 87 10000 3.1 170 16:18 03.05.2020
3839 Clouds 17 1017 87 10000 3.1 170 15:55 03.05.2020
3840 Clouds 15 1017 77 10000 3.1 160 15:36 03.05.2020
3841 Clouds 15 1017 77 10000 3.1 160 15:36 03.05.2020
3842 Clouds 15 1017 77 10000 3.1 160 15:36 03.05.2020
3843 Clouds 15 1017 77 10000 3.1 160 15:18 03.05.2020
3844 Clouds 15 1017 72 10000 5.1 150 14:41 03.05.2020
3845 Clouds 14 1017 72 10000 5.1 150 14:22 03.05.2020
3846 Clouds 14 1017 71 10000 4.1 130 13:57 03.05.2020
3847 Clouds 14 1017 82 10000 3.6 120 13:33 03.05.2020
3848 Clouds 14 1017 82 10000 3.6 120 13:33 03.05.2020
3849 Clouds 13 1017 82 10000 3.6 120 13:33 03.05.2020
3850 Clouds 14 1017 71 10000 5.1 180 12:47 03.05.2020
3851 Clouds 14 1017 71 10000 5.1 180 12:24 03.05.2020
3852 Clouds 14 1017 71 10000 3.1 160 11:57 03.05.2020
3853 Clouds 14 1017 71 10000 3.1 180 11:39 03.05.2020
3854 Clouds 14 1017 71 10000 3.1 180 11:20 03.05.2020
3855 Rain 14 1017 71 10000 3.1 180 10:52 03.05.2020
3856 Rain 14 1017 71 10000 3.1 180 10:52 03.05.2020
3857 Rain 14 1017 71 10000 3.1 180 10:52 03.05.2020
3858 Rain 14 1017 71 10000 3.1 180 10:52 03.05.2020
3859 Rain 14 1017 71 10000 3.1 180 10:52 03.05.2020
3860 Clouds 13 1017 76 10000 2.6 170 10:24 03.05.2020
3861 Clouds 13 1017 76 10000 2.6 170 10:24 03.05.2020
3862 Clouds 13 1017 76 10000 2.6 170 10:24 03.05.2020
3863 Clouds 13 1017 76 10000 2.6 170 10:24 03.05.2020
3864 Clouds 13 1017 76 10000 2.6 170 10:24 03.05.2020
3865 Rain 12 1017 76 10000 2.1 150 09:39 03.05.2020
3866 Rain 11 1017 81 10000 1.5 140 08:57 03.05.2020
3867 Clouds 11 1016 81 10000 1.5 0 08:32 03.05.2020
3868 Clouds 11 1016 81 10000 1.5 0 08:31 03.05.2020
3869 Clouds 11 1016 81 10000 1.5 0 08:31 03.05.2020
3870 Clouds 11 1016 81 10000 1.5 0 08:31 03.05.2020
3871 Clouds 10 1016 81 10000 1.5 40 07:40 03.05.2020
3872 Clouds 10 1016 81 10000 1.5 40 06:35 03.05.2020
3873 Clouds 10 1016 81 10000 2.1 30 05:49 03.05.2020
3874 Clouds 10 1016 75 10000 2.1 40 05:31 03.05.2020
3875 Clouds 10 1016 75 10000 2.1 20 04:27 03.05.2020
3876 Clouds 10 1016 70 10000 1.5 40 03:31 03.05.2020
3877 Clouds 10 1016 70 10000 1.5 60 02:31 03.05.2020
3878 Clouds 11 1016 66 10000 1.5 10 01:50 03.05.2020
3879 Clouds 11 1016 66 10000 1.5 10 01:27 03.05.2020
3880 Clouds 11 1016 66 10000 1.5 10 01:01 03.05.2020
3881 Clouds 11 1016 66 10000 1.5 10 01:01 03.05.2020
3882 Clouds 11 1016 66 10000 1.5 10 01:01 03.05.2020
3883 Clouds 12 1016 62 10000 0.5 0 00:38 03.05.2020
3884 Clouds 12 1016 66 10000 1.5 10 00:20 03.05.2020
3885 Clouds 12 1016 66 10000 1.5 10 23:45 02.05.2020
3886 Clouds 12 1016 62 10000 1.5 0 23:27 02.05.2020
3887 Clouds 12 1016 58 10000 1.5 340 22:56 02.05.2020
3888 Clouds 12 1015 54 10000 1.5 330 22:38 02.05.2020
3889 Clouds 13 1015 54 10000 1.5 330 22:19 02.05.2020
3890 Clouds 14 1015 50 10000 1.5 320 21:41 02.05.2020
3891 Clouds 14 1014 44 10000 2.1 320 21:20 02.05.2020
3892 Clouds 15 1014 44 10000 2.1 320 20:58 02.05.2020
3893 Clouds 15 1014 44 10000 2.1 320 20:58 02.05.2020
3894 Clouds 16 1014 41 10000 3.1 320 20:38 02.05.2020
3895 Clouds 16 1014 41 10000 3.1 320 20:20 02.05.2020
3896 Clouds 16 1014 41 10000 3.6 320 19:58 02.05.2020
3897 Clouds 17 1014 41 10000 4.1 310 19:39 02.05.2020
3898 Clouds 17 1014 41 10000 4.1 310 19:20 02.05.2020
3899 Clouds 17 1013 33 10000 2.6 300 18:56 02.05.2020
3900 Clouds 17 1013 39 10000 3.1 320 18:38 02.05.2020
3901 Clouds 18 1013 39 10000 3.1 320 18:19 02.05.2020
3902 Clouds 18 1013 36 10000 3.6 320 18:19 02.05.2020
3903 Clouds 17 1013 36 10000 3.6 320 17:56 02.05.2020
3904 Clouds 17 1013 36 10000 3.1 320 17:38 02.05.2020
3905 Clouds 17 1013 36 10000 3.1 320 17:19 02.05.2020
3906 Clouds 17 1013 38 10000 3.6 280 16:44 02.05.2020
3907 Clouds 17 1013 38 10000 3.6 280 16:26 02.05.2020
3908 Clouds 17 1013 41 10000 3.6 310 15:56 02.05.2020
3909 Clouds 17 1013 44 10000 4.1 290 15:38 02.05.2020
3910 Clouds 17 1013 44 10000 4.1 290 15:19 02.05.2020
3911 Clouds 16 1012 44 10000 4.6 310 15:19 02.05.2020
3912 Clouds 16 1012 54 10000 4.6 320 14:42 02.05.2020
3913 Clouds 16 1012 54 10000 4.6 320 14:24 02.05.2020
3914 Clouds 15 1012 58 10000 4.6 330 13:58 02.05.2020
3915 Clouds 15 1012 51 10000 5.1 280 13:39 02.05.2020
3916 Clouds 15 1012 51 10000 5.1 280 13:19 02.05.2020
3917 Clouds 15 1012 62 10000 4.6 260 12:41 02.05.2020
3918 Clouds 15 1012 62 10000 4.6 260 12:21 02.05.2020
3919 Clouds 13 1012 62 10000 5.7 250 11:57 02.05.2020
3920 Clouds 13 1012 66 10000 5.1 250 11:39 02.05.2020
3921 Clouds 13 1012 66 10000 5.1 250 11:20 02.05.2020
3922 Clouds 12 1012 66 10000 4.6 240 10:40 02.05.2020
3923 Clouds 12 1012 66 10000 4.6 240 10:40 02.05.2020
3924 Clouds 12 1012 66 10000 4.6 240 10:22 02.05.2020
3925 Clouds 11 1012 76 10000 3.6 240 09:59 02.05.2020
3926 Clouds 11 1012 76 10000 3.1 250 09:41 02.05.2020
3927 Clouds 10 1012 76 10000 3.1 250 09:23 02.05.2020
3928 Clouds 10 1011 76 10000 1.5 0 08:57 02.05.2020
3929 Clouds 9 1011 81 10000 1.5 230 08:38 02.05.2020
3930 Clear 9 1011 81 10000 1.5 230 08:19 02.05.2020
3931 Clear 8 1011 81 10000 1.5 240 07:45 02.05.2020
3932 Clear 8 1011 81 10000 1.5 240 07:27 02.05.2020
3933 Clear 7 1011 81 10000 2.6 240 06:43 02.05.2020
3934 Clear 7 1011 81 10000 2.6 250 05:28 02.05.2020
3935 Clear 7 1010 81 10000 3.1 240 04:31 02.05.2020
3936 Clear 7 1010 75 10000 3.1 250 03:56 02.05.2020
3937 Clear 8 1009 61 10000 2.6 250 02:43 02.05.2020
3938 Clear 9 1009 57 10000 3.6 250 01:59 02.05.2020
3939 Clear 9 1009 57 10000 3.6 260 01:28 02.05.2020
3940 Clear 10 1009 62 10000 4.1 260 00:44 02.05.2020
3941 Clear 11 1009 62 10000 4.1 260 00:24 02.05.2020
3942 Clear 10 1008 71 10000 2.1 260 23:57 01.05.2020
3943 Clear 11 1008 66 10000 2.1 270 23:37 01.05.2020
3944 Clear 11 1008 66 10000 2.1 270 23:19 01.05.2020
3945 Clear 11 1008 62 10000 2.1 270 22:54 01.05.2020
3946 Clear 12 1007 66 10000 3.6 290 22:36 01.05.2020
3947 Clear 13 1007 66 10000 3.6 290 22:18 01.05.2020
3948 Clouds 13 1006 58 10000 4.6 290 21:41 01.05.2020
3949 Clouds 14 1005 58 10000 5.7 300 21:21 01.05.2020
3950 Clouds 14 1005 58 10000 5.7 300 20:58 01.05.2020
3951 Clear 15 1005 54 10000 5.1 290 20:40 01.05.2020
3952 Clouds 15 1005 54 10000 5.1 290 20:20 01.05.2020
3953 -273 0 0 0 0 0 19:59 01.05.2020
3954 Clouds 16 1004 48 10000 5.7 280 19:41 01.05.2020
3955 Clouds 16 1004 48 10000 5.7 280 19:21 01.05.2020
3956 Clouds 17 1003 42 10000 8.2 260 18:56 01.05.2020
3957 Clouds 17 1003 42 10000 7.2 270 18:38 01.05.2020
3958 Clouds 17 1003 42 10000 7.2 270 18:19 01.05.2020
3959 Clouds 17 1003 42 10000 7.2 270 18:19 01.05.2020
3960 Clouds 17 1003 42 10000 7.2 270 18:19 01.05.2020
3961 Clouds 17 1003 51 10000 5.1 300 17:41 01.05.2020
3962 Rain 17 1003 51 10000 5.1 300 17:23 01.05.2020
3963 Rain 17 1003 51 10000 5.1 300 17:23 01.05.2020
3964 Rain 17 1003 51 10000 5.1 270 16:58 01.05.2020
3965 Rain 17 1003 51 10000 5.7 280 16:40 01.05.2020
3966 Rain 16 1003 51 10000 5.7 280 16:21 01.05.2020
3967 Rain 16 1002 48 10000 7.2 250 15:58 01.05.2020
3968 Rain 16 1002 59 10000 5.7 220 15:40 01.05.2020
3969 Rain 15 1002 59 10000 5.7 220 15:20 01.05.2020
3970 Rain 15 1003 58 10000 5.1 220 14:44 01.05.2020
3971 Rain 15 1003 58 10000 5.1 220 14:25 01.05.2020
3972 Clouds 14 1003 67 10000 4.1 230 13:57 01.05.2020
3973 Clouds 14 1003 67 10000 4.1 250 13:39 01.05.2020
3974 Rain 13 1003 71 10000 5.7 230 13:21 01.05.2020
3975 Rain 13 1003 71 10000 5.7 230 12:56 01.05.2020
3976 Clouds 12 1003 76 10000 5.7 220 12:37 01.05.2020
3977 Clouds 12 1003 76 10000 5.7 210 12:19 01.05.2020
3978 Rain 11 1003 81 10000 5.7 200 11:43 01.05.2020
3979 Rain 11 1003 81 10000 5.7 200 11:25 01.05.2020
3980 Rain 11 1003 81 10000 4.6 220 10:59 01.05.2020
3981 Clouds 11 1004 76 10000 6.7 230 10:40 01.05.2020
3982 Clouds 11 1004 76 10000 6.7 230 10:20 01.05.2020
3983 Clouds 11 1003 81 10000 5.7 210 09:44 01.05.2020
3984 Clouds 11 1003 81 10000 5.7 210 09:21 01.05.2020
3985 Clouds 10 1003 81 10000 4.6 220 08:59 01.05.2020
3986 Clouds 10 1003 81 10000 4.1 220 08:41 01.05.2020
3987 Clouds 10 1003 81 10000 4.1 220 08:22 01.05.2020
3988 Rain 9 1003 76 10000 5.1 240 07:46 01.05.2020
3989 Rain 9 1003 76 10000 5.1 240 07:23 01.05.2020
3990 Rain 9 1003 76 10000 5.1 220 06:54 01.05.2020
3991 Clouds 10 1003 81 10000 5.1 210 05:38 01.05.2020
3992 Clouds 10 1003 81 10000 4.6 220 04:49 01.05.2020
3993 Rain 10 1003 76 10000 7.2 210 03:31 01.05.2020
3994 Clouds 10 1003 81 10000 6.7 210 02:45 01.05.2020
3995 Clouds 10 1003 81 10000 6.7 210 02:25 01.05.2020
3996 Clouds 10 1003 81 10000 5.7 210 01:36 01.05.2020
3997 Clouds 10 1003 81 10000 5.7 210 01:18 01.05.2020
3998 Clouds 10 1003 76 10000 6.7 210 00:38 01.05.2020
3999 Rain 10 1003 76 10000 6.7 210 00:20 01.05.2020
4000 Rain 10 1003 76 10000 5.7 200 23:56 30.04.2020
4001 Clouds 10 1003 76 10000 4.6 190 23:38 30.04.2020
4002 Clouds 10 1003 76 10000 4.6 190 23:19 30.04.2020
4003 Clouds 10 1003 81 10000 4.1 210 22:41 30.04.2020
4004 Clouds 10 1003 81 10000 4.1 210 22:21 30.04.2020
4005 Rain 10 1002 81 10000 4.6 210 21:58 30.04.2020
4006 Rain 10 1002 76 10000 4.6 210 21:39 30.04.2020
4007 Rain 10 1002 76 10000 4.6 210 21:21 30.04.2020
4008 Rain 10 1002 76 10000 5.1 230 20:56 30.04.2020
4009 Rain 10 1001 81 10000 4.1 220 20:38 30.04.2020
4010 Rain 10 1002 81 9000 7.7 260 20:18 30.04.2020
4011 Rain 11 1001 76 10000 5.1 260 19:45 30.04.2020
4012 Thunderstorm 12 1001 76 10000 5.1 260 19:25 30.04.2020
4013 Rain 13 1000 62 10000 7.2 210 18:57 30.04.2020
4014 Rain 15 1000 62 10000 6.7 200 18:39 30.04.2020
4015 Clouds 15 1000 62 10000 6.7 200 18:20 30.04.2020
4016 Rain 14 1000 66 10000 8.7 220 17:57 30.04.2020
4017 Clouds 13 1000 67 9000 9.3 210 17:39 30.04.2020
4018 Clouds 13 1000 67 9000 9.3 210 17:20 30.04.2020
4019 Clouds 14 1000 71 9000 7.7 200 16:56 30.04.2020
4020 Rain 12 1001 87 8000 7.2 220 16:38 30.04.2020
4021 Rain 12 1001 66 10000 9.8 190 16:18 30.04.2020
4022 Rain 12 1001 58 10000 8.7 190 15:44 30.04.2020
4023 Rain 13 1001 58 10000 8.7 190 15:23 30.04.2020
4024 Clouds 14 1001 62 10000 8.7 190 14:54 30.04.2020
4025 Rain 13 1001 67 10000 7.7 200 14:36 30.04.2020
4026 Clouds 12 1001 71 10000 5.1 230 14:18 30.04.2020
4027 Clouds 12 1001 71 10000 5.1 230 13:54 30.04.2020
4028 Clouds 12 1001 62 10000 8.2 200 13:36 30.04.2020
4029 Clouds 12 1002 62 10000 7.7 190 13:18 30.04.2020
4030 Clouds 13 1002 66 10000 6.2 180 12:41 30.04.2020
4031 Clouds 13 1002 66 10000 6.2 180 12:19 30.04.2020
4032 Clouds 12 1003 66 10000 5.7 180 11:57 30.04.2020
4033 Clouds 12 1003 66 10000 6.2 190 11:36 30.04.2020
4034 Clouds 12 1003 66 10000 5.7 190 11:18 30.04.2020
4035 Clouds 11 1003 71 10000 5.1 180 10:40 30.04.2020
4036 Clouds 11 1003 71 10000 5.1 180 10:21 30.04.2020
4037 Clouds 10 1003 71 10000 7.2 200 09:57 30.04.2020
4038 Clouds 10 1003 71 10000 5.1 200 09:39 30.04.2020
4039 Clouds 10 1003 71 10000 5.1 200 09:20 30.04.2020
4040 Clouds 9 1003 76 10000 5.7 200 08:46 30.04.2020
4041 Clouds 9 1003 76 10000 5.7 200 08:26 30.04.2020
4042 Clouds 9 1003 81 10000 5.1 220 07:45 30.04.2020
4043 Clouds 9 1003 81 10000 5.1 220 07:26 30.04.2020
4044 Clouds 9 1003 81 10000 5.1 220 06:55 30.04.2020
4045 Clouds 9 1003 81 10000 5.1 210 06:32 30.04.2020
4046 Clouds 9 1003 76 10000 5.7 230 05:47 30.04.2020
4047 Clouds 10 1002 76 10000 9.3 220 04:43 30.04.2020
4048 Rain 10 1002 76 10000 9.3 220 04:23 30.04.2020
4049 Rain 11 1003 87 10000 5.1 200 02:50 30.04.2020
4050 Rain 11 1003 87 10000 5.7 190 02:28 30.04.2020
4051 Rain 11 1003 81 10000 6.2 200 01:37 30.04.2020
4052 Clouds 10 1004 87 10000 5.1 190 00:53 30.04.2020
4053 Clouds 10 1004 87 10000 5.1 190 00:53 30.04.2020
4054 Clouds 11 1004 81 10000 3.6 210 00:24 30.04.2020
4055 Clouds 11 1004 81 10000 3.6 210 00:24 30.04.2020
4056 Rain 11 1004 81 10000 5.7 210 23:59 29.04.2020
4057 Rain 11 1004 87 10000 4.6 200 23:41 29.04.2020
4058 Rain 12 1004 87 10000 4.6 200 23:22 29.04.2020
4059 Rain 12 1004 93 10000 3.1 160 22:58 29.04.2020
4060 Rain 12 1005 87 10000 3.1 170 22:39 29.04.2020
4061 Rain 12 1005 87 10000 3.1 170 22:19 29.04.2020
4062 Rain 11 1005 87 10000 3.1 200 21:38 29.04.2020
4063 Rain 11 1005 87 10000 3.1 200 21:20 29.04.2020
4064 Rain 11 1006 81 10000 6.2 210 20:58 29.04.2020
4065 Rain 11 1005 87 10000 6.2 200 20:39 29.04.2020
4066 Rain 11 1005 87 10000 6.2 200 20:19 29.04.2020
4067 Rain 11 1005 87 10000 5.7 210 19:57 29.04.2020
4068 Rain 12 1006 81 10000 6.7 200 19:39 29.04.2020
4069 Rain 12 1005 87 8000 5.1 230 19:18 29.04.2020
4070 Rain 14 1006 82 10000 8.2 210 18:42 29.04.2020
4071 Rain 14 1006 82 10000 8.2 210 18:20 29.04.2020
4072 Rain 14 1005 82 10000 6.7 190 17:55 29.04.2020
4073 Rain 14 1006 77 10000 7.7 180 17:37 29.04.2020
4074 Clouds 14 1006 82 10000 6.7 180 17:18 29.04.2020
4075 Clouds 15 1006 87 10000 6.7 180 16:37 29.04.2020
4076 Rain 14 1007 76 10000 9.3 190 16:19 29.04.2020
4077 Rain 13 1007 76 10000 9.3 190 15:57 29.04.2020
4078 Rain 14 1007 59 10000 8.7 190 15:38 29.04.2020
4079 Rain 15 1007 59 10000 8.7 190 15:20 29.04.2020
4080 Clouds 16 1007 54 10000 7.2 210 14:46 29.04.2020
4081 Clouds 16 1007 54 10000 7.2 210 14:27 29.04.2020
4082 Clouds 16 1007 54 10000 7.2 210 14:27 29.04.2020
4083 Clouds 15 1007 51 10000 6.7 220 13:59 29.04.2020
4084 Clouds 15 1007 51 10000 6.7 220 13:59 29.04.2020
4085 Clouds 15 1007 51 10000 6.7 220 13:59 29.04.2020
4086 Clouds 15 1007 51 10000 7.2 210 13:40 29.04.2020
4087 Clouds 16 1007 55 10000 7.2 220 13:20 29.04.2020
4088 Clouds 15 1007 51 10000 7.2 210 13:20 29.04.2020
4089 Clouds 16 1007 55 10000 7.2 220 12:57 29.04.2020
4090 Clouds 15 1008 58 10000 7.2 210 12:38 29.04.2020
4091 Clouds 14 1008 67 10000 8.2 210 12:18 29.04.2020
4092 Clouds 15 1008 67 10000 5.1 210 11:40 29.04.2020
4093 Clouds 15 1008 67 10000 5.1 210 11:21 29.04.2020
4094 Clouds 14 1008 71 10000 5.7 200 10:58 29.04.2020
4095 Clouds 14 1008 76 10000 5.1 220 10:37 29.04.2020
4096 Clouds 14 1008 76 10000 5.1 220 10:19 29.04.2020
4097 Clouds 12 1008 76 10000 4.1 220 09:42 29.04.2020
4098 Clouds 12 1008 76 10000 4.1 220 09:23 29.04.2020
4099 Clouds 12 1008 81 10000 5.1 210 08:56 29.04.2020
4100 Clouds 11 1008 81 10000 5.1 210 08:56 29.04.2020
4101 Clouds 11 1008 81 10000 4.6 220 08:37 29.04.2020
4102 Clouds 11 1008 81 10000 4.6 220 08:19 29.04.2020
4103 Clouds 11 1007 87 10000 2.6 220 07:41 29.04.2020
4104 Clouds 11 1007 87 10000 2.6 220 07:23 29.04.2020
4105 Clouds 11 1007 87 10000 3.1 210 06:50 29.04.2020
4106 Clouds 10 1007 87 10000 2.1 210 06:30 29.04.2020
4107 Rain 11 1007 81 10000 3.1 210 05:21 29.04.2020
4108 Clouds 11 1007 76 10000 4.1 230 04:45 29.04.2020
4109 Clouds 11 1007 71 10000 5.7 220 04:18 29.04.2020
4110 Clear 11 1007 71 10000 4.6 210 02:42 29.04.2020
4111 Clouds 12 1007 71 10000 4.1 210 01:44 29.04.2020
4112 Clouds 12 1007 71 10000 4.1 210 01:26 29.04.2020
4113 Clouds 12 1007 81 10000 2.1 210 00:42 29.04.2020
4114 Clouds 12 1007 81 10000 2.1 210 00:19 29.04.2020
4115 Clouds 13 1007 71 10000 3.1 230 23:51 28.04.2020
4116 Clouds 13 1007 71 10000 3.1 230 23:24 28.04.2020
4117 Clouds 14 1006 76 10000 2.6 230 22:58 28.04.2020
4118 Clouds 14 1006 71 10000 3.1 260 22:37 28.04.2020
4119 Clouds 14 1006 71 10000 3.1 260 22:37 28.04.2020
4120 Clouds 14 1006 71 10000 3.1 260 22:18 28.04.2020
4121 Clouds 14 1006 71 10000 2.6 260 21:57 28.04.2020
4122 Clouds 14 1006 71 10000 4.1 280 21:38 28.04.2020
4123 Clouds 14 1006 71 10000 4.1 280 21:20 28.04.2020
4124 Rain 15 1005 72 10000 3.6 190 20:55 28.04.2020
4125 Rain 15 1005 59 10000 3.6 280 20:37 28.04.2020
4126 Rain 16 1005 55 10000 4.1 260 20:19 28.04.2020
4127 Rain 17 1005 51 10000 5.7 250 19:43 28.04.2020
4128 Clouds 18 1005 51 10000 5.7 250 19:22 28.04.2020
4129 Clouds 17 1005 51 10000 7.2 250 18:59 28.04.2020
4130 Clouds 18 1005 55 10000 5.7 250 18:41 28.04.2020
4131 Clouds 18 1005 55 10000 5.7 250 18:20 28.04.2020
4132 Clouds 18 1005 55 10000 7.2 250 17:58 28.04.2020
4133 Clouds 18 1005 48 10000 6.2 240 17:37 28.04.2020
4134 Clouds 18 1005 55 10000 6.7 220 17:18 28.04.2020
4135 Clouds 18 1005 55 10000 6.7 220 16:54 28.04.2020
4136 Clouds 18 1005 52 10000 7.7 210 16:36 28.04.2020
4137 Clouds 18 1005 52 10000 7.7 210 16:18 28.04.2020
4138 Rain 18 1005 55 10000 9.3 240 15:54 28.04.2020
4139 Rain 17 1005 59 10000 7.2 220 15:36 28.04.2020
4140 Rain 17 1005 55 10000 8.2 220 15:18 28.04.2020
4141 Rain 17 1005 63 10000 7.7 220 14:41 28.04.2020
4142 Rain 17 1005 55 10000 7.7 210 14:21 28.04.2020
4143 Clouds 17 1005 55 10000 7.7 210 13:59 28.04.2020
4144 Clouds 16 1005 59 10000 7.7 210 13:39 28.04.2020
4145 Clouds 16 1005 59 10000 7.7 210 13:21 28.04.2020
4146 Clouds 17 1005 55 10000 5.7 210 12:57 28.04.2020
4147 Clouds 16 1005 63 10000 6.7 210 12:37 28.04.2020
4148 Clouds 16 1005 63 10000 6.2 220 12:19 28.04.2020
4149 Clouds 15 1005 67 10000 6.2 210 11:40 28.04.2020
4150 Clouds 15 1005 67 10000 6.2 210 11:20 28.04.2020
4151 Clouds 15 1005 72 10000 7.2 210 10:55 28.04.2020
4152 Clouds 15 1005 72 10000 6.2 210 10:37 28.04.2020
4153 Clouds 14 1005 71 10000 7.2 210 10:18 28.04.2020
4154 Clouds 14 1005 71 10000 6.7 210 09:42 28.04.2020
4155 Clouds 14 1005 71 10000 6.7 210 09:24 28.04.2020
4156 Clouds 13 1005 71 10000 6.7 210 08:49 28.04.2020
4157 Clouds 14 1004 76 10000 5.1 210 08:30 28.04.2020
4158 Clouds 13 1004 76 10000 5.7 210 07:58 28.04.2020
4159 Clouds 13 1004 76 10000 5.1 210 07:39 28.04.2020
4160 Clouds 13 1004 82 10000 5.7 220 07:18 28.04.2020
4161 Clouds 13 1004 82 10000 6.2 210 06:31 28.04.2020
4162 Clouds 13 1004 87 10000 6.2 190 05:47 28.04.2020
4163 Clouds 14 1004 87 10000 6.2 190 05:29 28.04.2020
4164 Clouds 14 1004 87 10000 5.1 170 04:33 28.04.2020
4165 Rain 15 1005 93 10000 2.6 70 02:38 28.04.2020
4166 Rain 15 1005 87 10000 1 0 01:28 28.04.2020
4167 -273 0 0 0 0 0 00:59 28.04.2020
4168 Rain 15 1006 87 10000 1 190 00:31 28.04.2020
4169 Drizzle 15 1006 82 10000 1 0 23:56 27.04.2020
4170 Rain 15 1006 82 10000 1.5 0 23:38 27.04.2020
4171 Rain 15 1006 82 10000 4.1 290 23:19 27.04.2020
4172 Thunderstorm 15 1006 82 10000 5.1 280 22:42 27.04.2020
4173 Thunderstorm 16 1006 82 10000 5.1 280 22:23 27.04.2020
4174 Rain 16 1005 82 10000 7.2 270 21:57 27.04.2020
4175 Rain 16 1005 82 5000 7.7 270 21:39 27.04.2020
4176 Rain 17 1004 48 10000 2.1 50 21:19 27.04.2020
4177 Drizzle 18 1005 49 10000 9.8 160 20:56 27.04.2020
4178 Rain 20 1004 45 10000 2.6 90 20:38 27.04.2020
4179 Rain 20 1004 45 10000 2.6 90 20:19 27.04.2020
4180 Rain 21 1004 46 10000 2.1 80 19:55 27.04.2020
4181 Rain 22 1004 49 10000 1.5 60 19:36 27.04.2020
4182 Clouds 22 1005 46 10000 1.5 80 19:18 27.04.2020
4183 Rain 22 1005 42 10000 3.6 80 18:40 27.04.2020
4184 Clouds 22 1005 33 10000 5.1 170 18:20 27.04.2020
4185 Clouds 22 1005 33 10000 5.1 170 17:59 27.04.2020
4186 Clouds 22 1005 35 10000 3.6 200 17:40 27.04.2020
4187 Clouds 23 1005 43 10000 1.5 0 17:19 27.04.2020
4188 Clouds 22 1006 40 10000 2.6 270 16:41 27.04.2020
4189 Clouds 22 1006 40 10000 2.6 270 16:41 27.04.2020
4190 Clouds 23 1006 40 10000 2.6 270 16:22 27.04.2020
4191 Clouds 23 1006 40 10000 1.5 0 15:58 27.04.2020
4192 Clouds 23 1006 40 10000 2.1 0 15:40 27.04.2020
4193 Rain 23 1006 40 10000 2.1 0 15:20 27.04.2020
4194 Rain 23 1007 38 10000 2.6 240 14:58 27.04.2020
4195 Rain 23 1007 40 10000 2.1 250 14:40 27.04.2020
4196 Rain 23 1007 38 10000 4.1 200 14:19 27.04.2020
4197 Rain 23 1007 38 10000 4.1 200 13:57 27.04.2020
4198 Rain 23 1007 38 10000 4.1 200 13:57 27.04.2020
4199 Rain 23 1008 38 10000 3.1 200 13:37 27.04.2020
4200 Rain 22 1008 38 10000 1.5 200 13:18 27.04.2020
4201 Rain 22 1008 40 10000 3.6 170 12:43 27.04.2020
4202 Clouds 21 1008 40 10000 2.6 210 12:22 27.04.2020
4203 Clouds 21 1008 40 10000 2.6 210 11:56 27.04.2020
4204 Clouds 19 1008 42 10000 3.1 200 11:37 27.04.2020
4205 Clouds 19 1008 39 10000 2.1 170 11:18 27.04.2020
4206 Clouds 17 1008 45 10000 2.6 150 10:42 27.04.2020
4207 Clouds 17 1008 45 10000 2.6 150 10:24 27.04.2020
4208 Clouds 16 1008 48 10000 2.6 140 10:24 27.04.2020
4209 Clouds 16 1008 48 10000 2.6 140 09:58 27.04.2020
4210 Clouds 14 1008 50 10000 2.1 140 09:39 27.04.2020
4211 Clouds 14 1008 50 10000 2.1 140 09:18 27.04.2020
4212 Clouds 13 1008 62 10000 2.1 120 08:52 27.04.2020
4213 Clouds 11 1009 71 10000 2.1 80 08:32 27.04.2020
4214 Clouds 10 1009 75 10000 2.6 70 07:45 27.04.2020
4215 Clouds 10 1009 75 10000 2.6 70 07:27 27.04.2020
4216 Clouds 10 1009 75 10000 2.6 70 06:58 27.04.2020
4217 Clouds 10 1009 70 10000 2.1 60 06:30 27.04.2020
4218 Clouds 10 1009 70 10000 2.1 80 05:57 27.04.2020
4219 Clouds 11 1009 71 10000 2.1 50 05:19 27.04.2020
4220 Clouds 11 1009 70 10000 2.1 50 04:39 27.04.2020
4221 Clouds 11 1009 70 10000 2.1 50 04:39 27.04.2020
4222 Clouds 11 1010 66 10000 1.5 30 03:47 27.04.2020
4223 Clouds 12 1010 66 10000 1.5 360 02:32 27.04.2020
4224 Clouds 12 1010 62 10000 1 20 01:20 27.04.2020
4225 Clouds 13 1010 58 10000 1.5 10 00:40 27.04.2020
4226 Clouds 13 1010 58 10000 1.5 10 00:19 27.04.2020
4227 Clouds 13 1010 50 10000 1 10 23:55 26.04.2020
4228 Clouds 13 1010 54 10000 1.5 350 23:37 26.04.2020
4229 Clouds 14 1010 47 10000 1 20 23:18 26.04.2020
4230 Clouds 14 1010 47 10000 1 20 22:54 26.04.2020
4231 Clouds 15 1010 44 10000 1.5 30 22:36 26.04.2020
4232 Clouds 15 1010 47 10000 2.1 60 22:18 26.04.2020
4233 Clouds 15 1010 47 10000 2.1 60 21:54 26.04.2020
4234 Clouds 16 1009 38 10000 2.6 50 21:36 26.04.2020
4235 Clear 17 1009 46 10000 1.5 20 21:18 26.04.2020
4236 Clear 19 1009 46 10000 2.1 10 20:39 26.04.2020
4237 Clear 19 1009 46 10000 2.6 360 20:20 26.04.2020
4238 Clear 20 1009 46 10000 2.6 360 19:58 26.04.2020
4239 Clear 20 1009 46 10000 2.6 360 19:58 26.04.2020
4240 Clear 21 1009 46 10000 3.1 350 19:38 26.04.2020
4241 Clear 21 1009 46 10000 3.1 350 19:19 26.04.2020
4242 Clear 20 1010 46 10000 2.6 330 18:44 26.04.2020
4243 Clear 20 1010 30 10000 2.6 330 18:25 26.04.2020
4244 Clear 20 1010 30 10000 3.6 340 17:57 26.04.2020
4245 Clear 20 1010 30 10000 2.6 340 17:39 26.04.2020
4246 Clear 20 1010 22 10000 3.1 360 17:19 26.04.2020
4247 Clear 20 1010 28 10000 3.1 10 16:42 26.04.2020
4248 Clear 20 1010 28 10000 3.1 10 16:23 26.04.2020
4249 Clear 20 1010 30 10000 3.1 10 15:59 26.04.2020
4250 Clear 19 1011 24 10000 1.5 0 15:40 26.04.2020
4251 Clear 19 1011 24 10000 1.5 0 15:21 26.04.2020
4252 Clear 19 1011 32 10000 2.1 0 14:57 26.04.2020
4253 Clear 18 1011 31 10000 2.1 330 14:38 26.04.2020
4254 Clear 18 1011 27 10000 2.6 290 14:18 26.04.2020
4255 Clear 18 1011 27 10000 2.6 290 13:55 26.04.2020
4256 Clear 17 1012 33 10000 2.1 340 13:37 26.04.2020
4257 Clear 17 1012 33 10000 2.1 340 13:18 26.04.2020
4258 Clear 16 1012 41 10000 1.5 0 12:40 26.04.2020
4259 Clear 16 1012 41 10000 1.5 0 12:21 26.04.2020
4260 Clear 15 1012 44 10000 2.6 50 11:59 26.04.2020
4261 Clear 15 1012 47 10000 2.6 20 11:40 26.04.2020
4262 Clear 14 1012 47 10000 2.6 20 11:21 26.04.2020
4263 Clear 15 1012 47 10000 2.6 20 11:21 26.04.2020
4264 Clear 14 1012 54 10000 1.5 0 10:56 26.04.2020
4265 Clear 14 1012 54 10000 1.5 0 10:56 26.04.2020
4266 Clear 12 1012 62 10000 1.5 0 10:38 26.04.2020
4267 Clear 11 1012 66 10000 1.5 0 10:20 26.04.2020
4268 Clear 10 1012 76 10000 1.5 0 09:41 26.04.2020
4269 Clear 9 1012 75 9000 2.1 20 09:22 26.04.2020
4270 Clear 9 1012 75 9000 2.1 20 08:59 26.04.2020
4271 Clear 8 1012 81 9000 1.5 0 08:40 26.04.2020
4272 Clear 7 1012 87 9000 1.5 0 08:20 26.04.2020
4273 Clear 7 1012 87 9000 1.5 0 07:47 26.04.2020
4274 Clear 6 1011 87 8000 2.1 350 07:22 26.04.2020
4275 Clear 7 1011 81 8000 2.1 350 06:45 26.04.2020
4276 Clear 7 1012 81 9000 1 0 06:18 26.04.2020
4277 Clear 7 1012 81 9000 1 0 05:45 26.04.2020
4278 Clear 8 1012 75 10000 2.1 350 05:25 26.04.2020
4279 Clear 8 1012 75 10000 2.1 350 04:30 26.04.2020
4280 Clear 10 1012 70 10000 2.6 350 03:33 26.04.2020
4281 Clear 10 1012 66 10000 3.1 350 02:33 26.04.2020
4282 Clear 11 1012 62 10000 2.6 360 01:57 26.04.2020
4283 Clear 11 1012 62 10000 3.6 10 01:36 26.04.2020
4284 Clear 12 1012 62 10000 3.1 360 00:41 26.04.2020
4285 Clear 13 1011 62 10000 3.6 360 00:20 26.04.2020
4286 Clear 12 1012 62 10000 3.1 360 00:20 26.04.2020
4287 Clear 13 1011 62 10000 3.6 360 23:55 25.04.2020
4288 Clear 13 1011 58 10000 4.1 360 23:36 25.04.2020
4289 Clear 14 1011 58 10000 3.1 360 23:18 25.04.2020
4290 Clear 15 1011 54 10000 2.1 350 22:41 25.04.2020
4291 Clear 15 1011 54 10000 2.1 350 22:20 25.04.2020
4292 Clear 15 1011 47 10000 3.1 10 21:58 25.04.2020
4293 Clear 16 1011 44 10000 3.1 360 21:38 25.04.2020
4294 Clear 17 1011 45 10000 3.6 360 21:18 25.04.2020
4295 Clear 18 1010 39 10000 3.1 360 20:43 25.04.2020
4296 Clear 18 1010 39 10000 3.1 360 20:23 25.04.2020
4297 Clear 18 1010 37 10000 3.6 10 19:59 25.04.2020
4298 Clear 18 1010 34 10000 4.1 20 19:39 25.04.2020
4299 Clear 18 1010 36 10000 4.1 360 19:21 25.04.2020
4300 Clear 19 1010 37 10000 3.6 10 18:56 25.04.2020
4301 Clear 19 1010 37 10000 3.6 10 18:37 25.04.2020
4302 Clear 19 1011 37 10000 4.1 10 18:18 25.04.2020
4303 Clear 19 1011 37 10000 4.1 10 17:55 25.04.2020
4304 -273 0 0 0 0 0 17:36 25.04.2020
4305 Clear 19 1011 39 10000 3.1 340 17:18 25.04.2020
4306 Clear 19 1011 37 10000 3.1 350 16:43 25.04.2020
4307 Clear 20 1011 37 10000 3.1 350 16:25 25.04.2020
4308 Clear 19 1011 37 10000 4.1 350 15:58 25.04.2020
4309 Clear 20 1012 37 10000 4.1 20 15:38 25.04.2020
4310 Clear 20 1012 37 10000 4.1 20 15:19 25.04.2020
4311 Clear 19 1012 39 10000 3.6 40 14:57 25.04.2020
4312 Clear 19 1012 39 10000 2.1 40 14:38 25.04.2020
4313 Clear 19 1012 42 10000 3.6 50 14:18 25.04.2020
4314 Clear 18 1013 42 10000 3.6 50 13:42 25.04.2020
4315 Clear 17 1013 42 10000 4.6 50 13:19 25.04.2020
4316 Clear 18 1013 42 10000 4.6 50 12:57 25.04.2020
4317 Clear 16 1013 48 10000 4.1 50 12:38 25.04.2020
4318 Clear 16 1013 54 10000 4.1 30 12:20 25.04.2020
4319 Clear 15 1013 54 10000 4.1 30 11:55 25.04.2020
4320 Clear 15 1013 51 10000 3.6 60 11:37 25.04.2020
4321 Clear 15 1013 58 10000 3.6 20 11:19 25.04.2020
4322 Clear 14 1013 58 10000 3.6 40 10:42 25.04.2020
4323 Clear 14 1013 58 10000 3.6 40 10:22 25.04.2020
4324 Clear 13 1013 58 10000 4.6 20 09:47 25.04.2020
4325 Clear 13 1013 58 10000 5.1 30 09:27 25.04.2020
4326 Clear 13 1013 62 10000 4.1 10 08:57 25.04.2020
4327 Clear 12 1013 58 10000 3.6 20 08:38 25.04.2020
4328 Clear 12 1013 58 10000 3.6 20 08:20 25.04.2020
4329 Clear 12 1013 58 10000 4.1 20 07:47 25.04.2020
4330 Clear 12 1012 58 10000 3.6 20 07:24 25.04.2020
4331 Clear 12 1013 58 10000 3.1 20 06:45 25.04.2020
4332 Clouds 13 1013 54 10000 3.1 10 06:18 25.04.2020
4333 Clear 13 1013 54 10000 3.6 20 05:39 25.04.2020
4334 Clear 14 1013 50 10000 2.6 20 04:47 25.04.2020
4335 Clouds 15 1013 47 10000 3.1 20 02:59 25.04.2020
4336 Clear 16 1013 44 10000 3.6 20 02:20 25.04.2020
4337 Clear 16 1013 48 10000 3.1 10 01:53 25.04.2020
4338 Clear 16 1013 45 10000 2.6 10 01:34 25.04.2020
4339 Clear 17 1013 48 10000 3.6 30 00:55 25.04.2020
4340 Clear 17 1013 48 10000 3.6 20 00:32 25.04.2020
4341 Clear 17 1013 45 10000 4.1 40 23:45 24.04.2020
4342 Clear 18 1013 45 10000 4.1 30 23:24 24.04.2020
4343 Clear 18 1013 45 10000 3.1 30 22:59 24.04.2020
4344 Clear 19 1012 45 10000 3.6 30 22:39 24.04.2020
4345 Clear 19 1012 42 10000 4.1 30 22:19 24.04.2020
4346 Clear 19 1012 42 10000 4.1 30 21:56 24.04.2020
4347 Clear 19 1012 40 10000 3.6 30 21:37 24.04.2020
4348 Rain 20 1011 42 10000 3.6 30 21:19 24.04.2020
4349 Rain 20 1011 42 10000 3.6 30 20:56 24.04.2020
4350 Rain 20 1011 42 10000 3.6 30 20:56 24.04.2020
4351 Rain 21 1011 37 10000 3.1 20 20:37 24.04.2020
4352 Rain 21 1011 35 10000 4.1 20 20:18 24.04.2020
4353 Rain 22 1012 37 10000 4.1 30 19:40 24.04.2020
4354 Rain 22 1012 37 10000 4.1 30 19:21 24.04.2020
4355 Rain 23 1012 40 10000 4.6 40 18:46 24.04.2020
4356 Rain 22 1012 40 10000 4.6 40 18:28 24.04.2020
4357 Rain 23 1012 35 10000 4.6 30 17:58 24.04.2020
4358 Rain 23 1012 40 10000 1.5 350 17:39 24.04.2020
4359 Rain 23 1012 40 10000 1.5 350 17:20 24.04.2020
4360 Rain 23 1012 38 10000 1.5 340 16:58 24.04.2020
4361 Rain 24 1012 38 10000 1.5 0 16:40 24.04.2020
4362 Rain 24 1012 38 10000 1.5 0 16:21 24.04.2020
4363 Rain 24 1013 36 10000 3.6 320 15:42 24.04.2020
4364 Rain 24 1013 36 10000 3.6 320 15:21 24.04.2020
4365 Rain 23 1013 38 10000 3.1 260 14:59 24.04.2020
4366 Clouds 23 1013 38 10000 3.1 260 14:39 24.04.2020
4367 Clouds 23 1013 38 10000 3.1 260 14:20 24.04.2020
4368 Clouds 23 1014 40 10000 1 0 13:42 24.04.2020
4369 Clouds 23 1014 40 10000 1 0 13:22 24.04.2020
4370 Clouds 22 1014 43 10000 1.5 280 12:59 24.04.2020
4371 Clouds 22 1015 43 10000 1.5 0 12:41 24.04.2020
4372 Clouds 21 1015 43 10000 1.5 0 12:21 24.04.2020
4373 Clouds 21 1015 42 10000 1 0 11:57 24.04.2020
4374 Clouds 20 1015 42 10000 1 0 11:37 24.04.2020
4375 Clouds 20 1015 42 10000 1 0 11:18 24.04.2020
4376 Clouds 18 1015 55 10000 1.5 0 10:39 24.04.2020
4377 Clouds 18 1015 55 10000 1.5 0 10:20 24.04.2020
4378 Clouds 16 1015 62 10000 3.1 10 09:58 24.04.2020
4379 Clouds 15 1015 62 10000 2.1 10 09:39 24.04.2020
4380 Clouds 15 1015 62 10000 2.1 10 09:21 24.04.2020
4381 Clouds 14 1015 66 10000 1 0 08:54 24.04.2020
4382 Clouds 13 1015 66 10000 0.5 20 08:36 24.04.2020
4383 Clouds 13 1015 66 10000 0.5 20 08:18 24.04.2020
4384 Clouds 13 1015 66 10000 1.5 20 07:43 24.04.2020
4385 Clouds 12 1015 66 10000 1.5 20 07:24 24.04.2020
4386 Clouds 12 1015 71 10000 1 40 06:49 24.04.2020
4387 Clouds 12 1015 71 10000 0.71 283 06:30 24.04.2020
4388 Clouds 12 1015 71 10000 0.71 283 05:42 24.04.2020
4389 Clouds 13 1015 66 10000 1 0 04:25 24.04.2020
4390 Clear 13 1016 66 10000 1 360 02:58 24.04.2020
4391 Clear 14 1016 58 10000 1.5 10 02:37 24.04.2020
4392 Clear 14 1016 54 10000 1.5 20 01:57 24.04.2020
4393 Clear 15 1016 51 10000 1.5 350 00:58 24.04.2020
4394 Clear 16 1016 51 10000 1 0 00:21 24.04.2020
4395 Clear 16 1016 48 10000 1 0 23:55 23.04.2020
4396 Clear 17 1016 45 10000 2.1 360 23:37 23.04.2020
4397 Clear 17 1016 45 10000 2.1 360 23:18 23.04.2020
4398 Clear 18 1016 42 10000 1.5 350 22:54 23.04.2020
4399 Clear 19 1016 37 10000 1.5 20 22:36 23.04.2020
4400 Clear 20 1016 34 10000 2.6 10 22:18 23.04.2020
4401 Clear 19 1016 34 10000 2.6 10 21:55 23.04.2020
4402 Clear 20 1016 32 10000 1.5 20 21:55 23.04.2020
4403 Clear 20 1016 32 10000 1.5 20 21:37 23.04.2020
4404 Clear 20 1016 32 10000 1.5 20 21:18 23.04.2020
4405 Clear 23 1015 27 10000 2.6 350 20:41 23.04.2020
4406 Clear 24 1015 25 10000 3.1 350 20:22 23.04.2020
4407 Clear 24 1015 25 10000 3.1 350 20:22 23.04.2020
4408 Clear 24 1015 25 10000 3.1 350 19:58 23.04.2020
4409 Clear 25 1015 23 10000 2.6 360 19:39 23.04.2020
4410 Clear 25 1016 25 10000 2.1 30 19:21 23.04.2020
4411 Clear 25 1016 25 10000 2.1 30 19:21 23.04.2020
4412 Clear 25 1016 25 10000 2.1 30 18:56 23.04.2020
4413 Clear 25 1016 23 10000 2.1 10 18:36 23.04.2020
4414 Clear 25 1016 22 10000 1.5 0 18:18 23.04.2020
4415 Clear 25 1016 22 10000 1.5 0 17:55 23.04.2020
4416 Clear 25 1016 22 10000 2.6 30 17:36 23.04.2020
4417 Clear 25 1016 22 10000 1.5 30 17:18 23.04.2020
4418 Clear 25 1016 23 10000 1.5 50 16:43 23.04.2020
4419 Clear 25 1017 22 10000 2.1 0 16:19 23.04.2020
4420 Clear 25 1017 23 10000 1.5 0 15:43 23.04.2020
4421 Clear 24 1017 23 10000 1.5 0 15:23 23.04.2020
4422 Clear 24 1017 25 10000 2.6 90 14:59 23.04.2020
4423 Clear 23 1017 25 10000 2.6 0 14:39 23.04.2020
4424 Clear 23 1017 25 10000 2.6 0 14:21 23.04.2020
4425 Clear 23 1018 25 10000 2.6 40 13:57 23.04.2020
4426 Clear 23 1018 31 10000 2.1 30 13:38 23.04.2020
4427 Clear 23 1018 31 10000 2.1 30 13:19 23.04.2020
4428 Clear 22 1018 30 10000 2.1 40 12:55 23.04.2020
4429 Clear 21 1018 32 10000 1 0 12:37 23.04.2020
4430 Clear 21 1018 32 10000 1 0 12:19 23.04.2020
4431 Clear 20 1018 39 10000 1.5 0 11:44 23.04.2020
4432 Clear 19 1018 39 10000 1.5 0 11:26 23.04.2020
4433 Clear 18 1018 39 10000 1.5 0 10:56 23.04.2020
4434 Clear 17 1018 42 10000 1.5 0 10:38 23.04.2020
4435 Clear 16 1018 51 10000 1 0 10:19 23.04.2020
4436 Clear 14 1018 54 10000 1.5 0 09:38 23.04.2020
4437 Clear 14 1018 58 10000 2.1 20 09:18 23.04.2020
4438 Clear 12 1018 66 10000 1.5 10 08:47 23.04.2020
4439 Clear 12 1018 66 10000 1.5 10 08:29 23.04.2020
4440 Clear 10 1017 81 10000 1.5 360 07:45 23.04.2020
4441 Clear 10 1017 81 10000 1.5 360 07:24 23.04.2020
4442 Clear 10 1017 70 10000 0.5 0 06:57 23.04.2020
4443 Clear 11 1017 70 10000 1.5 360 06:39 23.04.2020
4444 Clear 11 1017 76 10000 1.5 350 05:33 23.04.2020
4445 Clear 10 1017 71 10000 2.6 350 04:54 23.04.2020
4446 Clear 13 1017 71 10000 1 50 02:41 23.04.2020
4447 Clear 13 1017 62 10000 1 350 02:22 23.04.2020
4448 Clear 13 1016 62 10000 2.1 360 01:38 23.04.2020
4449 Clear 14 1016 66 10000 0.5 0 00:51 23.04.2020
4450 Clear 14 1016 62 10000 1 360 00:26 23.04.2020
4451 Clear 15 1016 62 10000 1 0 23:55 22.04.2020
4452 Clear 15 1016 62 10000 1.5 350 23:27 22.04.2020
4453 Clear 16 1016 51 10000 1.5 340 22:59 22.04.2020
4454 Clear 16 1016 48 10000 1.5 340 22:39 22.04.2020
4455 Clear 17 1016 48 10000 1.5 340 22:20 22.04.2020
4456 Clear 17 1015 45 10000 2.1 350 21:58 22.04.2020
4457 Clear 18 1015 42 10000 1.5 20 21:40 22.04.2020
4458 Clear 19 1015 40 10000 2.1 50 21:21 22.04.2020
4459 Clear 20 1015 40 10000 2.1 50 20:56 22.04.2020
4460 Clear 20 1014 40 10000 3.1 50 20:37 22.04.2020
4461 Clear 21 1014 37 10000 4.6 60 20:18 22.04.2020
4462 Clear 21 1014 37 10000 4.6 60 19:56 22.04.2020
4463 Clear 22 1014 37 10000 4.6 50 19:37 22.04.2020
4464 Clear 22 1014 37 10000 4.6 50 19:18 22.04.2020
4465 Clear 22 1014 35 10000 5.1 70 18:56 22.04.2020
4466 Clear 22 1014 35 10000 5.1 70 18:37 22.04.2020
4467 Clear 22 1014 35 10000 5.7 70 18:19 22.04.2020
4468 Clear 22 1014 33 10000 5.7 60 17:43 22.04.2020
4469 Clear 22 1014 33 10000 5.7 70 17:25 22.04.2020
4470 Clear 22 1014 33 10000 5.7 70 16:56 22.04.2020
4471 Clear 21 1014 35 10000 5.1 50 16:36 22.04.2020
4472 Clear 21 1014 35 10000 5.1 50 16:18 22.04.2020
4473 Clear 21 1014 35 10000 5.7 60 16:18 22.04.2020
4474 Clear 21 1014 32 10000 6.2 70 15:40 22.04.2020
4475 Clear 21 1014 32 10000 6.2 70 15:21 22.04.2020
4476 Clear 20 1014 32 10000 5.1 50 14:57 22.04.2020
4477 Clear 20 1014 34 10000 5.1 60 14:37 22.04.2020
4478 Clear 20 1014 34 10000 5.1 60 14:19 22.04.2020
4479 Clear 19 1014 34 10000 5.1 60 13:44 22.04.2020
4480 Clear 18 1014 36 10000 5.1 50 13:20 22.04.2020
4481 Clear 18 1014 36 10000 5.1 50 12:57 22.04.2020
4482 Clear 18 1015 36 10000 4.6 60 12:39 22.04.2020
4483 Clear 18 1015 36 10000 4.6 60 12:20 22.04.2020
4484 Clear 17 1014 39 10000 5.1 60 11:40 22.04.2020
4485 Clear 16 1014 39 10000 5.1 60 11:20 22.04.2020
4486 Clear 16 1014 38 10000 5.7 50 10:58 22.04.2020
4487 Clear 15 1014 41 10000 6.2 50 10:38 22.04.2020
4488 Clear 15 1014 44 10000 5.1 50 10:18 22.04.2020
4489 Clear 14 1014 47 10000 5.1 40 09:39 22.04.2020
4490 Clouds 13 1014 54 10000 2.6 20 09:20 22.04.2020
4491 Clouds 13 1014 54 10000 2.6 20 08:56 22.04.2020
4492 Clouds 12 1014 57 10000 3.1 10 08:37 22.04.2020
4493 Clouds 11 1014 53 10000 3.6 10 08:19 22.04.2020
4494 Clouds 11 1014 53 10000 3.6 10 07:52 22.04.2020
4495 Clouds 11 1014 57 10000 3.1 360 07:24 22.04.2020
4496 Clouds 11 1013 53 10000 2.6 350 06:52 22.04.2020
4497 Clouds 12 1013 57 10000 3.1 360 05:48 22.04.2020
4498 Clouds 12 1013 53 10000 2.6 350 05:27 22.04.2020
4499 Clouds 12 1013 53 10000 2.6 350 05:27 22.04.2020
4500 Clouds 13 1012 47 10000 2.1 10 04:20 22.04.2020
4501 Clouds 14 1012 44 10000 4.1 40 02:40 22.04.2020
4502 Clouds 15 1012 47 10000 3.1 20 01:50 22.04.2020
4503 Clouds 15 1012 47 10000 3.1 20 01:25 22.04.2020
4504 Clouds 15 1012 47 10000 4.1 30 00:47 22.04.2020
4505 Clouds 15 1012 47 10000 3.1 20 00:22 22.04.2020
4506 Clouds 15 1012 48 10000 3.6 20 23:59 21.04.2020
4507 Clouds 16 1012 51 10000 3.1 10 23:40 21.04.2020
4508 Clouds 16 1012 55 10000 2.6 10 23:18 21.04.2020
4509 Clouds 16 1012 55 10000 2.1 10 22:40 21.04.2020
4510 Clouds 16 1012 55 10000 2.1 10 22:21 21.04.2020
4511 Clouds 17 1011 48 10000 2.1 30 21:59 21.04.2020
4512 Clouds 17 1011 45 10000 2.1 40 21:41 21.04.2020
4513 Clouds 18 1011 45 10000 2.1 40 21:22 21.04.2020
4514 Clouds 18 1011 45 10000 2.6 90 20:56 21.04.2020
4515 Clouds 19 1010 45 10000 3.6 50 20:37 21.04.2020
4516 Clouds 19 1010 45 10000 3.6 50 20:19 21.04.2020
4517 Clouds 20 1010 40 10000 5.7 40 19:41 21.04.2020
4518 Clouds 20 1010 40 10000 5.7 40 19:20 21.04.2020
4519 Clouds 20 1010 40 10000 5.7 50 18:58 21.04.2020
4520 Clouds 20 1010 37 10000 5.7 50 18:38 21.04.2020
4521 Clouds 20 1010 40 10000 5.7 60 18:19 21.04.2020
4522 Clouds 20 1010 40 10000 5.7 60 17:56 21.04.2020
4523 Clouds 20 1010 37 10000 5.7 50 17:37 21.04.2020
4524 Clouds 20 1010 40 10000 6.7 70 17:18 21.04.2020
4525 Clouds 19 1010 39 10000 7.2 60 16:39 21.04.2020
4526 Clouds 19 1010 39 10000 7.2 60 16:19 21.04.2020
4527 Clouds 19 1010 39 10000 5.7 60 15:58 21.04.2020
4528 Clouds 19 1010 39 10000 5.7 60 15:39 21.04.2020
4529 Clouds 18 1010 45 10000 5.7 50 15:21 21.04.2020
4530 Clouds 18 1010 45 10000 5.7 50 14:58 21.04.2020
4531 Clouds 18 1011 42 10000 5.7 50 14:39 21.04.2020
4532 Clouds 17 1011 42 10000 6.2 50 14:21 21.04.2020
4533 Clouds 17 1011 39 10000 6.7 50 13:42 21.04.2020
4534 Clouds 17 1011 39 10000 6.7 50 13:42 21.04.2020
4535 Clouds 17 1011 39 10000 6.7 50 13:23 21.04.2020
4536 Clouds 16 1011 41 10000 6.2 50 12:58 21.04.2020
4537 Clouds 16 1011 38 10000 6.2 50 12:37 21.04.2020
4538 Clouds 15 1011 41 10000 6.2 50 12:18 21.04.2020
4539 Clouds 15 1011 41 10000 6.2 50 11:55 21.04.2020
4540 Clouds 15 1011 41 10000 6.2 50 11:55 21.04.2020
4541 Clouds 15 1010 44 10000 6.7 60 11:37 21.04.2020
4542 Clouds 15 1010 44 10000 6.7 60 11:18 21.04.2020
4543 Clouds 14 1010 41 10000 7.2 60 10:56 21.04.2020
4544 Clouds 14 1010 41 10000 6.7 50 10:38 21.04.2020
4545 Clouds 13 1010 43 10000 5.7 50 10:20 21.04.2020
4546 Clouds 13 1010 43 10000 5.7 40 09:37 21.04.2020
4547 Clear 12 1010 50 10000 3.1 30 09:19 21.04.2020
4548 Clear 12 1010 50 10000 3.1 30 08:57 21.04.2020
4549 Clear 11 1010 57 10000 2.1 360 08:39 21.04.2020
4550 Clear 11 1010 57 10000 2.6 350 08:19 21.04.2020
4551 Clear 10 1010 53 10000 2.6 350 07:44 21.04.2020
4552 Clear 10 1010 53 10000 2.6 350 07:22 21.04.2020
4553 Clear 11 1010 53 10000 3.1 10 06:49 21.04.2020
4554 Clear 11 1010 50 10000 3.1 10 06:20 21.04.2020
4555 Clear 12 1010 46 10000 3.1 20 05:49 21.04.2020
4556 Clear 12 1010 46 10000 2.6 10 04:21 21.04.2020
4557 Clear 13 1010 43 10000 5.7 40 03:44 21.04.2020
4558 Clouds 14 1010 41 10000 4.6 30 01:46 21.04.2020
4559 Clouds 14 1010 44 10000 4.6 30 01:25 21.04.2020
4560 Clouds 15 1010 41 10000 4.6 30 00:37 21.04.2020
4561 Clouds 16 1010 41 10000 4.1 40 23:45 20.04.2020
4562 Clouds 16 1010 41 10000 4.1 40 23:25 20.04.2020
4563 Clouds 17 1010 41 10000 5.1 40 22:58 20.04.2020
4564 Clouds 17 1010 39 10000 5.7 40 22:39 20.04.2020
4565 Clouds 17 1010 39 10000 5.7 50 22:21 20.04.2020
4566 Clouds 18 1010 39 10000 5.7 50 21:58 20.04.2020
4567 Clouds 18 1009 39 10000 5.7 50 21:39 20.04.2020
4568 Clouds 18 1009 39 10000 5.7 50 21:19 20.04.2020
4569 Clouds 19 1009 37 10000 6.7 50 20:58 20.04.2020
4570 Clouds 19 1009 39 10000 6.7 50 20:39 20.04.2020
4571 Clouds 19 1009 39 10000 6.7 50 20:19 20.04.2020
4572 Clouds 19 1009 39 10000 7.2 50 19:58 20.04.2020
4573 Clouds 20 1009 39 10000 7.2 50 19:58 20.04.2020
4574 Clouds 20 1008 40 10000 6.7 50 19:39 20.04.2020
4575 -273 0 0 0 0 0 19:39 20.04.2020
4576 Clouds 20 1009 37 10000 7.7 40 19:19 20.04.2020
4577 Clouds 21 1009 37 10000 7.7 40 18:54 20.04.2020
4578 Clouds 20 1009 42 10000 7.7 50 18:54 20.04.2020
4579 Clouds 20 1009 42 10000 7.7 50 18:36 20.04.2020
4580 Clouds 20 1009 42 10000 7.7 50 18:36 20.04.2020
4581 Clouds 21 1009 40 10000 7.7 50 18:18 20.04.2020
4582 Clouds 20 1009 45 10000 8.2 50 17:40 20.04.2020
4583 Clouds 21 1009 45 10000 8.2 50 17:22 20.04.2020
4584 Clouds 21 1009 45 10000 7.7 50 16:59 20.04.2020
4585 Clouds 21 1009 45 10000 7.2 60 16:40 20.04.2020
4586 Clouds 20 1009 43 10000 6.7 50 16:19 20.04.2020
4587 Clouds 20 1009 43 10000 6.7 50 15:55 20.04.2020
4588 Clouds 20 1010 45 10000 8.2 60 15:36 20.04.2020
4589 Clear 20 1010 45 10000 7.2 60 15:18 20.04.2020
4590 Clear 20 1010 45 10000 7.2 60 15:18 20.04.2020
4591 Clear 19 1010 45 10000 7.2 60 14:40 20.04.2020
4592 Clear 19 1010 45 10000 7.2 60 14:19 20.04.2020
4593 Clear 18 1010 48 10000 7.2 40 13:57 20.04.2020
4594 Clear 18 1011 45 10000 7.2 40 13:38 20.04.2020
4595 Clear 18 1011 45 10000 7.2 40 13:20 20.04.2020
4596 Clear 17 1011 51 10000 6.7 50 12:44 20.04.2020
4597 Clear 16 1011 48 10000 6.7 40 12:22 20.04.2020
4598 Clear 16 1011 48 10000 6.7 40 11:54 20.04.2020
4599 Clear 16 1011 51 10000 8.2 40 11:36 20.04.2020
4600 Clear 15 1011 51 10000 7.2 40 11:18 20.04.2020
4601 Clear 15 1011 51 10000 7.2 40 10:54 20.04.2020
4602 Clear 14 1012 54 10000 7.2 50 10:36 20.04.2020
4603 Clear 13 1012 54 10000 6.2 50 10:18 20.04.2020
4604 Clear 13 1012 62 10000 5.1 40 09:41 20.04.2020
4605 Clouds 13 1012 62 10000 5.1 40 09:23 20.04.2020
4606 Clouds 12 1012 71 10000 3.6 20 08:57 20.04.2020
4607 Clouds 12 1011 71 10000 5.1 40 08:39 20.04.2020
4608 Clouds 12 1012 71 10000 3.6 20 08:18 20.04.2020
4609 Clouds 11 1012 81 10000 3.1 10 07:42 20.04.2020
4610 Clouds 11 1012 81 10000 3.1 10 07:24 20.04.2020
4611 Clouds 11 1012 76 10000 2.6 10 06:38 20.04.2020
4612 Clouds 11 1012 81 10000 3.6 10 05:59 20.04.2020
4613 Mist 12 1012 87 5000 3.1 10 04:51 20.04.2020
4614 Mist 12 1013 81 5000 2.6 20 02:52 20.04.2020
4615 Mist 12 1013 81 5000 3.1 20 02:33 20.04.2020
4616 Mist 13 1013 81 5000 3.6 20 01:30 20.04.2020
4617 Mist 13 1013 81 5000 4.1 20 00:47 20.04.2020
4618 Clouds 13 1014 76 7000 3.6 10 00:22 20.04.2020
4619 Clouds 13 1014 76 7000 3.1 10 23:41 19.04.2020
4620 Clouds 13 1014 76 7000 3.1 10 23:22 19.04.2020
4621 Clouds 14 1014 76 8000 2.6 360 22:59 19.04.2020
4622 Clouds 14 1014 71 8000 3.1 360 22:39 19.04.2020
4623 Clouds 14 1014 71 8000 3.1 360 22:20 19.04.2020
4624 Clouds 15 1014 67 9000 4.6 360 21:44 19.04.2020
4625 Clouds 15 1014 67 9000 4.6 360 21:25 19.04.2020
4626 Clouds 16 1014 63 9000 5.1 10 20:59 19.04.2020
4627 Clouds 16 1013 67 9000 5.1 10 20:41 19.04.2020
4628 Clouds 17 1013 67 9000 5.1 10 20:20 19.04.2020
4629 Clouds 18 1013 63 10000 5.7 20 19:57 19.04.2020
4630 Clouds 18 1013 59 10000 4.6 20 19:39 19.04.2020
4631 Clouds 18 1013 59 10000 4.6 20 19:21 19.04.2020
4632 Clouds 19 1013 55 10000 6.2 20 18:58 19.04.2020
4633 Clouds 19 1013 55 10000 6.2 20 18:39 19.04.2020
4634 Clouds 19 1013 52 10000 5.1 10 18:19 19.04.2020
4635 Clouds 20 1013 52 10000 5.1 10 17:56 19.04.2020
4636 Clouds 20 1013 52 10000 5.1 10 17:56 19.04.2020
4637 Clouds 20 1013 52 10000 4.6 10 17:38 19.04.2020
4638 Clouds 20 1014 52 10000 5.1 10 17:20 19.04.2020
4639 Clouds 20 1014 52 10000 5.1 10 16:56 19.04.2020
4640 Clouds 20 1014 48 10000 5.1 20 16:36 19.04.2020
4641 Clouds 20 1014 48 10000 4.1 40 16:18 19.04.2020
4642 Clouds 20 1015 48 10000 3.6 0 15:42 19.04.2020
4643 Clouds 20 1015 48 10000 3.6 0 15:21 19.04.2020
4644 Clouds 19 1015 48 10000 4.1 20 14:54 19.04.2020
4645 Clouds 19 1015 48 10000 4.1 20 14:36 19.04.2020
4646 Clouds 19 1015 52 10000 3.1 30 14:18 19.04.2020
4647 Clouds 18 1016 52 10000 4.1 50 13:39 19.04.2020
4648 Clouds 18 1016 55 10000 4.6 50 13:19 19.04.2020
4649 Clouds 17 1016 55 10000 5.7 60 12:49 19.04.2020
4650 Clouds 17 1016 55 10000 5.7 60 12:25 19.04.2020
4651 Clouds 17 1016 55 10000 5.7 60 12:25 19.04.2020
4652 Clouds 16 1017 59 10000 4.1 20 11:56 19.04.2020
4653 Clouds 15 1017 62 10000 5.1 40 11:37 19.04.2020
4654 Clouds 15 1017 62 10000 5.7 40 11:19 19.04.2020
4655 Clouds 15 1017 62 10000 5.7 40 10:55 19.04.2020
4656 Clouds 14 1017 58 10000 5.1 20 10:37 19.04.2020
4657 Clouds 13 1017 62 10000 5.1 30 10:18 19.04.2020
4658 Clouds 13 1017 71 10000 4.6 20 09:45 19.04.2020
4659 Clouds 13 1017 71 10000 4.6 20 09:26 19.04.2020
4660 Mist 13 1017 87 5000 3.6 10 08:41 19.04.2020
4661 Mist 12 1017 87 5000 3.6 10 08:41 19.04.2020
4662 Mist 13 1017 87 5000 3.6 10 08:41 19.04.2020
4663 Mist 13 1017 87 5000 3.6 10 08:22 19.04.2020
4664 Mist 13 1017 81 5000 3.6 20 07:59 19.04.2020
4665 Mist 13 1016 93 3700 3.6 10 07:41 19.04.2020
4666 Mist 13 1016 87 4900 4.6 40 07:21 19.04.2020
4667 Mist 13 1016 93 4800 4.1 20 06:28 19.04.2020
4668 Mist 13 1016 93 4700 2.6 10 05:47 19.04.2020
4669 Mist 13 1017 93 4800 3.1 20 04:43 19.04.2020
4670 Mist 13 1017 93 3000 4.1 350 02:59 19.04.2020
4671 Clouds 14 1016 87 10000 3.1 360 02:21 19.04.2020
4672 Clouds 14 1016 87 10000 2.1 360 01:38 19.04.2020
4673 Clouds 14 1017 82 10000 1.5 360 00:48 19.04.2020
4674 Clouds 14 1017 82 10000 1.5 360 00:25 19.04.2020
4675 Clouds 14 1017 87 10000 1.5 320 23:47 18.04.2020
4676 Clouds 15 1017 87 10000 1.5 350 23:22 18.04.2020
4677 Clouds 15 1017 82 10000 1 350 22:59 18.04.2020
4678 Clouds 16 1017 82 10000 1.5 100 22:40 18.04.2020
4679 Clouds 16 1017 82 10000 1.5 100 22:21 18.04.2020
4680 Clouds 17 1016 82 10000 3.6 120 21:56 18.04.2020
4681 Clouds 17 1016 67 10000 2.1 90 21:37 18.04.2020
4682 Rain 17 1016 67 10000 2.1 90 21:19 18.04.2020
4683 Rain 19 1016 59 10000 3.1 10 20:42 18.04.2020
4684 Rain 19 1016 59 10000 3.1 10 20:22 18.04.2020
4685 Thunderstorm 20 1015 59 10000 6.2 30 19:59 18.04.2020
4686 Rain 20 1015 59 10000 5.1 50 19:38 18.04.2020
4687 Rain 20 1015 46 10000 3.1 330 19:19 18.04.2020
4688 Thunderstorm 21 1015 43 10000 5.1 330 18:38 18.04.2020
4689 Thunderstorm 21 1015 43 10000 5.1 330 18:38 18.04.2020
4690 Rain 21 1015 49 10000 5.1 310 18:20 18.04.2020
4691 Rain 22 1015 49 10000 5.1 310 17:55 18.04.2020
4692 Rain 21 1015 43 10000 4.6 290 17:36 18.04.2020
4693 Rain 21 1015 43 10000 4.6 290 17:18 18.04.2020
4694 Rain 23 1015 40 10000 2.6 230 16:42 18.04.2020
4695 Rain 22 1015 40 10000 2.6 230 16:22 18.04.2020
4696 Rain 23 1015 40 10000 3.1 210 15:40 18.04.2020
4697 Rain 23 1015 40 10000 3.1 210 15:22 18.04.2020
4698 Rain 23 1015 40 10000 3.6 200 14:54 18.04.2020
4699 Clear 22 1015 43 10000 3.6 210 14:36 18.04.2020
4700 Clear 22 1015 43 10000 3.6 210 14:18 18.04.2020
4701 Clouds 22 1015 46 10000 3.6 180 13:42 18.04.2020
4702 Clouds 21 1015 46 10000 3.6 180 13:20 18.04.2020
4703 Clouds 20 1016 52 10000 3.1 210 12:43 18.04.2020
4704 Clear 20 1016 60 10000 2.1 200 12:24 18.04.2020
4705 Clear 19 1016 60 10000 2.1 200 11:58 18.04.2020
4706 Clear 19 1015 63 10000 2.1 210 11:40 18.04.2020
4707 Clear 18 1015 67 10000 3.1 210 11:21 18.04.2020
4708 Clear 18 1015 67 10000 3.1 210 11:21 18.04.2020
4709 Clear 18 1015 63 10000 4.1 230 10:42 18.04.2020
4710 Clear 17 1015 63 10000 4.1 230 10:22 18.04.2020
4711 Clear 17 1015 72 10000 1.5 190 09:59 18.04.2020
4712 Clouds 17 1015 77 10000 1 0 09:40 18.04.2020
4713 Clouds 16 1015 87 10000 0.5 0 09:20 18.04.2020
4714 Clouds 15 1015 87 10000 2.91 215 08:43 18.04.2020
4715 Clouds 15 1015 87 10000 2.91 215 08:22 18.04.2020
4716 Clouds 14 1014 82 10000 1 0 08:22 18.04.2020
4717 Clouds 14 1014 82 10000 1 0 07:49 18.04.2020
4718 Rain 15 1014 82 10000 1.5 210 07:29 18.04.2020
4719 Clouds 15 1014 72 10000 2.1 190 06:49 18.04.2020
4720 Rain 15 1014 67 10000 4.1 190 05:49 18.04.2020
4721 Rain 15 1014 63 10000 5.1 200 04:56 18.04.2020
4722 Rain 16 1013 63 10000 6.2 220 04:31 18.04.2020
4723 Rain 17 1013 59 10000 5.7 220 03:43 18.04.2020
4724 Rain 17 1012 63 10000 3.1 190 02:42 18.04.2020
4725 Rain 17 1012 63 10000 3.1 190 02:21 18.04.2020
4726 Rain 17 1012 63 10000 3.1 190 02:21 18.04.2020
4727 Rain 17 1012 67 10000 2.1 200 01:45 18.04.2020
4728 Rain 17 1012 67 10000 1.5 130 01:27 18.04.2020
4729 Rain 17 1012 67 10000 2.1 20 00:38 18.04.2020
4730 Rain 17 1012 67 10000 1.5 10 00:18 18.04.2020
4731 Rain 17 1012 63 10000 1.5 340 23:41 17.04.2020
4732 Rain 17 1012 63 10000 1.5 340 23:20 17.04.2020
4733 Rain 17 1012 59 10000 0.5 360 23:00 17.04.2020
4734 Rain 17 1012 59 10000 0.5 360 22:59 17.04.2020
4735 Rain 18 1012 55 10000 2.95 213 22:40 17.04.2020
4736 Rain 18 1012 55 10000 2.95 213 22:21 17.04.2020
4737 Rain 19 1012 52 10000 2.95 213 21:58 17.04.2020
4738 Rain 20 1012 52 10000 2.1 170 21:40 17.04.2020
4739 Rain 21 1012 43 10000 5.7 180 21:20 17.04.2020
4740 Rain 21 1012 43 10000 5.7 180 20:56 17.04.2020
4741 Rain 21 1012 43 10000 5.7 180 20:56 17.04.2020
4742 Rain 22 1012 40 10000 3.6 180 20:37 17.04.2020
4743 Rain 22 1011 43 10000 2.6 200 20:18 17.04.2020
4744 Rain 22 1011 43 10000 2.6 200 19:55 17.04.2020
4745 Rain 23 1011 38 10000 4.6 170 19:37 17.04.2020
4746 Rain 24 1012 38 10000 5.1 160 19:18 17.04.2020
4747 Rain 23 1012 36 10000 3.6 200 18:40 17.04.2020
4748 Rain 24 1012 38 10000 3.6 240 18:20 17.04.2020
4749 Rain 24 1012 36 10000 4.1 180 17:38 17.04.2020
4750 Rain 24 1012 36 10000 4.1 180 17:20 17.04.2020
4751 Rain 24 1012 36 10000 3.6 210 16:59 17.04.2020
4752 Rain 23 1012 40 10000 4.1 190 16:41 17.04.2020
4753 Rain 24 1012 40 10000 4.1 190 16:21 17.04.2020
4754 Rain 23 1013 41 10000 4.6 200 15:39 17.04.2020
4755 Rain 23 1013 41 10000 4.6 200 15:21 17.04.2020
4756 Rain 23 1013 38 10000 3.6 150 14:54 17.04.2020
4757 Rain 23 1013 38 10000 4.6 160 14:36 17.04.2020
4758 Clouds 23 1013 40 10000 4.1 140 14:18 17.04.2020
4759 Clouds 23 1013 38 10000 4.1 110 13:40 17.04.2020
4760 Clouds 22 1013 38 10000 4.1 110 13:20 17.04.2020
4761 Clouds 21 1013 46 10000 5.1 120 12:48 17.04.2020
4762 Clouds 21 1013 46 10000 5.1 120 12:28 17.04.2020
4763 Clouds 20 1013 49 10000 3.1 110 11:59 17.04.2020
4764 Clouds 19 1013 49 10000 2.6 120 11:40 17.04.2020
4765 Clouds 18 1014 55 10000 1.5 130 11:19 17.04.2020
4766 Clouds 17 1014 59 10000 2.1 80 10:40 17.04.2020
4767 Clouds 17 1014 59 10000 2.1 80 10:20 17.04.2020
4768 Clouds 16 1014 67 10000 2.1 30 09:55 17.04.2020
4769 Rain 15 1014 76 10000 2.1 40 09:37 17.04.2020
4770 Clouds 14 1014 76 10000 2.1 30 09:18 17.04.2020
4771 Clouds 13 1014 76 10000 2.1 30 08:47 17.04.2020
4772 Clouds 13 1014 81 10000 2.1 30 08:27 17.04.2020
4773 Clouds 13 1014 81 10000 2.1 30 07:58 17.04.2020
4774 Clouds 12 1014 81 10000 1.5 0 07:39 17.04.2020
4775 Clouds 12 1014 81 10000 2.1 50 07:19 17.04.2020
4776 Clouds 12 1014 81 10000 2.1 20 06:44 17.04.2020
4777 Clouds 12 1014 81 9000 1.5 0 05:58 17.04.2020
4778 Rain 13 1015 76 10000 1.5 360 03:27 17.04.2020
4779 Rain 13 1015 76 10000 1.5 350 02:55 17.04.2020
4780 Rain 14 1015 71 10000 1.5 30 01:46 17.04.2020
4781 Rain 14 1015 72 10000 1.5 350 01:22 17.04.2020
4782 Rain 15 1015 63 10000 1.5 50 00:21 17.04.2020
4783 Rain 15 1015 59 10000 2.1 70 23:55 16.04.2020
4784 Rain 15 1015 59 10000 2.1 70 23:37 16.04.2020
4785 Rain 16 1015 59 10000 0.5 0 23:19 16.04.2020
4786 Rain 17 1015 55 10000 2.1 190 22:40 16.04.2020
4787 Rain 18 1014 55 10000 2.6 140 22:22 16.04.2020
4788 Rain 18 1014 45 10000 1.5 60 21:59 16.04.2020
4789 Rain 18 1014 45 10000 1.5 60 21:40 16.04.2020
4790 Rain 19 1014 49 10000 1.5 230 21:19 16.04.2020
4791 Rain 20 1014 49 10000 2.1 200 20:43 16.04.2020
4792 Rain 21 1014 38 10000 1 60 20:23 16.04.2020
4793 Rain 22 1014 38 10000 1 0 19:59 16.04.2020
4794 Rain 22 1014 38 10000 1 0 19:39 16.04.2020
4795 Rain 23 1014 38 10000 2.1 160 19:20 16.04.2020
4796 Rain 23 1014 36 10000 1 0 18:57 16.04.2020
4797 Clouds 23 1014 36 10000 1 0 18:38 16.04.2020
4798 Clouds 23 1014 36 10000 2.6 0 18:20 16.04.2020
4799 -273 0 0 0 0 0 17:45 16.04.2020
4800 Clouds 23 1015 36 10000 2.1 30 17:26 16.04.2020
4801 Clouds 23 1015 36 10000 2.1 30 17:00 16.04.2020
4802 Clouds 23 1015 36 10000 2.1 30 17:00 16.04.2020
4803 -273 0 0 0 0 0 16:59 16.04.2020
4804 Clouds 23 1015 40 10000 1.5 210 16:41 16.04.2020
4805 Clouds 23 1015 40 10000 4.6 180 16:19 16.04.2020
4806 Clouds 23 1015 40 10000 4.6 180 16:19 16.04.2020
4807 Clouds 23 1015 40 10000 2.6 180 15:42 16.04.2020
4808 Clouds 23 1015 40 10000 4.1 190 15:19 16.04.2020
4809 Clouds 22 1015 40 10000 4.1 190 14:58 16.04.2020
4810 Clouds 22 1015 43 10000 3.6 170 14:39 16.04.2020
4811 Clouds 22 1015 46 10000 4.1 170 14:19 16.04.2020
4812 Clouds 21 1015 46 10000 4.1 170 13:56 16.04.2020
4813 Clouds 21 1016 46 10000 3.6 180 13:36 16.04.2020
4814 Clouds 21 1016 46 10000 4.1 170 13:18 16.04.2020
4815 Clouds 20 1016 45 10000 4.6 170 12:56 16.04.2020
4816 Clouds 20 1016 45 10000 4.6 170 12:37 16.04.2020
4817 Clouds 19 1016 48 10000 2.1 160 12:19 16.04.2020
4818 Clouds 19 1016 48 10000 2.1 160 12:19 16.04.2020
4819 Clouds 18 1016 48 10000 4.1 180 11:55 16.04.2020
4820 Clouds 18 1016 48 10000 4.1 180 11:36 16.04.2020
4821 Clouds 17 1016 51 10000 5.1 190 11:18 16.04.2020
4822 Clouds 17 1016 51 10000 5.1 190 11:18 16.04.2020
4823 Clouds 16 1016 54 10000 2.6 180 10:40 16.04.2020
4824 Clouds 15 1016 58 10000 2.6 150 10:19 16.04.2020
4825 Clouds 13 1016 66 10000 1.5 120 09:59 16.04.2020
4826 Clouds 13 1016 66 10000 1.5 120 09:38 16.04.2020
4827 Clouds 11 1016 71 10000 1.5 140 09:19 16.04.2020
4828 Clouds 11 1016 71 10000 1.5 140 09:19 16.04.2020
4829 Clouds 10 1016 70 10000 1 80 08:43 16.04.2020
4830 Clouds 9 1016 66 10000 1 140 08:23 16.04.2020
4831 Clouds 9 1016 70 10000 1.5 130 07:46 16.04.2020
4832 Clouds 8 1015 70 10000 1.5 120 07:28 16.04.2020
4833 Clouds 9 1015 70 10000 1.5 110 06:58 16.04.2020
4834 Clouds 8 1015 70 10000 1.5 110 06:39 16.04.2020
4835 Clouds 8 1015 70 10000 1.5 50 06:21 16.04.2020
4836 Clouds 9 1015 65 10000 1.5 20 04:48 16.04.2020
4837 Clear 10 1016 53 10000 2.1 20 03:25 16.04.2020
4838 Clear 10 1016 57 10000 2.1 360 02:57 16.04.2020
4839 Clear 10 1016 61 10000 2.6 360 02:33 16.04.2020
4840 Clear 10 1017 53 10000 1.5 360 01:23 16.04.2020
4841 Clear 11 1017 53 10000 1.5 10 00:49 16.04.2020
4842 Clear 11 1017 53 10000 2.1 360 00:21 16.04.2020
4843 Clear 11 1017 46 10000 1 360 23:44 15.04.2020
4844 Clear 11 1017 43 10000 2.1 40 23:24 15.04.2020
4845 Clear 12 1017 43 10000 2.6 50 22:59 15.04.2020
4846 Clear 12 1017 43 10000 2.6 50 22:38 15.04.2020
4847 Clear 13 1017 43 10000 3.1 50 22:20 15.04.2020
4848 Clear 13 1017 41 10000 3.1 60 21:54 15.04.2020
4849 Clear 14 1017 41 10000 3.1 60 21:36 15.04.2020
4850 Clear 15 1017 38 10000 3.6 90 21:18 15.04.2020
4851 Clear 16 1017 56 10000 4.6 90 20:54 15.04.2020
4852 Clear 17 1017 56 10000 4.6 90 20:36 15.04.2020
4853 Clear 18 1017 27 10000 5.1 110 20:18 15.04.2020
4854 Clear 18 1017 25 10000 6.7 100 19:40 15.04.2020
4855 Clear 19 1017 56 10000 5.7 90 19:20 15.04.2020
4856 Clear 19 1017 25 10000 5.7 70 18:41 15.04.2020
4857 Clouds 19 1018 24 10000 4.6 90 18:23 15.04.2020
4858 Clouds 19 1018 24 10000 4.6 90 17:58 15.04.2020
4859 Clouds 19 1018 24 10000 4.6 90 17:39 15.04.2020
4860 Clouds 19 1018 25 10000 4.1 120 17:20 15.04.2020
4861 Clouds 19 1019 22 10000 5.7 90 16:56 15.04.2020
4862 Clouds 18 1019 22 10000 5.7 90 16:37 15.04.2020
4863 Clouds 18 1019 25 10000 5.1 70 16:19 15.04.2020
4864 Clouds 18 1019 25 10000 5.7 70 15:57 15.04.2020
4865 Clouds 18 1019 25 10000 5.7 70 15:38 15.04.2020
4866 Clear 17 1020 23 10000 5.7 80 15:19 15.04.2020
4867 Clear 17 1020 27 10000 6.7 60 14:57 15.04.2020
4868 Clear 16 1020 27 10000 6.7 60 14:38 15.04.2020
4869 Clear 16 1020 29 10000 5.1 50 14:20 15.04.2020
4870 Clear 16 1021 33 10000 5.7 50 13:57 15.04.2020
4871 Clear 15 1021 33 10000 5.7 50 13:38 15.04.2020
4872 Clear 15 1021 35 10000 5.1 60 13:19 15.04.2020
4873 Clear 14 1022 39 10000 5.7 60 12:42 15.04.2020
4874 Clear 12 1022 46 10000 5.7 60 12:23 15.04.2020
4875 Clear 12 1022 46 10000 5.7 60 12:23 15.04.2020
4876 Clear 12 1022 43 10000 5.1 80 11:59 15.04.2020
4877 Clear 12 1022 43 10000 5.1 80 11:41 15.04.2020
4878 Clear 11 1023 40 10000 5.1 80 11:23 15.04.2020
4879 Clear 10 1023 46 10000 5.7 70 10:56 15.04.2020
4880 Clear 10 1023 46 10000 5.7 70 10:36 15.04.2020
4881 Clear 9 1023 52 10000 4.1 50 10:18 15.04.2020
4882 Clear 8 1023 56 10000 3.1 30 09:54 15.04.2020
4883 Clear 8 1023 56 10000 3.1 30 09:36 15.04.2020
4884 Clear 7 1023 65 10000 2.6 10 09:18 15.04.2020
4885 Clear 5 1023 69 10000 2.1 10 08:40 15.04.2020
4886 Clear 4 1023 64 10000 2.6 360 08:19 15.04.2020
4887 Clear 4 1022 69 10000 3.6 360 07:54 15.04.2020
4888 Clear 4 1022 69 10000 3.1 360 07:32 15.04.2020
4889 Clear 4 1022 69 10000 2.6 350 06:34 15.04.2020
4890 Clear 4 1022 69 10000 3.1 20 06:34 15.04.2020
4891 Clear 4 1022 69 10000 2.1 350 05:51 15.04.2020
4892 Clear 5 1023 65 10000 1 0 05:20 15.04.2020
4893 Clear 5 1022 65 10000 3.1 30 04:44 15.04.2020
4894 Clear 6 1022 65 10000 3.1 30 03:40 15.04.2020
4895 Clear 6 1023 60 10000 4.6 40 03:18 15.04.2020
4896 Clear 6 1023 60 10000 4.1 40 02:33 15.04.2020
4897 Clear 7 1023 56 10000 4.1 40 01:44 15.04.2020
4898 Clear 7 1024 56 10000 5.1 30 01:20 15.04.2020
4899 Clear 7 1024 52 10000 4.6 30 00:37 15.04.2020
4900 Clear 7 1024 52 10000 4.1 20 00:19 15.04.2020
4901 Clear 8 1024 61 10000 4.1 20 23:55 14.04.2020
4902 Clear 8 1024 61 10000 4.1 20 23:36 14.04.2020
4903 Clear 8 1024 49 10000 3.6 20 23:18 14.04.2020
4904 Clear 8 1024 49 10000 3.6 20 22:55 14.04.2020
4905 Clear 9 1024 46 10000 3.1 20 22:37 14.04.2020
4906 Clear 9 1024 46 10000 3.1 20 22:19 14.04.2020
4907 Clear 9 1024 46 10000 3.6 30 21:55 14.04.2020
4908 Clear 9 1024 46 10000 3.6 30 21:37 14.04.2020
4909 Clear 10 1024 40 10000 4.6 40 21:18 14.04.2020
4910 Clear 11 1024 37 10000 5.1 40 20:41 14.04.2020
4911 Clear 12 1024 40 10000 5.7 40 20:22 14.04.2020
4912 Clear 12 1024 37 10000 5.7 40 19:58 14.04.2020
4913 Clear 12 1024 37 10000 5.7 40 19:40 14.04.2020
4914 Clear 12 1024 35 10000 5.7 50 19:21 14.04.2020
4915 Clear 13 1024 37 10000 6.2 50 18:57 14.04.2020
4916 Clear 13 1024 37 10000 6.2 40 18:38 14.04.2020
4917 Clear 13 1024 37 10000 6.2 40 18:19 14.04.2020
4918 Clear 13 1024 37 10000 5.7 50 17:56 14.04.2020
4919 Clear 13 1024 37 10000 5.7 50 17:37 14.04.2020
4920 Clear 13 1024 37 10000 5.7 50 17:37 14.04.2020
4921 Clear 13 1024 35 10000 5.1 30 17:19 14.04.2020
4922 Clear 13 1025 35 10000 5.7 40 16:42 14.04.2020
4923 Clear 13 1025 40 10000 5.7 40 16:24 14.04.2020
4924 Clear 12 1025 37 10000 6.7 60 15:58 14.04.2020
4925 Clear 12 1025 37 10000 6.7 60 15:39 14.04.2020
4926 Clear 12 1025 40 10000 5.1 60 15:21 14.04.2020
4927 Clear 11 1025 40 10000 6.2 50 14:58 14.04.2020
4928 Clear 11 1025 40 10000 6.2 50 14:40 14.04.2020
4929 Clear 11 1026 39 10000 7.2 50 14:21 14.04.2020
4930 Clear 11 1026 39 10000 7.2 60 13:56 14.04.2020
4931 Clear 11 1026 39 10000 7.2 60 13:38 14.04.2020
4932 Clear 10 1026 39 10000 7.7 60 13:20 14.04.2020
4933 Clear 9 1026 45 10000 7.7 50 12:41 14.04.2020
4934 Clear 9 1026 45 10000 7.7 60 12:21 14.04.2020
4935 Clear 9 1026 45 10000 7.7 60 12:21 14.04.2020
4936 Clear 8 1026 45 10000 8.2 50 11:55 14.04.2020
4937 Clear 8 1026 45 10000 8.2 50 11:37 14.04.2020
4938 Clear 8 1026 48 10000 7.7 60 11:18 14.04.2020
4939 Clear 7 1026 48 10000 8.2 60 10:44 14.04.2020
4940 Clear 6 1026 60 10000 6.2 50 10:24 14.04.2020
4941 Clear 6 1027 60 10000 5.7 30 09:55 14.04.2020
4942 Clear 6 1027 60 10000 5.7 30 09:37 14.04.2020
4943 Clear 3 1026 74 0 5.74 51 09:19 14.04.2020
4944 Clear 4 1026 69 10000 3.6 20 08:41 14.04.2020
4945 Clear 3 1026 64 10000 3.1 10 08:22 14.04.2020
4946 Clear 3 1026 69 10000 3.1 30 07:54 14.04.2020
4947 Clear 3 1026 64 10000 3.6 30 07:30 14.04.2020
4948 Clear 3 1026 74 0 5.74 51 06:50 14.04.2020
4949 Clear 3 1025 64 10000 4.1 20 06:24 14.04.2020
4950 Clear 5 1024 60 10000 5.7 20 03:52 14.04.2020
4951 Clear 5 1024 56 10000 6.7 20 02:56 14.04.2020
4952 Clear 6 1024 52 10000 4.1 20 01:49 14.04.2020
4953 Clear 7 1024 56 10000 6.2 20 01:24 14.04.2020
4954 Clear 8 1024 52 10000 6.2 20 00:39 14.04.2020
4955 Clear 8 1023 49 10000 6.2 20 00:19 14.04.2020
4956 Clear 8 1023 49 10000 6.2 20 23:45 13.04.2020
4957 Clear 9 1023 49 10000 5.1 20 23:26 13.04.2020
4958 Clear 9 1022 56 10000 4.6 20 22:59 13.04.2020
4959 Clear 9 1022 56 10000 4.6 20 22:41 13.04.2020
4960 Clear 10 1022 46 10000 4.6 20 22:22 13.04.2020
4961 Clear 10 1021 56 10000 4.1 30 21:56 13.04.2020
4962 Clear 10 1021 54 10000 4.1 30 21:37 13.04.2020
4963 Clear 11 1020 52 10000 6.7 30 21:19 13.04.2020
4964 Clear 11 1020 52 10000 6.7 20 20:55 13.04.2020
4965 Clear 11 1020 52 10000 6.7 20 20:37 13.04.2020
4966 Clear 12 1020 43 10000 7.7 20 20:18 13.04.2020
4967 Clear 13 1019 47 10000 7.7 20 19:39 13.04.2020
4968 Clear 13 1019 47 10000 7.7 20 19:20 13.04.2020
4969 Clear 13 1019 47 10000 8.7 10 19:00 13.04.2020
4970 Clear 14 1018 50 10000 9.8 10 18:39 13.04.2020
4971 Clear 14 1018 50 10000 9.8 10 18:20 13.04.2020
4972 Clear 15 1018 47 10000 8.7 20 17:59 13.04.2020
4973 Clear 15 1018 47 10000 8.7 20 17:39 13.04.2020
4974 Clear 15 1018 51 10000 9.3 10 17:20 13.04.2020
4975 Clear 15 1018 51 10000 9.3 10 17:20 13.04.2020
4976 Clear 15 1018 51 10000 9.3 10 17:20 13.04.2020
4977 Clear 16 1018 51 10000 9.3 10 16:59 13.04.2020
4978 Clear 16 1018 51 10000 9.3 20 16:41 13.04.2020
4979 Clear 16 1018 51 10000 8.7 10 16:21 13.04.2020
4980 Clear 16 1018 55 9000 8.2 10 15:59 13.04.2020
4981 Clear 16 1018 55 9000 8.2 10 15:41 13.04.2020
4982 Clouds 16 1018 51 9000 8.7 20 15:23 13.04.2020
4983 Clouds 16 1018 55 8000 8.7 20 14:56 13.04.2020
4984 Clouds 16 1018 55 8000 8.7 20 14:38 13.04.2020
4985 Clouds 16 1018 55 7000 7.7 20 14:20 13.04.2020
4986 Clouds 16 1018 58 7000 6.7 10 13:55 13.04.2020
4987 Clouds 16 1018 58 7000 6.7 10 13:55 13.04.2020
4988 Clouds 16 1018 58 7000 6.7 10 13:37 13.04.2020
4989 Clouds 15 1018 62 7000 7.7 360 13:18 13.04.2020
4990 Clouds 15 1017 62 7000 7.2 10 12:56 13.04.2020
4991 Clouds 15 1017 62 7000 7.2 10 12:38 13.04.2020
4992 Clouds 14 1017 71 7000 7.2 20 12:19 13.04.2020
4993 Haze 14 1017 67 5000 6.7 20 11:43 13.04.2020
4994 Mist 14 1017 71 5000 7.7 10 11:19 13.04.2020
4995 Mist 14 1017 71 5000 7.7 10 11:19 13.04.2020
4996 Mist 13 1016 76 4000 6.2 10 10:56 13.04.2020
4997 Mist 13 1016 76 4000 6.2 10 10:38 13.04.2020
4998 Mist 13 1016 76 3400 7.2 10 10:20 13.04.2020
4999 Mist 12 1016 71 5000 5.7 10 09:55 13.04.2020
5000 Mist 12 1016 71 5000 5.7 10 09:36 13.04.2020
5001 Rain 12 1015 71 10000 5.1 10 09:18 13.04.2020
5002 Rain 12 1014 76 10000 5.1 360 08:43 13.04.2020
5003 Rain 11 1013 76 10000 4.6 360 08:25 13.04.2020
5004 Rain 11 1013 76 10000 2.6 360 07:42 13.04.2020
5005 Rain 11 1013 76 10000 3.1 360 07:24 13.04.2020
5006 Rain 10 1013 76 10000 3.1 350 06:47 13.04.2020
5007 Clouds 11 1012 71 10000 2.6 360 06:26 13.04.2020
5008 Clouds 11 1012 71 10000 0.5 0 05:40 13.04.2020
5009 Clouds 12 1012 66 10000 4.1 360 05:18 13.04.2020
5010 Clouds 12 1012 71 10000 4.1 20 04:28 13.04.2020
5011 Clouds 13 1012 76 10000 2.1 360 03:50 13.04.2020
5012 Rain 13 1012 76 10000 2.6 360 03:31 13.04.2020
5013 Rain 13 1013 71 10000 1.5 0 02:39 13.04.2020
5014 Rain 13 1013 66 10000 1.5 360 01:45 13.04.2020
5015 Rain 14 1012 67 10000 2.6 360 01:27 13.04.2020
5016 Rain 14 1012 67 10000 2.1 20 00:44 13.04.2020
5017 Rain 15 1012 62 10000 2.1 360 00:23 13.04.2020
5018 Rain 15 1012 59 10000 2.6 350 23:55 12.04.2020
5019 Rain 15 1012 59 10000 2.6 350 23:36 12.04.2020
5020 Rain 15 1012 59 10000 2.6 330 23:18 12.04.2020
5021 Rain 15 1012 55 10000 4.1 90 22:39 12.04.2020
5022 Rain 16 1012 58 10000 3.1 90 22:19 12.04.2020
5023 Rain 16 1011 59 10000 2.6 80 21:59 12.04.2020
5024 Rain 16 1011 59 10000 2.6 80 21:37 12.04.2020
5025 Rain 17 1011 55 10000 2.6 70 21:18 12.04.2020
5026 Rain 18 1011 55 10000 2.1 40 20:42 12.04.2020
5027 Rain 20 1011 45 10000 1.5 0 20:23 12.04.2020
5028 Rain 21 1012 40 10000 1.5 360 19:57 12.04.2020
5029 Rain 21 1012 40 10000 1.5 360 19:39 12.04.2020
5030 Rain 21 1012 43 10000 2.6 310 19:19 12.04.2020
5031 Rain 21 1012 43 10000 3.1 360 18:56 12.04.2020
5032 Rain 21 1012 43 10000 3.1 360 18:37 12.04.2020
5033 Clouds 21 1013 55 10000 3.6 70 18:19 12.04.2020
5034 Clouds 21 1013 45 10000 6.2 320 17:41 12.04.2020
5035 Drizzle 21 1013 40 10000 4.1 260 17:23 12.04.2020
5036 Drizzle 21 1013 40 10000 4.1 260 16:59 12.04.2020
5037 Rain 22 1014 40 10000 2.1 0 16:40 12.04.2020
5038 Clouds 22 1013 35 10000 6.2 270 16:20 12.04.2020
5039 Clouds 23 1014 28 10000 4.1 240 15:50 12.04.2020
5040 Clouds 24 1014 28 10000 4.1 240 15:31 12.04.2020
5041 Clouds 24 1014 27 10000 4.1 160 14:57 12.04.2020
5042 Clouds 24 1014 27 10000 4.1 160 14:39 12.04.2020
5043 Clouds 24 1014 29 10000 4.6 170 14:20 12.04.2020
5044 Clouds 24 1015 29 10000 3.1 170 13:55 12.04.2020
5045 Clouds 23 1015 31 10000 2.6 150 13:36 12.04.2020
5046 Clouds 23 1015 31 10000 2.6 150 13:18 12.04.2020
5047 Clouds 22 1016 37 10000 3.6 130 12:45 12.04.2020
5048 Clouds 21 1016 40 10000 3.1 120 12:21 12.04.2020
5049 Clouds 21 1016 40 10000 2.1 90 11:57 12.04.2020
5050 Clouds 20 1016 40 10000 2.1 90 11:37 12.04.2020
5051 Clouds 19 1017 40 10000 2.6 100 11:18 12.04.2020
5052 Clouds 18 1017 48 10000 1.5 0 10:55 12.04.2020
5053 Clouds 17 1017 48 10000 1.5 0 10:37 12.04.2020
5054 Clouds 17 1017 55 10000 0.5 0 10:18 12.04.2020
5055 Clouds 16 1018 58 10000 2.1 130 09:55 12.04.2020
5056 Clouds 14 1018 58 10000 2.1 130 09:37 12.04.2020
5057 Clouds 14 1018 76 10000 1 0 09:19 12.04.2020
5058 Clouds 12 1018 71 10000 0.5 0 08:47 12.04.2020
5059 Clouds 11 1018 71 10000 2.6 10 08:28 12.04.2020
5060 Clouds 11 1018 71 10000 2.1 350 07:46 12.04.2020
5061 Clouds 11 1018 76 10000 1.5 360 07:19 12.04.2020
5062 Clouds 11 1018 76 10000 1.5 20 06:42 12.04.2020
5063 Clouds 12 1018 71 10000 1 80 06:22 12.04.2020
5064 Clouds 12 1018 76 10000 1.5 20 05:42 12.04.2020
5065 Clouds 13 1019 71 10000 0.5 40 04:25 12.04.2020
5066 Clouds 15 1020 66 10000 1 0 03:29 12.04.2020
5067 Clouds 14 1020 62 10000 2.1 350 02:47 12.04.2020
5068 Clouds 15 1020 62 10000 1 30 02:27 12.04.2020
5069 Clouds 16 1020 62 10000 1 10 01:22 12.04.2020
5070 Clouds 16 1020 54 10000 1.5 120 00:43 12.04.2020
5071 Clouds 16 1020 51 10000 1 10 00:21 12.04.2020
5072 Clouds 16 1020 51 10000 1 10 00:21 12.04.2020
5073 Clouds 17 1020 48 10000 1 0 23:47 11.04.2020
5074 Clouds 17 1020 48 10000 1 0 23:47 11.04.2020
5075 Clouds 17 1020 45 10000 2.1 360 23:26 11.04.2020
5076 Clouds 17 1020 45 10000 2.1 360 22:59 11.04.2020
5077 Clouds 17 1020 45 10000 2.1 360 22:37 11.04.2020
5078 Clouds 18 1020 42 10000 2.1 20 22:18 11.04.2020
5079 Clouds 19 1020 40 10000 2.1 10 21:55 11.04.2020
5080 Clouds 19 1020 40 10000 2.1 10 21:36 11.04.2020
5081 Clouds 20 1020 35 10000 1.5 30 21:18 11.04.2020
5082 Clouds 21 1020 33 10000 1 10 20:55 11.04.2020
5083 Clouds 21 1020 33 10000 1 10 20:37 11.04.2020
5084 Clouds 22 1020 27 10000 1.5 50 20:19 11.04.2020
5085 Clouds 22 1020 27 10000 1.5 50 20:19 11.04.2020
5086 Clouds 23 1020 27 10000 1.5 50 19:56 11.04.2020
5087 Clouds 23 1020 31 10000 2.1 30 19:38 11.04.2020
5088 Clouds 23 1020 31 10000 2.1 30 19:38 11.04.2020
5089 Clouds 24 1020 25 10000 2.6 20 19:18 11.04.2020
5090 Clouds 24 1020 25 10000 1 0 18:55 11.04.2020
5091 Clouds 24 1020 23 10000 1 0 18:37 11.04.2020
5092 Clouds 24 1020 23 10000 1 0 18:18 11.04.2020
5093 Clouds 25 1020 23 10000 1 0 17:57 11.04.2020
5094 Clouds 25 1020 23 10000 1 0 17:37 11.04.2020
5095 Clouds 25 1021 25 10000 2.1 130 17:19 11.04.2020
5096 Clouds 25 1021 25 10000 2.6 170 16:42 11.04.2020
5097 Clouds 25 1021 27 10000 2.6 10 16:21 11.04.2020
5098 Clouds 24 1021 27 10000 3.1 60 15:42 11.04.2020
5099 Clouds 24 1021 29 10000 3.1 50 15:22 11.04.2020
5100 Clouds 24 1021 29 10000 3.1 50 14:59 11.04.2020
5101 Clouds 24 1022 35 10000 2.1 30 14:40 11.04.2020
5102 Clouds 24 1022 43 10000 1 0 14:22 11.04.2020
5103 Clouds 23 1022 46 10000 1 0 13:55 11.04.2020
5104 Clouds 22 1022 49 10000 1 0 13:36 11.04.2020
5105 Clouds 22 1022 49 10000 1 0 13:18 11.04.2020
5106 Clouds 21 1022 52 10000 1 0 12:39 11.04.2020
5107 Clouds 19 1022 55 10000 1.5 0 12:18 11.04.2020
5108 Clouds 19 1022 59 10000 1 0 11:55 11.04.2020
5109 Clouds 18 1022 59 10000 1 0 11:37 11.04.2020
5110 Clouds 18 1022 63 10000 1.5 0 11:18 11.04.2020
5111 Clouds 16 1022 62 10000 1.5 50 10:42 11.04.2020
5112 Clouds 16 1022 62 10000 1.5 50 10:42 11.04.2020
5113 Clouds 15 1022 62 10000 1.5 0 10:22 11.04.2020
5114 Clouds 15 1022 67 10000 1.5 0 09:58 11.04.2020
5115 Clouds 14 1022 67 10000 1.5 0 09:39 11.04.2020
5116 Clouds 13 1022 66 10000 0.5 0 09:20 11.04.2020
5117 Clouds 13 1022 71 10000 1.5 360 08:46 11.04.2020
5118 Clouds 12 1022 71 10000 2.1 360 08:27 11.04.2020
5119 Clouds 12 1021 71 10000 2.1 360 07:50 11.04.2020
5120 Clouds 12 1021 76 10000 0.5 10 07:28 11.04.2020
5121 -273 0 0 0 0 0 06:49 11.04.2020
5122 Clouds 12 1022 71 10000 1.5 360 06:18 11.04.2020
5123 Clouds 12 1022 66 10000 2.1 350 05:52 11.04.2020
5124 Clouds 13 1022 71 10000 2.1 350 03:40 11.04.2020
5125 Clouds 14 1022 58 10000 1.5 0 01:59 11.04.2020
5126 Clouds 15 1022 55 10000 2.1 30 01:24 11.04.2020
5127 Clouds 16 1022 51 10000 3.1 20 00:44 11.04.2020
5128 Clouds 16 1022 55 10000 2.6 40 00:20 11.04.2020
5129 Clouds 16 1022 55 10000 2.6 40 00:20 11.04.2020
5130 Clouds 17 1022 48 10000 3.6 20 23:58 10.04.2020
5131 Clouds 17 1022 48 10000 3.6 20 23:39 10.04.2020
5132 Clouds 17 1022 48 10000 3.1 30 23:19 10.04.2020
5133 Clouds 17 1021 51 10000 4.1 50 22:44 10.04.2020
5134 Clouds 18 1021 51 10000 2.6 50 22:22 10.04.2020
5135 Clouds 18 1021 45 10000 2.6 40 21:59 10.04.2020
5136 Clouds 18 1021 45 10000 2.6 40 21:41 10.04.2020
5137 Clouds 19 1021 42 10000 3.1 50 21:20 10.04.2020
5138 Clouds 21 1021 40 10000 3.6 50 20:55 10.04.2020
5139 Clouds 21 1021 40 10000 3.6 50 20:37 10.04.2020
5140 Clouds 22 1021 37 10000 4.1 50 20:18 10.04.2020
5141 Clouds 23 1020 35 10000 4.1 60 19:54 10.04.2020
5142 Clouds 23 1020 35 10000 4.1 60 19:36 10.04.2020
5143 Clouds 24 1020 29 10000 3.1 80 19:18 10.04.2020
5144 Clouds 24 1020 31 10000 3.6 50 18:54 10.04.2020
5145 Clouds 24 1020 31 10000 3.6 50 18:36 10.04.2020
5146 Clouds 25 1021 29 10000 4.6 40 18:18 10.04.2020
5147 Clouds 25 1021 29 10000 4.1 40 17:55 10.04.2020
5148 Clouds 25 1021 29 10000 4.1 40 17:37 10.04.2020
5149 Clouds 25 1021 31 10000 4.6 60 17:18 10.04.2020
5150 Clouds 25 1021 31 10000 4.6 60 17:18 10.04.2020
5151 Clouds 25 1021 33 10000 5.1 60 16:41 10.04.2020
5152 Clouds 25 1022 31 10000 3.6 80 16:22 10.04.2020
5153 Clouds 25 1022 27 10000 4.1 40 15:58 10.04.2020
5154 Clouds 25 1022 27 10000 4.1 40 15:58 10.04.2020
5155 Clouds 25 1022 27 10000 4.1 40 15:38 10.04.2020
5156 Clear 24 1022 33 10000 3.1 30 15:20 10.04.2020
5157 Clear 24 1023 35 10000 3.1 60 14:58 10.04.2020
5158 Clear 24 1023 35 10000 3.1 60 14:39 10.04.2020
5159 Clear 23 1023 38 10000 2.6 50 14:20 10.04.2020
5160 Clear 23 1023 40 10000 2.1 60 13:45 10.04.2020
5161 Clear 22 1023 46 10000 1.5 30 13:22 10.04.2020
5162 Clear 21 1024 49 10000 2.6 60 12:55 10.04.2020
5163 Clear 21 1024 49 10000 2.6 60 12:37 10.04.2020
5164 Clear 20 1024 55 10000 2.1 20 12:19 10.04.2020
5165 Clear 19 1024 55 10000 2.1 360 11:42 10.04.2020
5166 Clear 18 1024 59 10000 2.1 30 11:24 10.04.2020
5167 Clear 17 1024 63 10000 1.5 10 10:57 10.04.2020
5168 Clear 16 1024 63 10000 1.5 10 10:38 10.04.2020
5169 Clear 16 1023 67 10000 2.1 10 10:19 10.04.2020
5170 Clear 14 1023 71 10000 2.6 360 09:43 10.04.2020
5171 Clear 14 1023 71 10000 2.6 360 09:43 10.04.2020
5172 Clear 14 1023 71 10000 2.6 360 09:43 10.04.2020
5173 Clear 12 1023 76 9000 1.5 360 09:22 10.04.2020
5174 Clear 11 1023 81 9000 2.1 360 08:50 10.04.2020
5175 Clear 10 1023 81 10000 1.5 360 08:27 10.04.2020
5176 Clear 10 1023 76 10000 1.5 10 07:57 10.04.2020
5177 Clear 10 1023 76 10000 1.5 10 07:39 10.04.2020
5178 Clear 10 1023 76 10000 1.5 350 07:20 10.04.2020
5179 Clear 11 1023 66 10000 1.5 350 06:38 10.04.2020
5180 Clear 11 1023 71 10000 2.1 350 06:19 10.04.2020
5181 Clear 12 1023 71 10000 2.6 350 05:30 10.04.2020
5182 Clear 12 1023 62 10000 2.6 360 04:55 10.04.2020
5183 Clear 13 1023 62 10000 2.1 340 03:36 10.04.2020
5184 Clouds 14 1023 58 10000 2.1 20 02:52 10.04.2020
5185 Clouds 14 1023 58 10000 2.1 20 02:34 10.04.2020
5186 Clouds 14 1023 54 10000 1 0 01:50 10.04.2020
5187 Clouds 15 1023 54 10000 2.1 30 01:28 10.04.2020
5188 Clouds 15 1023 51 10000 2.6 30 00:47 10.04.2020
5189 Clouds 16 1023 45 10000 3.6 20 00:22 10.04.2020
5190 Clouds 16 1023 48 10000 2.1 10 23:44 09.04.2020
5191 Clouds 17 1023 42 10000 2.1 20 23:25 09.04.2020
5192 Clouds 17 1022 39 10000 2.6 10 22:59 09.04.2020
5193 Clouds 17 1022 39 10000 2.6 10 22:40 09.04.2020
5194 Clouds 18 1022 39 10000 2.6 10 22:22 09.04.2020
5195 Clouds 19 1022 34 10000 2.6 20 21:43 09.04.2020
5196 Clouds 19 1022 39 10000 3.1 40 21:25 09.04.2020
5197 Clouds 21 1022 37 10000 3.6 50 20:56 09.04.2020
5198 Clouds 22 1022 37 10000 3.6 50 20:38 09.04.2020
5199 Clouds 22 1022 35 10000 3.1 50 20:19 09.04.2020
5200 Clouds 23 1021 27 10000 2.6 50 19:40 09.04.2020
5201 Clouds 24 1021 31 10000 4.1 50 19:22 09.04.2020
5202 Clouds 24 1021 29 10000 3.6 50 18:58 09.04.2020
5203 Clouds 24 1021 29 10000 3.6 50 18:40 09.04.2020
5204 Clouds 24 1022 25 10000 4.6 70 18:18 09.04.2020
5205 Clouds 24 1022 25 10000 4.6 70 18:18 09.04.2020
5206 Clouds 25 1022 22 10000 3.6 20 17:39 09.04.2020
5207 Clouds 25 1022 25 10000 3.1 30 17:21 09.04.2020
5208 Clouds 25 1022 25 10000 2.6 0 16:41 09.04.2020
5209 Clouds 25 1022 22 10000 3.1 80 16:20 09.04.2020
5210 Clouds 25 1022 25 10000 3.1 50 15:58 09.04.2020
5211 Clouds 25 1022 25 10000 3.1 50 15:39 09.04.2020
5212 Clear 25 1023 27 10000 3.6 40 15:21 09.04.2020
5213 Clear 24 1023 27 10000 3.6 40 14:59 09.04.2020
5214 Clear 24 1023 27 10000 1.5 80 14:39 09.04.2020
5215 Clear 24 1023 27 10000 2.1 0 14:20 09.04.2020
5216 Clear 24 1023 29 10000 2.1 130 13:42 09.04.2020
5217 Clear 23 1023 31 10000 2.1 90 13:24 09.04.2020
5218 Clear 22 1024 33 10000 1.5 0 12:59 09.04.2020
5219 Clear 21 1024 33 10000 1.5 0 12:39 09.04.2020
5220 Clear 20 1024 45 10000 2.1 40 12:21 09.04.2020
5221 Clear 20 1024 42 10000 1.5 0 11:56 09.04.2020
5222 Clear 19 1024 42 10000 1.5 0 11:37 09.04.2020
5223 Clear 18 1023 51 10000 1 0 11:19 09.04.2020
5224 Clear 17 1023 58 10000 1.5 0 10:54 09.04.2020
5225 Clear 17 1023 58 10000 1.5 0 10:36 09.04.2020
5226 Clear 15 1023 62 10000 1.5 40 10:18 09.04.2020
5227 Clear 13 1023 66 10000 1 0 09:40 09.04.2020
5228 Clear 12 1023 76 10000 1.5 10 09:21 09.04.2020
5229 Clear 10 1023 81 10000 1 20 08:58 09.04.2020
5230 Clear 10 1023 81 10000 1 20 08:39 09.04.2020
5231 Clear 9 1022 81 10000 1.5 10 08:21 09.04.2020
5232 Clear 9 1022 76 10000 1.5 20 07:46 09.04.2020
5233 Clear 9 1022 76 10000 1.5 20 07:21 09.04.2020
5234 Clear 10 1022 81 10000 1.5 10 06:48 09.04.2020
5235 Clear 10 1022 76 10000 2.1 350 05:49 09.04.2020
5236 Clear 10 1022 76 10000 2.1 20 05:26 09.04.2020
5237 Clouds 12 1022 76 10000 0.5 50 02:36 09.04.2020
5238 Clouds 13 1022 66 10000 1 0 01:57 09.04.2020
5239 Clouds 13 1022 66 10000 1.5 340 01:37 09.04.2020
5240 Clouds 13 1022 66 10000 3.1 350 01:19 09.04.2020
5241 Clouds 14 1022 62 10000 1 0 00:38 09.04.2020
5242 Clouds 14 1022 62 10000 1 0 00:18 09.04.2020
5243 Clouds 14 1022 62 10000 1.5 350 23:42 08.04.2020
5244 Clouds 15 1022 55 10000 1.5 350 23:23 08.04.2020
5245 Clouds 15 1022 45 10000 1 20 22:56 08.04.2020
5246 Clouds 16 1022 45 10000 2.1 30 22:38 08.04.2020
5247 Clouds 16 1022 45 10000 2.1 30 22:19 08.04.2020
5248 Clouds 17 1022 34 10000 0.5 190 21:55 08.04.2020
5249 Clouds 18 1021 32 10000 1.5 180 21:37 08.04.2020
5250 Rain 18 1021 32 10000 1.5 180 21:19 08.04.2020
5251 Rain 21 1021 30 10000 2.1 160 20:41 08.04.2020
5252 -273 0 0 0 0 0 20:22 08.04.2020
5253 -273 0 0 0 0 0 19:59 08.04.2020
5254 Rain 23 1021 27 10000 2.1 150 19:41 08.04.2020
5255 Rain 23 1021 27 10000 2.1 150 19:21 08.04.2020
5256 Rain 23 1021 25 10000 2.6 190 18:55 08.04.2020
5257 Rain 24 1021 25 10000 3.1 150 18:37 08.04.2020
5258 Clouds 24 1021 25 10000 3.1 150 18:19 08.04.2020
5259 Clouds 24 1021 23 10000 2.6 180 17:42 08.04.2020
5260 Clouds 24 1022 25 10000 3.6 160 17:20 08.04.2020
5261 Clouds 24 1022 25 10000 3.6 160 16:57 08.04.2020
5262 Clouds 24 1022 29 10000 1.5 0 16:39 08.04.2020
5263 Clouds 24 1022 29 10000 1.5 0 16:20 08.04.2020
5264 Clouds 24 1022 29 10000 3.1 40 15:39 08.04.2020
5265 Clouds 24 1022 29 10000 3.1 40 15:21 08.04.2020
5266 Clouds 23 1022 29 10000 1.5 0 14:58 08.04.2020
5267 Clouds 23 1022 29 10000 1.5 0 14:58 08.04.2020
5268 Clouds 23 1022 29 10000 1.5 0 14:39 08.04.2020
5269 Clouds 23 1023 31 10000 1.5 0 14:21 08.04.2020
5270 Clouds 22 1023 33 10000 1.5 0 13:44 08.04.2020
5271 Clouds 21 1023 35 10000 1 0 13:21 08.04.2020
5272 Clouds 21 1024 37 10000 1.5 170 12:57 08.04.2020
5273 Clouds 21 1024 37 10000 1.5 170 12:39 08.04.2020
5274 Clouds 19 1024 42 10000 1.5 130 12:18 08.04.2020
5275 Clouds 19 1024 42 10000 1.5 130 12:18 08.04.2020
5276 Clouds 19 1024 42 10000 1.5 130 12:18 08.04.2020
5277 Clouds 18 1024 42 10000 1.5 160 11:42 08.04.2020
5278 Clouds 18 1024 42 10000 1.5 160 11:42 08.04.2020
5279 Clouds 17 1024 48 10000 1.5 120 11:23 08.04.2020
5280 Clouds 16 1024 51 10000 1.5 130 10:58 08.04.2020
5281 Clouds 16 1024 51 10000 1.5 130 10:40 08.04.2020
5282 Clouds 15 1024 66 10000 1.5 70 10:21 08.04.2020
5283 Clouds 14 1024 66 10000 1.5 70 09:57 08.04.2020
5284 Clouds 12 1024 76 10000 1.15 109 09:39 08.04.2020
5285 Clouds 11 1024 81 10000 1 30 09:18 08.04.2020
5286 Clouds 10 1024 81 10000 0.5 20 08:56 08.04.2020
5287 Clouds 9 1024 81 10000 0.5 20 08:38 08.04.2020
5288 Clouds 9 1024 87 10000 0.5 30 08:20 08.04.2020
5289 Clouds 9 1024 87 10000 1 360 07:42 08.04.2020
5290 Clouds 9 1024 87 10000 1 0 07:20 08.04.2020
5291 Clouds 10 1024 76 10000 2.1 360 06:28 08.04.2020
5292 Clouds 11 1024 71 10000 2.6 10 04:54 08.04.2020
5293 Clouds 12 1025 66 10000 2.6 10 02:50 08.04.2020
5294 Clouds 12 1025 66 10000 1 0 02:21 08.04.2020
5295 Clouds 13 1025 66 10000 1 350 01:56 08.04.2020
5296 Clouds 13 1025 66 10000 1.73 105 01:28 08.04.2020
5297 Clouds 14 1025 66 10000 1.5 360 00:47 08.04.2020
5298 Clouds 14 1025 58 10000 1 30 00:25 08.04.2020
5299 Clouds 15 1025 54 10000 1 0 23:56 07.04.2020
5300 Clouds 15 1025 54 10000 1 0 23:37 07.04.2020
5301 Clouds 15 1025 58 10000 1 0 23:18 07.04.2020
5302 Clouds 15 1025 51 10000 1.5 10 22:54 07.04.2020
5303 Clouds 15 1025 51 10000 1.5 10 22:54 07.04.2020
5304 Clouds 16 1025 51 10000 1.5 10 22:36 07.04.2020
5305 Clouds 16 1025 48 10000 2.1 10 22:18 07.04.2020
5306 Clouds 16 1025 48 10000 3.1 60 21:42 07.04.2020
5307 Rain 17 1025 48 10000 3.1 70 21:21 07.04.2020
5308 Rain 18 1025 48 10000 3.1 70 20:58 07.04.2020
5309 Rain 19 1025 48 10000 3.1 70 20:39 07.04.2020
5310 Rain 20 1024 40 10000 4.6 70 20:21 07.04.2020
5311 Rain 20 1024 40 10000 4.6 70 19:57 07.04.2020
5312 Rain 21 1024 35 10000 5.1 70 19:37 07.04.2020
5313 Rain 21 1024 35 10000 5.1 70 19:19 07.04.2020
5314 Rain 22 1024 35 10000 5.1 70 18:58 07.04.2020
5315 Rain 22 1024 35 10000 5.1 70 18:58 07.04.2020
5316 Rain 22 1025 37 10000 5.1 70 18:39 07.04.2020
5317 Rain 22 1025 37 10000 5.1 70 18:20 07.04.2020
5318 Rain 22 1025 40 10000 4.6 60 17:46 07.04.2020
5319 Rain 22 1026 37 10000 4.1 100 17:24 07.04.2020
5320 Rain 22 1026 37 10000 4.1 100 16:54 07.04.2020
5321 Rain 22 1026 46 10000 4.1 80 16:36 07.04.2020
5322 Rain 22 1026 46 10000 4.1 80 16:36 07.04.2020
5323 Rain 22 1026 49 10000 5.1 60 16:18 07.04.2020
5324 Rain 21 1026 49 10000 5.1 60 15:42 07.04.2020
5325 Clouds 21 1027 52 10000 5.1 70 15:24 07.04.2020
5326 Clouds 20 1027 60 10000 5.1 50 14:42 07.04.2020
5327 Clouds 19 1027 63 10000 5.1 40 14:23 07.04.2020
5328 Clouds 19 1028 63 10000 5.1 40 13:58 07.04.2020
5329 Clouds 18 1028 63 10000 5.1 40 13:39 07.04.2020
5330 Clouds 18 1028 67 10000 4.6 60 13:19 07.04.2020
5331 Clouds 17 1028 67 10000 4.1 40 12:56 07.04.2020
5332 Clouds 17 1028 67 10000 4.1 40 12:37 07.04.2020
5333 Clouds 15 1028 77 10000 3.1 20 12:18 07.04.2020
5334 Clouds 15 1029 76 10000 3.1 10 11:45 07.04.2020
5335 Clouds 14 1029 76 10000 3.1 30 11:27 07.04.2020
5336 Clouds 13 1029 82 10000 3.6 30 10:59 07.04.2020
5337 Clouds 13 1029 82 10000 3.6 30 10:39 07.04.2020
5338 Clouds 12 1029 93 10000 3.1 360 10:19 07.04.2020
5339 Clouds 11 1029 93 9000 2.1 10 09:46 07.04.2020
5340 Mist 11 1029 100 5000 2.1 20 09:20 07.04.2020
5341 Mist 11 1029 100 5000 2.1 20 08:59 07.04.2020
5342 Mist 10 1028 100 4900 1.5 0 08:39 07.04.2020
5343 Mist 10 1028 100 2700 1.5 0 08:20 07.04.2020
5344 Fog 10 1028 93 600 2.1 30 07:44 07.04.2020
5345 Fog 10 1028 93 450 2.1 10 07:26 07.04.2020
5346 Fog 10 1028 93 450 1.5 30 06:52 07.04.2020
5347 Fog 10 1028 100 1900 2.6 350 06:25 07.04.2020
5348 Mist 10 1028 100 4300 1.5 340 05:50 07.04.2020
5349 Mist 10 1028 93 4200 1.5 360 05:24 07.04.2020
5350 Mist 11 1028 93 4200 1.5 50 03:34 07.04.2020
5351 Mist 10 1028 93 4200 1.5 50 02:59 07.04.2020
5352 Mist 10 1027 93 3600 1.5 60 02:36 07.04.2020
5353 Clouds 11 1027 93 6000 0.5 0 01:34 07.04.2020
5354 Clouds 11 1026 93 7000 1 320 00:53 07.04.2020
5355 Clouds 11 1026 93 6000 1.5 50 00:25 07.04.2020
5356 Clouds 11 1026 93 7000 1.5 70 23:41 06.04.2020
5357 Clouds 11 1026 93 7000 1 0 23:21 06.04.2020
5358 Clouds 12 1026 93 8000 0.5 0 22:54 06.04.2020
5359 Clouds 12 1026 93 8000 0.5 0 22:36 06.04.2020
5360 Clouds 12 1026 93 8000 0.5 0 22:36 06.04.2020
5361 Clouds 11 1025 87 7000 0.5 30 22:18 06.04.2020
5362 Clouds 12 1025 87 9000 0.5 0 21:42 06.04.2020
5363 Clouds 12 1024 87 10000 1 160 21:20 06.04.2020
5364 Clouds 13 1024 87 10000 2.6 140 20:57 06.04.2020
5365 Clouds 13 1024 87 10000 2.6 140 20:39 06.04.2020
5366 Clouds 13 1024 87 10000 2.6 140 20:39 06.04.2020
5367 Clouds 13 1024 82 10000 3.6 160 20:21 06.04.2020
5368 Clouds 13 1023 82 10000 3.1 150 19:57 06.04.2020
5369 Clouds 13 1023 82 10000 3.1 170 19:38 06.04.2020
5370 Clouds 13 1023 82 10000 3.1 170 19:20 06.04.2020
5371 Clouds 13 1023 82 10000 2.6 190 18:43 06.04.2020
5372 Clouds 13 1023 87 10000 3.1 210 18:24 06.04.2020
5373 Clouds 13 1023 87 10000 4.1 170 17:58 06.04.2020
5374 Clouds 13 1023 87 10000 4.1 170 17:39 06.04.2020
5375 Rain 13 1023 87 10000 2.6 190 17:18 06.04.2020
5376 Rain 12 1023 87 10000 4.1 190 16:49 06.04.2020
5377 Rain 12 1023 93 8000 3.6 190 16:30 06.04.2020
5378 Rain 11 1022 82 10000 4.6 210 14:59 06.04.2020
5379 Rain 11 1022 82 10000 4.6 210 14:59 06.04.2020
5380 Rain 11 1022 82 10000 4.6 210 14:59 06.04.2020
5381 Rain 11 1022 82 10000 4.6 210 14:59 06.04.2020
5382 Rain 11 1022 82 10000 4.6 210 14:59 06.04.2020
5383 Clouds 13 1021 47 10000 6.2 210 13:45 06.04.2020
5384 Clouds 13 1021 47 10000 6.2 210 13:22 06.04.2020
5385 Rain 14 1020 41 10000 6.7 210 12:47 06.04.2020
5386 Clear 15 1019 38 10000 5.1 210 12:20 06.04.2020
5387 Clear 15 1019 36 10000 5.7 190 11:43 06.04.2020
5388 Clear 15 1019 36 10000 5.7 190 11:25 06.04.2020
5389 Clear 15 1019 36 10000 5.7 190 11:25 06.04.2020
5390 Clear 15 1019 36 10000 5.7 190 11:25 06.04.2020
5391 Clear 15 1019 36 10000 5.7 190 11:25 06.04.2020
5392 Clear 15 1019 36 10000 5.7 190 11:25 06.04.2020
5393 Clear 14 1018 41 10000 5.7 180 10:43 06.04.2020
5394 Clear 14 1018 41 10000 5.7 180 10:43 06.04.2020
5395 Clear 14 1018 41 10000 5.7 180 10:43 06.04.2020
5396 Clear 14 1018 41 10000 5.7 180 10:43 06.04.2020
5397 Clear 14 1018 41 10000 5.7 180 10:43 06.04.2020
5398 Clear 14 1018 41 10000 5.7 180 10:21 06.04.2020
5399 Clear 14 1018 43 10000 4.6 170 10:21 06.04.2020
5400 Clear 14 1018 41 10000 5.7 180 10:21 06.04.2020
5401 Clear 14 1018 43 10000 4.6 170 10:21 06.04.2020
5402 Clear 14 1018 43 10000 4.6 170 10:21 06.04.2020
5403 Clear 13 1018 46 10000 3.1 160 09:41 06.04.2020
5404 Clear 13 1018 46 10000 3.1 160 09:41 06.04.2020
5405 Clear 13 1018 46 10000 3.1 160 09:41 06.04.2020
5406 Clear 13 1018 46 10000 3.1 160 09:41 06.04.2020
5407 Clear 13 1018 46 10000 3.1 160 09:41 06.04.2020
5408 Clear 11 1017 53 10000 3.1 160 09:20 06.04.2020
5409 Clear 10 1017 50 10000 2.1 160 08:49 06.04.2020
5410 Clear 10 1017 50 10000 2.1 160 08:29 06.04.2020
5411 Clear 10 1017 50 10000 2.1 160 08:29 06.04.2020
5412 Clear 10 1017 50 10000 2.1 160 08:29 06.04.2020
5413 Clear 9 1016 50 10000 2.6 140 07:24 06.04.2020
5414 Clear 10 1016 53 10000 3.1 150 07:24 06.04.2020
5415 Clear 10 1016 50 10000 4.1 170 06:28 06.04.2020
5416 Clear 10 1015 57 10000 3.6 150 05:57 06.04.2020
5417 Clear 10 1015 57 10000 3.6 150 05:57 06.04.2020
5418 Clear 11 1015 53 10000 3.78 191 04:18 06.04.2020
5419 Clear 11 1014 50 10000 2.1 50 02:54 06.04.2020
5420 Clear 12 1015 50 10000 1.5 50 01:57 06.04.2020
5421 Clear 12 1014 64 10000 1.5 70 00:59 06.04.2020
5422 Clear 13 1014 64 10000 3.1 183 00:29 06.04.2020
5423 Clear 13 1014 64 10000 3.1 183 00:29 06.04.2020
5424 Clear 13 1014 57 10000 3.07 168 23:59 05.04.2020
5425 Clear 14 1014 57 10000 1.5 140 23:40 05.04.2020
5426 Clear 14 1014 57 10000 1.5 140 23:20 05.04.2020
5427 Clear 14 1014 57 10000 1.5 140 23:20 05.04.2020
5428 Clear 14 1014 57 10000 1.5 140 23:20 05.04.2020
5429 Clear 14 1014 57 10000 1.5 110 22:54 05.04.2020
5430 Clear 15 1014 57 10000 2.1 130 22:36 05.04.2020
5431 Clear 15 1014 57 10000 2.6 130 22:18 05.04.2020
5432 Clear 16 1014 57 10000 4.1 130 21:43 05.04.2020
5433 Clear 16 1014 57 10000 4.1 130 21:43 05.04.2020
5434 Clear 16 1014 57 10000 4.1 130 21:43 05.04.2020
5435 Clear 17 1014 56 10000 4.1 130 21:23 05.04.2020
5436 Clear 20 1014 50 10000 5.7 140 20:25 05.04.2020
5437 Clear 21 1014 50 10000 6.2 130 19:44 05.04.2020
5438 Clear 21 1014 50 10000 6.2 130 19:25 05.04.2020
5439 Clear 22 1014 24 10000 7.7 120 18:49 05.04.2020
5440 Clear 22 1014 24 10000 7.7 120 18:49 05.04.2020
5441 Clear 22 1014 24 10000 6.7 130 18:21 05.04.2020
5442 Clear 22 1014 24 10000 7.2 150 17:49 05.04.2020
5443 Clear 22 1014 24 10000 7.2 150 17:49 05.04.2020
5444 Clear 22 1014 24 10000 7.2 150 17:49 05.04.2020
5445 Clear 22 1014 24 10000 7.2 150 17:49 05.04.2020
5446 Clear 22 1014 24 10000 7.2 150 17:49 05.04.2020
5447 Clear 22 1015 28 10000 6.2 140 17:22 05.04.2020
5448 Clear 22 1015 28 10000 5.1 150 16:47 05.04.2020
5449 Clear 21 1015 32 10000 5.7 130 16:19 05.04.2020
5450 Clear 21 1016 32 10000 3.6 140 15:46 05.04.2020
5451 Clear 21 1016 32 10000 3.6 140 15:46 05.04.2020
5452 Clear 21 1016 32 10000 3.6 140 15:28 05.04.2020
5453 Clear 21 1016 32 10000 3.6 140 15:28 05.04.2020
5454 Clear 20 1016 32 10000 4.6 160 14:48 05.04.2020
5455 Clear 20 1016 32 10000 4.6 160 14:48 05.04.2020
5456 Clear 20 1016 32 10000 4.6 160 14:48 05.04.2020
5457 Clear 20 1016 32 10000 4.6 160 14:48 05.04.2020
5458 Clear 19 1016 32 10000 4.6 160 13:59 05.04.2020
5459 Clear 19 1017 34 10000 4.6 140 13:40 05.04.2020
5460 Clear 19 1017 34 10000 4.6 140 13:40 05.04.2020
5461 Clear 19 1017 34 10000 4.6 140 13:40 05.04.2020
5462 Clear 19 1017 34 10000 4.6 140 13:40 05.04.2020
5463 Clear 19 1017 34 10000 4.6 140 13:40 05.04.2020
5464 Clear 15 1018 44 10000 2.6 130 12:21 05.04.2020
5465 Clear 14 1018 44 10000 2.1 110 11:40 05.04.2020
5466 Clear 14 1018 50 10000 2.6 140 11:20 05.04.2020
5467 Clear 13 1018 50 10000 2.6 140 10:47 05.04.2020
5468 Clear 12 1018 54 10000 3.1 130 10:23 05.04.2020
5469 Clear 10 1019 61 10000 1.5 0 09:55 05.04.2020
5470 Clear 9 1019 65 10000 1.5 40 09:27 05.04.2020
5471 Clear 9 1019 65 10000 1.5 40 09:27 05.04.2020
5472 Clear 6 1018 75 10000 3.1 40 08:34 05.04.2020
5473 Clear 6 1018 75 10000 3.1 40 08:34 05.04.2020
5474 Clear 6 1018 75 10000 3.1 40 08:34 05.04.2020
5475 Clear 5 1018 70 10000 2.6 40 07:21 05.04.2020
5476 Clear 5 1018 78 10000 2.6 50 07:21 05.04.2020
5477 Clear 5 1018 78 10000 2.6 50 07:21 05.04.2020
5478 Clear 7 1018 70 10000 2.6 50 04:32 05.04.2020
5479 Clear 8 1019 65 10000 2.1 60 03:29 05.04.2020
5480 Clear 8 1019 70 10000 3.1 70 02:46 05.04.2020
5481 Clear 9 1019 70 10000 3.6 80 01:45 05.04.2020
5482 Clear 9 1019 65 10000 3.1 80 01:23 05.04.2020
5483 Clear 9 1019 65 10000 3.1 70 00:42 05.04.2020
5484 Clear 10 1019 65 10000 3.6 70 00:21 05.04.2020
5485 Clear 10 1019 61 10000 4.1 70 23:42 04.04.2020
5486 Clear 10 1019 61 10000 4.1 70 23:42 04.04.2020
5487 Clear 11 1020 57 10000 3.6 70 23:23 04.04.2020
5488 Clear 10 1020 57 10000 3.6 70 22:57 04.04.2020
5489 Clear 11 1019 57 10000 4.6 60 22:39 04.04.2020
5490 Clear 11 1019 50 10000 4.1 60 22:21 04.04.2020
5491 Clear 11 1019 50 10000 4.1 60 21:58 04.04.2020
5492 Clear 12 1020 46 10000 3.1 80 21:39 04.04.2020
5493 Clear 12 1020 46 10000 3.1 80 21:19 04.04.2020
5494 Clear 13 1019 41 10000 4.1 100 20:56 04.04.2020
5495 Clear 14 1019 58 10000 4.6 100 20:37 04.04.2020
5496 Clear 15 1019 36 10000 5.1 100 20:19 04.04.2020
5497 Clear 15 1019 36 10000 5.1 100 19:56 04.04.2020
5498 Clear 16 1019 36 10000 5.1 90 19:36 04.04.2020
5499 Clear 16 1019 36 10000 4.6 130 19:18 04.04.2020
5500 Clear 16 1019 36 10000 4.6 130 18:55 04.04.2020
5501 Clear 17 1019 33 10000 4.1 120 18:37 04.04.2020
5502 Clear 17 1020 33 10000 4.6 120 18:18 04.04.2020
5503 Clear 17 1020 36 10000 5.1 90 17:40 04.04.2020
5504 Clear 17 1020 33 10000 4.6 110 17:20 04.04.2020
5505 Clear 17 1020 33 10000 5.1 100 16:55 04.04.2020
5506 Clear 17 1020 33 10000 5.1 100 16:37 04.04.2020
5507 Clear 17 1020 33 10000 5.1 100 16:37 04.04.2020
5508 Clear 17 1020 33 10000 5.1 120 16:19 04.04.2020
5509 Clear 17 1021 33 10000 4.6 110 15:41 04.04.2020
5510 Clear 17 1021 33 10000 4.6 110 15:22 04.04.2020
5511 Clear 16 1021 33 10000 5.1 110 14:57 04.04.2020
5512 Clouds 16 1021 36 10000 4.6 160 14:39 04.04.2020
5513 Clouds 16 1021 38 10000 4.1 120 14:21 04.04.2020
5514 Clouds 16 1021 38 10000 4.1 120 13:55 04.04.2020
5515 Clouds 16 1022 36 10000 5.1 160 13:37 04.04.2020
5516 Clouds 15 1022 41 10000 4.1 160 13:19 04.04.2020
5517 Clouds 15 1022 47 10000 4.1 140 12:44 04.04.2020
5518 Clouds 14 1022 54 10000 2.6 150 12:23 04.04.2020
5519 Clouds 13 1022 54 10000 2.6 150 11:59 04.04.2020
5520 Clouds 13 1022 58 10000 2.1 130 11:38 04.04.2020
5521 Clouds 12 1022 66 10000 1.5 0 11:19 04.04.2020
5522 Clouds 11 1022 66 10000 1.5 0 10:56 04.04.2020
5523 Clouds 10 1022 70 10000 1 0 10:37 04.04.2020
5524 Clouds 9 1022 75 10000 1.5 60 10:18 04.04.2020
5525 Clouds 8 1022 75 10000 1.5 60 09:54 04.04.2020
5526 Clouds 7 1022 87 10000 1 0 09:36 04.04.2020
5527 Clouds 6 1022 93 10000 1.5 30 09:18 04.04.2020
5528 Clouds 4 1022 93 10000 1.5 20 08:41 04.04.2020
5529 Clouds 4 1022 93 10000 1.5 20 08:20 04.04.2020
5530 Clouds 4 1021 93 10000 1.5 20 07:44 04.04.2020
5531 Clouds 4 1021 93 10000 1.5 20 07:26 04.04.2020
5532 Clouds 4 1021 86 10000 1 80 06:51 04.04.2020
5533 Clouds 4 1021 93 10000 0.5 20 06:20 04.04.2020
5534 Clouds 4 1021 86 10000 1 10 05:42 04.04.2020
5535 Clouds 5 1021 86 10000 1 10 05:24 04.04.2020
5536 Clouds 5 1021 86 10000 1 80 04:31 04.04.2020
5537 Clouds 5 1021 81 10000 1.5 0 03:51 04.04.2020
5538 Clouds 7 1021 75 10000 0.71 111 02:52 04.04.2020
5539 Clouds 7 1021 75 10000 0.71 111 02:33 04.04.2020
5540 Clouds 7 1021 70 10000 2.1 350 01:55 04.04.2020
5541 Clouds 7 1021 70 10000 1 350 01:25 04.04.2020
5542 Clouds 7 1020 70 10000 1.5 350 00:49 04.04.2020
5543 Clouds 8 1020 70 10000 1.5 350 00:30 04.04.2020
5544 Clouds 9 1020 66 10000 1 350 23:40 03.04.2020
5545 Clouds 9 1020 66 10000 1 350 23:21 03.04.2020
5546 Clouds 10 1020 62 10000 1 340 22:59 03.04.2020
5547 Clouds 10 1020 62 10000 1 340 22:39 03.04.2020
5548 Clouds 10 1020 62 10000 1 340 22:39 03.04.2020
5549 Clouds 10 1020 62 10000 1 350 22:19 03.04.2020
5550 Clouds 11 1020 58 10000 1.5 360 21:45 03.04.2020
5551 Clouds 11 1020 58 10000 1.5 360 21:26 03.04.2020
5552 Rain 12 1019 58 10000 1.5 360 20:59 03.04.2020
5553 Rain 12 1019 50 10000 1.5 340 20:40 03.04.2020
5554 Rain 12 1019 50 10000 1.5 340 20:22 03.04.2020
5555 Rain 12 1019 50 10000 2.1 320 19:58 03.04.2020
5556 Rain 13 1019 50 10000 2.1 320 19:39 03.04.2020
5557 Clouds 13 1019 54 10000 2.1 350 19:21 03.04.2020
5558 Clouds 13 1019 54 10000 2.1 350 19:00 03.04.2020
5559 Clouds 13 1019 50 10000 2.6 350 18:41 03.04.2020
5560 Clouds 13 1019 50 10000 2.6 350 18:41 03.04.2020
5561 Rain 13 1019 50 10000 4.1 330 18:23 03.04.2020
5562 Rain 14 1018 44 10000 1.5 250 17:58 03.04.2020
5563 Rain 14 1018 44 10000 1.5 250 17:40 03.04.2020
5564 Rain 14 1019 47 10000 1 0 17:19 03.04.2020
5565 Rain 14 1019 47 10000 1 0 16:54 03.04.2020
5566 Clouds 14 1019 58 10000 1.5 0 16:36 03.04.2020
5567 Clouds 13 1019 50 10000 0.5 0 16:18 03.04.2020
5568 Rain 14 1019 54 10000 2.1 130 15:41 03.04.2020
5569 Rain 14 1019 54 10000 2.1 130 15:22 03.04.2020
5570 Rain 14 1017 60 0 2.35 282 14:57 03.04.2020
5571 Rain 13 1018 62 0 3.25 307 14:39 03.04.2020
5572 Clouds 13 1019 62 10000 1 0 14:21 03.04.2020
5573 Clouds 13 1019 62 10000 1 0 13:46 03.04.2020
5574 Clouds 13 1019 62 10000 1 0 13:26 03.04.2020
5575 Rain 13 1019 66 10000 1.5 0 12:56 03.04.2020
5576 Clouds 12 1019 71 10000 2.1 320 12:38 03.04.2020
5577 Clouds 12 1019 71 10000 2.6 320 12:18 03.04.2020
5578 Clouds 11 1018 76 10000 3.6 320 11:55 03.04.2020
5579 Clouds 11 1018 76 10000 3.6 320 11:55 03.04.2020
5580 Clouds 11 1018 76 10000 3.6 320 11:37 03.04.2020
5581 Clouds 11 1018 76 10000 3.6 320 11:18 03.04.2020
5582 Clouds 10 1018 81 10000 2.1 270 10:56 03.04.2020
5583 Clouds 9 1018 81 10000 2.1 270 10:37 03.04.2020
5584 Clouds 9 1018 81 10000 2.1 270 10:18 03.04.2020
5585 Clouds 8 1018 81 10000 2.1 270 09:55 03.04.2020
5586 Clouds 8 1018 87 10000 2.6 260 09:37 03.04.2020
5587 Clouds 8 1018 87 10000 2.6 260 09:37 03.04.2020
5588 Clouds 7 1017 87 10000 2.6 260 09:18 03.04.2020
5589 Clouds 7 1017 87 10000 2.1 260 08:43 03.04.2020
5590 Clouds 6 1017 81 10000 2.6 260 08:23 03.04.2020
5591 Clouds 6 1016 87 10000 2.6 250 07:51 03.04.2020
5592 Clouds 6 1016 87 10000 2.6 250 07:33 03.04.2020
5593 Clouds 7 1016 87 10000 2.1 250 06:58 03.04.2020
5594 Clouds 7 1016 87 10000 1.5 240 06:28 03.04.2020
5595 Clouds 7 1016 87 10000 2.1 250 05:42 03.04.2020
5596 Clouds 7 1016 75 10000 2.6 250 04:18 03.04.2020
5597 Clouds 6 1016 75 10000 2.1 240 03:32 03.04.2020
5598 Clouds 6 1016 75 10000 2.6 250 02:31 03.04.2020
5599 Clouds 6 1016 75 10000 2.28 271 01:25 03.04.2020
5600 Clouds 6 1016 70 10000 1.5 270 00:47 03.04.2020
5601 Clouds 6 1016 70 10000 1.5 270 00:29 03.04.2020
5602 Clouds 7 1016 70 10000 3.6 250 23:54 02.04.2020
5603 Clouds 7 1016 65 10000 2.6 270 23:36 02.04.2020
5604 Clouds 7 1016 61 10000 3.1 260 23:18 02.04.2020
5605 Clouds 8 1016 57 10000 2.6 290 22:41 02.04.2020
5606 Clouds 8 1016 57 10000 2.6 290 22:22 02.04.2020
5607 Clouds 8 1016 57 10000 2.6 290 21:58 02.04.2020
5608 Clouds 8 1016 57 10000 2.1 290 21:37 02.04.2020
5609 Clouds 8 1015 53 10000 3.1 290 21:18 02.04.2020
5610 Clouds 9 1015 60 10000 2.1 290 20:45 02.04.2020
5611 Clouds 9 1015 46 10000 2.6 300 20:25 02.04.2020
5612 Clouds 9 1015 46 10000 3.1 300 19:57 02.04.2020
5613 Clouds 9 1015 46 10000 3.1 300 19:39 02.04.2020
5614 Clouds 9 1015 60 10000 3.6 300 19:20 02.04.2020
5615 Clouds 10 1015 60 10000 3.6 300 18:56 02.04.2020
5616 Clouds 10 1015 60 10000 4.1 310 18:37 02.04.2020
5617 Clouds 10 1016 49 10000 3.6 310 18:18 02.04.2020
5618 Clouds 10 1016 49 10000 4.1 310 17:43 02.04.2020
5619 Clouds 10 1016 49 10000 4.1 310 17:24 02.04.2020
5620 Clouds 10 1016 45 10000 3.6 310 16:58 02.04.2020
5621 Clouds 10 1016 45 10000 4.1 330 16:40 02.04.2020
5622 Clouds 10 1016 45 10000 4.6 10 16:22 02.04.2020
5623 Clouds 10 1016 45 10000 4.6 10 15:57 02.04.2020
5624 Clouds 10 1016 39 10000 4.1 320 15:39 02.04.2020
5625 Clouds 10 1016 39 10000 4.1 320 15:19 02.04.2020
5626 Clouds 10 1016 39 10000 4.1 320 14:57 02.04.2020
5627 Clouds 10 1016 43 10000 2.1 340 14:38 02.04.2020
5628 Clouds 10 1017 42 10000 3.6 340 14:18 02.04.2020
5629 Clouds 10 1017 42 10000 3.6 340 13:55 02.04.2020
5630 Clouds 9 1017 42 10000 4.1 340 13:37 02.04.2020
5631 Clouds 9 1017 45 10000 3.1 330 13:18 02.04.2020
5632 Clouds 9 1017 45 10000 3.1 350 12:45 02.04.2020
5633 Clouds 9 1017 45 10000 3.1 350 12:45 02.04.2020
5634 Clouds 9 1017 45 10000 3.1 350 12:45 02.04.2020
5635 Clear 9 1017 49 10000 3.1 10 12:20 02.04.2020
5636 Clear 8 1017 49 10000 3.1 10 11:58 02.04.2020
5637 Clear 8 1017 49 10000 2.1 10 11:39 02.04.2020
5638 Clear 8 1017 49 10000 2.1 10 11:20 02.04.2020
5639 Clear 7 1017 56 10000 3.1 20 10:57 02.04.2020
5640 Clear 6 1017 60 10000 2.6 10 10:38 02.04.2020
5641 Clear 5 1017 58 10000 2.6 350 10:20 02.04.2020
5642 Clear 5 1017 58 10000 2.6 350 09:59 02.04.2020
5643 Clear 4 1016 74 10000 3.1 350 09:41 02.04.2020
5644 Clear 2 1016 80 10000 3.6 340 09:21 02.04.2020
5645 Clear 1 1016 86 10000 3.1 340 08:48 02.04.2020
5646 Clear 1 1016 86 10000 3.1 340 08:28 02.04.2020
5647 Clear 1 1016 86 10000 3.1 350 07:59 02.04.2020
5648 Clear 1 1016 86 10000 3.1 350 07:40 02.04.2020
5649 Clear 1 1016 86 10000 3.6 350 07:19 02.04.2020
5650 Clear 1 1016 86 10000 3.6 350 06:25 02.04.2020
5651 Clear 1 1016 74 10000 3.1 350 05:46 02.04.2020
5652 Clear 2 1016 74 10000 3.1 350 05:18 02.04.2020
5653 Clear 4 1017 60 10000 4.6 20 02:46 02.04.2020
5654 Clear 5 1017 56 10000 5.7 30 01:28 02.04.2020
5655 Clear 5 1017 45 10000 4.1 20 00:42 02.04.2020
5656 Clear 5 1017 42 10000 3.1 20 00:22 02.04.2020
5657 Clear 6 1017 42 10000 3.6 20 23:41 01.04.2020
5658 Clear 6 1017 42 10000 3.6 20 23:20 01.04.2020
5659 Clear 6 1017 42 10000 3.6 20 22:58 01.04.2020
5660 Clear 7 1017 36 10000 3.1 20 22:39 01.04.2020
5661 Clear 7 1017 36 10000 3.1 20 22:21 01.04.2020
5662 Clear 7 1017 34 10000 3.6 20 21:42 01.04.2020
5663 Clear 8 1017 34 10000 3.6 20 21:22 01.04.2020
5664 Clear 8 1017 34 10000 3.6 20 21:21 01.04.2020
5665 Clear 9 1017 34 10000 3.1 10 20:57 01.04.2020
5666 Clear 10 1017 34 10000 3.1 10 20:39 01.04.2020
5667 Clear 10 1017 34 10000 3.1 10 20:21 01.04.2020
5668 Clear 10 1017 34 10000 4.1 30 20:00 01.04.2020
5669 Clear 11 1018 27 10000 4.1 350 19:41 01.04.2020
5670 Clear 12 1018 27 10000 4.1 350 19:21 01.04.2020
5671 Clear 12 1018 30 10000 4.6 10 18:46 01.04.2020
5672 Clear 12 1018 30 10000 4.6 10 18:46 01.04.2020
5673 Clear 12 1018 30 10000 4.6 10 18:26 01.04.2020
5674 Clear 12 1017 30 10000 5.1 40 17:59 01.04.2020
5675 Clear 12 1018 27 10000 4.1 10 17:39 01.04.2020
5676 -273 0 0 0 0 0 17:20 01.04.2020
5677 Clear 13 1019 30 10000 2.6 350 16:59 01.04.2020
5678 Clear 12 1019 30 10000 2.6 350 16:41 01.04.2020
5679 Clear 13 1019 27 10000 3.1 30 16:22 01.04.2020
5680 Clear 12 1019 27 10000 3.1 30 15:58 01.04.2020
5681 Clear 12 1019 32 10000 4.1 40 15:38 01.04.2020
5682 Clear 12 1019 32 10000 4.1 40 15:38 01.04.2020
5683 Clear 12 1019 32 10000 4.1 40 15:20 01.04.2020
5684 Clear 12 1020 34 10000 2.6 30 14:57 01.04.2020
5685 Clear 12 1020 34 10000 2.6 30 14:57 01.04.2020
5686 Clear 11 1020 32 10000 2.6 60 14:38 01.04.2020
5687 Clear 11 1020 32 10000 2.6 60 14:19 01.04.2020
5688 Clear 11 1021 34 10000 3.6 30 13:58 01.04.2020
5689 Clear 11 1021 34 10000 4.6 40 13:37 01.04.2020
5690 Clear 10 1021 34 10000 4.6 40 13:19 01.04.2020
5691 Clear 10 1021 34 10000 3.6 60 12:55 01.04.2020
5692 Clear 10 1022 39 10000 3.1 40 12:36 01.04.2020
5693 Clear 9 1022 39 10000 3.1 60 12:18 01.04.2020
5694 Clear 8 1022 45 10000 3.1 30 11:42 01.04.2020
5695 Clear 8 1022 45 10000 3.1 30 11:23 01.04.2020
5696 Clear 7 1022 48 10000 3.6 60 10:58 01.04.2020
5697 Clear 6 1022 52 10000 3.1 60 10:38 01.04.2020
5698 Clear 5 1022 60 10000 3.1 40 10:19 01.04.2020
5699 Clear 5 1022 60 10000 3.1 40 09:57 01.04.2020
5700 Clear 4 1022 64 10000 3.6 30 09:39 01.04.2020
5701 Clear 3 1022 69 10000 3.1 30 09:18 01.04.2020
5702 Clear 1 1022 64 10000 3.6 20 08:42 01.04.2020
5703 Clear 0 1022 69 10000 3.6 30 08:18 01.04.2020
5704 Clear 0 1022 64 10000 3.1 20 07:48 01.04.2020
5705 Clear 1 1022 64 10000 3.6 30 07:22 01.04.2020
5706 Clear 1 1023 69 10000 2.1 10 06:58 01.04.2020
5707 Clear 1 1023 69 10000 2.1 10 06:38 01.04.2020
5708 Clear 1 1023 69 10000 2.1 360 06:20 01.04.2020
5709 Clear 2 1023 64 10000 2.6 10 04:38 01.04.2020
5710 Clear 3 1024 59 10000 2.6 20 03:35 01.04.2020
5711 Clear 3 1024 59 10000 2.6 30 02:59 01.04.2020
5712 Clear 4 1024 59 10000 3.1 30 02:24 01.04.2020
5713 Clear 4 1024 55 10000 3.6 40 01:46 01.04.2020
5714 Clear 5 1024 48 10000 4.1 30 01:23 01.04.2020
5715 Clear 5 1025 52 10000 5.1 30 00:47 01.04.2020
5716 Clear 6 1025 52 10000 5.1 30 00:21 01.04.2020
5717 Clear 6 1025 56 10000 5.1 20 23:54 31.03.2020
5718 Clear 6 1025 52 10000 5.1 20 23:36 31.03.2020
5719 Clear 6 1025 52 10000 5.1 20 23:18 31.03.2020
5720 Clear 7 1025 66 10000 5.1 20 22:40 31.03.2020
5721 Clear 7 1025 66 10000 4.6 20 22:20 31.03.2020
5722 Clear 8 1025 66 10000 5.1 30 21:57 31.03.2020
5723 Clear 8 1025 66 10000 5.1 30 21:39 31.03.2020
5724 Clouds 8 1025 57 10000 5.1 30 21:20 31.03.2020
5725 Clouds 9 1025 49 10000 5.1 30 20:56 31.03.2020
5726 Clouds 9 1024 39 10000 5.7 60 20:37 31.03.2020
5727 Clouds 10 1024 39 10000 5.7 60 20:18 31.03.2020
5728 Clouds 10 1024 40 10000 6.7 50 19:55 31.03.2020
5729 Clouds 11 1024 40 10000 6.7 50 19:37 31.03.2020
5730 Clouds 11 1024 37 10000 6.7 50 19:18 31.03.2020
5731 Clouds 12 1024 37 10000 5.7 40 18:43 31.03.2020
5732 Clouds 12 1025 37 10000 6.2 50 18:20 31.03.2020
5733 Clouds 12 1025 37 10000 6.2 50 17:56 31.03.2020
5734 Clouds 12 1025 37 10000 6.7 50 17:38 31.03.2020
5735 Clouds 12 1025 43 10000 6.2 50 17:20 31.03.2020
5736 Clouds 12 1026 48 10000 6.7 60 16:42 31.03.2020
5737 Clouds 11 1026 43 10000 6.7 60 16:20 31.03.2020
5738 Clouds 11 1026 43 10000 6.7 60 15:59 31.03.2020
5739 Clouds 11 1026 40 10000 7.2 80 15:41 31.03.2020
5740 Clear 11 1026 40 10000 7.2 80 15:23 31.03.2020
5741 Clouds 11 1026 46 10000 6.2 40 15:00 31.03.2020
5742 Clouds 11 1026 50 10000 6.7 50 14:41 31.03.2020
5743 Clouds 10 1027 46 10000 7.2 60 14:22 31.03.2020
5744 Clouds 10 1027 46 10000 7.2 60 13:58 31.03.2020
5745 Clouds 10 1027 57 10000 6.7 40 13:39 31.03.2020
5746 Clouds 9 1027 57 10000 7.2 30 13:19 31.03.2020
5747 Clouds 9 1027 61 10000 7.7 50 12:44 31.03.2020
5748 Clouds 8 1027 61 10000 7.7 50 12:20 31.03.2020
5749 Clouds 8 1028 65 8000 7.2 60 11:56 31.03.2020
5750 Clouds 8 1028 65 8000 7.2 60 11:37 31.03.2020
5751 Clouds 7 1028 70 8000 6.7 50 11:19 31.03.2020
5752 Clouds 6 1028 70 8000 6.7 50 10:55 31.03.2020
5753 Clouds 7 1028 70 8000 6.7 50 10:55 31.03.2020
5754 Clouds 6 1028 80 8000 6.2 40 10:37 31.03.2020
5755 Clouds 5 1028 86 8000 5.7 30 10:18 31.03.2020
5756 Clouds 4 1028 86 10000 4.1 10 09:44 31.03.2020
5757 Clouds 4 1028 86 10000 4.1 10 09:25 31.03.2020
5758 Clear 3 1027 86 10000 3.1 20 08:58 31.03.2020
5759 Clear 2 1027 88 10000 3.6 10 08:40 31.03.2020
5760 Clear 2 1027 88 10000 2.6 20 08:20 31.03.2020
5761 Clear 2 1027 88 10000 2.6 20 07:57 31.03.2020
5762 Clear 2 1026 93 10000 3.6 10 07:38 31.03.2020
5763 Clear 2 1026 86 10000 4.1 10 07:20 31.03.2020
5764 Clear 2 1026 86 10000 4.6 10 06:53 31.03.2020
5765 Clear 2 1026 86 10000 4.6 10 06:35 31.03.2020
5766 Clear 2 1026 85 10000 4.1 20 05:41 31.03.2020
5767 Clear 3 1026 85 10000 4.6 10 05:20 31.03.2020
5768 Clouds 4 1027 77 10000 2.6 10 02:40 31.03.2020
5769 Clear 4 1027 78 10000 4.6 20 01:47 31.03.2020
5770 Clear 5 1027 78 10000 4.6 20 01:19 31.03.2020
5771 Clear 5 1027 65 10000 5.1 20 00:42 31.03.2020
5772 Clear 5 1027 60 10000 2.1 10 00:19 31.03.2020
5773 Clear 5 1027 56 10000 4.1 20 23:39 30.03.2020
5774 Clear 6 1027 56 10000 4.1 20 23:20 30.03.2020
5775 Clear 6 1027 56 10000 4.6 20 22:57 30.03.2020
5776 Clear 6 1027 56 10000 4.6 30 22:38 30.03.2020
5777 Clear 6 1026 48 10000 5.7 30 22:18 30.03.2020
5778 Clear 6 1026 48 10000 5.7 30 21:57 30.03.2020
5779 Clear 7 1026 48 10000 5.1 20 21:37 30.03.2020
5780 Clear 7 1026 42 10000 6.2 20 21:19 30.03.2020
5781 Clear 7 1026 42 10000 6.2 20 20:57 30.03.2020
5782 Clear 7 1026 42 10000 8.7 30 20:38 30.03.2020
5783 Clear 8 1026 42 10000 8.7 30 20:19 30.03.2020
5784 Clear 9 1026 36 10000 9.3 30 19:41 30.03.2020
5785 Clear 9 1026 36 10000 9.3 30 19:41 30.03.2020
5786 Clear 9 1026 36 10000 9.3 30 19:22 30.03.2020
5787 Clear 9 1026 36 10000 9.3 30 19:22 30.03.2020
5788 Clear 9 1026 34 10000 9.3 30 18:59 30.03.2020
5789 Clear 9 1026 31 10000 9.3 30 18:41 30.03.2020
5790 Clear 9 1026 31 10000 10.3 40 18:22 30.03.2020
5791 Clear 9 1026 31 10000 10.3 40 17:57 30.03.2020
5792 Clear 9 1026 31 10000 9.3 40 17:39 30.03.2020
5793 Clear 10 1026 31 10000 9.3 40 17:39 30.03.2020
5794 Clear 9 1027 31 10000 9.3 20 17:19 30.03.2020
5795 Clear 9 1027 31 10000 9.3 20 16:57 30.03.2020
5796 Clear 9 1027 31 10000 8.2 30 16:38 30.03.2020
5797 Clear 9 1027 29 10000 9.3 30 16:20 30.03.2020
5798 Clear 9 1027 29 10000 9.3 30 15:55 30.03.2020
5799 Clear 9 1028 26 10000 7.7 30 15:37 30.03.2020
5800 Clear 8 1028 26 10000 9.3 30 15:18 30.03.2020
5801 Clear 8 1028 26 10000 9.3 30 14:55 30.03.2020
5802 Clear 8 1028 26 10000 8.7 20 14:36 30.03.2020
5803 Clear 7 1029 24 10000 9.3 30 14:18 30.03.2020
5804 Clear 7 1029 28 10000 9.3 20 13:44 30.03.2020
5805 Clear 6 1029 28 10000 9.3 40 13:21 30.03.2020
5806 Clear 6 1029 28 10000 9.3 40 13:21 30.03.2020
5807 Clear 6 1029 28 10000 9.3 40 12:59 30.03.2020
5808 Clear 5 1030 30 10000 8.7 40 12:41 30.03.2020
5809 Clear 5 1030 32 10000 9.3 40 12:19 30.03.2020
5810 Clear 5 1030 32 10000 9.3 40 11:57 30.03.2020
5811 Clear 4 1030 35 10000 9.3 40 11:38 30.03.2020
5812 Clear 4 1031 34 10000 9.8 30 11:20 30.03.2020
5813 Clear 3 1031 43 10000 7.7 30 10:41 30.03.2020
5814 Clear 2 1031 43 10000 8.2 30 10:22 30.03.2020
5815 Clear 2 1031 43 10000 8.2 30 09:57 30.03.2020
5816 Clear 2 1031 43 10000 8.2 30 09:57 30.03.2020
5817 Clear 1 1031 47 10000 7.7 20 09:38 30.03.2020
5818 Clear 0 1031 82 10000 6.2 20 09:19 30.03.2020
5819 Clear 0 1030 82 10000 6.7 20 08:42 30.03.2020
5820 Clear 0 1030 82 10000 5.1 10 08:23 30.03.2020
5821 Clear 0 1030 82 10000 5.1 10 07:50 30.03.2020
5822 Clear 0 1030 82 10000 5.7 20 07:31 30.03.2020
5823 Clear 0 1030 82 10000 4.6 10 06:57 30.03.2020
5824 Clear 0 1030 47 10000 5.1 10 06:33 30.03.2020
5825 Clear 1 1030 47 10000 7.2 10 05:55 30.03.2020
5826 Clear 1 1030 47 10000 7.2 10 05:34 30.03.2020
5827 Clear 1 1030 47 10000 7.2 10 04:26 30.03.2020
5828 Clear 1 1030 47 10000 7.7 10 03:45 30.03.2020
5829 Clouds 2 1030 44 10000 6.2 20 02:42 30.03.2020
5830 Clouds 3 1030 44 10000 6.7 10 01:52 30.03.2020
5831 Clouds 4 1030 44 10000 7.7 10 00:56 30.03.2020
5832 Clouds 4 1030 44 10000 7.7 20 00:25 30.03.2020
5833 Clouds 4 1030 41 10000 8.7 10 23:55 29.03.2020
5834 Clouds 4 1030 41 10000 8.7 10 23:36 29.03.2020
5835 Clouds 4 1030 41 10000 8.7 10 23:18 29.03.2020
5836 Clouds 5 1030 38 10000 10.3 20 22:39 29.03.2020
5837 Clouds 5 1030 41 10000 9.3 20 22:20 29.03.2020
5838 Clouds 5 1029 41 10000 9.8 10 21:58 29.03.2020
5839 Clouds 5 1029 41 10000 9.8 10 21:37 29.03.2020
5840 Clouds 5 1029 41 10000 9.8 10 21:19 29.03.2020
5841 Clouds 6 1029 41 10000 7.7 20 20:55 29.03.2020
5842 Clouds 6 1028 41 10000 8.7 30 20:37 29.03.2020
5843 Clouds 6 1027 41 10000 8.7 30 20:18 29.03.2020
5844 Clouds 6 1028 39 10000 8.7 10 19:55 29.03.2020
5845 Clouds 6 1028 39 10000 8.7 10 19:37 29.03.2020
5846 Clouds 7 1028 39 10000 8.7 20 19:18 29.03.2020
5847 Clouds 7 1027 36 10000 9.8 30 18:55 29.03.2020
5848 Clouds 7 1027 36 10000 9.8 30 18:37 29.03.2020
5849 Clouds 7 1028 33 10000 8.7 10 18:18 29.03.2020
5850 Clouds 7 1028 33 10000 8.7 10 17:54 29.03.2020
5851 Clouds 8 1027 31 10000 9.8 20 17:36 29.03.2020
5852 Clouds 8 1028 28 10000 10.3 20 17:18 29.03.2020
5853 Clouds 8 1028 28 10000 10.3 20 16:55 29.03.2020
5854 Clouds 8 1028 33 10000 10.3 10 16:36 29.03.2020
5855 Clouds 8 1028 33 10000 10.3 10 16:36 29.03.2020
5856 Clouds 8 1028 33 10000 10.3 10 16:36 29.03.2020
5857 Clouds 8 1028 33 10000 10.3 10 16:36 29.03.2020
5858 Clouds 8 1028 33 10000 10.3 10 16:36 29.03.2020
5859 Clouds 8 1028 33 10000 10.3 10 16:18 29.03.2020
5860 Clouds 8 1028 36 10000 9.8 10 15:40 29.03.2020
5861 Clouds 8 1028 36 10000 9.8 10 15:22 29.03.2020
5862 Clouds 8 1028 31 10000 9.8 20 14:57 29.03.2020
5863 Clouds 8 1028 36 10000 8.7 10 14:39 29.03.2020
5864 Clouds 8 1028 39 10000 8.7 10 14:19 29.03.2020
5865 Clouds 8 1028 39 10000 8.7 10 13:56 29.03.2020
5866 Clouds 8 1028 42 10000 9.8 10 13:38 29.03.2020
5867 Clouds 8 1028 45 10000 10.3 30 13:19 29.03.2020
5868 Clouds 8 1028 45 10000 6.7 10 12:55 29.03.2020
5869 Clouds 7 1028 45 10000 6.7 10 12:37 29.03.2020
5870 Clouds 7 1028 52 10000 7.7 20 12:18 29.03.2020
5871 Clouds 7 1028 52 10000 7.7 20 12:18 29.03.2020
5872 Clouds 7 1028 52 10000 8.2 10 11:39 29.03.2020
5873 Clouds 6 1028 56 10000 7.7 10 11:21 29.03.2020
5874 Clouds 6 1028 56 10000 7.7 10 10:59 29.03.2020
5875 Clouds 6 1028 56 10000 7.2 10 10:37 29.03.2020
5876 Clouds 5 1028 56 10000 8.2 10 10:18 29.03.2020
5877 Clouds 5 1028 56 10000 8.2 10 10:18 29.03.2020
5878 Clouds 5 1027 56 10000 6.7 360 09:40 29.03.2020
5879 Clouds 4 1027 64 10000 4.6 360 09:19 29.03.2020
5880 Clear 4 1027 64 10000 5.7 10 08:54 29.03.2020
5881 Clear 4 1027 64 10000 5.7 10 08:28 29.03.2020
5882 Clear 4 1027 64 10000 5.7 10 07:58 29.03.2020
5883 Clear 4 1027 56 10000 5.7 10 07:40 29.03.2020
5884 Clouds 4 1027 60 10000 5.7 360 07:20 29.03.2020
5885 Clouds 5 1026 60 10000 7.2 20 05:41 29.03.2020
5886 Clouds 6 1026 70 10000 8.7 20 03:58 29.03.2020
5887 Clouds 6 1026 70 10000 8.2 10 03:28 29.03.2020
5888 Clouds 6 1026 65 10000 6.2 10 01:51 29.03.2020
5889 Clouds 6 1026 65 10000 6.2 10 01:23 29.03.2020
5890 Clouds 6 1025 70 10000 6.7 360 00:55 29.03.2020
5891 Clouds 6 1025 70 10000 7.7 10 00:32 29.03.2020
5892 Clouds 7 1025 70 10000 7.7 10 23:56 28.03.2020
5893 Clouds 7 1025 75 10000 7.2 10 23:38 28.03.2020
5894 Clouds 7 1024 70 10000 6.7 10 23:18 28.03.2020
5895 Clouds 8 1024 70 10000 6.2 360 22:39 28.03.2020
5896 Clouds 8 1024 70 10000 6.2 360 22:21 28.03.2020
5897 Clouds 9 1024 66 10000 6.2 360 21:55 28.03.2020
5898 Clouds 9 1023 61 10000 6.7 360 21:37 28.03.2020
5899 Clouds 10 1022 57 10000 6.2 360 21:18 28.03.2020
5900 -273 0 0 0 0 0 20:42 28.03.2020
5901 Clouds 11 1022 53 10000 6.7 360 20:23 28.03.2020
5902 Rain 12 1021 54 10000 6.2 360 19:58 28.03.2020
5903 Rain 13 1021 47 10000 5.7 360 19:39 28.03.2020
5904 Rain 13 1020 44 10000 6.7 10 19:21 28.03.2020
5905 Rain 14 1020 44 10000 6.7 10 18:59 28.03.2020
5906 Rain 14 1020 47 10000 5.7 20 18:39 28.03.2020
5907 Rain 15 1020 44 8000 6.2 10 18:19 28.03.2020
5908 Rain 15 1019 44 10000 6.2 360 17:39 28.03.2020
5909 Clouds 15 1019 48 9000 5.1 10 17:21 28.03.2020
5910 Clouds 16 1019 48 9000 5.1 10 16:57 28.03.2020
5911 Clouds 16 1019 48 9000 5.1 350 16:37 28.03.2020
5912 Clouds 16 1019 48 7000 5.1 360 16:18 28.03.2020
5913 Clouds 16 1019 48 9000 5.1 360 15:39 28.03.2020
5914 Clouds 16 1019 48 9000 4.1 20 15:19 28.03.2020
5915 Clouds 16 1019 48 9000 4.1 20 14:57 28.03.2020
5916 Clouds 16 1019 48 9000 4.6 10 14:39 28.03.2020
5917 Clear 16 1020 47 8000 4.6 350 14:20 28.03.2020
5918 Clear 16 1020 47 8000 4.6 350 14:20 28.03.2020
5919 -273 0 0 0 0 0 14:20 28.03.2020
5920 Clear 15 1020 51 8000 3.1 350 13:42 28.03.2020
5921 Clear 15 1020 51 8000 3.1 350 13:23 28.03.2020
5922 Clear 14 1020 54 8000 3.1 350 12:41 28.03.2020
5923 Clear 13 1020 54 8000 3.1 350 12:22 28.03.2020
5924 Clear 12 1020 62 6000 2.1 340 11:43 28.03.2020
5925 Haze 11 1020 66 5000 3.6 350 11:24 28.03.2020
5926 Mist 10 1020 66 5000 3.1 360 10:58 28.03.2020
5927 Mist 10 1020 66 5000 3.1 360 10:38 28.03.2020
5928 Mist 9 1020 70 5000 3.6 360 10:19 28.03.2020
5929 Mist 8 1020 75 4400 3.1 360 09:43 28.03.2020
5930 Mist 7 1020 81 3900 2.1 350 09:24 28.03.2020
5931 Mist 6 1020 81 3900 2.1 350 08:57 28.03.2020
5932 Mist 5 1020 86 3600 1.5 0 08:39 28.03.2020
5933 Mist 6 1020 86 3600 1.5 0 08:39 28.03.2020
5934 Mist 5 1020 86 3300 2.07 17 08:20 28.03.2020
5935 Mist 4 1019 86 3600 1 330 07:44 28.03.2020
5936 Mist 3 1019 80 4100 1 0 07:26 28.03.2020
5937 Mist 4 1019 86 5000 1 330 06:36 28.03.2020
5938 Mist 4 1019 80 5000 1.5 320 05:43 28.03.2020
5939 Mist 4 1019 80 5000 0.5 0 05:21 28.03.2020
5940 Clouds 4 1019 75 6000 1 0 04:41 28.03.2020
5941 Clouds 4 1019 80 6000 1.5 0 03:54 28.03.2020
5942 Clouds 5 1019 75 6000 1.5 0 02:25 28.03.2020
5943 Clouds 5 1018 75 7000 2.1 340 01:41 28.03.2020
5944 Clouds 6 1018 70 7000 2.6 340 01:18 28.03.2020
5945 Clouds 6 1019 65 8000 3.1 350 00:37 28.03.2020
5946 Clouds 6 1018 61 8000 2.6 340 23:59 27.03.2020
5947 Clouds 6 1018 61 9000 2.6 350 23:41 27.03.2020
5948 Clouds 7 1018 61 9000 3.1 360 23:21 27.03.2020
5949 Clouds 7 1018 61 9000 3.1 360 22:56 27.03.2020
5950 Clouds 7 1018 57 10000 2.6 350 22:38 27.03.2020
5951 Clouds 7 1018 57 10000 2.1 350 22:20 27.03.2020
5952 Clouds 8 1018 66 10000 2.1 350 21:45 27.03.2020
5953 Clouds 8 1018 66 10000 2.1 350 21:25 27.03.2020
5954 Clouds 8 1018 66 10000 2.1 360 20:59 27.03.2020
5955 Clouds 9 1018 68 10000 1.5 350 20:41 27.03.2020
5956 Clouds 9 1018 63 10000 1.5 350 20:21 27.03.2020
5957 Clouds 9 1017 63 10000 2.1 360 19:58 27.03.2020
5958 Clouds 10 1017 63 10000 3.6 10 19:40 27.03.2020
5959 Clouds 11 1017 63 10000 4.1 10 19:21 27.03.2020
5960 Clouds 12 1017 63 10000 3.6 10 18:45 27.03.2020
5961 Clouds 12 1017 63 10000 4.6 10 18:26 27.03.2020
5962 Clouds 13 1016 63 10000 4.1 10 17:59 27.03.2020
5963 Clouds 13 1016 63 10000 4.1 10 17:40 27.03.2020
5964 Clouds 13 1017 51 10000 4.6 10 17:20 27.03.2020
5965 Clouds 13 1017 51 10000 4.1 10 16:45 27.03.2020
5966 Clouds 13 1017 51 10000 4.1 10 16:27 27.03.2020
5967 Clouds 13 1017 51 10000 4.6 10 15:57 27.03.2020
5968 Clouds 13 1017 51 10000 5.1 340 15:39 27.03.2020
5969 Clouds 13 1017 51 10000 3.6 350 15:21 27.03.2020
5970 Clouds 13 1017 51 10000 3.6 360 14:45 27.03.2020
5971 Clouds 13 1017 40 10000 3.6 20 14:24 27.03.2020
5972 Clouds 13 1017 40 10000 3.6 20 13:56 27.03.2020
5973 Clouds 12 1018 40 10000 4.1 30 13:37 27.03.2020
5974 Clouds 12 1018 43 10000 5.1 360 13:18 27.03.2020
5975 Clouds 12 1018 43 10000 4.1 10 12:49 27.03.2020
5976 Clouds 11 1018 43 10000 4.1 10 12:21 27.03.2020
5977 Clouds 11 1018 50 10000 4.6 350 11:59 27.03.2020
5978 Clouds 10 1018 49 10000 4.1 360 11:41 27.03.2020
5979 Clouds 9 1018 52 10000 3.6 350 11:22 27.03.2020
5980 Clouds 8 1019 52 10000 4.1 340 10:54 27.03.2020
5981 Clouds 8 1019 52 10000 4.1 340 10:36 27.03.2020
5982 Clouds 7 1019 56 10000 4.6 350 10:18 27.03.2020
5983 Clouds 7 1019 56 10000 4.6 350 09:56 27.03.2020
5984 Clouds 6 1019 60 10000 3.6 350 09:37 27.03.2020
5985 Clouds 5 1018 60 10000 3.1 350 09:18 27.03.2020
5986 Clouds 5 1018 60 10000 1.5 360 08:54 27.03.2020
5987 Clouds 4 1018 60 10000 1.5 360 08:36 27.03.2020
5988 Clouds 4 1018 60 10000 1.5 360 08:18 27.03.2020
5989 Clouds 3 1018 64 10000 3.1 340 07:49 27.03.2020
5990 Clouds 3 1018 64 10000 2.6 350 07:22 27.03.2020
5991 Clouds 2 1018 64 10000 2.6 350 06:45 27.03.2020
5992 Clouds 2 1018 64 10000 2.6 350 06:26 27.03.2020
5993 Clouds 3 1018 59 10000 1.5 0 03:42 27.03.2020
5994 Clouds 4 1018 59 10000 2.1 340 02:25 27.03.2020
5995 Clouds 5 1018 55 10000 3.1 360 01:22 27.03.2020
5996 Clouds 5 1019 52 10000 3.1 350 00:47 27.03.2020
5997 Clouds 5 1018 48 10000 3.6 360 00:23 27.03.2020
5998 Clouds 5 1018 48 10000 3.6 350 23:42 26.03.2020
5999 Clear 6 1018 45 10000 3.1 360 23:21 26.03.2020
6000 Clear 6 1018 45 10000 3.1 360 22:58 26.03.2020
6001 Clear 6 1018 45 10000 3.1 360 22:37 26.03.2020
6002 Clear 6 1018 45 10000 3.1 360 22:19 26.03.2020
6003 Clear 6 1018 45 10000 2.1 360 21:55 26.03.2020
6004 Clear 6 1018 41 10000 2.1 360 21:37 26.03.2020
6005 Clear 7 1018 39 10000 2.1 10 21:18 26.03.2020
6006 Clear 7 1018 39 10000 2.1 10 20:56 26.03.2020
6007 Clear 7 1018 41 10000 3.1 30 20:37 26.03.2020
6008 Clear 8 1018 39 10000 4.1 50 20:19 26.03.2020
6009 Clear 8 1018 36 10000 4.6 60 19:54 26.03.2020
6010 Clear 9 1018 36 10000 4.6 60 19:36 26.03.2020
6011 Clear 9 1018 31 10000 6.2 70 19:18 26.03.2020
6012 Clear 10 1017 31 10000 6.7 70 18:41 26.03.2020
6013 Clear 11 1017 29 10000 6.7 60 18:23 26.03.2020
6014 Clear 10 1017 29 10000 6.7 60 18:23 26.03.2020
6015 Clear 11 1017 29 10000 6.7 60 17:56 26.03.2020
6016 Clear 11 1017 27 10000 6.7 60 17:37 26.03.2020
6017 Clear 11 1017 32 10000 6.2 50 17:18 26.03.2020
6018 Clear 11 1017 29 10000 7.7 60 16:40 26.03.2020
6019 Clear 11 1017 32 10000 7.2 50 16:21 26.03.2020
6020 Clear 11 1017 32 10000 7.2 50 15:58 26.03.2020
6021 Clear 11 1017 29 10000 7.7 50 15:39 26.03.2020
6022 Clear 11 1017 31 10000 7.7 60 15:20 26.03.2020
6023 Clear 10 1017 31 10000 7.7 60 14:57 26.03.2020
6024 Clear 10 1017 34 10000 7.2 60 14:38 26.03.2020
6025 Clear 10 1018 34 10000 7.2 60 14:18 26.03.2020
6026 Clear 10 1018 34 10000 6.7 60 13:41 26.03.2020
6027 Clear 10 1018 34 10000 6.7 60 13:23 26.03.2020
6028 Clear 9 1017 34 10000 7.7 50 12:56 26.03.2020
6029 Clear 9 1018 34 10000 7.2 60 12:37 26.03.2020
6030 Clear 8 1018 36 10000 6.7 40 12:19 26.03.2020
6031 Clear 8 1018 39 10000 6.2 50 11:44 26.03.2020
6032 Clear 7 1018 36 10000 6.7 50 11:20 26.03.2020
6033 Clear 7 1018 36 10000 6.7 50 10:56 26.03.2020
6034 Clear 6 1018 41 10000 7.2 60 10:37 26.03.2020
6035 Clear 6 1018 38 10000 6.7 40 10:18 26.03.2020
6036 Clear 6 1018 38 10000 6.7 40 10:18 26.03.2020
6037 Clear 5 1018 41 10000 5.7 30 09:42 26.03.2020
6038 Clear 4 1018 44 10000 5.1 30 09:19 26.03.2020
6039 Clear 4 1018 44 10000 5.1 30 08:54 26.03.2020
6040 Clear 4 1018 44 10000 4.1 10 08:36 26.03.2020
6041 Clouds 4 1018 44 10000 4.1 10 08:18 26.03.2020
6042 Clouds 3 1018 44 10000 4.6 20 07:41 26.03.2020
6043 Clouds 3 1018 44 10000 3.6 20 07:20 26.03.2020
6044 Clouds 3 1018 47 10000 2.6 10 06:47 26.03.2020
6045 Clouds 3 1018 44 10000 3.6 10 05:52 26.03.2020
6046 Clouds 4 1018 41 10000 4.1 10 03:59 26.03.2020
6047 Clouds 4 1018 41 10000 4.6 10 03:36 26.03.2020
6048 Clouds 4 1018 47 10000 3.6 10 02:54 26.03.2020
6049 Clouds 5 1019 38 10000 4.1 20 01:50 26.03.2020
6050 Clouds 6 1019 41 10000 3.6 30 00:48 26.03.2020
6051 Clouds 6 1019 44 10000 3.6 30 23:56 25.03.2020
6052 Clouds 6 1019 51 10000 2.6 30 23:36 25.03.2020
6053 Clouds 7 1019 48 10000 4.6 30 23:18 25.03.2020
6054 Clouds 7 1019 45 10000 5.1 20 22:39 25.03.2020
6055 Clouds 7 1019 45 10000 5.1 20 22:20 25.03.2020
6056 Clouds 7 1019 45 10000 4.6 20 21:56 25.03.2020
6057 Clouds 8 1019 42 10000 4.1 10 21:37 25.03.2020
6058 Clouds 8 1019 42 10000 3.6 360 21:19 25.03.2020
6059 Clouds 8 1018 42 10000 3.6 360 20:54 25.03.2020
6060 Clouds 8 1018 42 10000 3.6 360 20:36 25.03.2020
6061 Clear 9 1018 36 10000 3.1 360 20:18 25.03.2020
6062 Clear 9 1018 34 10000 4.1 360 19:42 25.03.2020
6063 Clear 10 1019 29 10000 5.1 10 19:22 25.03.2020
6064 Clear 11 1019 29 10000 5.1 10 18:57 25.03.2020
6065 Clear 11 1019 25 10000 5.7 30 18:38 25.03.2020
6066 Clear 12 1019 27 10000 6.7 30 18:20 25.03.2020
6067 Clear 12 1019 23 10000 6.2 40 17:55 25.03.2020
6068 Clear 12 1019 23 10000 6.2 40 17:36 25.03.2020
6069 Clear 12 1019 23 10000 6.2 20 17:18 25.03.2020
6070 Clear 12 1019 25 10000 5.1 40 16:43 25.03.2020
6071 Clear 12 1019 25 10000 5.1 40 16:43 25.03.2020
6072 Clear 12 1020 25 10000 5.1 40 16:23 25.03.2020
6073 Clear 12 1020 25 10000 5.1 40 15:57 25.03.2020
6074 Clear 12 1020 23 10000 6.2 40 15:38 25.03.2020
6075 Clear 12 1020 23 10000 6.2 40 15:19 25.03.2020
6076 Clear 12 1021 29 10000 4.6 40 14:42 25.03.2020
6077 Clear 11 1022 34 10000 5.1 50 14:21 25.03.2020
6078 Clear 11 1022 34 10000 5.1 50 13:56 25.03.2020
6079 Clear 10 1022 37 10000 5.1 60 13:38 25.03.2020
6080 Clear 10 1022 34 10000 5.1 40 13:19 25.03.2020
6081 Clear 9 1023 36 10000 5.1 50 12:37 25.03.2020
6082 Clear 9 1023 36 10000 4.1 50 12:19 25.03.2020
6083 Clear 9 1023 36 10000 4.1 50 11:55 25.03.2020
6084 Clear 8 1023 39 10000 3.6 50 11:36 25.03.2020
6085 Clear 7 1023 42 10000 4.1 70 11:18 25.03.2020
6086 Clear 7 1023 41 10000 3.6 50 10:55 25.03.2020
6087 Clear 7 1023 41 10000 3.6 50 10:36 25.03.2020
6088 Clear 5 1024 44 10000 4.1 60 10:18 25.03.2020
6089 Clear 5 1024 44 10000 4.1 60 09:42 25.03.2020
6090 Clear 4 1024 51 10000 2.1 20 09:22 25.03.2020
6091 Clear 4 1024 51 10000 2.1 20 08:56 25.03.2020
6092 Clear 3 1024 55 10000 2.6 350 08:38 25.03.2020
6093 Clear 3 1024 55 10000 2.6 350 08:38 25.03.2020
6094 Clear 3 1023 51 10000 3.6 70 08:19 25.03.2020
6095 Clear 1 1024 83 10000 2.1 350 07:41 25.03.2020
6096 Clear 1 1024 83 10000 2.1 360 07:20 25.03.2020
6097 Clear 1 1023 55 10000 1.5 20 06:48 25.03.2020
6098 Clear 1 1023 55 10000 1.5 20 06:28 25.03.2020
6099 Clear 2 1023 55 10000 2.1 10 05:56 25.03.2020
6100 Clear 2 1023 55 10000 1.5 20 05:30 25.03.2020
6101 Clear 2 1023 55 10000 2.6 40 04:39 25.03.2020
6102 Clear 3 1024 55 10000 1.5 50 03:36 25.03.2020
6103 Clear 3 1024 51 10000 2.1 50 02:40 25.03.2020
6104 Clear 4 1024 47 10000 3.6 50 01:23 25.03.2020
6105 Clear 5 1024 38 10000 4.6 90 00:49 25.03.2020
6106 Clear 5 1024 38 10000 4.6 90 00:24 25.03.2020
6107 Clear 6 1025 48 10000 3.6 50 23:46 24.03.2020
6108 Clear 6 1025 41 10000 4.6 50 23:28 24.03.2020
6109 Clear 6 1025 41 10000 4.6 50 22:57 24.03.2020
6110 Clear 7 1024 33 10000 6.2 80 22:38 24.03.2020
6111 Clear 7 1024 33 10000 6.2 80 22:19 24.03.2020
6112 Clear 7 1024 33 10000 5.1 80 21:56 24.03.2020
6113 Clear 7 1024 38 10000 4.6 60 21:38 24.03.2020
6114 Clear 8 1023 33 10000 4.1 80 21:18 24.03.2020
6115 Clear 8 1023 33 10000 4.1 80 20:57 24.03.2020
6116 Clear 8 1024 42 10000 3.6 50 20:39 24.03.2020
6117 Clear 9 1024 31 10000 4.1 50 20:21 24.03.2020
6118 Clear 10 1024 27 10000 5.1 70 19:45 24.03.2020
6119 Clear 11 1024 23 10000 6.2 80 19:19 24.03.2020
6120 Clear 11 1024 23 10000 6.2 80 18:56 24.03.2020
6121 Clear 12 1024 22 10000 6.2 60 18:37 24.03.2020
6122 Clear 12 1024 27 10000 5.1 60 18:19 24.03.2020
6123 Clear 12 1024 27 10000 5.1 60 17:56 24.03.2020
6124 Clear 13 1024 25 10000 6.2 60 17:37 24.03.2020
6125 Clear 13 1024 24 10000 5.7 70 17:19 24.03.2020
6126 Clear 13 1025 26 10000 6.2 60 16:54 24.03.2020
6127 Clear 13 1025 26 10000 6.2 60 16:36 24.03.2020
6128 Clear 13 1025 26 10000 6.2 60 16:36 24.03.2020
6129 Clear 13 1025 24 10000 6.2 70 16:18 24.03.2020
6130 Clear 13 1025 26 10000 6.2 60 15:42 24.03.2020
6131 Clear 13 1025 26 10000 6.2 60 15:23 24.03.2020
6132 Clear 12 1026 25 10000 5.1 70 14:44 24.03.2020
6133 Clear 12 1026 25 10000 5.1 70 14:22 24.03.2020
6134 Clear 12 1026 25 10000 5.1 70 13:59 24.03.2020
6135 Clear 11 1026 25 10000 5.1 80 13:40 24.03.2020
6136 Clear 11 1026 31 10000 4.6 70 13:22 24.03.2020
6137 Clear 10 1026 31 10000 4.6 60 12:42 24.03.2020
6138 Clear 9 1027 28 10000 4.6 100 12:24 24.03.2020
6139 Clear 8 1027 28 10000 5.7 90 11:41 24.03.2020
6140 Clear 7 1027 38 10000 4.1 70 11:22 24.03.2020
6141 Clear 6 1028 41 10000 3.6 60 10:59 24.03.2020
6142 Clear 6 1028 41 10000 3.6 60 10:41 24.03.2020
6143 Clear 6 1028 41 10000 3.6 70 10:19 24.03.2020
6144 Clear 5 1027 48 10000 4.6 90 09:47 24.03.2020
6145 Clear 4 1027 48 10000 4.6 90 09:27 24.03.2020
6146 Clear 3 1027 51 10000 4.1 90 08:58 24.03.2020
6147 Clear 2 1027 64 10000 3.1 60 08:38 24.03.2020
6148 Clear 1 1027 63 10000 3.1 60 08:20 24.03.2020
6149 Clear 1 1027 63 10000 2.1 70 07:44 24.03.2020
6150 Clear 0 1027 63 10000 2.1 70 07:22 24.03.2020
6151 Clear 0 1027 63 10000 2.6 60 06:42 24.03.2020
6152 Clear 0 1027 46 10000 1.5 0 06:23 24.03.2020
6153 Clear 1 1027 50 10000 2.6 70 04:53 24.03.2020
6154 Clear 1 1027 55 10000 1.5 30 03:43 24.03.2020
6155 Clear 2 1027 51 10000 2.1 40 02:45 24.03.2020
6156 Clear 3 1027 47 10000 3.6 90 01:38 24.03.2020
6157 Clear 4 1027 44 10000 4.1 90 00:42 24.03.2020
6158 Clear 4 1026 44 10000 3.6 70 00:22 24.03.2020
6159 Clear 5 1026 55 10000 4.6 80 23:39 23.03.2020
6160 Clear 5 1026 38 10000 4.6 100 23:21 23.03.2020
6161 Clear 6 1026 48 10000 4.1 80 22:45 23.03.2020
6162 Clear 6 1026 48 10000 3.6 60 22:24 23.03.2020
6163 Clear 6 1026 48 10000 3.6 60 21:58 23.03.2020
6164 Clear 6 1026 45 10000 3.6 60 21:40 23.03.2020
6165 Clear 7 1026 36 10000 5.1 90 21:20 23.03.2020
6166 Clear 7 1026 36 10000 5.1 90 20:57 23.03.2020
6167 Clear 8 1026 36 10000 5.1 90 20:38 23.03.2020
6168 Clear 8 1026 36 10000 5.1 90 20:19 23.03.2020
6169 Clear 9 1025 34 10000 6.2 100 19:45 23.03.2020
6170 Clear 9 1025 34 10000 6.2 100 19:26 23.03.2020
6171 Clear 10 1025 34 10000 6.2 90 18:57 23.03.2020
6172 Clear 10 1025 34 10000 6.2 90 18:39 23.03.2020
6173 Clear 11 1025 32 10000 6.7 100 18:20 23.03.2020
6174 Clear 11 1025 32 10000 6.7 100 17:42 23.03.2020
6175 Clear 11 1025 34 10000 6.7 90 17:21 23.03.2020
6176 Clear 11 1025 34 10000 6.7 80 16:57 23.03.2020
6177 Clear 11 1025 34 10000 6.7 80 16:39 23.03.2020
6178 Clear 12 1025 32 10000 6.7 100 16:20 23.03.2020
6179 Clear 11 1025 34 10000 6.2 90 15:42 23.03.2020
6180 Clear 11 1025 34 10000 6.7 80 15:20 23.03.2020
6181 Clear 11 1025 34 10000 6.7 80 14:55 23.03.2020
6182 Clear 11 1025 34 10000 6.7 80 14:36 23.03.2020
6183 Clear 10 1026 34 10000 7.7 80 14:18 23.03.2020
6184 Clear 10 1026 34 10000 7.2 100 13:40 23.03.2020
6185 Clear 9 1026 36 10000 7.7 90 13:21 23.03.2020
6186 Clear 8 1026 36 10000 7.7 100 12:45 23.03.2020
6187 Clear 8 1026 36 10000 7.2 90 12:26 23.03.2020
6188 Clear 7 1025 45 10000 6.7 90 11:59 23.03.2020
6189 Clear 7 1025 45 10000 6.7 90 11:40 23.03.2020
6190 Clear 6 1025 48 10000 9.3 90 11:20 23.03.2020
6191 Clear 6 1025 48 10000 9.3 90 10:58 23.03.2020
6192 Clear 6 1026 41 10000 6.7 80 10:58 23.03.2020
6193 Clear 5 1026 44 10000 6.2 100 10:39 23.03.2020
6194 Clear 5 1026 48 10000 6.2 100 10:21 23.03.2020
6195 Clear 4 1026 48 10000 6.2 70 09:46 23.03.2020
6196 Clear 3 1026 51 10000 5.7 80 09:21 23.03.2020
6197 Clear 3 1026 51 10000 5.7 80 08:58 23.03.2020
6198 Clear 3 1026 51 10000 5.7 80 08:58 23.03.2020
6199 Clear 2 1026 55 10000 5.1 80 08:37 23.03.2020
6200 Clear 2 1026 59 10000 3.6 80 08:19 23.03.2020
6201 Clear 1 1026 49 10000 4.1 70 07:48 23.03.2020
6202 Clear 1 1026 49 10000 4.1 70 07:29 23.03.2020
6203 Clear 1 1024 55 10000 6.2 80 06:52 23.03.2020
6204 Clear 1 1024 55 10000 6.2 80 06:20 23.03.2020
6205 Clear 2 1024 55 10000 5.1 80 05:34 23.03.2020
6206 Clear 3 1025 59 10000 3.1 50 03:45 23.03.2020
6207 Clear 4 1025 51 10000 3.6 30 02:40 23.03.2020
6208 Clear 5 1025 48 10000 4.6 70 01:34 23.03.2020
6209 Clear 5 1024 41 10000 5.1 80 00:43 23.03.2020
6210 Clear 6 1024 36 10000 7.2 80 23:53 22.03.2020
6211 Clear 7 1024 41 10000 4.6 60 23:27 22.03.2020
6212 Clear 7 1024 41 10000 4.6 60 22:59 22.03.2020
6213 Clear 7 1024 31 10000 8.2 90 22:39 22.03.2020
6214 Clear 8 1023 36 10000 6.7 70 22:18 22.03.2020
6215 Clear 8 1023 42 10000 6.2 70 21:40 22.03.2020
6216 Clear 9 1023 45 10000 5.7 60 21:20 22.03.2020
6217 Clear 9 1023 45 10000 5.7 60 20:58 22.03.2020
6218 Clear 9 1023 49 10000 4.1 50 20:39 22.03.2020
6219 Clouds 9 1023 49 10000 4.1 50 20:21 22.03.2020
6220 Clouds 9 1022 45 10000 4.1 60 19:55 22.03.2020
6221 Clouds 10 1022 43 10000 4.6 70 19:37 22.03.2020
6222 Clouds 10 1022 43 10000 4.6 70 19:19 22.03.2020
6223 Clouds 10 1022 46 10000 5.1 60 18:56 22.03.2020
6224 Clouds 10 1021 43 10000 6.2 70 18:38 22.03.2020
6225 Clouds 10 1021 43 10000 6.7 70 18:18 22.03.2020
6226 Clouds 11 1021 43 10000 6.7 70 17:56 22.03.2020
6227 Clouds 11 1021 43 10000 8.7 60 17:37 22.03.2020
6228 Clear 11 1021 50 10000 8.7 70 17:19 22.03.2020
6229 Clear 10 1021 53 10000 8.2 70 16:55 22.03.2020
6230 Clear 10 1021 53 10000 8.2 70 16:36 22.03.2020
6231 Clouds 10 1021 57 10000 7.7 60 16:18 22.03.2020
6232 Clouds 10 1021 53 10000 7.7 70 15:39 22.03.2020
6233 Clouds 9 1021 61 10000 6.7 70 15:19 22.03.2020
6234 Clouds 9 1021 57 10000 7.7 70 14:46 22.03.2020
6235 Clouds 9 1021 57 10000 7.7 70 14:18 22.03.2020
6236 Clouds 9 1021 57 10000 8.7 60 13:42 22.03.2020
6237 Clouds 9 1021 57 10000 8.7 60 13:20 22.03.2020
6238 Clouds 8 1021 61 10000 8.7 70 12:47 22.03.2020
6239 Clouds 8 1021 52 10000 8.7 70 12:23 22.03.2020
6240 Clouds 8 1021 52 10000 8.7 70 12:23 22.03.2020
6241 Clouds 8 1021 52 10000 8.7 70 11:59 22.03.2020
6242 Clouds 7 1021 52 10000 8.2 60 11:41 22.03.2020
6243 Clouds 7 1021 61 10000 8.2 60 11:23 22.03.2020
6244 Clouds 6 1021 61 10000 8.2 60 10:58 22.03.2020
6245 Clouds 6 1021 61 10000 7.7 60 10:39 22.03.2020
6246 Clouds 6 1021 61 10000 7.7 60 10:21 22.03.2020
6247 Clouds 5 1021 65 10000 6.7 50 09:43 22.03.2020
6248 Clouds 5 1021 65 10000 6.7 50 09:24 22.03.2020
6249 Clouds 5 1021 65 10000 7.2 50 08:48 22.03.2020
6250 Clouds 5 1021 65 10000 7.2 50 08:48 22.03.2020
6251 Clouds 5 1021 65 10000 7.2 50 08:29 22.03.2020
6252 Clouds 5 1021 65 10000 7.2 50 07:53 22.03.2020
6253 Clouds 5 1021 65 10000 7.2 50 07:32 22.03.2020
6254 Clouds 5 1020 70 10000 7.7 50 06:41 22.03.2020
6255 Clouds 6 1020 70 10000 7.2 50 05:41 22.03.2020
6256 Clouds 6 1020 70 10000 6.7 50 04:34 22.03.2020
6257 Clouds 7 1020 65 10000 5.7 50 01:45 22.03.2020
6258 Clouds 7 1020 65 10000 5.7 50 00:50 22.03.2020
6259 Clouds 7 1020 70 10000 5.7 50 00:31 22.03.2020
6260 Clouds 7 1020 65 10000 6.7 50 23:45 21.03.2020
6261 Clouds 7 1020 65 10000 6.7 50 23:22 21.03.2020
6262 Clouds 7 1020 65 10000 6.2 50 22:58 21.03.2020
6263 Clouds 8 1020 65 10000 6.2 50 22:38 21.03.2020
6264 Clouds 8 1020 65 10000 6.7 50 22:19 21.03.2020
6265 Clouds 8 1020 70 10000 7.2 50 21:57 21.03.2020
6266 Clouds 8 1020 70 10000 7.2 50 21:38 21.03.2020
6267 Clouds 8 1020 70 10000 5.7 50 21:19 21.03.2020
6268 Clouds 8 1020 65 10000 6.2 60 20:42 21.03.2020
6269 Clouds 8 1020 70 10000 7.7 60 20:22 21.03.2020
6270 Clouds 8 1020 70 10000 7.7 60 19:55 21.03.2020
6271 Clouds 8 1020 70 10000 6.7 60 19:36 21.03.2020
6272 Clouds 8 1020 70 10000 7.2 50 19:18 21.03.2020
6273 Clouds 8 1020 70 10000 7.7 50 18:41 21.03.2020
6274 Clouds 8 1020 70 10000 8.2 50 18:21 21.03.2020
6275 Clouds 8 1020 70 10000 8.2 50 17:59 21.03.2020
6276 Clouds 8 1019 70 10000 5.7 60 17:41 21.03.2020
6277 Clouds 8 1020 75 10000 7.7 60 17:22 21.03.2020
6278 Clouds 8 1019 70 10000 6.7 60 16:42 21.03.2020
6279 Clouds 8 1020 70 10000 8.7 50 16:24 21.03.2020
6280 Clouds 8 1020 70 10000 8.2 50 15:59 21.03.2020
6281 Clouds 8 1020 70 10000 8.2 50 15:40 21.03.2020
6282 Clouds 8 1020 75 10000 8.2 40 15:22 21.03.2020
6283 Clouds 8 1020 75 10000 8.2 40 14:57 21.03.2020
6284 Clouds 8 1020 70 10000 7.7 50 14:39 21.03.2020
6285 Clouds 8 1020 70 10000 7.2 50 14:20 21.03.2020
6286 Clouds 8 1020 70 10000 7.2 50 13:58 21.03.2020
6287 Clouds 8 1020 75 10000 7.7 50 13:39 21.03.2020
6288 Clouds 8 1021 75 10000 7.2 60 13:21 21.03.2020
6289 Clouds 8 1021 75 10000 7.2 60 12:57 21.03.2020
6290 Clouds 8 1021 75 10000 7.2 50 12:37 21.03.2020
6291 Clouds 7 1021 75 10000 7.7 50 12:19 21.03.2020
6292 Clouds 7 1021 75 10000 7.2 50 11:55 21.03.2020
6293 Clouds 7 1021 75 10000 7.2 50 11:37 21.03.2020
6294 Clouds 7 1021 81 10000 6.2 50 11:18 21.03.2020
6295 Clouds 7 1021 81 10000 5.7 40 10:56 21.03.2020
6296 Clouds 7 1021 81 10000 5.7 40 10:38 21.03.2020
6297 Clouds 6 1021 87 10000 6.2 40 10:19 21.03.2020
6298 Clouds 6 1021 81 10000 5.7 40 10:19 21.03.2020
6299 Clouds 6 1021 87 10000 6.2 40 09:55 21.03.2020
6300 Clouds 6 1021 87 10000 6.2 30 09:36 21.03.2020
6301 Clouds 6 1021 87 10000 5.7 30 09:18 21.03.2020
6302 Clouds 6 1021 87 10000 5.7 30 08:42 21.03.2020
6303 Clouds 6 1021 87 10000 5.1 20 08:23 21.03.2020
6304 Clouds 6 1021 87 10000 5.7 20 07:43 21.03.2020
6305 Clouds 6 1021 87 10000 5.7 20 07:23 21.03.2020
6306 Clouds 6 1021 87 10000 5.1 10 06:48 21.03.2020
6307 Clouds 6 1021 87 10000 5.1 10 06:28 21.03.2020
6308 Clouds 6 1021 93 10000 5.1 20 05:46 21.03.2020
6309 Clouds 6 1021 81 10000 5.7 20 04:46 21.03.2020
6310 Clouds 7 1022 81 10000 5.1 20 02:55 21.03.2020
6311 Clouds 7 1022 81 10000 5.7 20 02:33 21.03.2020
6312 Clouds 7 1022 81 10000 5.1 20 01:33 21.03.2020
6313 Clouds 8 1022 75 10000 5.1 10 00:56 21.03.2020
6314 Clouds 8 1022 75 10000 5.1 10 00:37 21.03.2020
6315 Clouds 8 1022 75 10000 5.7 20 23:53 20.03.2020
6316 Clouds 8 1022 75 10000 5.7 20 23:28 20.03.2020
6317 Clouds 8 1022 81 10000 5.1 20 22:59 20.03.2020
6318 Clouds 8 1022 76 10000 6.2 20 22:41 20.03.2020
6319 Clouds 9 1022 81 10000 5.1 20 22:22 20.03.2020
6320 Clouds 9 1022 81 10000 5.1 20 21:56 20.03.2020
6321 Clouds 9 1022 81 9000 5.7 20 21:38 20.03.2020
6322 Clouds 9 1022 76 8000 6.7 20 21:18 20.03.2020
6323 Clouds 9 1022 76 8000 6.7 20 20:57 20.03.2020
6324 Clouds 9 1022 76 7000 6.7 30 20:39 20.03.2020
6325 Clouds 9 1022 76 7000 5.7 20 20:18 20.03.2020
6326 Clouds 10 1022 81 7000 5.7 20 19:46 20.03.2020
6327 Clouds 10 1022 81 6000 5.1 10 19:19 20.03.2020
6328 Clouds 10 1022 81 6000 5.1 10 18:56 20.03.2020
6329 Clouds 11 1022 76 6000 6.2 10 18:37 20.03.2020
6330 Mist 11 1021 81 5000 6.2 10 18:19 20.03.2020
6331 Mist 12 1021 76 5000 5.7 360 17:40 20.03.2020
6332 Mist 13 1021 76 5000 5.7 360 17:21 20.03.2020
6333 Mist 13 1021 76 5000 5.7 360 16:59 20.03.2020
6334 Clouds 14 1021 71 7000 6.2 360 16:41 20.03.2020
6335 Clouds 15 1021 71 6000 6.2 10 16:20 20.03.2020
6336 Clouds 15 1021 71 6000 5.7 10 15:43 20.03.2020
6337 Clouds 16 1021 76 6000 5.1 360 15:22 20.03.2020
6338 Clouds 16 1021 76 6000 5.1 360 14:57 20.03.2020
6339 Clouds 16 1021 67 7000 5.1 360 14:38 20.03.2020
6340 Clouds 15 1022 71 8000 5.1 360 14:19 20.03.2020
6341 Clouds 16 1022 71 9000 5.1 10 13:46 20.03.2020
6342 Clouds 15 1022 71 6000 5.1 10 13:20 20.03.2020
6343 Clouds 15 1022 71 6000 5.1 10 12:57 20.03.2020
6344 Clouds 15 1022 71 7000 5.1 360 12:37 20.03.2020
6345 Clouds 15 1022 76 6000 4.6 10 12:18 20.03.2020
6346 Clouds 14 1022 71 7000 5.1 20 11:39 20.03.2020
6347 Clouds 13 1022 76 7000 4.6 20 11:20 20.03.2020
6348 Clouds 13 1022 81 6000 4.1 10 10:54 20.03.2020
6349 Clouds 13 1022 81 6000 4.1 10 10:36 20.03.2020
6350 Clouds 13 1022 81 6000 3.1 40 10:18 20.03.2020
6351 Mist 12 1022 81 4600 4.1 30 09:44 20.03.2020
6352 Mist 11 1022 87 4200 3.6 20 09:20 20.03.2020
6353 Mist 11 1022 87 4200 3.6 20 08:43 20.03.2020
6354 Mist 11 1022 87 4200 3.6 20 08:23 20.03.2020
6355 Mist 10 1022 93 3900 2.6 20 07:57 20.03.2020
6356 Mist 10 1021 87 4000 3.1 10 07:38 20.03.2020
6357 Mist 10 1021 87 5000 3.6 350 07:19 20.03.2020
6358 Clouds 11 1021 87 6000 3.6 360 06:42 20.03.2020
6359 Clouds 11 1021 81 6000 2.1 360 05:57 20.03.2020
6360 Clouds 11 1021 81 7000 3.6 330 04:36 20.03.2020
6361 Clouds 11 1021 81 6000 2.6 340 02:50 20.03.2020
6362 Clouds 12 1021 81 9000 2.1 20 01:50 20.03.2020
6363 Clouds 12 1021 81 10000 2.6 10 00:38 20.03.2020
6364 Clouds 13 1021 71 10000 2.6 10 23:59 19.03.2020
6365 Clouds 13 1021 71 10000 2.6 10 23:40 19.03.2020
6366 Clouds 13 1021 76 10000 2.6 90 23:22 19.03.2020
6367 Clouds 13 1021 71 10000 3.6 10 22:41 19.03.2020
6368 Clouds 14 1021 71 10000 3.6 10 22:22 19.03.2020
6369 Clouds 14 1021 71 10000 3.1 360 21:58 19.03.2020
6370 Clouds 14 1021 76 10000 2.6 350 21:38 19.03.2020
6371 Clouds 14 1021 76 10000 2.6 350 21:19 19.03.2020
6372 Clouds 15 1021 67 10000 2.6 360 20:44 19.03.2020
6373 Clouds 15 1021 67 10000 2.6 360 20:25 19.03.2020
6374 Clouds 16 1021 63 10000 2.1 10 19:59 19.03.2020
6375 Clouds 16 1021 63 10000 2.6 40 19:39 19.03.2020
6376 Clouds 17 1021 55 10000 2.1 30 19:21 19.03.2020
6377 Clouds 17 1021 55 10000 2.1 30 18:58 19.03.2020
6378 Clouds 18 1020 52 10000 1.5 70 18:40 19.03.2020
6379 Clouds 18 1020 52 10000 1.5 70 18:22 19.03.2020
6380 Clouds 19 1021 59 10000 3.1 30 17:54 19.03.2020
6381 Clouds 19 1021 59 10000 3.1 30 17:36 19.03.2020
6382 Clouds 20 1021 48 10000 1 0 17:18 19.03.2020
6383 Clouds 20 1021 52 10000 1.5 40 16:41 19.03.2020
6384 Clouds 20 1021 52 10000 2.6 40 16:21 19.03.2020
6385 Clouds 19 1021 49 10000 1.5 40 15:43 19.03.2020
6386 Clouds 19 1022 45 10000 1 0 15:24 19.03.2020
6387 Clouds 19 1022 48 10000 2.1 170 14:43 19.03.2020
6388 Clouds 19 1022 48 10000 2.1 170 14:23 19.03.2020
6389 Clouds 19 1022 48 10000 1.5 0 13:59 19.03.2020
6390 Clouds 18 1023 55 10000 2.1 60 13:38 19.03.2020
6391 Clouds 18 1023 63 10000 2.6 50 13:18 19.03.2020
6392 Clouds 17 1023 59 10000 2.1 30 12:42 19.03.2020
6393 Clouds 17 1023 59 10000 2.1 30 12:24 19.03.2020
6394 Clouds 17 1023 67 10000 1.5 80 11:59 19.03.2020
6395 Clouds 16 1024 62 10000 1.5 0 11:41 19.03.2020
6396 Clouds 15 1024 67 10000 1 0 11:22 19.03.2020
6397 Clouds 14 1024 71 10000 1.5 0 10:44 19.03.2020
6398 Clouds 13 1024 76 10000 1 0 10:22 19.03.2020
6399 Clouds 12 1024 76 10000 1 0 09:58 19.03.2020
6400 Clouds 11 1024 76 10000 1 40 09:40 19.03.2020
6401 Clouds 11 1024 76 10000 1 40 09:20 19.03.2020
6402 Clouds 9 1024 81 10000 1.5 360 08:46 19.03.2020
6403 Clouds 8 1024 75 10000 1 10 08:23 19.03.2020
6404 Clouds 7 1024 75 10000 1 0 07:48 19.03.2020
6405 Clouds 7 1024 75 10000 1 0 07:30 19.03.2020
6406 Clouds 7 1024 81 10000 1 10 06:51 19.03.2020
6407 Clouds 7 1024 87 10000 2.1 350 06:18 19.03.2020
6408 Clouds 8 1024 87 10000 1 350 05:23 19.03.2020
6409 Clouds 8 1024 87 10000 1 350 04:41 19.03.2020
6410 Clouds 8 1024 93 10000 1 10 03:39 19.03.2020
6411 Clouds 9 1025 87 7000 2.6 350 01:45 19.03.2020
6412 Clouds 9 1025 87 7000 2.1 350 00:39 19.03.2020
6413 Clouds 9 1025 87 7000 2.1 350 00:18 19.03.2020
6414 Clouds 10 1025 81 8000 1.5 360 23:41 18.03.2020
6415 Clouds 10 1025 81 9000 1 360 23:21 18.03.2020
6416 Clouds 11 1025 76 10000 1.5 360 22:42 18.03.2020
6417 Clouds 11 1025 76 10000 1.5 360 22:22 18.03.2020
6418 Clouds 11 1025 76 10000 1.5 360 21:55 18.03.2020
6419 Clouds 12 1025 66 10000 1 0 21:37 18.03.2020
6420 Clouds 12 1025 66 10000 1 0 21:19 18.03.2020
6421 Clouds 12 1025 66 10000 2.1 50 20:55 18.03.2020
6422 Clouds 13 1025 62 10000 1.5 10 20:37 18.03.2020
6423 Clouds 13 1025 54 10000 0.5 100 20:18 18.03.2020
6424 Clouds 14 1025 51 10000 1.27 334 19:40 18.03.2020
6425 Clouds 15 1025 51 10000 1.27 334 19:21 18.03.2020
6426 Clouds 16 1025 55 10000 0.5 150 18:57 18.03.2020
6427 Clouds 16 1025 51 10000 1 120 18:38 18.03.2020
6428 Clouds 17 1025 55 10000 1.5 140 18:19 18.03.2020
6429 Clouds 18 1025 55 10000 2.1 180 17:55 18.03.2020
6430 Clouds 17 1025 55 10000 2.1 180 17:37 18.03.2020
6431 Clouds 17 1026 55 10000 1.5 160 17:18 18.03.2020
6432 Clouds 18 1026 52 10000 3.1 160 16:42 18.03.2020
6433 Clouds 18 1026 52 10000 3.6 220 16:20 18.03.2020
6434 Clouds 18 1026 52 10000 3.6 220 15:57 18.03.2020
6435 Clouds 18 1027 55 10000 2.1 220 15:38 18.03.2020
6436 Clouds 17 1027 55 10000 2.1 210 15:20 18.03.2020
6437 Clouds 17 1027 55 10000 2.1 180 14:42 18.03.2020
6438 Clouds 17 1028 51 10000 3.6 190 14:21 18.03.2020
6439 Clouds 17 1028 63 10000 3.1 150 13:42 18.03.2020
6440 Clear 16 1028 63 10000 1.5 0 13:19 18.03.2020
6441 Clear 16 1028 63 10000 1.5 0 12:55 18.03.2020
6442 Clear 15 1028 72 10000 1 0 12:37 18.03.2020
6443 Clear 15 1029 72 10000 0.5 0 12:19 18.03.2020
6444 Clear 14 1029 76 9000 0.5 0 11:38 18.03.2020
6445 Clear 13 1029 82 8000 1 0 11:19 18.03.2020
6446 Clear 13 1029 82 8000 1 0 10:58 18.03.2020
6447 Clear 13 1029 81 6000 1.21 218 10:38 18.03.2020
6448 Mist 12 1029 87 4900 1.21 218 10:19 18.03.2020
6449 Mist 11 1029 93 4300 1 350 09:43 18.03.2020
6450 Mist 11 1029 93 4300 1 350 09:25 18.03.2020
6451 Mist 10 1029 100 3700 1 360 08:56 18.03.2020
6452 Mist 9 1029 93 3900 1.5 360 08:38 18.03.2020
6453 Mist 9 1029 93 3500 1.5 360 08:20 18.03.2020
6454 Mist 9 1029 93 3000 0.5 360 07:44 18.03.2020
6455 Mist 9 1029 93 3000 0.5 360 07:26 18.03.2020
6456 Mist 9 1029 87 5000 1 0 06:44 18.03.2020
6457 Mist 9 1029 93 5000 1.46 209 06:20 18.03.2020
6458 Mist 9 1029 93 5000 1.5 80 05:34 18.03.2020
6459 Clouds 9 1029 93 6000 1 360 04:25 18.03.2020
6460 Clear 10 1029 93 6000 1 60 02:44 18.03.2020
6461 Clouds 10 1030 87 6000 1 30 01:48 18.03.2020
6462 Clouds 10 1030 93 6000 1 40 01:27 18.03.2020
6463 Mist 10 1030 93 4800 1 170 00:24 18.03.2020
6464 Clouds 10 1030 93 6000 2.1 350 23:50 17.03.2020
6465 Clouds 10 1030 93 6000 2.1 350 23:28 17.03.2020
6466 Clouds 10 1030 93 7000 1.5 360 22:59 17.03.2020
6467 Clouds 10 1031 81 8000 1 0 22:40 17.03.2020
6468 Clouds 10 1030 81 9000 1 350 22:22 17.03.2020
6469 Clouds 10 1030 76 10000 1.5 100 21:40 17.03.2020
6470 Clouds 10 1030 76 10000 1.5 100 21:21 17.03.2020
6471 Clouds 11 1030 71 10000 1 360 20:41 17.03.2020
6472 Clouds 11 1030 71 10000 1 360 20:23 17.03.2020
6473 Clouds 12 1030 66 10000 0.72 239 19:59 17.03.2020
6474 Clouds 12 1030 62 10000 0.72 239 19:40 17.03.2020
6475 Clouds 13 1030 76 10000 0.72 239 19:18 17.03.2020
6476 Clouds 14 1030 62 10000 1 350 18:56 17.03.2020
6477 Clouds 14 1030 62 10000 1 350 18:37 17.03.2020
6478 Clouds 14 1030 58 10000 1 0 18:19 17.03.2020
6479 Clouds 15 1030 58 10000 1.5 0 17:41 17.03.2020
6480 Clouds 15 1030 58 10000 1.5 0 17:41 17.03.2020
6481 Clouds 15 1030 58 10000 1.5 0 17:22 17.03.2020
6482 Clouds 15 1030 58 10000 1.5 0 16:56 17.03.2020
6483 Clouds 15 1030 62 10000 1.5 0 16:38 17.03.2020
6484 Clouds 15 1030 58 10000 0.5 0 16:18 17.03.2020
6485 Clouds 14 1031 62 10000 1 0 15:43 17.03.2020
6486 Clouds 14 1031 62 10000 1 0 15:21 17.03.2020
6487 Clouds 14 1031 62 10000 1 0 14:43 17.03.2020
6488 Clouds 13 1031 66 10000 1.5 0 14:21 17.03.2020
6489 Clouds 13 1032 62 10000 1.5 0 13:46 17.03.2020
6490 Clouds 13 1032 62 10000 1.5 0 13:28 17.03.2020
6491 Clouds 13 1032 62 10000 0.5 0 12:59 17.03.2020
6492 Clouds 12 1032 62 10000 1 0 12:40 17.03.2020
6493 Clouds 12 1032 66 10000 1 0 12:22 17.03.2020
6494 Clouds 11 1032 62 10000 1.5 0 11:47 17.03.2020
6495 Clouds 11 1031 76 8000 0.5 0 11:29 17.03.2020
6496 Clouds 10 1031 66 10000 1.5 340 10:58 17.03.2020
6497 Clouds 10 1031 66 10000 1.5 340 10:39 17.03.2020
6498 Clouds 10 1031 71 10000 2.1 10 10:21 17.03.2020
6499 Clouds 10 1031 71 10000 2.1 10 09:59 17.03.2020
6500 Clouds 9 1031 76 10000 1 0 09:40 17.03.2020
6501 Clouds 9 1031 76 10000 1 0 09:19 17.03.2020
6502 Clouds 8 1030 81 10000 1 140 08:48 17.03.2020
6503 Clouds 8 1030 81 10000 1 20 08:23 17.03.2020
6504 Clouds 8 1030 81 10000 1 20 07:56 17.03.2020
6505 Clouds 8 1030 75 10000 1.5 360 07:38 17.03.2020
6506 Clouds 8 1030 81 10000 2.1 350 07:19 17.03.2020
6507 Clouds 8 1029 87 6000 0.5 150 06:38 17.03.2020
6508 Clouds 8 1029 87 6000 1.19 26 05:58 17.03.2020
6509 Clouds 8 1028 75 10000 2.1 150 03:56 17.03.2020
6510 Clouds 8 1028 87 10000 2.1 350 02:54 17.03.2020
6511 Clouds 9 1028 81 10000 1 0 01:49 17.03.2020
6512 Clouds 9 1028 81 10000 1 0 01:25 17.03.2020
6513 Clouds 9 1027 76 10000 1.5 340 00:47 17.03.2020
6514 Clouds 9 1027 81 10000 1.5 320 23:50 16.03.2020
6515 Clouds 9 1027 81 10000 1.5 320 23:32 16.03.2020
6516 Clouds 9 1026 81 10000 0.5 320 22:43 16.03.2020
6517 Clouds 9 1026 81 10000 0.5 320 22:25 16.03.2020
6518 Clouds 9 1026 81 10000 0.5 0 21:59 16.03.2020
6519 Clouds 9 1026 81 10000 0.5 80 21:40 16.03.2020
6520 Clouds 10 1026 81 10000 1 100 21:22 16.03.2020
6521 Clouds 10 1026 81 10000 1 100 20:56 16.03.2020
6522 Clouds 10 1025 81 10000 0.52 297 20:38 16.03.2020
6523 Rain 10 1025 81 10000 1.21 334 20:19 16.03.2020
6524 Rain 10 1024 81 10000 1 350 19:41 16.03.2020
6525 Rain 10 1024 81 10000 1.5 0 19:21 16.03.2020
6526 Rain 10 1024 81 10000 1.5 0 18:56 16.03.2020
6527 Rain 11 1023 76 10000 2.1 350 18:37 16.03.2020
6528 Clouds 11 1024 76 10000 2.1 350 18:18 16.03.2020
6529 Clouds 11 1023 76 10000 2.1 340 17:42 16.03.2020
6530 Clouds 11 1023 76 10000 2.1 330 17:22 16.03.2020
6531 Rain 11 1023 76 10000 1.5 340 16:46 16.03.2020
6532 Rain 11 1023 76 10000 1.5 340 16:28 16.03.2020
6533 Clouds 11 1022 76 10000 2.1 350 15:57 16.03.2020
6534 Clouds 11 1022 76 10000 2.1 350 15:39 16.03.2020
6535 Rain 11 1022 76 10000 3.1 330 15:19 16.03.2020
6536 Clouds 11 1021 76 10000 2.6 310 14:43 16.03.2020
6537 Rain 11 1021 76 10000 1.5 340 14:19 16.03.2020
6538 Rain 10 1021 81 10000 1.5 360 13:42 16.03.2020
6539 Rain 10 1021 81 10000 1.5 360 13:24 16.03.2020
6540 Clouds 10 1021 81 10000 2.1 340 12:55 16.03.2020
6541 Clouds 10 1021 81 10000 2.1 340 12:36 16.03.2020
6542 Rain 10 1020 76 10000 3.1 340 12:18 16.03.2020
6543 Clouds 10 1020 76 10000 3.1 350 11:41 16.03.2020
6544 Clouds 9 1020 87 10000 2.6 10 11:19 16.03.2020
6545 Clouds 9 1019 87 10000 3.6 340 10:43 16.03.2020
6546 Clouds 9 1019 87 10000 3.6 360 10:24 16.03.2020
6547 Clouds 8 1019 87 10000 3.1 350 09:46 16.03.2020
6548 Clouds 8 1018 87 10000 2.1 350 09:28 16.03.2020
6549 Clouds 8 1018 87 10000 2.1 350 08:58 16.03.2020
6550 Clouds 7 1017 87 10000 2.6 300 08:26 16.03.2020
6551 Clouds 7 1017 87 10000 2.6 300 07:56 16.03.2020
6552 Clouds 7 1017 87 10000 2.1 330 07:38 16.03.2020
6553 Rain 7 1016 87 10000 1.5 0 07:18 16.03.2020
6554 Rain 7 1016 87 10000 2.6 320 06:27 16.03.2020
6555 Clouds 7 1015 87 10000 2.6 350 05:54 16.03.2020
6556 Clouds 6 1014 87 10000 0.9 356 03:31 16.03.2020
6557 Clouds 8 1012 81 10000 0.5 330 01:29 16.03.2020
6558 Clouds 8 1012 75 10000 0.5 0 00:43 16.03.2020
6559 Clouds 8 1012 76 10000 2.1 330 23:49 15.03.2020
6560 Clouds 8 1012 76 10000 1 0 23:23 15.03.2020
6561 Clouds 9 1011 71 10000 2.1 340 22:58 15.03.2020
6562 Clouds 9 1011 71 10000 2.1 340 22:38 15.03.2020
6563 Clouds 9 1011 71 10000 1.5 10 22:20 15.03.2020
6564 Clouds 10 1011 58 10000 1.5 330 21:39 15.03.2020
6565 Clouds 10 1011 58 10000 1.5 330 21:20 15.03.2020
6566 Clouds 11 1011 58 10000 1.53 260 20:55 15.03.2020
6567 Clouds 11 1011 58 10000 0.5 170 20:36 15.03.2020
6568 Clouds 12 1010 54 10000 2.6 160 20:18 15.03.2020
6569 Clouds 13 1010 50 10000 3.1 170 19:42 15.03.2020
6570 Clouds 14 1010 51 10000 4.6 160 19:24 15.03.2020
6571 Clouds 14 1010 51 10000 4.6 160 18:59 15.03.2020
6572 Clouds 15 1010 48 10000 4.6 170 18:40 15.03.2020
6573 Clouds 15 1010 48 10000 4.6 180 18:21 15.03.2020
6574 Clouds 16 1010 48 10000 4.6 180 17:57 15.03.2020
6575 Clouds 16 1010 48 10000 6.2 170 17:38 15.03.2020
6576 Clouds 16 1010 48 10000 6.2 180 17:18 15.03.2020
6577 Clouds 16 1010 51 10000 5.7 160 16:43 15.03.2020
6578 Clouds 16 1010 51 10000 5.7 160 16:25 15.03.2020
6579 Clouds 16 1011 51 10000 6.2 180 15:59 15.03.2020
6580 Clouds 16 1011 51 10000 6.2 180 15:41 15.03.2020
6581 Clouds 16 1011 54 10000 7.2 170 15:20 15.03.2020
6582 Clouds 15 1012 54 10000 7.7 170 14:46 15.03.2020
6583 Clouds 15 1012 54 10000 7.7 170 14:25 15.03.2020
6584 Clouds 15 1012 58 10000 6.7 190 13:59 15.03.2020
6585 Clouds 14 1012 58 10000 5.7 190 13:38 15.03.2020
6586 Clouds 14 1012 58 10000 5.7 190 13:20 15.03.2020
6587 Clouds 13 1014 66 10000 5.1 170 12:44 15.03.2020
6588 Clouds 13 1014 66 10000 5.1 170 12:26 15.03.2020
6589 Clouds 12 1014 76 10000 5.1 210 11:59 15.03.2020
6590 Clouds 12 1014 76 10000 5.1 210 11:40 15.03.2020
6591 Clouds 10 1014 76 10000 7.2 190 11:22 15.03.2020
6592 Clouds 10 1015 81 10000 6.2 160 10:56 15.03.2020
6593 Clouds 10 1015 81 10000 6.2 160 10:37 15.03.2020
6594 Clouds 10 1015 76 10000 5.7 170 10:18 15.03.2020
6595 Clouds 9 1015 76 10000 4.6 170 09:40 15.03.2020
6596 Clouds 9 1015 71 10000 5.1 190 09:22 15.03.2020
6597 Clouds 9 1015 81 10000 4.1 180 08:44 15.03.2020
6598 Clouds 8 1015 81 10000 4.6 170 08:21 15.03.2020
6599 Clouds 8 1015 81 10000 4.6 170 07:51 15.03.2020
6600 Clouds 8 1015 81 10000 4.1 180 07:32 15.03.2020
6601 Clouds 8 1015 87 10000 4.1 180 06:53 15.03.2020
6602 Clouds 8 1015 87 10000 3.1 160 06:24 15.03.2020
6603 Clouds 7 1016 93 10000 3.1 180 05:21 15.03.2020
6604 Clouds 7 1016 87 10000 4.1 160 04:43 15.03.2020
6605 Clouds 7 1016 87 10000 4.1 160 04:25 15.03.2020
6606 Clouds 7 1016 93 10000 3.6 170 03:54 15.03.2020
6607 Clouds 7 1017 93 10000 2.6 160 02:47 15.03.2020
6608 Clouds 7 1017 93 10000 3.6 160 01:40 15.03.2020
6609 Clouds 8 1018 87 10000 2.6 150 00:47 15.03.2020
6610 Clouds 8 1018 87 10000 2.6 150 00:27 15.03.2020
6611 Clouds 8 1018 87 10000 3.1 180 23:58 14.03.2020
6612 Clouds 8 1018 87 10000 3.6 170 23:37 14.03.2020
6613 Clouds 8 1018 81 10000 4.6 180 23:18 14.03.2020
6614 Clouds 9 1018 87 10000 4.1 180 22:44 14.03.2020
6615 Clouds 9 1018 87 10000 4.1 180 22:26 14.03.2020
6616 Clouds 9 1018 87 10000 2.6 210 21:57 14.03.2020
6617 Clouds 9 1019 87 10000 3.1 180 21:37 14.03.2020
6618 Clouds 10 1019 81 10000 3.6 160 21:19 14.03.2020
6619 Clouds 10 1019 81 10000 3.6 160 21:19 14.03.2020
6620 Clouds 10 1019 81 10000 3.6 160 20:59 14.03.2020
6621 Clouds 10 1019 81 10000 2.1 160 20:41 14.03.2020
6622 Rain 10 1019 81 10000 2.1 170 20:20 14.03.2020
6623 Rain 10 1019 81 10000 2.1 170 19:59 14.03.2020
6624 Rain 10 1018 81 10000 2.6 180 19:40 14.03.2020
6625 Clouds 10 1018 81 10000 3.6 180 19:20 14.03.2020
6626 Rain 11 1018 81 10000 2.1 200 18:39 14.03.2020
6627 Clouds 11 1019 81 10000 5.1 190 18:20 14.03.2020
6628 Clouds 11 1018 81 10000 4.6 190 17:41 14.03.2020
6629 Rain 11 1018 76 10000 5.1 210 17:21 14.03.2020
6630 Rain 11 1018 76 10000 5.1 210 16:58 14.03.2020
6631 Clouds 11 1018 76 10000 5.7 190 16:38 14.03.2020
6632 Rain 11 1018 81 10000 5.1 200 16:18 14.03.2020
6633 Clouds 11 1018 76 10000 5.1 200 15:28 14.03.2020
6634 Clouds 11 1019 81 10000 5.7 200 14:59 14.03.2020
6635 Clouds 11 1019 76 10000 4.6 210 14:59 14.03.2020
6636 Clouds 11 1019 81 10000 5.7 200 14:39 14.03.2020
6637 Clouds 10 1019 76 10000 5.1 220 14:20 14.03.2020
6638 Clouds 10 1019 76 10000 5.1 220 13:57 14.03.2020
6639 Clouds 10 1019 76 10000 6.7 190 13:38 14.03.2020
6640 Rain 10 1019 76 10000 5.7 180 13:19 14.03.2020
6641 Clouds 9 1019 71 10000 6.2 180 12:44 14.03.2020
6642 Clouds 9 1019 71 10000 6.2 180 12:25 14.03.2020
6643 Rain 9 1020 70 10000 5.7 170 11:46 14.03.2020
6644 Rain 9 1020 70 10000 5.7 170 11:26 14.03.2020
6645 Rain 8 1020 75 10000 5.7 160 10:57 14.03.2020
6646 Rain 8 1020 75 10000 5.7 160 10:39 14.03.2020
6647 Rain 8 1020 81 9000 5.1 160 10:20 14.03.2020
6648 Rain 7 1020 81 10000 4.1 160 09:41 14.03.2020
6649 Clouds 7 1020 81 10000 5.1 160 09:22 14.03.2020
6650 Drizzle 7 1020 81 10000 3.6 160 08:47 14.03.2020
6651 Drizzle 6 1020 81 10000 3.6 160 08:27 14.03.2020
6652 Clouds 6 1020 75 10000 3.6 160 07:49 14.03.2020
6653 Clouds 6 1020 75 10000 3.6 160 07:23 14.03.2020
6654 Clouds 6 1019 75 10000 4.1 160 06:59 14.03.2020
6655 Clouds 6 1020 75 10000 3.1 140 06:39 14.03.2020
6656 Clouds 6 1019 81 10000 2.1 190 05:19 14.03.2020
6657 Clouds 6 1020 87 10000 1.5 90 03:43 14.03.2020
6658 Clouds 6 1021 81 10000 2.1 80 03:23 14.03.2020
6659 Clouds 7 1021 75 10000 1.5 50 02:22 14.03.2020
6660 Clouds 7 1021 57 10000 2.6 240 00:44 14.03.2020
6661 Clouds 7 1021 57 10000 2.6 210 23:46 13.03.2020
6662 Clouds 7 1021 57 10000 2.6 210 23:27 13.03.2020
6663 Rain 7 1021 57 10000 2.6 220 22:49 13.03.2020
6664 Rain 7 1021 57 10000 2.6 220 22:26 13.03.2020
6665 Rain 7 1021 65 10000 2.6 220 21:44 13.03.2020
6666 Rain 7 1021 53 10000 2.6 250 21:22 13.03.2020
6667 Rain 8 1021 53 10000 2.6 250 20:59 13.03.2020
6668 Rain 8 1021 53 10000 1.5 250 20:40 13.03.2020
6669 Rain 8 1021 56 10000 2.1 240 20:20 13.03.2020
6670 Rain 9 1021 57 10000 1.5 0 19:48 13.03.2020
6671 Rain 9 1021 61 10000 2.1 250 19:30 13.03.2020
6672 Rain 11 1021 61 10000 3.6 250 18:49 13.03.2020
6673 Rain 11 1021 61 10000 3.6 250 18:31 13.03.2020
6674 Rain 11 1021 61 10000 3.6 270 17:57 13.03.2020
6675 Rain 11 1022 61 10000 3.6 280 17:39 13.03.2020
6676 Clouds 11 1022 50 10000 3.1 230 17:20 13.03.2020
6677 Rain 12 1022 45 10000 4.6 230 16:42 13.03.2020
6678 Rain 12 1022 45 10000 4.6 230 16:24 13.03.2020
6679 Rain 12 1022 43 10000 3.6 250 15:58 13.03.2020
6680 Rain 12 1022 43 10000 4.6 250 15:38 13.03.2020
6681 Clouds 12 1022 46 10000 3.6 270 15:20 13.03.2020
6682 Clouds 12 1023 50 10000 4.6 260 14:43 13.03.2020
6683 Clouds 12 1023 50 10000 4.6 260 14:22 13.03.2020
6684 Clouds 12 1023 50 10000 4.1 280 13:58 13.03.2020
6685 Clouds 11 1023 53 10000 4.6 250 13:39 13.03.2020
6686 Clouds 11 1023 57 10000 4.6 260 13:20 13.03.2020
6687 Clouds 11 1023 57 10000 4.6 260 12:55 13.03.2020
6688 Clouds 10 1023 57 10000 4.6 250 12:36 13.03.2020
6689 Clouds 10 1023 61 10000 5.1 260 12:18 13.03.2020
6690 Clouds